<?xml version="1.0" encoding="UTF-8"?><gpx xmlns="http://www.topografix.com/GPX/1/1" version="1.1" creator="iOrient"><trk><name>GreatWalk. Извилистая река</name><trkseg><trkpt lat="55.9164183" lon="49.1735333"><time>2023-06-03T06:07:00.757</time></trkpt><trkpt lat="55.9164200" lon="49.1735300"><time>2023-06-03T06:07:02.107</time></trkpt><trkpt lat="55.9163900" lon="49.1734700"><time>2023-06-03T06:07:28.723</time></trkpt><trkpt lat="55.9163217" lon="49.1734550"><time>2023-06-03T06:07:30.720</time></trkpt><trkpt lat="55.9162683" lon="49.1734233"><time>2023-06-03T06:07:32.720</time></trkpt><trkpt lat="55.9162233" lon="49.1733733"><time>2023-06-03T06:07:34.720</time></trkpt><trkpt lat="55.9161650" lon="49.1733917"><time>2023-06-03T06:07:37.727</time></trkpt><trkpt lat="55.9161667" lon="49.1734833"><time>2023-06-03T06:07:41.723</time></trkpt><trkpt lat="55.9161983" lon="49.1735783"><time>2023-06-03T06:07:44.727</time></trkpt><trkpt lat="55.9162200" lon="49.1736517"><time>2023-06-03T06:07:46.727</time></trkpt><trkpt lat="55.9162417" lon="49.1737333"><time>2023-06-03T06:07:48.730</time></trkpt><trkpt lat="55.9162717" lon="49.1737983"><time>2023-06-03T06:07:50.730</time></trkpt><trkpt lat="55.9163200" lon="49.1738817"><time>2023-06-03T06:07:53.723</time></trkpt><trkpt lat="55.9163550" lon="49.1739617"><time>2023-06-03T06:07:56.730</time></trkpt><trkpt lat="55.9164000" lon="49.1740500"><time>2023-06-03T06:07:59.727</time></trkpt><trkpt lat="55.9164467" lon="49.1741117"><time>2023-06-03T06:08:02.730</time></trkpt><trkpt lat="55.9164750" lon="49.1741900"><time>2023-06-03T06:08:05.733</time></trkpt><trkpt lat="55.9165083" lon="49.1742783"><time>2023-06-03T06:08:08.743</time></trkpt><trkpt lat="55.9165100" lon="49.1742817"><time>2023-06-03T06:08:12.233</time></trkpt><trkpt lat="55.9165350" lon="49.1743733"><time>2023-06-03T06:08:16.717</time></trkpt><trkpt lat="55.9165417" lon="49.1744850"><time>2023-06-03T06:08:18.723</time></trkpt><trkpt lat="55.9165550" lon="49.1745783"><time>2023-06-03T06:08:20.720</time></trkpt><trkpt lat="55.9165833" lon="49.1746867"><time>2023-06-03T06:08:22.723</time></trkpt><trkpt lat="55.9166033" lon="49.1747950"><time>2023-06-03T06:08:24.717</time></trkpt><trkpt lat="55.9166217" lon="49.1748917"><time>2023-06-03T06:08:26.717</time></trkpt><trkpt lat="55.9166367" lon="49.1749783"><time>2023-06-03T06:08:28.723</time></trkpt><trkpt lat="55.9166533" lon="49.1750817"><time>2023-06-03T06:08:32.730</time></trkpt><trkpt lat="55.9166533" lon="49.1750833"><time>2023-06-03T06:08:35.713</time></trkpt><trkpt lat="55.9166467" lon="49.1751817"><time>2023-06-03T06:08:38.717</time></trkpt><trkpt lat="55.9166267" lon="49.1752917"><time>2023-06-03T06:08:40.710</time></trkpt><trkpt lat="55.9166583" lon="49.1754083"><time>2023-06-03T06:08:42.717</time></trkpt><trkpt lat="55.9166650" lon="49.1754900"><time>2023-06-03T06:08:44.720</time></trkpt><trkpt lat="55.9167017" lon="49.1755817"><time>2023-06-03T06:08:45.720</time></trkpt><trkpt lat="55.9167150" lon="49.1756783"><time>2023-06-03T06:08:47.720</time></trkpt><trkpt lat="55.9167367" lon="49.1758017"><time>2023-06-03T06:08:50.723</time></trkpt><trkpt lat="55.9167417" lon="49.1758850"><time>2023-06-03T06:08:52.720</time></trkpt><trkpt lat="55.9167683" lon="49.1760200"><time>2023-06-03T06:08:54.720</time></trkpt><trkpt lat="55.9167700" lon="49.1761067"><time>2023-06-03T06:08:56.720</time></trkpt><trkpt lat="55.9167633" lon="49.1762100"><time>2023-06-03T06:08:59.723</time></trkpt><trkpt lat="55.9167700" lon="49.1762950"><time>2023-06-03T06:09:01.723</time></trkpt><trkpt lat="55.9167800" lon="49.1764033"><time>2023-06-03T06:09:05.717</time></trkpt><trkpt lat="55.9168033" lon="49.1764967"><time>2023-06-03T06:09:09.723</time></trkpt><trkpt lat="55.9168367" lon="49.1765600"><time>2023-06-03T06:09:11.730</time></trkpt><trkpt lat="55.9168350" lon="49.1765683"><time>2023-06-03T06:09:14.707</time></trkpt><trkpt lat="55.9168417" lon="49.1766633"><time>2023-06-03T06:09:16.683</time></trkpt><trkpt lat="55.9168900" lon="49.1767650"><time>2023-06-03T06:09:18.717</time></trkpt><trkpt lat="55.9169367" lon="49.1768550"><time>2023-06-03T06:09:20.697</time></trkpt><trkpt lat="55.9169700" lon="49.1769233"><time>2023-06-03T06:09:24.720</time></trkpt><trkpt lat="55.9169917" lon="49.1770317"><time>2023-06-03T06:09:26.717</time></trkpt><trkpt lat="55.9170167" lon="49.1771550"><time>2023-06-03T06:09:28.720</time></trkpt><trkpt lat="55.9170633" lon="49.1772400"><time>2023-06-03T06:09:30.710</time></trkpt><trkpt lat="55.9171133" lon="49.1773267"><time>2023-06-03T06:09:32.710</time></trkpt><trkpt lat="55.9171317" lon="49.1774133"><time>2023-06-03T06:09:34.713</time></trkpt><trkpt lat="55.9171600" lon="49.1774917"><time>2023-06-03T06:09:36.713</time></trkpt><trkpt lat="55.9171683" lon="49.1775733"><time>2023-06-03T06:09:38.717</time></trkpt><trkpt lat="55.9171867" lon="49.1776700"><time>2023-06-03T06:09:43.723</time></trkpt><trkpt lat="55.9172050" lon="49.1777600"><time>2023-06-03T06:09:46.717</time></trkpt><trkpt lat="55.9171867" lon="49.1778600"><time>2023-06-03T06:09:50.727</time></trkpt><trkpt lat="55.9171683" lon="49.1779450"><time>2023-06-03T06:09:52.720</time></trkpt><trkpt lat="55.9171217" lon="49.1780000"><time>2023-06-03T06:09:54.727</time></trkpt><trkpt lat="55.9170783" lon="49.1780517"><time>2023-06-03T06:09:56.727</time></trkpt><trkpt lat="55.9170200" lon="49.1781150"><time>2023-06-03T06:09:58.717</time></trkpt><trkpt lat="55.9169767" lon="49.1781417"><time>2023-06-03T06:10:00.717</time></trkpt><trkpt lat="55.9169367" lon="49.1782067"><time>2023-06-03T06:10:04.720</time></trkpt><trkpt lat="55.9168983" lon="49.1782483"><time>2023-06-03T06:10:07.723</time></trkpt><trkpt lat="55.9168933" lon="49.1783300"><time>2023-06-03T06:10:11.723</time></trkpt><trkpt lat="55.9168800" lon="49.1784600"><time>2023-06-03T06:10:15.720</time></trkpt><trkpt lat="55.9168667" lon="49.1785783"><time>2023-06-03T06:10:17.727</time></trkpt><trkpt lat="55.9168433" lon="49.1786717"><time>2023-06-03T06:10:20.720</time></trkpt><trkpt lat="55.9168350" lon="49.1787683"><time>2023-06-03T06:10:22.727</time></trkpt><trkpt lat="55.9168267" lon="49.1788500"><time>2023-06-03T06:10:23.720</time></trkpt><trkpt lat="55.9168183" lon="49.1789300"><time>2023-06-03T06:10:25.723</time></trkpt><trkpt lat="55.9167900" lon="49.1790200"><time>2023-06-03T06:10:28.727</time></trkpt><trkpt lat="55.9167583" lon="49.1791117"><time>2023-06-03T06:10:31.720</time></trkpt><trkpt lat="55.9167550" lon="49.1791967"><time>2023-06-03T06:10:32.723</time></trkpt><trkpt lat="55.9167433" lon="49.1792817"><time>2023-06-03T06:10:33.727</time></trkpt><trkpt lat="55.9167300" lon="49.1793850"><time>2023-06-03T06:10:35.723</time></trkpt><trkpt lat="55.9167183" lon="49.1794850"><time>2023-06-03T06:10:37.720</time></trkpt><trkpt lat="55.9166883" lon="49.1795750"><time>2023-06-03T06:10:39.723</time></trkpt><trkpt lat="55.9166400" lon="49.1796683"><time>2023-06-03T06:10:41.723</time></trkpt><trkpt lat="55.9166150" lon="49.1797433"><time>2023-06-03T06:10:43.727</time></trkpt><trkpt lat="55.9165983" lon="49.1798517"><time>2023-06-03T06:10:45.727</time></trkpt><trkpt lat="55.9165700" lon="49.1799817"><time>2023-06-03T06:10:48.730</time></trkpt><trkpt lat="55.9165483" lon="49.1801117"><time>2023-06-03T06:10:50.730</time></trkpt><trkpt lat="55.9165233" lon="49.1802050"><time>2023-06-03T06:10:52.730</time></trkpt><trkpt lat="55.9165150" lon="49.1803133"><time>2023-06-03T06:10:54.733</time></trkpt><trkpt lat="55.9164950" lon="49.1803983"><time>2023-06-03T06:10:56.730</time></trkpt><trkpt lat="55.9164667" lon="49.1804867"><time>2023-06-03T06:10:59.727</time></trkpt><trkpt lat="55.9164383" lon="49.1805650"><time>2023-06-03T06:11:01.730</time></trkpt><trkpt lat="55.9164017" lon="49.1806833"><time>2023-06-03T06:11:04.733</time></trkpt><trkpt lat="55.9164017" lon="49.1807683"><time>2023-06-03T06:11:07.720</time></trkpt><trkpt lat="55.9164050" lon="49.1808600"><time>2023-06-03T06:11:10.727</time></trkpt><trkpt lat="55.9164050" lon="49.1809500"><time>2023-06-03T06:11:13.730</time></trkpt><trkpt lat="55.9163867" lon="49.1810367"><time>2023-06-03T06:11:15.730</time></trkpt><trkpt lat="55.9163500" lon="49.1811100"><time>2023-06-03T06:11:18.727</time></trkpt><trkpt lat="55.9163317" lon="49.1811917"><time>2023-06-03T06:11:20.727</time></trkpt><trkpt lat="55.9162967" lon="49.1813200"><time>2023-06-03T06:11:22.733</time></trkpt><trkpt lat="55.9162783" lon="49.1813950"><time>2023-06-03T06:11:24.733</time></trkpt><trkpt lat="55.9162617" lon="49.1814850"><time>2023-06-03T06:11:26.730</time></trkpt><trkpt lat="55.9162450" lon="49.1815650"><time>2023-06-03T06:11:28.730</time></trkpt><trkpt lat="55.9162283" lon="49.1816550"><time>2023-06-03T06:11:31.720</time></trkpt><trkpt lat="55.9162167" lon="49.1817717"><time>2023-06-03T06:11:34.730</time></trkpt><trkpt lat="55.9161617" lon="49.1818567"><time>2023-06-03T06:11:35.730</time></trkpt><trkpt lat="55.9161217" lon="49.1819267"><time>2023-06-03T06:11:36.730</time></trkpt><trkpt lat="55.9161017" lon="49.1819983"><time>2023-06-03T06:11:37.730</time></trkpt><trkpt lat="55.9160817" lon="49.1820700"><time>2023-06-03T06:11:38.727</time></trkpt><trkpt lat="55.9160533" lon="49.1821883"><time>2023-06-03T06:11:40.733</time></trkpt><trkpt lat="55.9160267" lon="49.1823050"><time>2023-06-03T06:11:43.727</time></trkpt><trkpt lat="55.9160133" lon="49.1823867"><time>2023-06-03T06:11:45.730</time></trkpt><trkpt lat="55.9159750" lon="49.1824667"><time>2023-06-03T06:11:47.723</time></trkpt><trkpt lat="55.9159600" lon="49.1825433"><time>2023-06-03T06:11:51.730</time></trkpt><trkpt lat="55.9159383" lon="49.1826200"><time>2023-06-03T06:11:55.727</time></trkpt><trkpt lat="55.9159083" lon="49.1826800"><time>2023-06-03T06:11:59.727</time></trkpt><trkpt lat="55.9158717" lon="49.1827267"><time>2023-06-03T06:12:06.720</time></trkpt><trkpt lat="55.9157750" lon="49.1827517"><time>2023-06-03T06:12:19.727</time></trkpt><trkpt lat="55.9157267" lon="49.1827933"><time>2023-06-03T06:12:38.730</time></trkpt><trkpt lat="55.9157567" lon="49.1828567"><time>2023-06-03T06:12:51.727</time></trkpt><trkpt lat="55.9157550" lon="49.1829433"><time>2023-06-03T06:12:54.713</time></trkpt><trkpt lat="55.9157200" lon="49.1830183"><time>2023-06-03T06:12:56.727</time></trkpt><trkpt lat="55.9156850" lon="49.1830983"><time>2023-06-03T06:13:00.730</time></trkpt><trkpt lat="55.9156717" lon="49.1832133"><time>2023-06-03T06:13:03.727</time></trkpt><trkpt lat="55.9156400" lon="49.1833267"><time>2023-06-03T06:13:05.727</time></trkpt><trkpt lat="55.9156133" lon="49.1834317"><time>2023-06-03T06:13:07.723</time></trkpt><trkpt lat="55.9155867" lon="49.1835183"><time>2023-06-03T06:13:09.743</time></trkpt><trkpt lat="55.9155733" lon="49.1835983"><time>2023-06-03T06:13:12.727</time></trkpt><trkpt lat="55.9156117" lon="49.1836483"><time>2023-06-03T06:13:22.723</time></trkpt><trkpt lat="55.9156033" lon="49.1837317"><time>2023-06-03T06:13:29.727</time></trkpt><trkpt lat="55.9155867" lon="49.1838367"><time>2023-06-03T06:13:32.727</time></trkpt><trkpt lat="55.9155633" lon="49.1839350"><time>2023-06-03T06:13:34.723</time></trkpt><trkpt lat="55.9155533" lon="49.1840467"><time>2023-06-03T06:13:37.723</time></trkpt><trkpt lat="55.9155450" lon="49.1841417"><time>2023-06-03T06:13:49.727</time></trkpt><trkpt lat="55.9155683" lon="49.1842533"><time>2023-06-03T06:13:52.730</time></trkpt><trkpt lat="55.9156033" lon="49.1843483"><time>2023-06-03T06:13:54.727</time></trkpt><trkpt lat="55.9156217" lon="49.1844450"><time>2023-06-03T06:13:56.727</time></trkpt><trkpt lat="55.9156333" lon="49.1845550"><time>2023-06-03T06:13:59.727</time></trkpt><trkpt lat="55.9156500" lon="49.1846483"><time>2023-06-03T06:14:02.727</time></trkpt><trkpt lat="55.9156833" lon="49.1847583"><time>2023-06-03T06:14:06.730</time></trkpt><trkpt lat="55.9157000" lon="49.1848517"><time>2023-06-03T06:14:09.727</time></trkpt><trkpt lat="55.9156783" lon="49.1849450"><time>2023-06-03T06:14:13.727</time></trkpt><trkpt lat="55.9156483" lon="49.1850200"><time>2023-06-03T06:14:16.727</time></trkpt><trkpt lat="55.9156300" lon="49.1851133"><time>2023-06-03T06:14:19.727</time></trkpt><trkpt lat="55.9156217" lon="49.1852000"><time>2023-06-03T06:14:21.730</time></trkpt><trkpt lat="55.9156117" lon="49.1852950"><time>2023-06-03T06:14:25.723</time></trkpt><trkpt lat="55.9155833" lon="49.1853817"><time>2023-06-03T06:14:28.730</time></trkpt><trkpt lat="55.9155800" lon="49.1854783"><time>2023-06-03T06:14:31.730</time></trkpt><trkpt lat="55.9155917" lon="49.1855567"><time>2023-06-03T06:14:33.727</time></trkpt><trkpt lat="55.9155883" lon="49.1856383"><time>2023-06-03T06:14:35.730</time></trkpt><trkpt lat="55.9155800" lon="49.1857250"><time>2023-06-03T06:14:37.717</time></trkpt><trkpt lat="55.9155633" lon="49.1858100"><time>2023-06-03T06:14:39.727</time></trkpt><trkpt lat="55.9155533" lon="49.1859017"><time>2023-06-03T06:14:41.727</time></trkpt><trkpt lat="55.9155283" lon="49.1860117"><time>2023-06-03T06:14:43.727</time></trkpt><trkpt lat="55.9154917" lon="49.1861267"><time>2023-06-03T06:14:45.727</time></trkpt><trkpt lat="55.9154600" lon="49.1862200"><time>2023-06-03T06:14:47.733</time></trkpt><trkpt lat="55.9154333" lon="49.1863150"><time>2023-06-03T06:14:49.727</time></trkpt><trkpt lat="55.9154150" lon="49.1864300"><time>2023-06-03T06:14:51.737</time></trkpt><trkpt lat="55.9154167" lon="49.1864367"><time>2023-06-03T06:14:54.730</time></trkpt><trkpt lat="55.9154350" lon="49.1865133"><time>2023-06-03T06:14:56.720</time></trkpt><trkpt lat="55.9154533" lon="49.1865917"><time>2023-06-03T06:14:59.720</time></trkpt><trkpt lat="55.9154683" lon="49.1866800"><time>2023-06-03T06:15:02.727</time></trkpt><trkpt lat="55.9154883" lon="49.1867767"><time>2023-06-03T06:15:05.723</time></trkpt><trkpt lat="55.9154950" lon="49.1868733"><time>2023-06-03T06:15:09.723</time></trkpt><trkpt lat="55.9155250" lon="49.1869400"><time>2023-06-03T06:15:11.723</time></trkpt><trkpt lat="55.9155467" lon="49.1870183"><time>2023-06-03T06:15:14.720</time></trkpt><trkpt lat="55.9155700" lon="49.1871217"><time>2023-06-03T06:15:17.723</time></trkpt><trkpt lat="55.9155917" lon="49.1872133"><time>2023-06-03T06:15:20.720</time></trkpt><trkpt lat="55.9156083" lon="49.1872950"><time>2023-06-03T06:15:23.720</time></trkpt><trkpt lat="55.9156183" lon="49.1873833"><time>2023-06-03T06:15:26.717</time></trkpt><trkpt lat="55.9156417" lon="49.1874717"><time>2023-06-03T06:15:30.680</time></trkpt><trkpt lat="55.9156650" lon="49.1875483"><time>2023-06-03T06:15:34.717</time></trkpt><trkpt lat="55.9156533" lon="49.1876383"><time>2023-06-03T06:15:35.703</time></trkpt><trkpt lat="55.9156617" lon="49.1877233"><time>2023-06-03T06:15:39.670</time></trkpt><trkpt lat="55.9157150" lon="49.1877467"><time>2023-06-03T06:15:51.707</time></trkpt><trkpt lat="55.9157317" lon="49.1878267"><time>2023-06-03T06:15:58.717</time></trkpt><trkpt lat="55.9156917" lon="49.1878700"><time>2023-06-03T06:16:11.707</time></trkpt><trkpt lat="55.9157000" lon="49.1879617"><time>2023-06-03T06:16:14.743</time></trkpt><trkpt lat="55.9156950" lon="49.1880067"><time>2023-06-03T06:16:15.727</time></trkpt><trkpt lat="55.9156967" lon="49.1880933"><time>2023-06-03T06:16:17.733</time></trkpt><trkpt lat="55.9156983" lon="49.1881733"><time>2023-06-03T06:16:19.737</time></trkpt><trkpt lat="55.9157267" lon="49.1882667"><time>2023-06-03T06:16:23.747</time></trkpt><trkpt lat="55.9157550" lon="49.1883450"><time>2023-06-03T06:16:25.740</time></trkpt><trkpt lat="55.9157917" lon="49.1884617"><time>2023-06-03T06:16:27.743</time></trkpt><trkpt lat="55.9158333" lon="49.1885667"><time>2023-06-03T06:16:29.740</time></trkpt><trkpt lat="55.9158717" lon="49.1886533"><time>2023-06-03T06:16:31.747</time></trkpt><trkpt lat="55.9158933" lon="49.1886817"><time>2023-06-03T06:16:32.747</time></trkpt><trkpt lat="55.9159417" lon="49.1887383"><time>2023-06-03T06:16:34.753</time></trkpt><trkpt lat="55.9159850" lon="49.1887983"><time>2023-06-03T06:16:36.747</time></trkpt><trkpt lat="55.9160117" lon="49.1888683"><time>2023-06-03T06:16:38.750</time></trkpt><trkpt lat="55.9160250" lon="49.1889500"><time>2023-06-03T06:16:44.753</time></trkpt><trkpt lat="55.9159967" lon="49.1890483"><time>2023-06-03T06:16:51.747</time></trkpt><trkpt lat="55.9159817" lon="49.1891417"><time>2023-06-03T06:16:53.743</time></trkpt><trkpt lat="55.9159550" lon="49.1892217"><time>2023-06-03T06:16:55.753</time></trkpt><trkpt lat="55.9159150" lon="49.1892967"><time>2023-06-03T06:16:57.743</time></trkpt><trkpt lat="55.9158800" lon="49.1893750"><time>2023-06-03T06:16:59.747</time></trkpt><trkpt lat="55.9158500" lon="49.1894467"><time>2023-06-03T06:17:01.743</time></trkpt><trkpt lat="55.9158167" lon="49.1895267"><time>2023-06-03T06:17:03.743</time></trkpt><trkpt lat="55.9157883" lon="49.1896233"><time>2023-06-03T06:17:05.753</time></trkpt><trkpt lat="55.9157600" lon="49.1897183"><time>2023-06-03T06:17:07.753</time></trkpt><trkpt lat="55.9157417" lon="49.1897600"><time>2023-06-03T06:17:08.743</time></trkpt><trkpt lat="55.9156917" lon="49.1898400"><time>2023-06-03T06:17:10.747</time></trkpt><trkpt lat="55.9156450" lon="49.1898983"><time>2023-06-03T06:17:12.747</time></trkpt><trkpt lat="55.9155967" lon="49.1899750"><time>2023-06-03T06:17:15.743</time></trkpt><trkpt lat="55.9155383" lon="49.1900117"><time>2023-06-03T06:17:18.743</time></trkpt><trkpt lat="55.9154900" lon="49.1900250"><time>2023-06-03T06:17:20.743</time></trkpt><trkpt lat="55.9154383" lon="49.1900200"><time>2023-06-03T06:17:22.747</time></trkpt><trkpt lat="55.9153750" lon="49.1900300"><time>2023-06-03T06:17:25.733</time></trkpt><trkpt lat="55.9153583" lon="49.1900233"><time>2023-06-03T06:17:26.717</time></trkpt><trkpt lat="55.9153133" lon="49.1900133"><time>2023-06-03T06:17:29.727</time></trkpt><trkpt lat="55.9152633" lon="49.1900133"><time>2023-06-03T06:17:38.743</time></trkpt><trkpt lat="55.9152150" lon="49.1900050"><time>2023-06-03T06:17:51.740</time></trkpt><trkpt lat="55.9152600" lon="49.1900317"><time>2023-06-03T06:17:54.740</time></trkpt><trkpt lat="55.9153267" lon="49.1900633"><time>2023-06-03T06:17:57.747</time></trkpt><trkpt lat="55.9153733" lon="49.1900733"><time>2023-06-03T06:18:03.743</time></trkpt><trkpt lat="55.9154283" lon="49.1900450"><time>2023-06-03T06:18:06.753</time></trkpt><trkpt lat="55.9154483" lon="49.1900300"><time>2023-06-03T06:18:07.733</time></trkpt><trkpt lat="55.9155050" lon="49.1900050"><time>2023-06-03T06:18:10.717</time></trkpt><trkpt lat="55.9155550" lon="49.1899733"><time>2023-06-03T06:18:13.733</time></trkpt><trkpt lat="55.9156167" lon="49.1899500"><time>2023-06-03T06:18:16.743</time></trkpt><trkpt lat="55.9156767" lon="49.1898817"><time>2023-06-03T06:18:18.747</time></trkpt><trkpt lat="55.9157183" lon="49.1898083"><time>2023-06-03T06:18:20.743</time></trkpt><trkpt lat="55.9157483" lon="49.1897400"><time>2023-06-03T06:18:22.743</time></trkpt><trkpt lat="55.9157883" lon="49.1896700"><time>2023-06-03T06:18:24.753</time></trkpt><trkpt lat="55.9158083" lon="49.1896333"><time>2023-06-03T06:18:25.740</time></trkpt><trkpt lat="55.9158417" lon="49.1895567"><time>2023-06-03T06:18:27.737</time></trkpt><trkpt lat="55.9158783" lon="49.1894867"><time>2023-06-03T06:18:29.740</time></trkpt><trkpt lat="55.9158900" lon="49.1894083"><time>2023-06-03T06:18:31.740</time></trkpt><trkpt lat="55.9159283" lon="49.1893450"><time>2023-06-03T06:18:34.743</time></trkpt><trkpt lat="55.9159583" lon="49.1892817"><time>2023-06-03T06:18:37.717</time></trkpt><trkpt lat="55.9159717" lon="49.1892033"><time>2023-06-03T06:18:40.737</time></trkpt><trkpt lat="55.9159650" lon="49.1891233"><time>2023-06-03T06:18:44.743</time></trkpt><trkpt lat="55.9160133" lon="49.1890983"><time>2023-06-03T06:18:58.757</time></trkpt><trkpt lat="55.9160133" lon="49.1890983"><time>2023-06-03T06:18:58.790</time></trkpt><trkpt lat="55.9159750" lon="49.1890333"><time>2023-06-03T06:19:15.753</time></trkpt><trkpt lat="55.9159700" lon="49.1890100"><time>2023-06-03T06:19:16.747</time></trkpt><trkpt lat="55.9159617" lon="49.1889117"><time>2023-06-03T06:19:24.740</time></trkpt><trkpt lat="55.9159517" lon="49.1888283"><time>2023-06-03T06:19:30.747</time></trkpt><trkpt lat="55.9159250" lon="49.1887583"><time>2023-06-03T06:19:35.747</time></trkpt><trkpt lat="55.9158917" lon="49.1887000"><time>2023-06-03T06:19:39.740</time></trkpt><trkpt lat="55.9158667" lon="49.1886133"><time>2023-06-03T06:19:42.743</time></trkpt><trkpt lat="55.9158400" lon="49.1885017"><time>2023-06-03T06:19:45.747</time></trkpt><trkpt lat="55.9158183" lon="49.1884167"><time>2023-06-03T06:19:47.747</time></trkpt><trkpt lat="55.9157950" lon="49.1883267"><time>2023-06-03T06:19:50.747</time></trkpt><trkpt lat="55.9157883" lon="49.1882333"><time>2023-06-03T06:19:53.740</time></trkpt><trkpt lat="55.9157917" lon="49.1881317"><time>2023-06-03T06:19:56.747</time></trkpt><trkpt lat="55.9157883" lon="49.1880400"><time>2023-06-03T06:19:58.743</time></trkpt><trkpt lat="55.9157700" lon="49.1879583"><time>2023-06-03T06:20:00.740</time></trkpt><trkpt lat="55.9157550" lon="49.1878617"><time>2023-06-03T06:20:03.747</time></trkpt><trkpt lat="55.9157367" lon="49.1877717"><time>2023-06-03T06:20:08.753</time></trkpt><trkpt lat="55.9157117" lon="49.1877017"><time>2023-06-03T06:20:13.750</time></trkpt><trkpt lat="55.9156833" lon="49.1876383"><time>2023-06-03T06:20:18.740</time></trkpt><trkpt lat="55.9157067" lon="49.1875650"><time>2023-06-03T06:21:04.737</time></trkpt><trkpt lat="55.9156717" lon="49.1875067"><time>2023-06-03T06:21:24.740</time></trkpt><trkpt lat="55.9156200" lon="49.1874567"><time>2023-06-03T06:21:26.743</time></trkpt><trkpt lat="55.9155683" lon="49.1873983"><time>2023-06-03T06:21:28.737</time></trkpt><trkpt lat="55.9155133" lon="49.1873217"><time>2023-06-03T06:21:30.740</time></trkpt><trkpt lat="55.9154750" lon="49.1872433"><time>2023-06-03T06:21:32.740</time></trkpt><trkpt lat="55.9154383" lon="49.1871717"><time>2023-06-03T06:21:34.750</time></trkpt><trkpt lat="55.9154267" lon="49.1870567"><time>2023-06-03T06:21:36.747</time></trkpt><trkpt lat="55.9154200" lon="49.1869167"><time>2023-06-03T06:21:38.737</time></trkpt><trkpt lat="55.9154217" lon="49.1867717"><time>2023-06-03T06:21:40.743</time></trkpt><trkpt lat="55.9154417" lon="49.1866483"><time>2023-06-03T06:21:42.737</time></trkpt><trkpt lat="55.9154467" lon="49.1865617"><time>2023-06-03T06:21:43.747</time></trkpt><trkpt lat="55.9154600" lon="49.1864350"><time>2023-06-03T06:21:45.743</time></trkpt><trkpt lat="55.9154817" lon="49.1863233"><time>2023-06-03T06:21:47.747</time></trkpt><trkpt lat="55.9155100" lon="49.1861933"><time>2023-06-03T06:21:49.740</time></trkpt><trkpt lat="55.9155233" lon="49.1860900"><time>2023-06-03T06:21:51.740</time></trkpt><trkpt lat="55.9155400" lon="49.1859700"><time>2023-06-03T06:21:53.740</time></trkpt><trkpt lat="55.9155433" lon="49.1858533"><time>2023-06-03T06:21:55.740</time></trkpt><trkpt lat="55.9155467" lon="49.1857233"><time>2023-06-03T06:21:57.740</time></trkpt><trkpt lat="55.9155600" lon="49.1856133"><time>2023-06-03T06:21:59.743</time></trkpt><trkpt lat="55.9155683" lon="49.1855167"><time>2023-06-03T06:22:01.737</time></trkpt><trkpt lat="55.9155733" lon="49.1853900"><time>2023-06-03T06:22:03.740</time></trkpt><trkpt lat="55.9155633" lon="49.1852717"><time>2023-06-03T06:22:05.740</time></trkpt><trkpt lat="55.9155550" lon="49.1851483"><time>2023-06-03T06:22:07.737</time></trkpt><trkpt lat="55.9155483" lon="49.1849917"><time>2023-06-03T06:22:09.740</time></trkpt><trkpt lat="55.9155417" lon="49.1848433"><time>2023-06-03T06:22:11.747</time></trkpt><trkpt lat="55.9155367" lon="49.1847000"><time>2023-06-03T06:22:13.743</time></trkpt><trkpt lat="55.9155200" lon="49.1845733"><time>2023-06-03T06:22:15.743</time></trkpt><trkpt lat="55.9155100" lon="49.1844517"><time>2023-06-03T06:22:17.737</time></trkpt><trkpt lat="55.9154800" lon="49.1843133"><time>2023-06-03T06:22:19.737</time></trkpt><trkpt lat="55.9154700" lon="49.1841667"><time>2023-06-03T06:22:21.740</time></trkpt><trkpt lat="55.9154783" lon="49.1840150"><time>2023-06-03T06:22:23.743</time></trkpt><trkpt lat="55.9154917" lon="49.1839317"><time>2023-06-03T06:22:24.747</time></trkpt><trkpt lat="55.9155050" lon="49.1838467"><time>2023-06-03T06:22:25.750</time></trkpt><trkpt lat="55.9155183" lon="49.1837600"><time>2023-06-03T06:22:26.743</time></trkpt><trkpt lat="55.9155317" lon="49.1836833"><time>2023-06-03T06:22:27.743</time></trkpt><trkpt lat="55.9155550" lon="49.1835433"><time>2023-06-03T06:22:29.747</time></trkpt><trkpt lat="55.9155750" lon="49.1834183"><time>2023-06-03T06:22:31.740</time></trkpt><trkpt lat="55.9156050" lon="49.1833033"><time>2023-06-03T06:22:33.740</time></trkpt><trkpt lat="55.9156333" lon="49.1832150"><time>2023-06-03T06:22:35.750</time></trkpt><trkpt lat="55.9157000" lon="49.1831400"><time>2023-06-03T06:22:37.747</time></trkpt><trkpt lat="55.9157550" lon="49.1830800"><time>2023-06-03T06:22:39.757</time></trkpt><trkpt lat="55.9158017" lon="49.1829900"><time>2023-06-03T06:22:41.743</time></trkpt><trkpt lat="55.9158350" lon="49.1829283"><time>2023-06-03T06:22:43.743</time></trkpt><trkpt lat="55.9158900" lon="49.1828750"><time>2023-06-03T06:22:46.743</time></trkpt><trkpt lat="55.9159300" lon="49.1828367"><time>2023-06-03T06:22:48.740</time></trkpt><trkpt lat="55.9159750" lon="49.1828333"><time>2023-06-03T06:22:56.703</time></trkpt><trkpt lat="55.9159617" lon="49.1827483"><time>2023-06-03T06:23:23.750</time></trkpt><trkpt lat="55.9160133" lon="49.1827883"><time>2023-06-03T06:23:28.740</time></trkpt><trkpt lat="55.9160500" lon="49.1828367"><time>2023-06-03T06:23:33.740</time></trkpt><trkpt lat="55.9160350" lon="49.1829167"><time>2023-06-03T06:23:37.720</time></trkpt><trkpt lat="55.9160167" lon="49.1830017"><time>2023-06-03T06:23:42.727</time></trkpt><trkpt lat="55.9159850" lon="49.1830850"><time>2023-06-03T06:23:47.737</time></trkpt><trkpt lat="55.9159383" lon="49.1831017"><time>2023-06-03T06:23:52.743</time></trkpt><trkpt lat="55.9159200" lon="49.1832133"><time>2023-06-03T06:24:07.767</time></trkpt><trkpt lat="55.9159133" lon="49.1833000"><time>2023-06-03T06:24:09.743</time></trkpt><trkpt lat="55.9158983" lon="49.1834133"><time>2023-06-03T06:24:12.743</time></trkpt><trkpt lat="55.9158800" lon="49.1835200"><time>2023-06-03T06:24:15.747</time></trkpt><trkpt lat="55.9158433" lon="49.1835950"><time>2023-06-03T06:24:19.750</time></trkpt><trkpt lat="55.9158717" lon="49.1834967"><time>2023-06-03T06:24:59.740</time></trkpt><trkpt lat="55.9158983" lon="49.1834300"><time>2023-06-03T06:25:02.740</time></trkpt><trkpt lat="55.9159133" lon="49.1833283"><time>2023-06-03T06:25:07.750</time></trkpt><trkpt lat="55.9159100" lon="49.1832450"><time>2023-06-03T06:25:09.743</time></trkpt><trkpt lat="55.9159317" lon="49.1831350"><time>2023-06-03T06:25:12.743</time></trkpt><trkpt lat="55.9159533" lon="49.1830617"><time>2023-06-03T06:25:14.740</time></trkpt><trkpt lat="55.9159967" lon="49.1829883"><time>2023-06-03T06:25:17.743</time></trkpt><trkpt lat="55.9160133" lon="49.1829083"><time>2023-06-03T06:25:21.743</time></trkpt><trkpt lat="55.9160317" lon="49.1828333"><time>2023-06-03T06:25:24.740</time></trkpt><trkpt lat="55.9160717" lon="49.1827700"><time>2023-06-03T06:25:27.743</time></trkpt><trkpt lat="55.9161100" lon="49.1826900"><time>2023-06-03T06:25:31.737</time></trkpt><trkpt lat="55.9161433" lon="49.1826317"><time>2023-06-03T06:25:34.723</time></trkpt><trkpt lat="55.9161650" lon="49.1825483"><time>2023-06-03T06:25:38.737</time></trkpt><trkpt lat="55.9161750" lon="49.1824633"><time>2023-06-03T06:25:42.743</time></trkpt><trkpt lat="55.9162067" lon="49.1823783"><time>2023-06-03T06:25:46.743</time></trkpt><trkpt lat="55.9162200" lon="49.1822983"><time>2023-06-03T06:25:49.743</time></trkpt><trkpt lat="55.9162200" lon="49.1821650"><time>2023-06-03T06:25:52.747</time></trkpt><trkpt lat="55.9162283" lon="49.1820783"><time>2023-06-03T06:25:54.740</time></trkpt><trkpt lat="55.9162400" lon="49.1819817"><time>2023-06-03T06:25:57.747</time></trkpt><trkpt lat="55.9162917" lon="49.1819283"><time>2023-06-03T06:26:01.737</time></trkpt><trkpt lat="55.9163417" lon="49.1819350"><time>2023-06-03T06:26:04.737</time></trkpt><trkpt lat="55.9163900" lon="49.1819650"><time>2023-06-03T06:26:07.760</time></trkpt><trkpt lat="55.9164350" lon="49.1819850"><time>2023-06-03T06:26:12.743</time></trkpt><trkpt lat="55.9164817" lon="49.1820200"><time>2023-06-03T06:26:19.750</time></trkpt><trkpt lat="55.9165283" lon="49.1820400"><time>2023-06-03T06:26:23.727</time></trkpt><trkpt lat="55.9165767" lon="49.1820717"><time>2023-06-03T06:26:30.743</time></trkpt><trkpt lat="55.9166233" lon="49.1821067"><time>2023-06-03T06:26:35.743</time></trkpt><trkpt lat="55.9166667" lon="49.1821350"><time>2023-06-03T06:26:39.747</time></trkpt><trkpt lat="55.9167167" lon="49.1821733"><time>2023-06-03T06:26:44.743</time></trkpt><trkpt lat="55.9167450" lon="49.1822517"><time>2023-06-03T06:26:50.740</time></trkpt><trkpt lat="55.9167450" lon="49.1823367"><time>2023-06-03T06:26:54.750</time></trkpt><trkpt lat="55.9167300" lon="49.1824150"><time>2023-06-03T06:26:58.743</time></trkpt><trkpt lat="55.9167400" lon="49.1824950"><time>2023-06-03T06:27:03.743</time></trkpt><trkpt lat="55.9167783" lon="49.1825367"><time>2023-06-03T06:27:08.750</time></trkpt><trkpt lat="55.9168233" lon="49.1825767"><time>2023-06-03T06:27:13.747</time></trkpt><trkpt lat="55.9168700" lon="49.1826083"><time>2023-06-03T06:27:17.743</time></trkpt><trkpt lat="55.9169017" lon="49.1826850"><time>2023-06-03T06:27:22.747</time></trkpt><trkpt lat="55.9169167" lon="49.1827833"><time>2023-06-03T06:27:26.750</time></trkpt><trkpt lat="55.9168933" lon="49.1828817"><time>2023-06-03T06:27:29.747</time></trkpt><trkpt lat="55.9168850" lon="49.1829933"><time>2023-06-03T06:27:32.757</time></trkpt><trkpt lat="55.9169150" lon="49.1830767"><time>2023-06-03T06:27:35.740</time></trkpt><trkpt lat="55.9169533" lon="49.1831733"><time>2023-06-03T06:27:38.747</time></trkpt><trkpt lat="55.9169867" lon="49.1832583"><time>2023-06-03T06:27:40.753</time></trkpt><trkpt lat="55.9170350" lon="49.1832917"><time>2023-06-03T06:27:42.747</time></trkpt><trkpt lat="55.9170867" lon="49.1832800"><time>2023-06-03T06:27:44.750</time></trkpt><trkpt lat="55.9171333" lon="49.1832683"><time>2023-06-03T06:27:46.743</time></trkpt><trkpt lat="55.9171883" lon="49.1832267"><time>2023-06-03T06:27:50.740</time></trkpt><trkpt lat="55.9172317" lon="49.1831683"><time>2023-06-03T06:27:54.747</time></trkpt><trkpt lat="55.9172767" lon="49.1831383"><time>2023-06-03T06:27:57.740</time></trkpt><trkpt lat="55.9173233" lon="49.1831067"><time>2023-06-03T06:28:01.750</time></trkpt><trkpt lat="55.9173783" lon="49.1830733"><time>2023-06-03T06:28:05.747</time></trkpt><trkpt lat="55.9174283" lon="49.1830383"><time>2023-06-03T06:28:10.727</time></trkpt><trkpt lat="55.9174800" lon="49.1829983"><time>2023-06-03T06:28:14.757</time></trkpt><trkpt lat="55.9175283" lon="49.1829500"><time>2023-06-03T06:28:18.750</time></trkpt><trkpt lat="55.9175700" lon="49.1829083"><time>2023-06-03T06:28:22.747</time></trkpt><trkpt lat="55.9176267" lon="49.1829167"><time>2023-06-03T06:28:26.750</time></trkpt><trkpt lat="55.9176867" lon="49.1828850"><time>2023-06-03T06:28:29.757</time></trkpt><trkpt lat="55.9177317" lon="49.1828517"><time>2023-06-03T06:28:33.753</time></trkpt><trkpt lat="55.9177783" lon="49.1828050"><time>2023-06-03T06:28:36.747</time></trkpt><trkpt lat="55.9178200" lon="49.1827633"><time>2023-06-03T06:28:38.747</time></trkpt><trkpt lat="55.9178617" lon="49.1827317"><time>2023-06-03T06:28:40.730</time></trkpt><trkpt lat="55.9179017" lon="49.1826733"><time>2023-06-03T06:28:42.750</time></trkpt><trkpt lat="55.9179550" lon="49.1826400"><time>2023-06-03T06:28:44.747</time></trkpt><trkpt lat="55.9180050" lon="49.1826183"><time>2023-06-03T06:28:46.743</time></trkpt><trkpt lat="55.9180583" lon="49.1825750"><time>2023-06-03T06:28:48.753</time></trkpt><trkpt lat="55.9181100" lon="49.1825300"><time>2023-06-03T06:28:50.743</time></trkpt><trkpt lat="55.9181600" lon="49.1824817"><time>2023-06-03T06:28:52.743</time></trkpt><trkpt lat="55.9182100" lon="49.1824317"><time>2023-06-03T06:28:54.727</time></trkpt><trkpt lat="55.9182683" lon="49.1823917"><time>2023-06-03T06:28:56.727</time></trkpt><trkpt lat="55.9183267" lon="49.1823600"><time>2023-06-03T06:28:58.730</time></trkpt><trkpt lat="55.9183783" lon="49.1823100"><time>2023-06-03T06:29:00.747</time></trkpt><trkpt lat="55.9184350" lon="49.1822733"><time>2023-06-03T06:29:02.747</time></trkpt><trkpt lat="55.9184883" lon="49.1822267"><time>2023-06-03T06:29:04.740</time></trkpt><trkpt lat="55.9185550" lon="49.1821750"><time>2023-06-03T06:29:06.727</time></trkpt><trkpt lat="55.9186183" lon="49.1821283"><time>2023-06-03T06:29:08.703</time></trkpt><trkpt lat="55.9186783" lon="49.1820883"><time>2023-06-03T06:29:10.717</time></trkpt><trkpt lat="55.9187400" lon="49.1820583"><time>2023-06-03T06:29:12.753</time></trkpt><trkpt lat="55.9187917" lon="49.1820317"><time>2023-06-03T06:29:14.740</time></trkpt><trkpt lat="55.9188483" lon="49.1820167"><time>2023-06-03T06:29:17.743</time></trkpt><trkpt lat="55.9188933" lon="49.1820000"><time>2023-06-03T06:29:19.757</time></trkpt><trkpt lat="55.9189350" lon="49.1819600"><time>2023-06-03T06:29:21.753</time></trkpt><trkpt lat="55.9189950" lon="49.1819283"><time>2023-06-03T06:29:23.747</time></trkpt><trkpt lat="55.9190467" lon="49.1818817"><time>2023-06-03T06:29:25.747</time></trkpt><trkpt lat="55.9191117" lon="49.1818517"><time>2023-06-03T06:29:27.743</time></trkpt><trkpt lat="55.9191617" lon="49.1818033"><time>2023-06-03T06:29:29.747</time></trkpt><trkpt lat="55.9192200" lon="49.1817600"><time>2023-06-03T06:29:31.747</time></trkpt><trkpt lat="55.9193000" lon="49.1817333"><time>2023-06-03T06:29:33.747</time></trkpt><trkpt lat="55.9193767" lon="49.1817017"><time>2023-06-03T06:29:35.747</time></trkpt><trkpt lat="55.9194583" lon="49.1816633"><time>2023-06-03T06:29:37.750</time></trkpt><trkpt lat="55.9195150" lon="49.1816150"><time>2023-06-03T06:29:39.750</time></trkpt><trkpt lat="55.9195733" lon="49.1815833"><time>2023-06-03T06:29:41.750</time></trkpt><trkpt lat="55.9196367" lon="49.1815333"><time>2023-06-03T06:29:43.750</time></trkpt><trkpt lat="55.9197050" lon="49.1815000"><time>2023-06-03T06:29:45.743</time></trkpt><trkpt lat="55.9197500" lon="49.1814883"><time>2023-06-03T06:29:46.747</time></trkpt><trkpt lat="55.9198033" lon="49.1814650"><time>2023-06-03T06:29:48.750</time></trkpt><trkpt lat="55.9198617" lon="49.1814200"><time>2023-06-03T06:29:50.747</time></trkpt><trkpt lat="55.9199100" lon="49.1813633"><time>2023-06-03T06:29:52.747</time></trkpt><trkpt lat="55.9199717" lon="49.1813133"><time>2023-06-03T06:29:54.727</time></trkpt><trkpt lat="55.9200317" lon="49.1812750"><time>2023-06-03T06:29:56.727</time></trkpt><trkpt lat="55.9200850" lon="49.1812400"><time>2023-06-03T06:29:58.730</time></trkpt><trkpt lat="55.9201517" lon="49.1812033"><time>2023-06-03T06:30:00.727</time></trkpt><trkpt lat="55.9201933" lon="49.1811667"><time>2023-06-03T06:30:02.737</time></trkpt><trkpt lat="55.9202450" lon="49.1811467"><time>2023-06-03T06:30:04.747</time></trkpt><trkpt lat="55.9202983" lon="49.1811183"><time>2023-06-03T06:30:06.743</time></trkpt><trkpt lat="55.9203367" lon="49.1810617"><time>2023-06-03T06:30:08.750</time></trkpt><trkpt lat="55.9203933" lon="49.1810233"><time>2023-06-03T06:30:10.747</time></trkpt><trkpt lat="55.9204350" lon="49.1809800"><time>2023-06-03T06:30:12.747</time></trkpt><trkpt lat="55.9204967" lon="49.1809217"><time>2023-06-03T06:30:14.753</time></trkpt><trkpt lat="55.9205517" lon="49.1808617"><time>2023-06-03T06:30:16.750</time></trkpt><trkpt lat="55.9206000" lon="49.1808083"><time>2023-06-03T06:30:18.743</time></trkpt><trkpt lat="55.9206533" lon="49.1807650"><time>2023-06-03T06:30:20.740</time></trkpt><trkpt lat="55.9207150" lon="49.1807250"><time>2023-06-03T06:30:22.757</time></trkpt><trkpt lat="55.9207717" lon="49.1807017"><time>2023-06-03T06:30:24.747</time></trkpt><trkpt lat="55.9208450" lon="49.1806600"><time>2023-06-03T06:30:26.750</time></trkpt><trkpt lat="55.9208867" lon="49.1806150"><time>2023-06-03T06:30:28.747</time></trkpt><trkpt lat="55.9209433" lon="49.1805550"><time>2023-06-03T06:30:31.743</time></trkpt><trkpt lat="55.9209867" lon="49.1805017"><time>2023-06-03T06:30:33.743</time></trkpt><trkpt lat="55.9210600" lon="49.1804583"><time>2023-06-03T06:30:35.743</time></trkpt><trkpt lat="55.9211183" lon="49.1804133"><time>2023-06-03T06:30:37.753</time></trkpt><trkpt lat="55.9211733" lon="49.1803583"><time>2023-06-03T06:30:39.757</time></trkpt><trkpt lat="55.9212283" lon="49.1803167"><time>2023-06-03T06:30:41.747</time></trkpt><trkpt lat="55.9212733" lon="49.1803083"><time>2023-06-03T06:30:42.747</time></trkpt><trkpt lat="55.9213350" lon="49.1802550"><time>2023-06-03T06:30:44.740</time></trkpt><trkpt lat="55.9214083" lon="49.1802333"><time>2023-06-03T06:30:46.737</time></trkpt><trkpt lat="55.9214567" lon="49.1802267"><time>2023-06-03T06:30:47.740</time></trkpt><trkpt lat="55.9215333" lon="49.1802033"><time>2023-06-03T06:30:49.737</time></trkpt><trkpt lat="55.9215983" lon="49.1801650"><time>2023-06-03T06:30:51.747</time></trkpt><trkpt lat="55.9216433" lon="49.1801217"><time>2023-06-03T06:30:53.750</time></trkpt><trkpt lat="55.9216817" lon="49.1800717"><time>2023-06-03T06:30:55.757</time></trkpt><trkpt lat="55.9217250" lon="49.1800300"><time>2023-06-03T06:30:57.760</time></trkpt><trkpt lat="55.9217883" lon="49.1799917"><time>2023-06-03T06:30:59.747</time></trkpt><trkpt lat="55.9218367" lon="49.1799500"><time>2023-06-03T06:31:01.737</time></trkpt><trkpt lat="55.9218983" lon="49.1799050"><time>2023-06-03T06:31:03.740</time></trkpt><trkpt lat="55.9219550" lon="49.1798517"><time>2023-06-03T06:31:05.747</time></trkpt><trkpt lat="55.9220317" lon="49.1798367"><time>2023-06-03T06:31:07.737</time></trkpt><trkpt lat="55.9220867" lon="49.1798017"><time>2023-06-03T06:31:09.753</time></trkpt><trkpt lat="55.9221267" lon="49.1797517"><time>2023-06-03T06:31:11.747</time></trkpt><trkpt lat="55.9221933" lon="49.1797300"><time>2023-06-03T06:31:13.747</time></trkpt><trkpt lat="55.9222350" lon="49.1797000"><time>2023-06-03T06:31:15.750</time></trkpt><trkpt lat="55.9222800" lon="49.1796467"><time>2023-06-03T06:31:17.750</time></trkpt><trkpt lat="55.9223333" lon="49.1795867"><time>2023-06-03T06:31:19.750</time></trkpt><trkpt lat="55.9223850" lon="49.1795283"><time>2023-06-03T06:31:21.740</time></trkpt><trkpt lat="55.9224400" lon="49.1794650"><time>2023-06-03T06:31:23.747</time></trkpt><trkpt lat="55.9224950" lon="49.1794117"><time>2023-06-03T06:31:25.757</time></trkpt><trkpt lat="55.9225533" lon="49.1793600"><time>2023-06-03T06:31:27.753</time></trkpt><trkpt lat="55.9225867" lon="49.1793333"><time>2023-06-03T06:31:28.747</time></trkpt><trkpt lat="55.9226450" lon="49.1792817"><time>2023-06-03T06:31:30.743</time></trkpt><trkpt lat="55.9227050" lon="49.1792417"><time>2023-06-03T06:31:32.747</time></trkpt><trkpt lat="55.9227533" lon="49.1792200"><time>2023-06-03T06:31:34.737</time></trkpt><trkpt lat="55.9227967" lon="49.1791867"><time>2023-06-03T06:31:36.747</time></trkpt><trkpt lat="55.9228367" lon="49.1791433"><time>2023-06-03T06:31:38.757</time></trkpt><trkpt lat="55.9228983" lon="49.1791117"><time>2023-06-03T06:31:40.743</time></trkpt><trkpt lat="55.9229500" lon="49.1790683"><time>2023-06-03T06:31:42.747</time></trkpt><trkpt lat="55.9230083" lon="49.1790367"><time>2023-06-03T06:31:44.743</time></trkpt><trkpt lat="55.9230650" lon="49.1790000"><time>2023-06-03T06:31:46.753</time></trkpt><trkpt lat="55.9231383" lon="49.1789783"><time>2023-06-03T06:31:48.747</time></trkpt><trkpt lat="55.9232050" lon="49.1789450"><time>2023-06-03T06:31:50.730</time></trkpt><trkpt lat="55.9232533" lon="49.1789200"><time>2023-06-03T06:31:52.747</time></trkpt><trkpt lat="55.9233050" lon="49.1788917"><time>2023-06-03T06:31:54.750</time></trkpt><trkpt lat="55.9233567" lon="49.1788450"><time>2023-06-03T06:31:56.750</time></trkpt><trkpt lat="55.9234067" lon="49.1788167"><time>2023-06-03T06:31:58.757</time></trkpt><trkpt lat="55.9234417" lon="49.1788100"><time>2023-06-03T06:31:59.757</time></trkpt><trkpt lat="55.9234950" lon="49.1787817"><time>2023-06-03T06:32:01.753</time></trkpt><trkpt lat="55.9235533" lon="49.1787517"><time>2023-06-03T06:32:03.753</time></trkpt><trkpt lat="55.9236117" lon="49.1787217"><time>2023-06-03T06:32:05.747</time></trkpt><trkpt lat="55.9236617" lon="49.1786800"><time>2023-06-03T06:32:07.740</time></trkpt><trkpt lat="55.9237200" lon="49.1786483"><time>2023-06-03T06:32:09.730</time></trkpt><trkpt lat="55.9237650" lon="49.1786133"><time>2023-06-03T06:32:11.747</time></trkpt><trkpt lat="55.9238183" lon="49.1785650"><time>2023-06-03T06:32:14.760</time></trkpt><trkpt lat="55.9238450" lon="49.1785450"><time>2023-06-03T06:32:15.747</time></trkpt><trkpt lat="55.9238917" lon="49.1785067"><time>2023-06-03T06:32:17.747</time></trkpt><trkpt lat="55.9239350" lon="49.1784617"><time>2023-06-03T06:32:19.743</time></trkpt><trkpt lat="55.9240050" lon="49.1784267"><time>2023-06-03T06:32:22.757</time></trkpt><trkpt lat="55.9240750" lon="49.1783750"><time>2023-06-03T06:32:25.757</time></trkpt><trkpt lat="55.9240750" lon="49.1783750"><time>2023-06-03T06:32:25.803</time></trkpt><trkpt lat="55.9241200" lon="49.1783550"><time>2023-06-03T06:32:28.763</time></trkpt><trkpt lat="55.9241267" lon="49.1783650"><time>2023-06-03T06:32:29.757</time></trkpt><trkpt lat="55.9241683" lon="49.1783233"><time>2023-06-03T06:32:36.750</time></trkpt><trkpt lat="55.9242133" lon="49.1783067"><time>2023-06-03T06:32:39.753</time></trkpt><trkpt lat="55.9242650" lon="49.1782850"><time>2023-06-03T06:32:43.753</time></trkpt><trkpt lat="55.9243100" lon="49.1782317"><time>2023-06-03T06:32:48.750</time></trkpt><trkpt lat="55.9243650" lon="49.1782017"><time>2023-06-03T06:32:52.753</time></trkpt><trkpt lat="55.9244167" lon="49.1781717"><time>2023-06-03T06:32:56.747</time></trkpt><trkpt lat="55.9244683" lon="49.1781400"><time>2023-06-03T06:33:00.743</time></trkpt><trkpt lat="55.9245217" lon="49.1781167"><time>2023-06-03T06:33:04.750</time></trkpt><trkpt lat="55.9245667" lon="49.1780817"><time>2023-06-03T06:33:07.753</time></trkpt><trkpt lat="55.9246167" lon="49.1780417"><time>2023-06-03T06:33:11.727</time></trkpt><trkpt lat="55.9246633" lon="49.1779767"><time>2023-06-03T06:33:17.727</time></trkpt><trkpt lat="55.9247267" lon="49.1779350"><time>2023-06-03T06:33:20.727</time></trkpt><trkpt lat="55.9247817" lon="49.1778900"><time>2023-06-03T06:33:22.727</time></trkpt><trkpt lat="55.9248383" lon="49.1778400"><time>2023-06-03T06:33:24.733</time></trkpt><trkpt lat="55.9249033" lon="49.1777817"><time>2023-06-03T06:33:26.730</time></trkpt><trkpt lat="55.9249583" lon="49.1777300"><time>2023-06-03T06:33:28.747</time></trkpt><trkpt lat="55.9250033" lon="49.1776750"><time>2023-06-03T06:33:30.750</time></trkpt><trkpt lat="55.9250517" lon="49.1776183"><time>2023-06-03T06:33:32.750</time></trkpt><trkpt lat="55.9251217" lon="49.1775700"><time>2023-06-03T06:33:34.750</time></trkpt><trkpt lat="55.9251833" lon="49.1775167"><time>2023-06-03T06:33:36.750</time></trkpt><trkpt lat="55.9252550" lon="49.1774800"><time>2023-06-03T06:33:38.743</time></trkpt><trkpt lat="55.9253000" lon="49.1774667"><time>2023-06-03T06:33:39.753</time></trkpt><trkpt lat="55.9253633" lon="49.1774200"><time>2023-06-03T06:33:41.757</time></trkpt><trkpt lat="55.9254117" lon="49.1773750"><time>2023-06-03T06:33:43.757</time></trkpt><trkpt lat="55.9254600" lon="49.1773267"><time>2023-06-03T06:33:45.750</time></trkpt><trkpt lat="55.9255150" lon="49.1772917"><time>2023-06-03T06:33:47.757</time></trkpt><trkpt lat="55.9255800" lon="49.1772267"><time>2023-06-03T06:33:49.747</time></trkpt><trkpt lat="55.9256400" lon="49.1771683"><time>2023-06-03T06:33:51.747</time></trkpt><trkpt lat="55.9257100" lon="49.1771117"><time>2023-06-03T06:33:53.743</time></trkpt><trkpt lat="55.9257533" lon="49.1770817"><time>2023-06-03T06:33:55.757</time></trkpt><trkpt lat="55.9257983" lon="49.1770450"><time>2023-06-03T06:33:57.733</time></trkpt><trkpt lat="55.9258567" lon="49.1770400"><time>2023-06-03T06:34:02.743</time></trkpt><trkpt lat="55.9258900" lon="49.1770983"><time>2023-06-03T06:34:08.683</time></trkpt><trkpt lat="55.9259333" lon="49.1770700"><time>2023-06-03T06:34:24.727</time></trkpt><trkpt lat="55.9259767" lon="49.1769833"><time>2023-06-03T06:34:31.727</time></trkpt><trkpt lat="55.9260200" lon="49.1769450"><time>2023-06-03T06:34:33.727</time></trkpt><trkpt lat="55.9260800" lon="49.1769200"><time>2023-06-03T06:34:35.723</time></trkpt><trkpt lat="55.9261317" lon="49.1768883"><time>2023-06-03T06:34:37.730</time></trkpt><trkpt lat="55.9261983" lon="49.1768617"><time>2023-06-03T06:34:39.730</time></trkpt><trkpt lat="55.9262583" lon="49.1768217"><time>2023-06-03T06:34:42.723</time></trkpt><trkpt lat="55.9263017" lon="49.1767683"><time>2023-06-03T06:34:46.730</time></trkpt><trkpt lat="55.9263500" lon="49.1767300"><time>2023-06-03T06:34:50.737</time></trkpt><trkpt lat="55.9264067" lon="49.1767033"><time>2023-06-03T06:34:53.700</time></trkpt><trkpt lat="55.9264617" lon="49.1766817"><time>2023-06-03T06:34:56.700</time></trkpt><trkpt lat="55.9265083" lon="49.1766533"><time>2023-06-03T06:34:59.697</time></trkpt><trkpt lat="55.9265517" lon="49.1766117"><time>2023-06-03T06:35:03.730</time></trkpt><trkpt lat="55.9265933" lon="49.1765633"><time>2023-06-03T06:35:08.743</time></trkpt><trkpt lat="55.9266450" lon="49.1765233"><time>2023-06-03T06:35:14.723</time></trkpt><trkpt lat="55.9267200" lon="49.1765150"><time>2023-06-03T06:35:16.747</time></trkpt><trkpt lat="55.9267933" lon="49.1764883"><time>2023-06-03T06:35:18.747</time></trkpt><trkpt lat="55.9268517" lon="49.1764450"><time>2023-06-03T06:35:20.747</time></trkpt><trkpt lat="55.9268983" lon="49.1763767"><time>2023-06-03T06:35:22.753</time></trkpt><trkpt lat="55.9269483" lon="49.1762933"><time>2023-06-03T06:35:24.743</time></trkpt><trkpt lat="55.9270117" lon="49.1762183"><time>2023-06-03T06:35:26.743</time></trkpt><trkpt lat="55.9270533" lon="49.1761867"><time>2023-06-03T06:35:27.750</time></trkpt><trkpt lat="55.9271233" lon="49.1761383"><time>2023-06-03T06:35:29.740</time></trkpt><trkpt lat="55.9271867" lon="49.1760933"><time>2023-06-03T06:35:31.750</time></trkpt><trkpt lat="55.9272567" lon="49.1760483"><time>2023-06-03T06:35:33.740</time></trkpt><trkpt lat="55.9273300" lon="49.1760233"><time>2023-06-03T06:35:35.747</time></trkpt><trkpt lat="55.9274083" lon="49.1759950"><time>2023-06-03T06:35:37.747</time></trkpt><trkpt lat="55.9274900" lon="49.1759550"><time>2023-06-03T06:35:39.743</time></trkpt><trkpt lat="55.9275700" lon="49.1759333"><time>2023-06-03T06:35:41.743</time></trkpt><trkpt lat="55.9276167" lon="49.1758800"><time>2023-06-03T06:35:43.740</time></trkpt><trkpt lat="55.9276817" lon="49.1758233"><time>2023-06-03T06:35:46.747</time></trkpt><trkpt lat="55.9277517" lon="49.1757967"><time>2023-06-03T06:35:48.757</time></trkpt><trkpt lat="55.9278033" lon="49.1757750"><time>2023-06-03T06:35:50.747</time></trkpt><trkpt lat="55.9278567" lon="49.1756883"><time>2023-06-03T06:35:52.743</time></trkpt><trkpt lat="55.9278983" lon="49.1756217"><time>2023-06-03T06:35:54.727</time></trkpt><trkpt lat="55.9279533" lon="49.1755767"><time>2023-06-03T06:35:56.747</time></trkpt><trkpt lat="55.9279967" lon="49.1755167"><time>2023-06-03T06:35:58.750</time></trkpt><trkpt lat="55.9280517" lon="49.1754567"><time>2023-06-03T06:36:00.753</time></trkpt><trkpt lat="55.9281167" lon="49.1753900"><time>2023-06-03T06:36:02.750</time></trkpt><trkpt lat="55.9281867" lon="49.1753383"><time>2023-06-03T06:36:04.750</time></trkpt><trkpt lat="55.9282483" lon="49.1752950"><time>2023-06-03T06:36:06.747</time></trkpt><trkpt lat="55.9283133" lon="49.1752633"><time>2023-06-03T06:36:08.740</time></trkpt><trkpt lat="55.9283800" lon="49.1752300"><time>2023-06-03T06:36:10.750</time></trkpt><trkpt lat="55.9284317" lon="49.1751850"><time>2023-06-03T06:36:12.753</time></trkpt><trkpt lat="55.9284917" lon="49.1751400"><time>2023-06-03T06:36:14.743</time></trkpt><trkpt lat="55.9285800" lon="49.1750967"><time>2023-06-03T06:36:16.747</time></trkpt><trkpt lat="55.9286517" lon="49.1750367"><time>2023-06-03T06:36:18.750</time></trkpt><trkpt lat="55.9287383" lon="49.1749850"><time>2023-06-03T06:36:20.747</time></trkpt><trkpt lat="55.9287817" lon="49.1749533"><time>2023-06-03T06:36:21.747</time></trkpt><trkpt lat="55.9288250" lon="49.1749283"><time>2023-06-03T06:36:22.750</time></trkpt><trkpt lat="55.9288983" lon="49.1748833"><time>2023-06-03T06:36:24.740</time></trkpt><trkpt lat="55.9289650" lon="49.1748383"><time>2023-06-03T06:36:26.747</time></trkpt><trkpt lat="55.9290250" lon="49.1747900"><time>2023-06-03T06:36:28.747</time></trkpt><trkpt lat="55.9290733" lon="49.1747550"><time>2023-06-03T06:36:30.747</time></trkpt><trkpt lat="55.9291167" lon="49.1747117"><time>2023-06-03T06:36:32.753</time></trkpt><trkpt lat="55.9291717" lon="49.1746517"><time>2023-06-03T06:36:34.717</time></trkpt><trkpt lat="55.9292233" lon="49.1745867"><time>2023-06-03T06:36:36.750</time></trkpt><trkpt lat="55.9292950" lon="49.1745250"><time>2023-06-03T06:36:38.740</time></trkpt><trkpt lat="55.9293450" lon="49.1744967"><time>2023-06-03T06:36:39.743</time></trkpt><trkpt lat="55.9294017" lon="49.1744500"><time>2023-06-03T06:36:41.747</time></trkpt><trkpt lat="55.9294567" lon="49.1744117"><time>2023-06-03T06:36:43.750</time></trkpt><trkpt lat="55.9295283" lon="49.1743667"><time>2023-06-03T06:36:45.740</time></trkpt><trkpt lat="55.9295817" lon="49.1743317"><time>2023-06-03T06:36:47.743</time></trkpt><trkpt lat="55.9296350" lon="49.1742883"><time>2023-06-03T06:36:49.757</time></trkpt><trkpt lat="55.9297150" lon="49.1742350"><time>2023-06-03T06:36:51.753</time></trkpt><trkpt lat="55.9297900" lon="49.1741883"><time>2023-06-03T06:36:53.753</time></trkpt><trkpt lat="55.9298617" lon="49.1741400"><time>2023-06-03T06:36:55.743</time></trkpt><trkpt lat="55.9299400" lon="49.1740817"><time>2023-06-03T06:36:57.753</time></trkpt><trkpt lat="55.9300167" lon="49.1740317"><time>2023-06-03T06:36:59.747</time></trkpt><trkpt lat="55.9300983" lon="49.1739883"><time>2023-06-03T06:37:01.750</time></trkpt><trkpt lat="55.9301417" lon="49.1739583"><time>2023-06-03T06:37:02.743</time></trkpt><trkpt lat="55.9302033" lon="49.1739117"><time>2023-06-03T06:37:04.750</time></trkpt><trkpt lat="55.9302700" lon="49.1738700"><time>2023-06-03T06:37:06.750</time></trkpt><trkpt lat="55.9303417" lon="49.1738317"><time>2023-06-03T06:37:08.760</time></trkpt><trkpt lat="55.9304000" lon="49.1737850"><time>2023-06-03T06:37:10.743</time></trkpt><trkpt lat="55.9304883" lon="49.1737583"><time>2023-06-03T06:37:12.760</time></trkpt><trkpt lat="55.9305433" lon="49.1737467"><time>2023-06-03T06:37:13.753</time></trkpt><trkpt lat="55.9306167" lon="49.1736933"><time>2023-06-03T06:37:15.753</time></trkpt><trkpt lat="55.9306983" lon="49.1736283"><time>2023-06-03T06:37:17.747</time></trkpt><trkpt lat="55.9307417" lon="49.1735983"><time>2023-06-03T06:37:18.747</time></trkpt><trkpt lat="55.9308167" lon="49.1735367"><time>2023-06-03T06:37:20.747</time></trkpt><trkpt lat="55.9308967" lon="49.1734867"><time>2023-06-03T06:37:22.750</time></trkpt><trkpt lat="55.9309800" lon="49.1734417"><time>2023-06-03T06:37:24.750</time></trkpt><trkpt lat="55.9310633" lon="49.1734000"><time>2023-06-03T06:37:26.730</time></trkpt><trkpt lat="55.9311433" lon="49.1733417"><time>2023-06-03T06:37:28.750</time></trkpt><trkpt lat="55.9312183" lon="49.1732817"><time>2023-06-03T06:37:30.757</time></trkpt><trkpt lat="55.9312667" lon="49.1732583"><time>2023-06-03T06:37:31.747</time></trkpt><trkpt lat="55.9313183" lon="49.1732333"><time>2023-06-03T06:37:32.753</time></trkpt><trkpt lat="55.9313650" lon="49.1732117"><time>2023-06-03T06:37:33.753</time></trkpt><trkpt lat="55.9314133" lon="49.1731900"><time>2023-06-03T06:37:34.723</time></trkpt><trkpt lat="55.9314617" lon="49.1731717"><time>2023-06-03T06:37:35.733</time></trkpt><trkpt lat="55.9315400" lon="49.1731300"><time>2023-06-03T06:37:37.750</time></trkpt><trkpt lat="55.9316100" lon="49.1730967"><time>2023-06-03T06:37:39.757</time></trkpt><trkpt lat="55.9316683" lon="49.1730450"><time>2023-06-03T06:37:41.747</time></trkpt><trkpt lat="55.9317450" lon="49.1729817"><time>2023-06-03T06:37:43.747</time></trkpt><trkpt lat="55.9317850" lon="49.1729450"><time>2023-06-03T06:37:44.737</time></trkpt><trkpt lat="55.9318617" lon="49.1728917"><time>2023-06-03T06:37:46.703</time></trkpt><trkpt lat="55.9319333" lon="49.1728417"><time>2023-06-03T06:37:48.733</time></trkpt><trkpt lat="55.9320033" lon="49.1727900"><time>2023-06-03T06:37:50.747</time></trkpt><trkpt lat="55.9320617" lon="49.1727550"><time>2023-06-03T06:37:52.743</time></trkpt><trkpt lat="55.9321183" lon="49.1727083"><time>2023-06-03T06:37:54.740</time></trkpt><trkpt lat="55.9321917" lon="49.1726567"><time>2023-06-03T06:37:56.750</time></trkpt><trkpt lat="55.9322533" lon="49.1726167"><time>2023-06-03T06:37:58.747</time></trkpt><trkpt lat="55.9323150" lon="49.1725817"><time>2023-06-03T06:38:00.750</time></trkpt><trkpt lat="55.9323783" lon="49.1725033"><time>2023-06-03T06:38:02.747</time></trkpt><trkpt lat="55.9324350" lon="49.1724500"><time>2023-06-03T06:38:04.747</time></trkpt><trkpt lat="55.9324933" lon="49.1723967"><time>2023-06-03T06:38:06.753</time></trkpt><trkpt lat="55.9325550" lon="49.1723483"><time>2023-06-03T06:38:08.750</time></trkpt><trkpt lat="55.9326183" lon="49.1722683"><time>2023-06-03T06:38:10.753</time></trkpt><trkpt lat="55.9326750" lon="49.1722100"><time>2023-06-03T06:38:12.757</time></trkpt><trkpt lat="55.9327250" lon="49.1721467"><time>2023-06-03T06:38:14.753</time></trkpt><trkpt lat="55.9327883" lon="49.1720900"><time>2023-06-03T06:38:16.767</time></trkpt><trkpt lat="55.9328533" lon="49.1720450"><time>2023-06-03T06:38:18.743</time></trkpt><trkpt lat="55.9329217" lon="49.1719850"><time>2023-06-03T06:38:20.743</time></trkpt><trkpt lat="55.9329967" lon="49.1719450"><time>2023-06-03T06:38:22.740</time></trkpt><trkpt lat="55.9330400" lon="49.1719233"><time>2023-06-03T06:38:23.737</time></trkpt><trkpt lat="55.9331150" lon="49.1718800"><time>2023-06-03T06:38:25.730</time></trkpt><trkpt lat="55.9331733" lon="49.1718283"><time>2023-06-03T06:38:27.730</time></trkpt><trkpt lat="55.9332350" lon="49.1717583"><time>2023-06-03T06:38:29.733</time></trkpt><trkpt lat="55.9332917" lon="49.1717200"><time>2023-06-03T06:38:31.733</time></trkpt><trkpt lat="55.9333533" lon="49.1716717"><time>2023-06-03T06:38:33.730</time></trkpt><trkpt lat="55.9334267" lon="49.1716417"><time>2023-06-03T06:38:35.747</time></trkpt><trkpt lat="55.9334800" lon="49.1716133"><time>2023-06-03T06:38:36.747</time></trkpt><trkpt lat="55.9335217" lon="49.1715767"><time>2023-06-03T06:38:37.743</time></trkpt><trkpt lat="55.9335667" lon="49.1715467"><time>2023-06-03T06:38:38.747</time></trkpt><trkpt lat="55.9336117" lon="49.1715083"><time>2023-06-03T06:38:39.753</time></trkpt><trkpt lat="55.9336833" lon="49.1714400"><time>2023-06-03T06:38:41.767</time></trkpt><trkpt lat="55.9337583" lon="49.1713900"><time>2023-06-03T06:38:43.743</time></trkpt><trkpt lat="55.9338217" lon="49.1713200"><time>2023-06-03T06:38:45.747</time></trkpt><trkpt lat="55.9338850" lon="49.1712617"><time>2023-06-03T06:38:47.750</time></trkpt><trkpt lat="55.9339467" lon="49.1712117"><time>2023-06-03T06:38:49.723</time></trkpt><trkpt lat="55.9339983" lon="49.1711967"><time>2023-06-03T06:38:52.727</time></trkpt><trkpt lat="55.9340483" lon="49.1711917"><time>2023-06-03T06:38:56.730</time></trkpt><trkpt lat="55.9340917" lon="49.1711617"><time>2023-06-03T06:39:00.750</time></trkpt><trkpt lat="55.9341500" lon="49.1711117"><time>2023-06-03T06:39:03.750</time></trkpt><trkpt lat="55.9341883" lon="49.1710400"><time>2023-06-03T06:39:07.757</time></trkpt><trkpt lat="55.9342067" lon="49.1709633"><time>2023-06-03T06:39:11.750</time></trkpt><trkpt lat="55.9342283" lon="49.1708867"><time>2023-06-03T06:39:16.750</time></trkpt><trkpt lat="55.9342467" lon="49.1708117"><time>2023-06-03T06:39:25.753</time></trkpt><trkpt lat="55.9342267" lon="49.1707367"><time>2023-06-03T06:41:39.747</time></trkpt><trkpt lat="55.9341400" lon="49.1707983"><time>2023-06-03T06:42:20.720</time></trkpt><trkpt lat="55.9342117" lon="49.1708067"><time>2023-06-03T06:43:25.747</time></trkpt><trkpt lat="55.9342333" lon="49.1708800"><time>2023-06-03T06:43:43.743</time></trkpt><trkpt lat="55.9342833" lon="49.1709717"><time>2023-06-03T06:43:46.750</time></trkpt><trkpt lat="55.9343183" lon="49.1710833"><time>2023-06-03T06:43:48.740</time></trkpt><trkpt lat="55.9343633" lon="49.1711633"><time>2023-06-03T06:43:50.740</time></trkpt><trkpt lat="55.9344067" lon="49.1712633"><time>2023-06-03T06:43:52.740</time></trkpt><trkpt lat="55.9344533" lon="49.1713650"><time>2023-06-03T06:43:54.750</time></trkpt><trkpt lat="55.9344983" lon="49.1714600"><time>2023-06-03T06:43:56.750</time></trkpt><trkpt lat="55.9345383" lon="49.1715650"><time>2023-06-03T06:43:58.740</time></trkpt><trkpt lat="55.9345800" lon="49.1716617"><time>2023-06-03T06:44:00.753</time></trkpt><trkpt lat="55.9346250" lon="49.1717783"><time>2023-06-03T06:44:02.753</time></trkpt><trkpt lat="55.9346700" lon="49.1718850"><time>2023-06-03T06:44:04.757</time></trkpt><trkpt lat="55.9347167" lon="49.1719850"><time>2023-06-03T06:44:06.747</time></trkpt><trkpt lat="55.9347617" lon="49.1721050"><time>2023-06-03T06:44:08.750</time></trkpt><trkpt lat="55.9348083" lon="49.1721967"><time>2023-06-03T06:44:10.747</time></trkpt><trkpt lat="55.9348450" lon="49.1723167"><time>2023-06-03T06:44:12.747</time></trkpt><trkpt lat="55.9348733" lon="49.1723800"><time>2023-06-03T06:44:13.753</time></trkpt><trkpt lat="55.9349333" lon="49.1724733"><time>2023-06-03T06:44:15.733</time></trkpt><trkpt lat="55.9349883" lon="49.1725700"><time>2023-06-03T06:44:17.733</time></trkpt><trkpt lat="55.9350467" lon="49.1726650"><time>2023-06-03T06:44:19.753</time></trkpt><trkpt lat="55.9351050" lon="49.1727750"><time>2023-06-03T06:44:21.743</time></trkpt><trkpt lat="55.9351567" lon="49.1728683"><time>2023-06-03T06:44:23.757</time></trkpt><trkpt lat="55.9351983" lon="49.1729717"><time>2023-06-03T06:44:25.753</time></trkpt><trkpt lat="55.9352467" lon="49.1730833"><time>2023-06-03T06:44:27.747</time></trkpt><trkpt lat="55.9353033" lon="49.1731883"><time>2023-06-03T06:44:29.750</time></trkpt><trkpt lat="55.9353550" lon="49.1732950"><time>2023-06-03T06:44:31.743</time></trkpt><trkpt lat="55.9353983" lon="49.1734117"><time>2023-06-03T06:44:33.757</time></trkpt><trkpt lat="55.9354417" lon="49.1735333"><time>2023-06-03T06:44:35.750</time></trkpt><trkpt lat="55.9354750" lon="49.1736567"><time>2023-06-03T06:44:37.757</time></trkpt><trkpt lat="55.9354917" lon="49.1737933"><time>2023-06-03T06:44:39.753</time></trkpt><trkpt lat="55.9354933" lon="49.1739183"><time>2023-06-03T06:44:41.747</time></trkpt><trkpt lat="55.9354650" lon="49.1740783"><time>2023-06-03T06:44:43.743</time></trkpt><trkpt lat="55.9354450" lon="49.1742117"><time>2023-06-03T06:44:45.757</time></trkpt><trkpt lat="55.9354250" lon="49.1743533"><time>2023-06-03T06:44:47.753</time></trkpt><trkpt lat="55.9354017" lon="49.1744867"><time>2023-06-03T06:44:49.760</time></trkpt><trkpt lat="55.9353783" lon="49.1746300"><time>2023-06-03T06:44:51.757</time></trkpt><trkpt lat="55.9353483" lon="49.1747633"><time>2023-06-03T06:44:53.737</time></trkpt><trkpt lat="55.9353250" lon="49.1748883"><time>2023-06-03T06:44:55.770</time></trkpt><trkpt lat="55.9353100" lon="49.1749467"><time>2023-06-03T06:44:56.760</time></trkpt><trkpt lat="55.9352767" lon="49.1750783"><time>2023-06-03T06:44:58.750</time></trkpt><trkpt lat="55.9352500" lon="49.1752017"><time>2023-06-03T06:45:00.757</time></trkpt><trkpt lat="55.9352133" lon="49.1753083"><time>2023-06-03T06:45:02.757</time></trkpt><trkpt lat="55.9351767" lon="49.1754283"><time>2023-06-03T06:45:04.757</time></trkpt><trkpt lat="55.9351500" lon="49.1755467"><time>2023-06-03T06:45:06.743</time></trkpt><trkpt lat="55.9351083" lon="49.1756550"><time>2023-06-03T06:45:08.750</time></trkpt><trkpt lat="55.9350833" lon="49.1757233"><time>2023-06-03T06:45:09.750</time></trkpt><trkpt lat="55.9350550" lon="49.1757867"><time>2023-06-03T06:45:10.747</time></trkpt><trkpt lat="55.9350200" lon="49.1758783"><time>2023-06-03T06:45:12.747</time></trkpt><trkpt lat="55.9350050" lon="49.1759567"><time>2023-06-03T06:45:14.750</time></trkpt><trkpt lat="55.9349833" lon="49.1760450"><time>2023-06-03T06:45:17.740</time></trkpt><trkpt lat="55.9349883" lon="49.1761317"><time>2023-06-03T06:45:24.753</time></trkpt><trkpt lat="55.9349883" lon="49.1762383"><time>2023-06-03T06:45:28.747</time></trkpt><trkpt lat="55.9349500" lon="49.1763433"><time>2023-06-03T06:45:30.753</time></trkpt><trkpt lat="55.9349033" lon="49.1764717"><time>2023-06-03T06:45:32.747</time></trkpt><trkpt lat="55.9348600" lon="49.1766067"><time>2023-06-03T06:45:34.747</time></trkpt><trkpt lat="55.9348433" lon="49.1767467"><time>2023-06-03T06:45:36.760</time></trkpt><trkpt lat="55.9348317" lon="49.1768917"><time>2023-06-03T06:45:38.753</time></trkpt><trkpt lat="55.9348017" lon="49.1770100"><time>2023-06-03T06:45:40.750</time></trkpt><trkpt lat="55.9347617" lon="49.1771083"><time>2023-06-03T06:45:42.753</time></trkpt><trkpt lat="55.9347183" lon="49.1771967"><time>2023-06-03T06:45:44.747</time></trkpt><trkpt lat="55.9347667" lon="49.1771917"><time>2023-06-03T06:46:00.757</time></trkpt><trkpt lat="55.9348117" lon="49.1771617"><time>2023-06-03T06:46:03.753</time></trkpt><trkpt lat="55.9348667" lon="49.1771883"><time>2023-06-03T06:46:07.753</time></trkpt><trkpt lat="55.9349167" lon="49.1772183"><time>2023-06-03T06:46:10.750</time></trkpt><trkpt lat="55.9349667" lon="49.1772200"><time>2023-06-03T06:46:13.743</time></trkpt><trkpt lat="55.9350300" lon="49.1772333"><time>2023-06-03T06:46:16.747</time></trkpt><trkpt lat="55.9350750" lon="49.1772367"><time>2023-06-03T06:46:18.753</time></trkpt><trkpt lat="55.9351400" lon="49.1772400"><time>2023-06-03T06:46:21.757</time></trkpt><trkpt lat="55.9351967" lon="49.1772650"><time>2023-06-03T06:46:24.753</time></trkpt><trkpt lat="55.9352500" lon="49.1772867"><time>2023-06-03T06:46:27.747</time></trkpt><trkpt lat="55.9353183" lon="49.1773067"><time>2023-06-03T06:46:30.750</time></trkpt><trkpt lat="55.9353683" lon="49.1773233"><time>2023-06-03T06:46:32.760</time></trkpt><trkpt lat="55.9353917" lon="49.1773283"><time>2023-06-03T06:46:33.743</time></trkpt><trkpt lat="55.9354367" lon="49.1773450"><time>2023-06-03T06:46:35.750</time></trkpt><trkpt lat="55.9355017" lon="49.1773450"><time>2023-06-03T06:46:38.757</time></trkpt><trkpt lat="55.9355500" lon="49.1773367"><time>2023-06-03T06:46:40.750</time></trkpt><trkpt lat="55.9356150" lon="49.1773333"><time>2023-06-03T06:46:42.747</time></trkpt><trkpt lat="55.9356683" lon="49.1773350"><time>2023-06-03T06:46:44.757</time></trkpt><trkpt lat="55.9357267" lon="49.1773383"><time>2023-06-03T06:46:46.753</time></trkpt><trkpt lat="55.9357983" lon="49.1773433"><time>2023-06-03T06:46:48.753</time></trkpt><trkpt lat="55.9358633" lon="49.1773433"><time>2023-06-03T06:46:50.763</time></trkpt><trkpt lat="55.9358967" lon="49.1773500"><time>2023-06-03T06:46:51.757</time></trkpt><trkpt lat="55.9359550" lon="49.1773350"><time>2023-06-03T06:46:54.757</time></trkpt><trkpt lat="55.9360050" lon="49.1773417"><time>2023-06-03T06:46:57.753</time></trkpt><trkpt lat="55.9360550" lon="49.1773683"><time>2023-06-03T06:47:01.747</time></trkpt><trkpt lat="55.9361083" lon="49.1773883"><time>2023-06-03T06:47:05.760</time></trkpt><trkpt lat="55.9361083" lon="49.1773883"><time>2023-06-03T06:47:05.797</time></trkpt><trkpt lat="55.9361467" lon="49.1774350"><time>2023-06-03T06:47:09.760</time></trkpt><trkpt lat="55.9361500" lon="49.1774533"><time>2023-06-03T06:47:10.750</time></trkpt><trkpt lat="55.9361083" lon="49.1774167"><time>2023-06-03T06:47:20.743</time></trkpt><trkpt lat="55.9360600" lon="49.1774250"><time>2023-06-03T06:47:25.747</time></trkpt><trkpt lat="55.9360100" lon="49.1774333"><time>2023-06-03T06:47:30.743</time></trkpt><trkpt lat="55.9359550" lon="49.1774483"><time>2023-06-03T06:47:35.733</time></trkpt><trkpt lat="55.9358967" lon="49.1774417"><time>2023-06-03T06:47:39.730</time></trkpt><trkpt lat="55.9358450" lon="49.1774233"><time>2023-06-03T06:47:42.753</time></trkpt><trkpt lat="55.9357917" lon="49.1774067"><time>2023-06-03T06:47:45.730</time></trkpt><trkpt lat="55.9357317" lon="49.1773983"><time>2023-06-03T06:47:48.757</time></trkpt><trkpt lat="55.9356733" lon="49.1773850"><time>2023-06-03T06:47:52.757</time></trkpt><trkpt lat="55.9356200" lon="49.1773967"><time>2023-06-03T06:47:59.750</time></trkpt><trkpt lat="55.9355750" lon="49.1774033"><time>2023-06-03T06:48:03.750</time></trkpt><trkpt lat="55.9355150" lon="49.1773933"><time>2023-06-03T06:48:06.747</time></trkpt><trkpt lat="55.9354650" lon="49.1773983"><time>2023-06-03T06:48:09.750</time></trkpt><trkpt lat="55.9354117" lon="49.1773967"><time>2023-06-03T06:48:12.757</time></trkpt><trkpt lat="55.9353533" lon="49.1773667"><time>2023-06-03T06:48:15.753</time></trkpt><trkpt lat="55.9353017" lon="49.1773517"><time>2023-06-03T06:48:19.753</time></trkpt><trkpt lat="55.9352533" lon="49.1773233"><time>2023-06-03T06:48:21.747</time></trkpt><trkpt lat="55.9352117" lon="49.1772883"><time>2023-06-03T06:48:23.753</time></trkpt><trkpt lat="55.9351633" lon="49.1772817"><time>2023-06-03T06:48:25.747</time></trkpt><trkpt lat="55.9351183" lon="49.1772817"><time>2023-06-03T06:48:28.747</time></trkpt><trkpt lat="55.9350733" lon="49.1772850"><time>2023-06-03T06:48:32.747</time></trkpt><trkpt lat="55.9350250" lon="49.1772800"><time>2023-06-03T06:48:35.733</time></trkpt><trkpt lat="55.9349650" lon="49.1772583"><time>2023-06-03T06:48:38.747</time></trkpt><trkpt lat="55.9349083" lon="49.1772183"><time>2023-06-03T06:48:41.747</time></trkpt><trkpt lat="55.9348650" lon="49.1771833"><time>2023-06-03T06:48:44.753</time></trkpt><trkpt lat="55.9348133" lon="49.1771500"><time>2023-06-03T06:48:47.750</time></trkpt><trkpt lat="55.9347650" lon="49.1771617"><time>2023-06-03T06:48:50.753</time></trkpt><trkpt lat="55.9347283" lon="49.1772117"><time>2023-06-03T06:48:53.763</time></trkpt><trkpt lat="55.9347117" lon="49.1772933"><time>2023-06-03T06:48:57.750</time></trkpt><trkpt lat="55.9346850" lon="49.1773817"><time>2023-06-03T06:49:01.753</time></trkpt><trkpt lat="55.9346567" lon="49.1774867"><time>2023-06-03T06:49:07.760</time></trkpt><trkpt lat="55.9346433" lon="49.1775733"><time>2023-06-03T06:49:09.750</time></trkpt><trkpt lat="55.9346117" lon="49.1776900"><time>2023-06-03T06:49:11.760</time></trkpt><trkpt lat="55.9345767" lon="49.1778283"><time>2023-06-03T06:49:13.757</time></trkpt><trkpt lat="55.9345483" lon="49.1779600"><time>2023-06-03T06:49:15.753</time></trkpt><trkpt lat="55.9345183" lon="49.1781117"><time>2023-06-03T06:49:17.753</time></trkpt><trkpt lat="55.9344900" lon="49.1782483"><time>2023-06-03T06:49:19.747</time></trkpt><trkpt lat="55.9344533" lon="49.1783767"><time>2023-06-03T06:49:21.757</time></trkpt><trkpt lat="55.9344200" lon="49.1785100"><time>2023-06-03T06:49:23.737</time></trkpt><trkpt lat="55.9344050" lon="49.1785900"><time>2023-06-03T06:49:24.753</time></trkpt><trkpt lat="55.9343700" lon="49.1787267"><time>2023-06-03T06:49:26.757</time></trkpt><trkpt lat="55.9343333" lon="49.1788650"><time>2023-06-03T06:49:28.747</time></trkpt><trkpt lat="55.9342967" lon="49.1789983"><time>2023-06-03T06:49:30.750</time></trkpt><trkpt lat="55.9342667" lon="49.1791183"><time>2023-06-03T06:49:32.757</time></trkpt><trkpt lat="55.9342317" lon="49.1792483"><time>2023-06-03T06:49:34.750</time></trkpt><trkpt lat="55.9342017" lon="49.1794000"><time>2023-06-03T06:49:36.757</time></trkpt><trkpt lat="55.9341650" lon="49.1795333"><time>2023-06-03T06:49:38.753</time></trkpt><trkpt lat="55.9341317" lon="49.1796550"><time>2023-06-03T06:49:40.750</time></trkpt><trkpt lat="55.9340967" lon="49.1797817"><time>2023-06-03T06:49:42.750</time></trkpt><trkpt lat="55.9340633" lon="49.1799200"><time>2023-06-03T06:49:44.767</time></trkpt><trkpt lat="55.9340383" lon="49.1800667"><time>2023-06-03T06:49:46.740</time></trkpt><trkpt lat="55.9340233" lon="49.1801900"><time>2023-06-03T06:49:48.750</time></trkpt><trkpt lat="55.9339950" lon="49.1803167"><time>2023-06-03T06:49:50.760</time></trkpt><trkpt lat="55.9339717" lon="49.1804400"><time>2023-06-03T06:49:52.753</time></trkpt><trkpt lat="55.9339433" lon="49.1805617"><time>2023-06-03T06:49:54.757</time></trkpt><trkpt lat="55.9338967" lon="49.1806833"><time>2023-06-03T06:49:56.750</time></trkpt><trkpt lat="55.9338633" lon="49.1808133"><time>2023-06-03T06:49:58.750</time></trkpt><trkpt lat="55.9338267" lon="49.1809433"><time>2023-06-03T06:50:00.753</time></trkpt><trkpt lat="55.9337867" lon="49.1810767"><time>2023-06-03T06:50:02.740</time></trkpt><trkpt lat="55.9337450" lon="49.1812067"><time>2023-06-03T06:50:04.747</time></trkpt><trkpt lat="55.9337083" lon="49.1813300"><time>2023-06-03T06:50:06.747</time></trkpt><trkpt lat="55.9336767" lon="49.1814733"><time>2023-06-03T06:50:08.757</time></trkpt><trkpt lat="55.9336600" lon="49.1815483"><time>2023-06-03T06:50:09.753</time></trkpt><trkpt lat="55.9336233" lon="49.1816850"><time>2023-06-03T06:50:11.747</time></trkpt><trkpt lat="55.9335867" lon="49.1818217"><time>2023-06-03T06:50:13.747</time></trkpt><trkpt lat="55.9335633" lon="49.1819033"><time>2023-06-03T06:50:14.750</time></trkpt><trkpt lat="55.9335417" lon="49.1819800"><time>2023-06-03T06:50:15.753</time></trkpt><trkpt lat="55.9335267" lon="49.1820633"><time>2023-06-03T06:50:16.750</time></trkpt><trkpt lat="55.9334950" lon="49.1822067"><time>2023-06-03T06:50:18.750</time></trkpt><trkpt lat="55.9334783" lon="49.1822817"><time>2023-06-03T06:50:19.747</time></trkpt><trkpt lat="55.9334567" lon="49.1823617"><time>2023-06-03T06:50:20.757</time></trkpt><trkpt lat="55.9334417" lon="49.1824383"><time>2023-06-03T06:50:21.760</time></trkpt><trkpt lat="55.9334217" lon="49.1825150"><time>2023-06-03T06:50:22.720</time></trkpt><trkpt lat="55.9334033" lon="49.1825900"><time>2023-06-03T06:50:23.763</time></trkpt><trkpt lat="55.9333800" lon="49.1826667"><time>2023-06-03T06:50:24.763</time></trkpt><trkpt lat="55.9333367" lon="49.1828183"><time>2023-06-03T06:50:26.750</time></trkpt><trkpt lat="55.9333200" lon="49.1828983"><time>2023-06-03T06:50:27.747</time></trkpt><trkpt lat="55.9333017" lon="49.1829833"><time>2023-06-03T06:50:28.750</time></trkpt><trkpt lat="55.9332850" lon="49.1830683"><time>2023-06-03T06:50:29.750</time></trkpt><trkpt lat="55.9332683" lon="49.1831533"><time>2023-06-03T06:50:30.747</time></trkpt><trkpt lat="55.9332483" lon="49.1832383"><time>2023-06-03T06:50:31.747</time></trkpt><trkpt lat="55.9332300" lon="49.1833167"><time>2023-06-03T06:50:32.757</time></trkpt><trkpt lat="55.9331983" lon="49.1834617"><time>2023-06-03T06:50:34.747</time></trkpt><trkpt lat="55.9331733" lon="49.1835983"><time>2023-06-03T06:50:36.753</time></trkpt><trkpt lat="55.9331400" lon="49.1837533"><time>2023-06-03T06:50:38.757</time></trkpt><trkpt lat="55.9331250" lon="49.1838350"><time>2023-06-03T06:50:39.757</time></trkpt><trkpt lat="55.9330983" lon="49.1839033"><time>2023-06-03T06:50:40.757</time></trkpt><trkpt lat="55.9330650" lon="49.1840267"><time>2023-06-03T06:50:42.757</time></trkpt><trkpt lat="55.9330383" lon="49.1841817"><time>2023-06-03T06:50:44.750</time></trkpt><trkpt lat="55.9330233" lon="49.1842650"><time>2023-06-03T06:50:45.750</time></trkpt><trkpt lat="55.9330083" lon="49.1843467"><time>2023-06-03T06:50:46.743</time></trkpt><trkpt lat="55.9329883" lon="49.1844283"><time>2023-06-03T06:50:47.740</time></trkpt><trkpt lat="55.9329733" lon="49.1845117"><time>2023-06-03T06:50:48.757</time></trkpt><trkpt lat="55.9329567" lon="49.1846600"><time>2023-06-03T06:50:50.753</time></trkpt><trkpt lat="55.9329250" lon="49.1847933"><time>2023-06-03T06:50:52.753</time></trkpt><trkpt lat="55.9329117" lon="49.1848717"><time>2023-06-03T06:50:53.747</time></trkpt><trkpt lat="55.9328950" lon="49.1849500"><time>2023-06-03T06:50:54.750</time></trkpt><trkpt lat="55.9328717" lon="49.1850300"><time>2023-06-03T06:50:55.743</time></trkpt><trkpt lat="55.9328450" lon="49.1851000"><time>2023-06-03T06:50:56.750</time></trkpt><trkpt lat="55.9328133" lon="49.1851783"><time>2023-06-03T06:50:57.750</time></trkpt><trkpt lat="55.9327867" lon="49.1852600"><time>2023-06-03T06:50:58.753</time></trkpt><trkpt lat="55.9327467" lon="49.1854100"><time>2023-06-03T06:51:00.750</time></trkpt><trkpt lat="55.9327267" lon="49.1854983"><time>2023-06-03T06:51:01.763</time></trkpt><trkpt lat="55.9327067" lon="49.1855750"><time>2023-06-03T06:51:02.763</time></trkpt><trkpt lat="55.9326833" lon="49.1857250"><time>2023-06-03T06:51:04.757</time></trkpt><trkpt lat="55.9326533" lon="49.1858833"><time>2023-06-03T06:51:06.757</time></trkpt><trkpt lat="55.9326300" lon="49.1859733"><time>2023-06-03T06:51:07.753</time></trkpt><trkpt lat="55.9326033" lon="49.1860600"><time>2023-06-03T06:51:08.750</time></trkpt><trkpt lat="55.9325800" lon="49.1861350"><time>2023-06-03T06:51:09.747</time></trkpt><trkpt lat="55.9325600" lon="49.1862083"><time>2023-06-03T06:51:10.753</time></trkpt><trkpt lat="55.9325383" lon="49.1862817"><time>2023-06-03T06:51:11.750</time></trkpt><trkpt lat="55.9325200" lon="49.1863617"><time>2023-06-03T06:51:12.757</time></trkpt><trkpt lat="55.9324733" lon="49.1865133"><time>2023-06-03T06:51:14.763</time></trkpt><trkpt lat="55.9324550" lon="49.1865950"><time>2023-06-03T06:51:15.760</time></trkpt><trkpt lat="55.9324333" lon="49.1866833"><time>2023-06-03T06:51:16.747</time></trkpt><trkpt lat="55.9324117" lon="49.1867733"><time>2023-06-03T06:51:17.760</time></trkpt><trkpt lat="55.9323950" lon="49.1868567"><time>2023-06-03T06:51:18.753</time></trkpt><trkpt lat="55.9323667" lon="49.1869450"><time>2023-06-03T06:51:19.757</time></trkpt><trkpt lat="55.9323400" lon="49.1870467"><time>2023-06-03T06:51:20.750</time></trkpt><trkpt lat="55.9323150" lon="49.1871500"><time>2023-06-03T06:51:21.763</time></trkpt><trkpt lat="55.9322900" lon="49.1872567"><time>2023-06-03T06:51:22.747</time></trkpt><trkpt lat="55.9322683" lon="49.1873700"><time>2023-06-03T06:51:23.733</time></trkpt><trkpt lat="55.9322533" lon="49.1874800"><time>2023-06-03T06:51:24.737</time></trkpt><trkpt lat="55.9322317" lon="49.1875867"><time>2023-06-03T06:51:25.733</time></trkpt><trkpt lat="55.9322083" lon="49.1876967"><time>2023-06-03T06:51:26.737</time></trkpt><trkpt lat="55.9321917" lon="49.1878000"><time>2023-06-03T06:51:27.733</time></trkpt><trkpt lat="55.9321700" lon="49.1879033"><time>2023-06-03T06:51:28.747</time></trkpt><trkpt lat="55.9321517" lon="49.1880117"><time>2023-06-03T06:51:29.757</time></trkpt><trkpt lat="55.9321300" lon="49.1881200"><time>2023-06-03T06:51:30.753</time></trkpt><trkpt lat="55.9321067" lon="49.1882183"><time>2023-06-03T06:51:31.753</time></trkpt><trkpt lat="55.9320817" lon="49.1883167"><time>2023-06-03T06:51:32.757</time></trkpt><trkpt lat="55.9320617" lon="49.1884117"><time>2023-06-03T06:51:33.757</time></trkpt><trkpt lat="55.9320417" lon="49.1885067"><time>2023-06-03T06:51:34.757</time></trkpt><trkpt lat="55.9320250" lon="49.1885983"><time>2023-06-03T06:51:35.757</time></trkpt><trkpt lat="55.9320100" lon="49.1886850"><time>2023-06-03T06:51:36.757</time></trkpt><trkpt lat="55.9319950" lon="49.1887700"><time>2023-06-03T06:51:37.757</time></trkpt><trkpt lat="55.9319767" lon="49.1888550"><time>2023-06-03T06:51:38.753</time></trkpt><trkpt lat="55.9319567" lon="49.1889383"><time>2023-06-03T06:51:39.753</time></trkpt><trkpt lat="55.9319367" lon="49.1890267"><time>2023-06-03T06:51:40.753</time></trkpt><trkpt lat="55.9319217" lon="49.1891083"><time>2023-06-03T06:51:41.757</time></trkpt><trkpt lat="55.9319017" lon="49.1891950"><time>2023-06-03T06:51:42.760</time></trkpt><trkpt lat="55.9318867" lon="49.1892767"><time>2023-06-03T06:51:43.753</time></trkpt><trkpt lat="55.9318733" lon="49.1893533"><time>2023-06-03T06:51:44.753</time></trkpt><trkpt lat="55.9318533" lon="49.1894350"><time>2023-06-03T06:51:45.753</time></trkpt><trkpt lat="55.9318350" lon="49.1895183"><time>2023-06-03T06:51:46.750</time></trkpt><trkpt lat="55.9318167" lon="49.1896000"><time>2023-06-03T06:51:47.757</time></trkpt><trkpt lat="55.9318033" lon="49.1896833"><time>2023-06-03T06:51:48.757</time></trkpt><trkpt lat="55.9317900" lon="49.1897650"><time>2023-06-03T06:51:49.760</time></trkpt><trkpt lat="55.9317750" lon="49.1898417"><time>2023-06-03T06:51:50.757</time></trkpt><trkpt lat="55.9317567" lon="49.1899233"><time>2023-06-03T06:51:51.753</time></trkpt><trkpt lat="55.9317383" lon="49.1900017"><time>2023-06-03T06:51:52.750</time></trkpt><trkpt lat="55.9317150" lon="49.1900850"><time>2023-06-03T06:51:53.750</time></trkpt><trkpt lat="55.9316883" lon="49.1901683"><time>2023-06-03T06:51:54.747</time></trkpt><trkpt lat="55.9316583" lon="49.1902517"><time>2023-06-03T06:51:55.757</time></trkpt><trkpt lat="55.9316350" lon="49.1903317"><time>2023-06-03T06:51:56.760</time></trkpt><trkpt lat="55.9316067" lon="49.1904083"><time>2023-06-03T06:51:57.757</time></trkpt><trkpt lat="55.9315800" lon="49.1904817"><time>2023-06-03T06:51:58.753</time></trkpt><trkpt lat="55.9315517" lon="49.1905450"><time>2023-06-03T06:51:59.750</time></trkpt><trkpt lat="55.9315067" lon="49.1906433"><time>2023-06-03T06:52:01.733</time></trkpt><trkpt lat="55.9314800" lon="49.1907250"><time>2023-06-03T06:52:04.733</time></trkpt><trkpt lat="55.9314250" lon="49.1908833"><time>2023-06-03T06:52:27.750</time></trkpt><trkpt lat="55.9314050" lon="49.1909700"><time>2023-06-03T06:53:21.700</time></trkpt><trkpt lat="55.9313817" lon="49.1910500"><time>2023-06-03T06:53:23.753</time></trkpt><trkpt lat="55.9313550" lon="49.1911533"><time>2023-06-03T06:53:25.713</time></trkpt><trkpt lat="55.9313150" lon="49.1912467"><time>2023-06-03T06:53:27.727</time></trkpt><trkpt lat="55.9312650" lon="49.1913417"><time>2023-06-03T06:53:29.733</time></trkpt><trkpt lat="55.9311967" lon="49.1914367"><time>2023-06-03T06:53:31.750</time></trkpt><trkpt lat="55.9311517" lon="49.1914900"><time>2023-06-03T06:53:32.747</time></trkpt><trkpt lat="55.9311067" lon="49.1915517"><time>2023-06-03T06:53:33.757</time></trkpt><trkpt lat="55.9310633" lon="49.1916167"><time>2023-06-03T06:53:34.750</time></trkpt><trkpt lat="55.9310250" lon="49.1916850"><time>2023-06-03T06:53:35.743</time></trkpt><trkpt lat="55.9309850" lon="49.1917500"><time>2023-06-03T06:53:36.753</time></trkpt><trkpt lat="55.9308117" lon="49.1919533"><time>2023-06-03T06:53:37.753</time></trkpt><trkpt lat="55.9307683" lon="49.1920083"><time>2023-06-03T06:53:38.713</time></trkpt><trkpt lat="55.9307300" lon="49.1920733"><time>2023-06-03T06:53:39.730</time></trkpt><trkpt lat="55.9306850" lon="49.1921433"><time>2023-06-03T06:53:40.710</time></trkpt><trkpt lat="55.9306450" lon="49.1922083"><time>2023-06-03T06:53:41.730</time></trkpt><trkpt lat="55.9306033" lon="49.1922600"><time>2023-06-03T06:53:42.737</time></trkpt><trkpt lat="55.9305433" lon="49.1923317"><time>2023-06-03T06:53:43.730</time></trkpt><trkpt lat="55.9304967" lon="49.1923817"><time>2023-06-03T06:53:44.750</time></trkpt><trkpt lat="55.9304483" lon="49.1924267"><time>2023-06-03T06:53:45.747</time></trkpt><trkpt lat="55.9303983" lon="49.1924650"><time>2023-06-03T06:53:46.747</time></trkpt><trkpt lat="55.9303433" lon="49.1925067"><time>2023-06-03T06:53:47.750</time></trkpt><trkpt lat="55.9302867" lon="49.1925517"><time>2023-06-03T06:53:48.730</time></trkpt><trkpt lat="55.9302333" lon="49.1925950"><time>2023-06-03T06:53:49.733</time></trkpt><trkpt lat="55.9301767" lon="49.1926367"><time>2023-06-03T06:53:50.753</time></trkpt><trkpt lat="55.9301217" lon="49.1926833"><time>2023-06-03T06:53:51.753</time></trkpt><trkpt lat="55.9300750" lon="49.1927333"><time>2023-06-03T06:53:52.750</time></trkpt><trkpt lat="55.9300267" lon="49.1927800"><time>2023-06-03T06:53:53.747</time></trkpt><trkpt lat="55.9299783" lon="49.1928300"><time>2023-06-03T06:53:54.757</time></trkpt><trkpt lat="55.9299267" lon="49.1928750"><time>2023-06-03T06:53:55.753</time></trkpt><trkpt lat="55.9298783" lon="49.1929217"><time>2023-06-03T06:53:56.753</time></trkpt><trkpt lat="55.9298300" lon="49.1929600"><time>2023-06-03T06:53:57.747</time></trkpt><trkpt lat="55.9297517" lon="49.1930483"><time>2023-06-03T06:53:59.737</time></trkpt><trkpt lat="55.9297000" lon="49.1930933"><time>2023-06-03T06:54:00.747</time></trkpt><trkpt lat="55.9296417" lon="49.1931300"><time>2023-06-03T06:54:01.747</time></trkpt><trkpt lat="55.9295750" lon="49.1931650"><time>2023-06-03T06:54:02.747</time></trkpt><trkpt lat="55.9295067" lon="49.1931983"><time>2023-06-03T06:54:03.740</time></trkpt><trkpt lat="55.9294417" lon="49.1932433"><time>2023-06-03T06:54:04.750</time></trkpt><trkpt lat="55.9293767" lon="49.1932867"><time>2023-06-03T06:54:05.747</time></trkpt><trkpt lat="55.9293150" lon="49.1933233"><time>2023-06-03T06:54:06.750</time></trkpt><trkpt lat="55.9292717" lon="49.1933800"><time>2023-06-03T06:54:07.743</time></trkpt><trkpt lat="55.9292183" lon="49.1934367"><time>2023-06-03T06:54:08.747</time></trkpt><trkpt lat="55.9291550" lon="49.1934683"><time>2023-06-03T06:54:09.740</time></trkpt><trkpt lat="55.9290917" lon="49.1935000"><time>2023-06-03T06:54:10.740</time></trkpt><trkpt lat="55.9290317" lon="49.1935267"><time>2023-06-03T06:54:11.743</time></trkpt><trkpt lat="55.9289833" lon="49.1935667"><time>2023-06-03T06:54:12.747</time></trkpt><trkpt lat="55.9289317" lon="49.1936100"><time>2023-06-03T06:54:13.753</time></trkpt><trkpt lat="55.9288833" lon="49.1936483"><time>2023-06-03T06:54:14.743</time></trkpt><trkpt lat="55.9288367" lon="49.1936883"><time>2023-06-03T06:54:15.753</time></trkpt><trkpt lat="55.9287850" lon="49.1937233"><time>2023-06-03T06:54:16.747</time></trkpt><trkpt lat="55.9287233" lon="49.1937583"><time>2023-06-03T06:54:17.747</time></trkpt><trkpt lat="55.9286650" lon="49.1938017"><time>2023-06-03T06:54:18.743</time></trkpt><trkpt lat="55.9286100" lon="49.1938417"><time>2023-06-03T06:54:19.737</time></trkpt><trkpt lat="55.9285567" lon="49.1938750"><time>2023-06-03T06:54:20.753</time></trkpt><trkpt lat="55.9285000" lon="49.1939083"><time>2023-06-03T06:54:21.747</time></trkpt><trkpt lat="55.9284400" lon="49.1939417"><time>2023-06-03T06:54:22.737</time></trkpt><trkpt lat="55.9283883" lon="49.1939800"><time>2023-06-03T06:54:23.727</time></trkpt><trkpt lat="55.9283350" lon="49.1940183"><time>2023-06-03T06:54:24.753</time></trkpt><trkpt lat="55.9282817" lon="49.1940433"><time>2023-06-03T06:54:25.747</time></trkpt><trkpt lat="55.9282283" lon="49.1940567"><time>2023-06-03T06:54:26.753</time></trkpt><trkpt lat="55.9281783" lon="49.1940733"><time>2023-06-03T06:54:27.743</time></trkpt><trkpt lat="55.9281283" lon="49.1940917"><time>2023-06-03T06:54:28.730</time></trkpt><trkpt lat="55.9280817" lon="49.1941333"><time>2023-06-03T06:54:29.730</time></trkpt><trkpt lat="55.9280333" lon="49.1941800"><time>2023-06-03T06:54:30.727</time></trkpt><trkpt lat="55.9279833" lon="49.1942283"><time>2023-06-03T06:54:31.727</time></trkpt><trkpt lat="55.9279367" lon="49.1942767"><time>2023-06-03T06:54:32.750</time></trkpt><trkpt lat="55.9278883" lon="49.1943283"><time>2023-06-03T06:54:33.747</time></trkpt><trkpt lat="55.9278417" lon="49.1943800"><time>2023-06-03T06:54:34.740</time></trkpt><trkpt lat="55.9278000" lon="49.1944333"><time>2023-06-03T06:54:35.753</time></trkpt><trkpt lat="55.9277533" lon="49.1945283"><time>2023-06-03T06:54:37.743</time></trkpt><trkpt lat="55.9276533" lon="49.1944867"><time>2023-06-03T06:54:58.750</time></trkpt><trkpt lat="55.9275967" lon="49.1945267"><time>2023-06-03T06:55:01.743</time></trkpt><trkpt lat="55.9275333" lon="49.1945650"><time>2023-06-03T06:55:03.743</time></trkpt><trkpt lat="55.9274833" lon="49.1946050"><time>2023-06-03T06:55:05.750</time></trkpt><trkpt lat="55.9274200" lon="49.1946517"><time>2023-06-03T06:55:07.750</time></trkpt><trkpt lat="55.9273617" lon="49.1946817"><time>2023-06-03T06:55:09.747</time></trkpt><trkpt lat="55.9273017" lon="49.1947300"><time>2023-06-03T06:55:11.747</time></trkpt><trkpt lat="55.9272467" lon="49.1947833"><time>2023-06-03T06:55:13.750</time></trkpt><trkpt lat="55.9272017" lon="49.1948383"><time>2023-06-03T06:55:15.763</time></trkpt><trkpt lat="55.9271433" lon="49.1948967"><time>2023-06-03T06:55:17.747</time></trkpt><trkpt lat="55.9270833" lon="49.1949517"><time>2023-06-03T06:55:19.747</time></trkpt><trkpt lat="55.9270167" lon="49.1950083"><time>2023-06-03T06:55:21.753</time></trkpt><trkpt lat="55.9269517" lon="49.1950467"><time>2023-06-03T06:55:23.747</time></trkpt><trkpt lat="55.9268867" lon="49.1950800"><time>2023-06-03T06:55:25.730</time></trkpt><trkpt lat="55.9268033" lon="49.1951317"><time>2023-06-03T06:55:27.733</time></trkpt><trkpt lat="55.9267583" lon="49.1951683"><time>2023-06-03T06:55:28.733</time></trkpt><trkpt lat="55.9266850" lon="49.1952217"><time>2023-06-03T06:55:30.720</time></trkpt><trkpt lat="55.9266217" lon="49.1952800"><time>2023-06-03T06:55:32.737</time></trkpt><trkpt lat="55.9265550" lon="49.1953350"><time>2023-06-03T06:55:34.733</time></trkpt><trkpt lat="55.9264950" lon="49.1953950"><time>2023-06-03T06:55:36.727</time></trkpt><trkpt lat="55.9264483" lon="49.1954533"><time>2023-06-03T06:55:38.737</time></trkpt><trkpt lat="55.9263983" lon="49.1954900"><time>2023-06-03T06:55:40.707</time></trkpt><trkpt lat="55.9263217" lon="49.1955283"><time>2023-06-03T06:55:42.733</time></trkpt><trkpt lat="55.9262400" lon="49.1955650"><time>2023-06-03T06:55:44.730</time></trkpt><trkpt lat="55.9261500" lon="49.1955883"><time>2023-06-03T06:55:46.740</time></trkpt><trkpt lat="55.9260950" lon="49.1956050"><time>2023-06-03T06:55:48.757</time></trkpt><trkpt lat="55.9260400" lon="49.1956067"><time>2023-06-03T06:55:51.743</time></trkpt><trkpt lat="55.9259700" lon="49.1954850"><time>2023-06-03T06:56:07.743</time></trkpt><trkpt lat="55.9258783" lon="49.1954133"><time>2023-06-03T06:56:22.747</time></trkpt><trkpt lat="55.9258350" lon="49.1953633"><time>2023-06-03T06:56:25.753</time></trkpt><trkpt lat="55.9257933" lon="49.1953150"><time>2023-06-03T06:56:28.747</time></trkpt><trkpt lat="55.9257350" lon="49.1952850"><time>2023-06-03T06:56:30.743</time></trkpt><trkpt lat="55.9256850" lon="49.1952567"><time>2023-06-03T06:56:32.747</time></trkpt><trkpt lat="55.9256433" lon="49.1952017"><time>2023-06-03T06:56:34.753</time></trkpt><trkpt lat="55.9255933" lon="49.1951217"><time>2023-06-03T06:56:36.743</time></trkpt><trkpt lat="55.9255517" lon="49.1950450"><time>2023-06-03T06:56:38.723</time></trkpt><trkpt lat="55.9255033" lon="49.1949883"><time>2023-06-03T06:56:40.730</time></trkpt><trkpt lat="55.9254533" lon="49.1949283"><time>2023-06-03T06:56:42.727</time></trkpt><trkpt lat="55.9254067" lon="49.1948683"><time>2023-06-03T06:56:44.727</time></trkpt><trkpt lat="55.9253600" lon="49.1948233"><time>2023-06-03T06:56:46.727</time></trkpt><trkpt lat="55.9253033" lon="49.1947917"><time>2023-06-03T06:56:48.733</time></trkpt><trkpt lat="55.9252617" lon="49.1947433"><time>2023-06-03T06:56:51.747</time></trkpt><trkpt lat="55.9252267" lon="49.1945583"><time>2023-06-03T06:57:02.743</time></trkpt><trkpt lat="55.9252083" lon="49.1944700"><time>2023-06-03T06:57:05.747</time></trkpt><trkpt lat="55.9252000" lon="49.1943733"><time>2023-06-03T06:57:08.743</time></trkpt><trkpt lat="55.9251967" lon="49.1942917"><time>2023-06-03T06:57:11.750</time></trkpt><trkpt lat="55.9251867" lon="49.1942033"><time>2023-06-03T06:57:15.750</time></trkpt><trkpt lat="55.9251867" lon="49.1941200"><time>2023-06-03T06:57:18.730</time></trkpt><trkpt lat="55.9251817" lon="49.1940217"><time>2023-06-03T06:57:21.753</time></trkpt><trkpt lat="55.9251783" lon="49.1939317"><time>2023-06-03T06:57:25.747</time></trkpt><trkpt lat="55.9251667" lon="49.1938183"><time>2023-06-03T06:57:29.753</time></trkpt><trkpt lat="55.9251583" lon="49.1937133"><time>2023-06-03T06:57:31.757</time></trkpt><trkpt lat="55.9251700" lon="49.1936217"><time>2023-06-03T06:57:34.750</time></trkpt><trkpt lat="55.9251583" lon="49.1935067"><time>2023-06-03T06:57:37.753</time></trkpt><trkpt lat="55.9251417" lon="49.1934217"><time>2023-06-03T06:57:39.750</time></trkpt><trkpt lat="55.9251450" lon="49.1933167"><time>2023-06-03T06:57:41.747</time></trkpt><trkpt lat="55.9251567" lon="49.1932100"><time>2023-06-03T06:57:43.747</time></trkpt><trkpt lat="55.9251700" lon="49.1931267"><time>2023-06-03T06:57:45.753</time></trkpt><trkpt lat="55.9251933" lon="49.1930383"><time>2023-06-03T06:57:47.750</time></trkpt><trkpt lat="55.9252133" lon="49.1929433"><time>2023-06-03T06:57:49.763</time></trkpt><trkpt lat="55.9252250" lon="49.1928483"><time>2023-06-03T06:57:51.750</time></trkpt><trkpt lat="55.9252333" lon="49.1927367"><time>2023-06-03T06:57:53.747</time></trkpt><trkpt lat="55.9252350" lon="49.1926350"><time>2023-06-03T06:57:55.733</time></trkpt><trkpt lat="55.9252417" lon="49.1925433"><time>2023-06-03T06:57:57.727</time></trkpt><trkpt lat="55.9252450" lon="49.1924383"><time>2023-06-03T06:57:59.730</time></trkpt><trkpt lat="55.9252617" lon="49.1923467"><time>2023-06-03T06:58:02.737</time></trkpt><trkpt lat="55.9252617" lon="49.1922333"><time>2023-06-03T06:58:06.757</time></trkpt><trkpt lat="55.9252533" lon="49.1921533"><time>2023-06-03T06:58:09.753</time></trkpt><trkpt lat="55.9252167" lon="49.1920850"><time>2023-06-03T06:58:24.750</time></trkpt><trkpt lat="55.9251883" lon="49.1920117"><time>2023-06-03T06:58:27.747</time></trkpt><trkpt lat="55.9252017" lon="49.1919200"><time>2023-06-03T06:58:30.750</time></trkpt><trkpt lat="55.9252233" lon="49.1918167"><time>2023-06-03T06:58:33.743</time></trkpt><trkpt lat="55.9252633" lon="49.1917217"><time>2023-06-03T06:58:35.743</time></trkpt><trkpt lat="55.9252750" lon="49.1916150"><time>2023-06-03T06:58:38.743</time></trkpt><trkpt lat="55.9252767" lon="49.1915333"><time>2023-06-03T06:58:40.743</time></trkpt><trkpt lat="55.9252833" lon="49.1914517"><time>2023-06-03T06:58:42.753</time></trkpt><trkpt lat="55.9252833" lon="49.1913683"><time>2023-06-03T06:58:44.750</time></trkpt><trkpt lat="55.9252783" lon="49.1912550"><time>2023-06-03T06:58:47.753</time></trkpt><trkpt lat="55.9252800" lon="49.1911650"><time>2023-06-03T06:58:49.750</time></trkpt><trkpt lat="55.9252717" lon="49.1910800"><time>2023-06-03T06:58:52.737</time></trkpt><trkpt lat="55.9252700" lon="49.1909933"><time>2023-06-03T06:58:55.763</time></trkpt><trkpt lat="55.9252717" lon="49.1909667"><time>2023-06-03T06:58:56.753</time></trkpt><trkpt lat="55.9252683" lon="49.1908567"><time>2023-06-03T06:58:59.753</time></trkpt><trkpt lat="55.9252700" lon="49.1907317"><time>2023-06-03T06:59:02.750</time></trkpt><trkpt lat="55.9252567" lon="49.1906467"><time>2023-06-03T06:59:04.743</time></trkpt><trkpt lat="55.9252617" lon="49.1905650"><time>2023-06-03T06:59:06.733</time></trkpt><trkpt lat="55.9252783" lon="49.1904867"><time>2023-06-03T06:59:08.733</time></trkpt><trkpt lat="55.9253017" lon="49.1904150"><time>2023-06-03T06:59:10.730</time></trkpt><trkpt lat="55.9253350" lon="49.1903333"><time>2023-06-03T06:59:18.750</time></trkpt><trkpt lat="55.9253367" lon="49.1902500"><time>2023-06-03T06:59:20.753</time></trkpt><trkpt lat="55.9253433" lon="49.1901700"><time>2023-06-03T06:59:32.750</time></trkpt><trkpt lat="55.9253467" lon="49.1900383"><time>2023-06-03T06:59:37.747</time></trkpt><trkpt lat="55.9253517" lon="49.1899500"><time>2023-06-03T06:59:39.720</time></trkpt><trkpt lat="55.9253483" lon="49.1898550"><time>2023-06-03T06:59:41.730</time></trkpt><trkpt lat="55.9253600" lon="49.1897533"><time>2023-06-03T06:59:43.747</time></trkpt><trkpt lat="55.9253700" lon="49.1896600"><time>2023-06-03T06:59:45.743</time></trkpt><trkpt lat="55.9253783" lon="49.1895483"><time>2023-06-03T06:59:47.747</time></trkpt><trkpt lat="55.9253833" lon="49.1894433"><time>2023-06-03T06:59:49.760</time></trkpt><trkpt lat="55.9253883" lon="49.1894033"><time>2023-06-03T06:59:50.757</time></trkpt><trkpt lat="55.9253933" lon="49.1893050"><time>2023-06-03T06:59:52.753</time></trkpt><trkpt lat="55.9253800" lon="49.1892033"><time>2023-06-03T06:59:54.743</time></trkpt><trkpt lat="55.9253700" lon="49.1891167"><time>2023-06-03T06:59:56.747</time></trkpt><trkpt lat="55.9253617" lon="49.1890267"><time>2023-06-03T06:59:58.753</time></trkpt><trkpt lat="55.9253733" lon="49.1889150"><time>2023-06-03T07:00:00.750</time></trkpt><trkpt lat="55.9253783" lon="49.1888317"><time>2023-06-03T07:00:02.747</time></trkpt><trkpt lat="55.9253983" lon="49.1887333"><time>2023-06-03T07:00:05.743</time></trkpt><trkpt lat="55.9254100" lon="49.1886550"><time>2023-06-03T07:00:07.760</time></trkpt><trkpt lat="55.9254133" lon="49.1886083"><time>2023-06-03T07:00:08.760</time></trkpt><trkpt lat="55.9254217" lon="49.1885133"><time>2023-06-03T07:00:10.757</time></trkpt><trkpt lat="55.9254267" lon="49.1884250"><time>2023-06-03T07:00:12.750</time></trkpt><trkpt lat="55.9254317" lon="49.1883133"><time>2023-06-03T07:00:15.747</time></trkpt><trkpt lat="55.9254267" lon="49.1882200"><time>2023-06-03T07:00:18.740</time></trkpt><trkpt lat="55.9254783" lon="49.1880300"><time>2023-06-03T07:00:27.707</time></trkpt><trkpt lat="55.9254783" lon="49.1880300"><time>2023-06-03T07:00:27.743</time></trkpt><trkpt lat="55.9254833" lon="49.1881617"><time>2023-06-03T07:00:41.727</time></trkpt><trkpt lat="55.9254783" lon="49.1881950"><time>2023-06-03T07:00:42.730</time></trkpt><trkpt lat="55.9254717" lon="49.1883167"><time>2023-06-03T07:00:45.763</time></trkpt><trkpt lat="55.9254800" lon="49.1884133"><time>2023-06-03T07:00:47.733</time></trkpt><trkpt lat="55.9254883" lon="49.1885117"><time>2023-06-03T07:00:49.730</time></trkpt><trkpt lat="55.9254817" lon="49.1886233"><time>2023-06-03T07:00:51.753</time></trkpt><trkpt lat="55.9254733" lon="49.1887383"><time>2023-06-03T07:00:53.750</time></trkpt><trkpt lat="55.9254633" lon="49.1888500"><time>2023-06-03T07:00:55.747</time></trkpt><trkpt lat="55.9254500" lon="49.1889633"><time>2023-06-03T07:00:57.747</time></trkpt><trkpt lat="55.9254367" lon="49.1890633"><time>2023-06-03T07:00:59.750</time></trkpt><trkpt lat="55.9254283" lon="49.1891683"><time>2023-06-03T07:01:01.750</time></trkpt><trkpt lat="55.9254250" lon="49.1892717"><time>2023-06-03T07:01:03.743</time></trkpt><trkpt lat="55.9254267" lon="49.1893683"><time>2023-06-03T07:01:05.747</time></trkpt><trkpt lat="55.9254167" lon="49.1894633"><time>2023-06-03T07:01:07.750</time></trkpt><trkpt lat="55.9254083" lon="49.1895500"><time>2023-06-03T07:01:09.747</time></trkpt><trkpt lat="55.9254050" lon="49.1896633"><time>2023-06-03T07:01:12.747</time></trkpt><trkpt lat="55.9253850" lon="49.1897650"><time>2023-06-03T07:01:15.750</time></trkpt><trkpt lat="55.9254017" lon="49.1898500"><time>2023-06-03T07:01:20.747</time></trkpt><trkpt lat="55.9254017" lon="49.1899450"><time>2023-06-03T07:01:23.740</time></trkpt><trkpt lat="55.9253900" lon="49.1901117"><time>2023-06-03T07:01:32.747</time></trkpt><trkpt lat="55.9253983" lon="49.1902000"><time>2023-06-03T07:01:36.760</time></trkpt><trkpt lat="55.9253933" lon="49.1902800"><time>2023-06-03T07:01:39.733</time></trkpt><trkpt lat="55.9253900" lon="49.1903600"><time>2023-06-03T07:01:42.750</time></trkpt><trkpt lat="55.9253750" lon="49.1904450"><time>2023-06-03T07:01:45.753</time></trkpt><trkpt lat="55.9253600" lon="49.1905333"><time>2023-06-03T07:01:49.750</time></trkpt><trkpt lat="55.9253200" lon="49.1907050"><time>2023-06-03T07:01:57.757</time></trkpt><trkpt lat="55.9253033" lon="49.1907983"><time>2023-06-03T07:02:00.747</time></trkpt><trkpt lat="55.9253150" lon="49.1908867"><time>2023-06-03T07:02:03.740</time></trkpt><trkpt lat="55.9253167" lon="49.1909767"><time>2023-06-03T07:02:06.743</time></trkpt><trkpt lat="55.9253267" lon="49.1910617"><time>2023-06-03T07:02:09.747</time></trkpt><trkpt lat="55.9253267" lon="49.1911600"><time>2023-06-03T07:02:12.747</time></trkpt><trkpt lat="55.9253083" lon="49.1912500"><time>2023-06-03T07:02:14.747</time></trkpt><trkpt lat="55.9252950" lon="49.1913367"><time>2023-06-03T07:02:16.747</time></trkpt><trkpt lat="55.9252867" lon="49.1914433"><time>2023-06-03T07:02:18.750</time></trkpt><trkpt lat="55.9252967" lon="49.1915450"><time>2023-06-03T07:02:20.757</time></trkpt><trkpt lat="55.9253000" lon="49.1916533"><time>2023-06-03T07:02:22.750</time></trkpt><trkpt lat="55.9252883" lon="49.1917367"><time>2023-06-03T07:02:24.743</time></trkpt><trkpt lat="55.9252750" lon="49.1918483"><time>2023-06-03T07:02:26.737</time></trkpt><trkpt lat="55.9252683" lon="49.1919700"><time>2023-06-03T07:02:28.737</time></trkpt><trkpt lat="55.9252550" lon="49.1920717"><time>2023-06-03T07:02:30.750</time></trkpt><trkpt lat="55.9252367" lon="49.1921550"><time>2023-06-03T07:02:32.743</time></trkpt><trkpt lat="55.9252167" lon="49.1922417"><time>2023-06-03T07:02:34.750</time></trkpt><trkpt lat="55.9252033" lon="49.1923600"><time>2023-06-03T07:02:36.703</time></trkpt><trkpt lat="55.9251950" lon="49.1924617"><time>2023-06-03T07:02:38.733</time></trkpt><trkpt lat="55.9251967" lon="49.1925483"><time>2023-06-03T07:02:41.747</time></trkpt><trkpt lat="55.9251950" lon="49.1926733"><time>2023-06-03T07:02:44.747</time></trkpt><trkpt lat="55.9251867" lon="49.1927633"><time>2023-06-03T07:02:46.727</time></trkpt><trkpt lat="55.9251750" lon="49.1928633"><time>2023-06-03T07:02:48.753</time></trkpt><trkpt lat="55.9251733" lon="49.1929517"><time>2023-06-03T07:02:50.747</time></trkpt><trkpt lat="55.9251700" lon="49.1930750"><time>2023-06-03T07:02:52.740</time></trkpt><trkpt lat="55.9251767" lon="49.1931850"><time>2023-06-03T07:02:54.747</time></trkpt><trkpt lat="55.9251717" lon="49.1933233"><time>2023-06-03T07:02:56.730</time></trkpt><trkpt lat="55.9251667" lon="49.1934550"><time>2023-06-03T07:02:58.730</time></trkpt><trkpt lat="55.9251600" lon="49.1935733"><time>2023-06-03T07:03:00.753</time></trkpt><trkpt lat="55.9251550" lon="49.1936950"><time>2023-06-03T07:03:02.747</time></trkpt><trkpt lat="55.9251533" lon="49.1937850"><time>2023-06-03T07:03:04.727</time></trkpt><trkpt lat="55.9251500" lon="49.1938667"><time>2023-06-03T07:03:06.733</time></trkpt><trkpt lat="55.9251483" lon="49.1939483"><time>2023-06-03T07:03:08.727</time></trkpt><trkpt lat="55.9251550" lon="49.1940300"><time>2023-06-03T07:03:12.747</time></trkpt><trkpt lat="55.9251550" lon="49.1941933"><time>2023-06-03T07:03:33.747</time></trkpt><trkpt lat="55.9252083" lon="49.1942367"><time>2023-06-03T07:03:38.747</time></trkpt><trkpt lat="55.9252483" lon="49.1942750"><time>2023-06-03T07:03:41.747</time></trkpt><trkpt lat="55.9252000" lon="49.1942783"><time>2023-06-03T07:03:54.740</time></trkpt><trkpt lat="55.9252600" lon="49.1942833"><time>2023-06-03T07:04:06.750</time></trkpt><trkpt lat="55.9253000" lon="49.1943267"><time>2023-06-03T07:04:08.750</time></trkpt><trkpt lat="55.9253450" lon="49.1943583"><time>2023-06-03T07:04:10.747</time></trkpt><trkpt lat="55.9253867" lon="49.1944083"><time>2023-06-03T07:04:12.747</time></trkpt><trkpt lat="55.9254283" lon="49.1944833"><time>2023-06-03T07:04:14.737</time></trkpt><trkpt lat="55.9254750" lon="49.1945467"><time>2023-06-03T07:04:16.757</time></trkpt><trkpt lat="55.9255233" lon="49.1946183"><time>2023-06-03T07:04:18.747</time></trkpt><trkpt lat="55.9255767" lon="49.1946800"><time>2023-06-03T07:04:20.743</time></trkpt><trkpt lat="55.9256283" lon="49.1947417"><time>2023-06-03T07:04:22.747</time></trkpt><trkpt lat="55.9256800" lon="49.1948050"><time>2023-06-03T07:04:24.750</time></trkpt><trkpt lat="55.9257267" lon="49.1948700"><time>2023-06-03T07:04:26.747</time></trkpt><trkpt lat="55.9257733" lon="49.1949400"><time>2023-06-03T07:04:29.737</time></trkpt><trkpt lat="55.9258333" lon="49.1949700"><time>2023-06-03T07:04:32.737</time></trkpt><trkpt lat="55.9258783" lon="49.1949767"><time>2023-06-03T07:04:34.750</time></trkpt><trkpt lat="55.9259417" lon="49.1949600"><time>2023-06-03T07:04:37.740</time></trkpt><trkpt lat="55.9260083" lon="49.1949433"><time>2023-06-03T07:04:40.743</time></trkpt><trkpt lat="55.9260617" lon="49.1949167"><time>2023-06-03T07:04:42.757</time></trkpt><trkpt lat="55.9261233" lon="49.1948783"><time>2023-06-03T07:04:45.730</time></trkpt><trkpt lat="55.9261783" lon="49.1948750"><time>2023-06-03T07:04:47.747</time></trkpt><trkpt lat="55.9262350" lon="49.1948550"><time>2023-06-03T07:04:49.733</time></trkpt><trkpt lat="55.9262900" lon="49.1948283"><time>2023-06-03T07:04:51.730</time></trkpt><trkpt lat="55.9263350" lon="49.1948033"><time>2023-06-03T07:04:53.740</time></trkpt><trkpt lat="55.9263867" lon="49.1948100"><time>2023-06-03T07:04:55.743</time></trkpt><trkpt lat="55.9264400" lon="49.1948183"><time>2023-06-03T07:04:57.747</time></trkpt><trkpt lat="55.9265000" lon="49.1948167"><time>2023-06-03T07:04:59.743</time></trkpt><trkpt lat="55.9265467" lon="49.1947933"><time>2023-06-03T07:05:01.747</time></trkpt><trkpt lat="55.9265983" lon="49.1947633"><time>2023-06-03T07:05:03.740</time></trkpt><trkpt lat="55.9266517" lon="49.1947283"><time>2023-06-03T07:05:05.740</time></trkpt><trkpt lat="55.9267033" lon="49.1947083"><time>2023-06-03T07:05:07.743</time></trkpt><trkpt lat="55.9267500" lon="49.1946900"><time>2023-06-03T07:05:09.733</time></trkpt><trkpt lat="55.9267933" lon="49.1946650"><time>2023-06-03T07:05:11.733</time></trkpt><trkpt lat="55.9268500" lon="49.1946200"><time>2023-06-03T07:05:14.743</time></trkpt><trkpt lat="55.9268933" lon="49.1945967"><time>2023-06-03T07:05:16.747</time></trkpt><trkpt lat="55.9269450" lon="49.1945783"><time>2023-06-03T07:05:19.747</time></trkpt><trkpt lat="55.9269983" lon="49.1945617"><time>2023-06-03T07:05:22.747</time></trkpt><trkpt lat="55.9270400" lon="49.1945317"><time>2023-06-03T07:05:25.750</time></trkpt><trkpt lat="55.9270917" lon="49.1945100"><time>2023-06-03T07:05:29.750</time></trkpt><trkpt lat="55.9271450" lon="49.1945067"><time>2023-06-03T07:05:32.750</time></trkpt><trkpt lat="55.9273017" lon="49.1945333"><time>2023-06-03T07:05:43.750</time></trkpt><trkpt lat="55.9274117" lon="49.1945383"><time>2023-06-03T07:05:58.747</time></trkpt><trkpt lat="55.9274883" lon="49.1945733"><time>2023-06-03T07:06:07.753</time></trkpt><trkpt lat="55.9275217" lon="49.1946333"><time>2023-06-03T07:06:09.743</time></trkpt><trkpt lat="55.9275633" lon="49.1947017"><time>2023-06-03T07:06:11.740</time></trkpt><trkpt lat="55.9276017" lon="49.1948050"><time>2023-06-03T07:06:13.743</time></trkpt><trkpt lat="55.9276467" lon="49.1949033"><time>2023-06-03T07:06:15.767</time></trkpt><trkpt lat="55.9276833" lon="49.1949817"><time>2023-06-03T07:06:17.747</time></trkpt><trkpt lat="55.9278067" lon="49.1950367"><time>2023-06-03T07:06:30.750</time></trkpt><trkpt lat="55.9278600" lon="49.1949967"><time>2023-06-03T07:06:35.757</time></trkpt><trkpt lat="55.9279083" lon="49.1949833"><time>2023-06-03T07:06:38.747</time></trkpt><trkpt lat="55.9279717" lon="49.1949683"><time>2023-06-03T07:06:41.747</time></trkpt><trkpt lat="55.9280367" lon="49.1949767"><time>2023-06-03T07:06:44.747</time></trkpt><trkpt lat="55.9280817" lon="49.1949800"><time>2023-06-03T07:06:46.757</time></trkpt><trkpt lat="55.9281467" lon="49.1949767"><time>2023-06-03T07:06:49.740</time></trkpt><trkpt lat="55.9281967" lon="49.1949750"><time>2023-06-03T07:06:51.747</time></trkpt><trkpt lat="55.9282533" lon="49.1949967"><time>2023-06-03T07:06:54.743</time></trkpt><trkpt lat="55.9283083" lon="49.1950033"><time>2023-06-03T07:06:57.753</time></trkpt><trkpt lat="55.9283767" lon="49.1950067"><time>2023-06-03T07:07:00.747</time></trkpt><trkpt lat="55.9284217" lon="49.1950083"><time>2023-06-03T07:07:02.730</time></trkpt><trkpt lat="55.9284667" lon="49.1950217"><time>2023-06-03T07:07:04.767</time></trkpt><trkpt lat="55.9285200" lon="49.1950367"><time>2023-06-03T07:07:07.733</time></trkpt><trkpt lat="55.9285667" lon="49.1950433"><time>2023-06-03T07:07:10.737</time></trkpt><trkpt lat="55.9286200" lon="49.1950467"><time>2023-06-03T07:07:15.747</time></trkpt><trkpt lat="55.9286767" lon="49.1950483"><time>2023-06-03T07:07:19.750</time></trkpt><trkpt lat="55.9287317" lon="49.1950333"><time>2023-06-03T07:07:22.747</time></trkpt><trkpt lat="55.9287900" lon="49.1950383"><time>2023-06-03T07:07:25.747</time></trkpt><trkpt lat="55.9288517" lon="49.1950533"><time>2023-06-03T07:07:29.753</time></trkpt><trkpt lat="55.9288983" lon="49.1950467"><time>2023-06-03T07:07:31.757</time></trkpt><trkpt lat="55.9289433" lon="49.1950433"><time>2023-06-03T07:07:33.753</time></trkpt><trkpt lat="55.9289950" lon="49.1950400"><time>2023-06-03T07:07:36.750</time></trkpt><trkpt lat="55.9290983" lon="49.1950583"><time>2023-06-03T07:07:42.737</time></trkpt><trkpt lat="55.9291517" lon="49.1950667"><time>2023-06-03T07:07:45.720</time></trkpt><trkpt lat="55.9292150" lon="49.1950583"><time>2023-06-03T07:07:48.727</time></trkpt><trkpt lat="55.9292683" lon="49.1950567"><time>2023-06-03T07:07:51.757</time></trkpt><trkpt lat="55.9293200" lon="49.1950600"><time>2023-06-03T07:07:54.757</time></trkpt><trkpt lat="55.9293633" lon="49.1951167"><time>2023-06-03T07:07:58.747</time></trkpt><trkpt lat="55.9294050" lon="49.1951883"><time>2023-06-03T07:08:02.753</time></trkpt><trkpt lat="55.9294783" lon="49.1952833"><time>2023-06-03T07:08:08.747</time></trkpt><trkpt lat="55.9294983" lon="49.1953883"><time>2023-06-03T07:08:11.743</time></trkpt><trkpt lat="55.9295117" lon="49.1954650"><time>2023-06-03T07:08:13.753</time></trkpt><trkpt lat="55.9295317" lon="49.1955417"><time>2023-06-03T07:08:16.763</time></trkpt><trkpt lat="55.9295683" lon="49.1956317"><time>2023-06-03T07:08:19.753</time></trkpt><trkpt lat="55.9296083" lon="49.1956850"><time>2023-06-03T07:08:21.747</time></trkpt><trkpt lat="55.9296550" lon="49.1957283"><time>2023-06-03T07:08:23.757</time></trkpt><trkpt lat="55.9296967" lon="49.1957833"><time>2023-06-03T07:08:25.747</time></trkpt><trkpt lat="55.9297483" lon="49.1958333"><time>2023-06-03T07:08:27.747</time></trkpt><trkpt lat="55.9297917" lon="49.1959200"><time>2023-06-03T07:08:30.733</time></trkpt><trkpt lat="55.9297917" lon="49.1960150"><time>2023-06-03T07:08:32.733</time></trkpt><trkpt lat="55.9297850" lon="49.1961067"><time>2023-06-03T07:08:34.750</time></trkpt><trkpt lat="55.9297683" lon="49.1962050"><time>2023-06-03T07:08:36.757</time></trkpt><trkpt lat="55.9297583" lon="49.1963000"><time>2023-06-03T07:08:38.727</time></trkpt><trkpt lat="55.9297517" lon="49.1963833"><time>2023-06-03T07:08:40.743</time></trkpt><trkpt lat="55.9297533" lon="49.1964633"><time>2023-06-03T07:08:42.743</time></trkpt><trkpt lat="55.9297750" lon="49.1965683"><time>2023-06-03T07:08:45.750</time></trkpt><trkpt lat="55.9298017" lon="49.1966417"><time>2023-06-03T07:08:47.753</time></trkpt><trkpt lat="55.9298383" lon="49.1967450"><time>2023-06-03T07:08:50.737</time></trkpt><trkpt lat="55.9298683" lon="49.1968083"><time>2023-06-03T07:08:52.737</time></trkpt><trkpt lat="55.9299267" lon="49.1968567"><time>2023-06-03T07:08:55.753</time></trkpt><trkpt lat="55.9299717" lon="49.1968800"><time>2023-06-03T07:08:57.750</time></trkpt><trkpt lat="55.9300250" lon="49.1969067"><time>2023-06-03T07:09:00.750</time></trkpt><trkpt lat="55.9300800" lon="49.1968983"><time>2023-06-03T07:09:04.743</time></trkpt><trkpt lat="55.9301250" lon="49.1968767"><time>2023-06-03T07:09:07.757</time></trkpt><trkpt lat="55.9301733" lon="49.1968367"><time>2023-06-03T07:09:10.747</time></trkpt><trkpt lat="55.9302333" lon="49.1968433"><time>2023-06-03T07:09:13.747</time></trkpt><trkpt lat="55.9303017" lon="49.1968467"><time>2023-06-03T07:09:16.753</time></trkpt><trkpt lat="55.9303483" lon="49.1968450"><time>2023-06-03T07:09:18.760</time></trkpt><trkpt lat="55.9304067" lon="49.1968683"><time>2023-06-03T07:09:20.747</time></trkpt><trkpt lat="55.9304550" lon="49.1968967"><time>2023-06-03T07:09:22.747</time></trkpt><trkpt lat="55.9305033" lon="49.1969200"><time>2023-06-03T07:09:24.733</time></trkpt><trkpt lat="55.9305500" lon="49.1969300"><time>2023-06-03T07:09:26.757</time></trkpt><trkpt lat="55.9305983" lon="49.1969717"><time>2023-06-03T07:09:28.747</time></trkpt><trkpt lat="55.9306567" lon="49.1970383"><time>2023-06-03T07:09:30.743</time></trkpt><trkpt lat="55.9306967" lon="49.1971083"><time>2023-06-03T07:09:32.757</time></trkpt><trkpt lat="55.9307350" lon="49.1971650"><time>2023-06-03T07:09:34.747</time></trkpt><trkpt lat="55.9307600" lon="49.1972567"><time>2023-06-03T07:09:37.747</time></trkpt><trkpt lat="55.9307850" lon="49.1973250"><time>2023-06-03T07:09:40.750</time></trkpt><trkpt lat="55.9308533" lon="49.1974050"><time>2023-06-03T07:09:53.747</time></trkpt><trkpt lat="55.9308750" lon="49.1974850"><time>2023-06-03T07:09:56.747</time></trkpt><trkpt lat="55.9308950" lon="49.1975900"><time>2023-06-03T07:09:59.743</time></trkpt><trkpt lat="55.9309133" lon="49.1976900"><time>2023-06-03T07:10:01.740</time></trkpt><trkpt lat="55.9309317" lon="49.1977733"><time>2023-06-03T07:10:03.747</time></trkpt><trkpt lat="55.9309500" lon="49.1978550"><time>2023-06-03T07:10:05.747</time></trkpt><trkpt lat="55.9309583" lon="49.1979550"><time>2023-06-03T07:10:08.753</time></trkpt><trkpt lat="55.9309650" lon="49.1979833"><time>2023-06-03T07:10:09.750</time></trkpt><trkpt lat="55.9309800" lon="49.1980667"><time>2023-06-03T07:10:12.757</time></trkpt><trkpt lat="55.9309883" lon="49.1981467"><time>2023-06-03T07:10:15.747</time></trkpt><trkpt lat="55.9309917" lon="49.1982400"><time>2023-06-03T07:10:18.750</time></trkpt><trkpt lat="55.9310117" lon="49.1983367"><time>2023-06-03T07:10:21.737</time></trkpt><trkpt lat="55.9310300" lon="49.1984100"><time>2023-06-03T07:10:23.743</time></trkpt><trkpt lat="55.9310433" lon="49.1985183"><time>2023-06-03T07:10:26.750</time></trkpt><trkpt lat="55.9310500" lon="49.1986017"><time>2023-06-03T07:10:28.750</time></trkpt><trkpt lat="55.9310500" lon="49.1987150"><time>2023-06-03T07:10:30.747</time></trkpt><trkpt lat="55.9310467" lon="49.1988017"><time>2023-06-03T07:10:32.757</time></trkpt><trkpt lat="55.9310400" lon="49.1988817"><time>2023-06-03T07:10:34.743</time></trkpt><trkpt lat="55.9310300" lon="49.1989750"><time>2023-06-03T07:10:37.757</time></trkpt><trkpt lat="55.9310200" lon="49.1990583"><time>2023-06-03T07:10:39.750</time></trkpt><trkpt lat="55.9310067" lon="49.1993150"><time>2023-06-03T07:10:50.740</time></trkpt><trkpt lat="55.9309833" lon="49.1993983"><time>2023-06-03T07:10:53.753</time></trkpt><trkpt lat="55.9309533" lon="49.1994733"><time>2023-06-03T07:10:56.733</time></trkpt><trkpt lat="55.9309250" lon="49.1995683"><time>2023-06-03T07:10:59.747</time></trkpt><trkpt lat="55.9308983" lon="49.1996417"><time>2023-06-03T07:11:02.723</time></trkpt><trkpt lat="55.9308617" lon="49.1997317"><time>2023-06-03T07:11:05.753</time></trkpt><trkpt lat="55.9308350" lon="49.1998117"><time>2023-06-03T07:11:07.750</time></trkpt><trkpt lat="55.9308367" lon="49.1998917"><time>2023-06-03T07:11:09.747</time></trkpt><trkpt lat="55.9309133" lon="49.2000667"><time>2023-06-03T07:11:26.743</time></trkpt><trkpt lat="55.9309567" lon="49.2001133"><time>2023-06-03T07:11:29.753</time></trkpt><trkpt lat="55.9310083" lon="49.2001683"><time>2023-06-03T07:11:32.750</time></trkpt><trkpt lat="55.9310533" lon="49.2002183"><time>2023-06-03T07:11:34.750</time></trkpt><trkpt lat="55.9310967" lon="49.2002600"><time>2023-06-03T07:11:36.747</time></trkpt><trkpt lat="55.9311567" lon="49.2002933"><time>2023-06-03T07:11:39.743</time></trkpt><trkpt lat="55.9312217" lon="49.2003117"><time>2023-06-03T07:11:43.730</time></trkpt><trkpt lat="55.9312667" lon="49.2003350"><time>2023-06-03T07:11:45.730</time></trkpt><trkpt lat="55.9313150" lon="49.2003550"><time>2023-06-03T07:11:47.717</time></trkpt><trkpt lat="55.9313600" lon="49.2003650"><time>2023-06-03T07:11:49.743</time></trkpt><trkpt lat="55.9313817" lon="49.2003800"><time>2023-06-03T07:11:50.727</time></trkpt><trkpt lat="55.9314250" lon="49.2004033"><time>2023-06-03T07:11:52.733</time></trkpt><trkpt lat="55.9314717" lon="49.2004167"><time>2023-06-03T07:11:54.753</time></trkpt><trkpt lat="55.9315350" lon="49.2004317"><time>2023-06-03T07:11:56.743</time></trkpt><trkpt lat="55.9315950" lon="49.2004383"><time>2023-06-03T07:11:58.747</time></trkpt><trkpt lat="55.9316650" lon="49.2004567"><time>2023-06-03T07:12:01.750</time></trkpt><trkpt lat="55.9317183" lon="49.2004733"><time>2023-06-03T07:12:03.747</time></trkpt><trkpt lat="55.9317633" lon="49.2004900"><time>2023-06-03T07:12:05.747</time></trkpt><trkpt lat="55.9318133" lon="49.2005150"><time>2023-06-03T07:12:08.740</time></trkpt><trkpt lat="55.9318717" lon="49.2005417"><time>2023-06-03T07:12:11.760</time></trkpt><trkpt lat="55.9318933" lon="49.2005517"><time>2023-06-03T07:12:12.757</time></trkpt><trkpt lat="55.9319417" lon="49.2005833"><time>2023-06-03T07:12:14.750</time></trkpt><trkpt lat="55.9319833" lon="49.2006250"><time>2023-06-03T07:12:16.750</time></trkpt><trkpt lat="55.9320333" lon="49.2006750"><time>2023-06-03T07:12:19.747</time></trkpt><trkpt lat="55.9320967" lon="49.2007033"><time>2023-06-03T07:12:24.757</time></trkpt><trkpt lat="55.9321417" lon="49.2007017"><time>2023-06-03T07:12:28.743</time></trkpt><trkpt lat="55.9322200" lon="49.2006217"><time>2023-06-03T07:12:50.730</time></trkpt><trkpt lat="55.9321933" lon="49.2005483"><time>2023-06-03T07:12:54.747</time></trkpt><trkpt lat="55.9322433" lon="49.2003333"><time>2023-06-03T07:13:13.753</time></trkpt><trkpt lat="55.9322433" lon="49.2003333"><time>2023-06-03T07:13:13.783</time></trkpt><trkpt lat="55.9322433" lon="49.2004900"><time>2023-06-03T07:13:32.753</time></trkpt><trkpt lat="55.9322417" lon="49.2005083"><time>2023-06-03T07:13:33.757</time></trkpt><trkpt lat="55.9322350" lon="49.2007183"><time>2023-06-03T07:13:43.750</time></trkpt><trkpt lat="55.9322233" lon="49.2008683"><time>2023-06-03T07:13:49.747</time></trkpt><trkpt lat="55.9322850" lon="49.2010233"><time>2023-06-03T07:14:04.740</time></trkpt><trkpt lat="55.9322867" lon="49.2011100"><time>2023-06-03T07:14:22.740</time></trkpt><trkpt lat="55.9323283" lon="49.2011650"><time>2023-06-03T07:14:25.750</time></trkpt><trkpt lat="55.9323750" lon="49.2011833"><time>2023-06-03T07:14:27.743</time></trkpt><trkpt lat="55.9324350" lon="49.2011783"><time>2023-06-03T07:14:29.747</time></trkpt><trkpt lat="55.9324933" lon="49.2011833"><time>2023-06-03T07:14:31.743</time></trkpt><trkpt lat="55.9325650" lon="49.2011833"><time>2023-06-03T07:14:33.743</time></trkpt><trkpt lat="55.9326450" lon="49.2012000"><time>2023-06-03T07:14:35.727</time></trkpt><trkpt lat="55.9327100" lon="49.2012350"><time>2023-06-03T07:14:37.747</time></trkpt><trkpt lat="55.9327633" lon="49.2012850"><time>2023-06-03T07:14:39.750</time></trkpt><trkpt lat="55.9328133" lon="49.2013333"><time>2023-06-03T07:14:41.750</time></trkpt><trkpt lat="55.9328650" lon="49.2014083"><time>2023-06-03T07:14:43.743</time></trkpt><trkpt lat="55.9329233" lon="49.2014683"><time>2023-06-03T07:14:45.740</time></trkpt><trkpt lat="55.9329783" lon="49.2015400"><time>2023-06-03T07:14:47.750</time></trkpt><trkpt lat="55.9330450" lon="49.2015950"><time>2023-06-03T07:14:49.727</time></trkpt><trkpt lat="55.9331017" lon="49.2016483"><time>2023-06-03T07:14:51.727</time></trkpt><trkpt lat="55.9331567" lon="49.2017217"><time>2023-06-03T07:14:53.750</time></trkpt><trkpt lat="55.9332167" lon="49.2017883"><time>2023-06-03T07:14:55.727</time></trkpt><trkpt lat="55.9332700" lon="49.2018733"><time>2023-06-03T07:14:57.730</time></trkpt><trkpt lat="55.9333233" lon="49.2019533"><time>2023-06-03T07:14:59.727</time></trkpt><trkpt lat="55.9333700" lon="49.2020400"><time>2023-06-03T07:15:01.767</time></trkpt><trkpt lat="55.9334150" lon="49.2021250"><time>2023-06-03T07:15:03.743</time></trkpt><trkpt lat="55.9334600" lon="49.2022083"><time>2023-06-03T07:15:05.737</time></trkpt><trkpt lat="55.9335117" lon="49.2022850"><time>2023-06-03T07:15:07.743</time></trkpt><trkpt lat="55.9335650" lon="49.2023617"><time>2023-06-03T07:15:09.740</time></trkpt><trkpt lat="55.9336083" lon="49.2024433"><time>2023-06-03T07:15:11.747</time></trkpt><trkpt lat="55.9336583" lon="49.2025417"><time>2023-06-03T07:15:13.750</time></trkpt><trkpt lat="55.9336817" lon="49.2026467"><time>2023-06-03T07:15:15.750</time></trkpt><trkpt lat="55.9337150" lon="49.2027500"><time>2023-06-03T07:15:17.750</time></trkpt><trkpt lat="55.9337367" lon="49.2028700"><time>2023-06-03T07:15:19.747</time></trkpt><trkpt lat="55.9337500" lon="49.2029817"><time>2023-06-03T07:15:21.740</time></trkpt><trkpt lat="55.9337600" lon="49.2031433"><time>2023-06-03T07:15:23.747</time></trkpt><trkpt lat="55.9337567" lon="49.2032267"><time>2023-06-03T07:15:24.747</time></trkpt><trkpt lat="55.9337550" lon="49.2033117"><time>2023-06-03T07:15:25.760</time></trkpt><trkpt lat="55.9337900" lon="49.2034517"><time>2023-06-03T07:15:27.743</time></trkpt><trkpt lat="55.9338217" lon="49.2035617"><time>2023-06-03T07:15:29.747</time></trkpt><trkpt lat="55.9338400" lon="49.2036517"><time>2023-06-03T07:15:31.703</time></trkpt><trkpt lat="55.9338650" lon="49.2037300"><time>2023-06-03T07:15:33.710</time></trkpt><trkpt lat="55.9338900" lon="49.2038083"><time>2023-06-03T07:15:35.727</time></trkpt><trkpt lat="55.9339117" lon="49.2038800"><time>2023-06-03T07:15:37.730</time></trkpt><trkpt lat="55.9339283" lon="49.2039633"><time>2023-06-03T07:15:39.727</time></trkpt><trkpt lat="55.9339533" lon="49.2040467"><time>2023-06-03T07:15:41.730</time></trkpt><trkpt lat="55.9339817" lon="49.2041100"><time>2023-06-03T07:15:43.730</time></trkpt><trkpt lat="55.9340483" lon="49.2041633"><time>2023-06-03T07:15:53.747</time></trkpt><trkpt lat="55.9341033" lon="49.2041750"><time>2023-06-03T07:15:57.743</time></trkpt><trkpt lat="55.9341583" lon="49.2041517"><time>2023-06-03T07:16:00.747</time></trkpt><trkpt lat="55.9342217" lon="49.2041483"><time>2023-06-03T07:16:02.740</time></trkpt><trkpt lat="55.9342950" lon="49.2041200"><time>2023-06-03T07:16:04.750</time></trkpt><trkpt lat="55.9343717" lon="49.2040950"><time>2023-06-03T07:16:06.747</time></trkpt><trkpt lat="55.9344350" lon="49.2040750"><time>2023-06-03T07:16:08.750</time></trkpt><trkpt lat="55.9345133" lon="49.2040783"><time>2023-06-03T07:16:10.760</time></trkpt><trkpt lat="55.9345583" lon="49.2040817"><time>2023-06-03T07:16:11.747</time></trkpt><trkpt lat="55.9346033" lon="49.2040900"><time>2023-06-03T07:16:12.747</time></trkpt><trkpt lat="55.9346733" lon="49.2041183"><time>2023-06-03T07:16:14.743</time></trkpt><trkpt lat="55.9347483" lon="49.2041467"><time>2023-06-03T07:16:16.747</time></trkpt><trkpt lat="55.9348217" lon="49.2041983"><time>2023-06-03T07:16:18.747</time></trkpt><trkpt lat="55.9348950" lon="49.2042500"><time>2023-06-03T07:16:20.743</time></trkpt><trkpt lat="55.9349650" lon="49.2043133"><time>2023-06-03T07:16:22.740</time></trkpt><trkpt lat="55.9350367" lon="49.2043800"><time>2023-06-03T07:16:24.743</time></trkpt><trkpt lat="55.9351017" lon="49.2044750"><time>2023-06-03T07:16:26.757</time></trkpt><trkpt lat="55.9351650" lon="49.2045783"><time>2023-06-03T07:16:28.740</time></trkpt><trkpt lat="55.9352217" lon="49.2046717"><time>2023-06-03T07:16:30.753</time></trkpt><trkpt lat="55.9352800" lon="49.2047533"><time>2023-06-03T07:16:32.747</time></trkpt><trkpt lat="55.9353417" lon="49.2048333"><time>2023-06-03T07:16:34.747</time></trkpt><trkpt lat="55.9354117" lon="49.2048900"><time>2023-06-03T07:16:36.747</time></trkpt><trkpt lat="55.9354800" lon="49.2049417"><time>2023-06-03T07:16:38.750</time></trkpt><trkpt lat="55.9355467" lon="49.2050067"><time>2023-06-03T07:16:40.747</time></trkpt><trkpt lat="55.9356017" lon="49.2050817"><time>2023-06-03T07:16:42.747</time></trkpt><trkpt lat="55.9356717" lon="49.2051550"><time>2023-06-03T07:16:44.740</time></trkpt><trkpt lat="55.9357433" lon="49.2052367"><time>2023-06-03T07:16:46.743</time></trkpt><trkpt lat="55.9358100" lon="49.2053250"><time>2023-06-03T07:16:48.720</time></trkpt><trkpt lat="55.9358717" lon="49.2054167"><time>2023-06-03T07:16:50.727</time></trkpt><trkpt lat="55.9359050" lon="49.2055333"><time>2023-06-03T07:16:52.733</time></trkpt><trkpt lat="55.9359467" lon="49.2056000"><time>2023-06-03T07:16:54.743</time></trkpt><trkpt lat="55.9360167" lon="49.2055867"><time>2023-06-03T07:16:56.753</time></trkpt><trkpt lat="55.9360833" lon="49.2055633"><time>2023-06-03T07:16:58.747</time></trkpt><trkpt lat="55.9361317" lon="49.2055683"><time>2023-06-03T07:17:00.740</time></trkpt><trkpt lat="55.9361717" lon="49.2056083"><time>2023-06-03T07:17:02.747</time></trkpt><trkpt lat="55.9362117" lon="49.2056600"><time>2023-06-03T07:17:05.743</time></trkpt><trkpt lat="55.9363100" lon="49.2056800"><time>2023-06-03T07:17:24.747</time></trkpt><trkpt lat="55.9363583" lon="49.2056367"><time>2023-06-03T07:17:28.753</time></trkpt><trkpt lat="55.9364550" lon="49.2055267"><time>2023-06-03T07:18:04.733</time></trkpt><trkpt lat="55.9363667" lon="49.2054483"><time>2023-06-03T07:18:15.750</time></trkpt><trkpt lat="55.9363133" lon="49.2054283"><time>2023-06-03T07:18:19.743</time></trkpt><trkpt lat="55.9362617" lon="49.2053700"><time>2023-06-03T07:18:23.730</time></trkpt><trkpt lat="55.9362267" lon="49.2052950"><time>2023-06-03T07:18:26.740</time></trkpt><trkpt lat="55.9362083" lon="49.2051933"><time>2023-06-03T07:18:30.743</time></trkpt><trkpt lat="55.9362300" lon="49.2051017"><time>2023-06-03T07:18:34.733</time></trkpt><trkpt lat="55.9362700" lon="49.2049333"><time>2023-06-03T07:18:43.747</time></trkpt><trkpt lat="55.9362950" lon="49.2048417"><time>2023-06-03T07:18:47.743</time></trkpt><trkpt lat="55.9363467" lon="49.2046817"><time>2023-06-03T07:18:55.727</time></trkpt><trkpt lat="55.9363700" lon="49.2045917"><time>2023-06-03T07:18:59.743</time></trkpt><trkpt lat="55.9363817" lon="49.2044883"><time>2023-06-03T07:19:03.753</time></trkpt><trkpt lat="55.9364233" lon="49.2043650"><time>2023-06-03T07:19:22.747</time></trkpt><trkpt lat="55.9364583" lon="49.2043083"><time>2023-06-03T07:19:25.743</time></trkpt><trkpt lat="55.9364900" lon="49.2042200"><time>2023-06-03T07:19:29.753</time></trkpt><trkpt lat="55.9365150" lon="49.2041400"><time>2023-06-03T07:19:32.747</time></trkpt><trkpt lat="55.9365483" lon="49.2040583"><time>2023-06-03T07:19:36.750</time></trkpt><trkpt lat="55.9365950" lon="49.2038517"><time>2023-06-03T07:19:45.753</time></trkpt><trkpt lat="55.9366150" lon="49.2037717"><time>2023-06-03T07:19:48.743</time></trkpt><trkpt lat="55.9366217" lon="49.2036833"><time>2023-06-03T07:19:51.747</time></trkpt><trkpt lat="55.9366383" lon="49.2035883"><time>2023-06-03T07:19:54.740</time></trkpt><trkpt lat="55.9366600" lon="49.2035067"><time>2023-06-03T07:19:57.747</time></trkpt><trkpt lat="55.9366700" lon="49.2034167"><time>2023-06-03T07:20:01.723</time></trkpt><trkpt lat="55.9367133" lon="49.2032783"><time>2023-06-03T07:20:08.747</time></trkpt><trkpt lat="55.9367383" lon="49.2031983"><time>2023-06-03T07:20:11.743</time></trkpt><trkpt lat="55.9367517" lon="49.2031150"><time>2023-06-03T07:20:15.743</time></trkpt><trkpt lat="55.9367833" lon="49.2030317"><time>2023-06-03T07:20:19.747</time></trkpt><trkpt lat="55.9368567" lon="49.2028950"><time>2023-06-03T07:20:27.740</time></trkpt><trkpt lat="55.9368983" lon="49.2028350"><time>2023-06-03T07:20:30.753</time></trkpt><trkpt lat="55.9369383" lon="49.2027583"><time>2023-06-03T07:20:33.740</time></trkpt><trkpt lat="55.9369867" lon="49.2027233"><time>2023-06-03T07:20:36.753</time></trkpt><trkpt lat="55.9370267" lon="49.2026817"><time>2023-06-03T07:20:43.747</time></trkpt><trkpt lat="55.9370717" lon="49.2026883"><time>2023-06-03T07:20:47.747</time></trkpt><trkpt lat="55.9371233" lon="49.2027050"><time>2023-06-03T07:20:51.747</time></trkpt><trkpt lat="55.9371683" lon="49.2027017"><time>2023-06-03T07:20:55.750</time></trkpt><trkpt lat="55.9372233" lon="49.2027183"><time>2023-06-03T07:20:58.747</time></trkpt><trkpt lat="55.9372867" lon="49.2027250"><time>2023-06-03T07:21:01.740</time></trkpt><trkpt lat="55.9373300" lon="49.2027033"><time>2023-06-03T07:21:03.743</time></trkpt><trkpt lat="55.9373900" lon="49.2026800"><time>2023-06-03T07:21:06.743</time></trkpt><trkpt lat="55.9374383" lon="49.2026733"><time>2023-06-03T07:21:08.740</time></trkpt><trkpt lat="55.9374900" lon="49.2026400"><time>2023-06-03T07:21:10.730</time></trkpt><trkpt lat="55.9375250" lon="49.2025783"><time>2023-06-03T07:21:13.737</time></trkpt><trkpt lat="55.9375650" lon="49.2025067"><time>2023-06-03T07:21:17.740</time></trkpt><trkpt lat="55.9376033" lon="49.2024217"><time>2023-06-03T07:21:21.747</time></trkpt><trkpt lat="55.9376167" lon="49.2023400"><time>2023-06-03T07:21:24.730</time></trkpt><trkpt lat="55.9376267" lon="49.2022383"><time>2023-06-03T07:21:27.730</time></trkpt><trkpt lat="55.9376333" lon="49.2021467"><time>2023-06-03T07:21:30.740</time></trkpt><trkpt lat="55.9376467" lon="49.2020483"><time>2023-06-03T07:21:33.733</time></trkpt><trkpt lat="55.9376833" lon="49.2019683"><time>2023-06-03T07:21:37.747</time></trkpt><trkpt lat="55.9377433" lon="49.2018500"><time>2023-06-03T07:21:45.740</time></trkpt><trkpt lat="55.9377750" lon="49.2017817"><time>2023-06-03T07:21:49.747</time></trkpt><trkpt lat="55.9378083" lon="49.2017000"><time>2023-06-03T07:21:53.750</time></trkpt><trkpt lat="55.9378433" lon="49.2016400"><time>2023-06-03T07:21:56.757</time></trkpt><trkpt lat="55.9378517" lon="49.2016233"><time>2023-06-03T07:21:57.747</time></trkpt><trkpt lat="55.9378750" lon="49.2015517"><time>2023-06-03T07:22:01.740</time></trkpt><trkpt lat="55.9378867" lon="49.2014533"><time>2023-06-03T07:22:05.747</time></trkpt><trkpt lat="55.9378967" lon="49.2013683"><time>2023-06-03T07:22:09.743</time></trkpt><trkpt lat="55.9379150" lon="49.2012633"><time>2023-06-03T07:22:12.747</time></trkpt><trkpt lat="55.9379400" lon="49.2011817"><time>2023-06-03T07:22:14.750</time></trkpt><trkpt lat="55.9379633" lon="49.2011017"><time>2023-06-03T07:22:16.737</time></trkpt><trkpt lat="55.9379883" lon="49.2010267"><time>2023-06-03T07:22:18.747</time></trkpt><trkpt lat="55.9380017" lon="49.2009383"><time>2023-06-03T07:22:22.737</time></trkpt><trkpt lat="55.9380117" lon="49.2008550"><time>2023-06-03T07:22:25.723</time></trkpt><trkpt lat="55.9380267" lon="49.2007650"><time>2023-06-03T07:22:28.733</time></trkpt><trkpt lat="55.9380317" lon="49.2006717"><time>2023-06-03T07:22:32.743</time></trkpt><trkpt lat="55.9380767" lon="49.2004333"><time>2023-06-03T07:22:42.747</time></trkpt><trkpt lat="55.9380883" lon="49.2003233"><time>2023-06-03T07:22:45.750</time></trkpt><trkpt lat="55.9380850" lon="49.2002400"><time>2023-06-03T07:22:47.757</time></trkpt><trkpt lat="55.9381233" lon="49.2001467"><time>2023-06-03T07:22:50.753</time></trkpt><trkpt lat="55.9381200" lon="49.2000500"><time>2023-06-03T07:22:53.723</time></trkpt><trkpt lat="55.9381217" lon="49.1999650"><time>2023-06-03T07:22:56.700</time></trkpt><trkpt lat="55.9381333" lon="49.1998433"><time>2023-06-03T07:23:00.730</time></trkpt><trkpt lat="55.9381450" lon="49.1997617"><time>2023-06-03T07:23:02.743</time></trkpt><trkpt lat="55.9381600" lon="49.1996583"><time>2023-06-03T07:23:05.743</time></trkpt><trkpt lat="55.9381817" lon="49.1995517"><time>2023-06-03T07:23:08.743</time></trkpt><trkpt lat="55.9381967" lon="49.1994750"><time>2023-06-03T07:23:11.737</time></trkpt><trkpt lat="55.9382200" lon="49.1993900"><time>2023-06-03T07:23:14.747</time></trkpt><trkpt lat="55.9382583" lon="49.1993133"><time>2023-06-03T07:23:17.743</time></trkpt><trkpt lat="55.9382867" lon="49.1992500"><time>2023-06-03T07:23:19.740</time></trkpt><trkpt lat="55.9383400" lon="49.1990550"><time>2023-06-03T07:23:30.733</time></trkpt><trkpt lat="55.9383783" lon="49.1989517"><time>2023-06-03T07:23:33.730</time></trkpt><trkpt lat="55.9384017" lon="49.1988333"><time>2023-06-03T07:23:35.727</time></trkpt><trkpt lat="55.9384167" lon="49.1987467"><time>2023-06-03T07:23:37.740</time></trkpt><trkpt lat="55.9384417" lon="49.1986567"><time>2023-06-03T07:23:39.743</time></trkpt><trkpt lat="55.9384683" lon="49.1985617"><time>2023-06-03T07:23:41.740</time></trkpt><trkpt lat="55.9385033" lon="49.1984633"><time>2023-06-03T07:23:44.743</time></trkpt><trkpt lat="55.9385483" lon="49.1984017"><time>2023-06-03T07:23:46.740</time></trkpt><trkpt lat="55.9385867" lon="49.1983200"><time>2023-06-03T07:23:48.753</time></trkpt><trkpt lat="55.9386033" lon="49.1982817"><time>2023-06-03T07:23:49.743</time></trkpt><trkpt lat="55.9386250" lon="49.1982017"><time>2023-06-03T07:23:51.743</time></trkpt><trkpt lat="55.9386550" lon="49.1981317"><time>2023-06-03T07:23:55.743</time></trkpt><trkpt lat="55.9387050" lon="49.1981167"><time>2023-06-03T07:24:00.747</time></trkpt><trkpt lat="55.9388167" lon="49.1982117"><time>2023-06-03T07:24:12.760</time></trkpt><trkpt lat="55.9388350" lon="49.1982200"><time>2023-06-03T07:24:13.753</time></trkpt><trkpt lat="55.9388800" lon="49.1982500"><time>2023-06-03T07:24:15.743</time></trkpt><trkpt lat="55.9389333" lon="49.1982833"><time>2023-06-03T07:24:18.740</time></trkpt><trkpt lat="55.9389783" lon="49.1983067"><time>2023-06-03T07:24:21.740</time></trkpt><trkpt lat="55.9390717" lon="49.1983500"><time>2023-06-03T07:24:26.747</time></trkpt><trkpt lat="55.9391433" lon="49.1983767"><time>2023-06-03T07:24:29.700</time></trkpt><trkpt lat="55.9391550" lon="49.1984833"><time>2023-06-03T07:24:37.740</time></trkpt><trkpt lat="55.9391783" lon="49.1985733"><time>2023-06-03T07:24:40.750</time></trkpt><trkpt lat="55.9392200" lon="49.1987417"><time>2023-06-03T07:24:45.750</time></trkpt><trkpt lat="55.9392317" lon="49.1988233"><time>2023-06-03T07:24:47.733</time></trkpt><trkpt lat="55.9392483" lon="49.1989017"><time>2023-06-03T07:24:49.743</time></trkpt><trkpt lat="55.9392817" lon="49.1990000"><time>2023-06-03T07:24:52.747</time></trkpt><trkpt lat="55.9393067" lon="49.1990767"><time>2023-06-03T07:24:54.743</time></trkpt><trkpt lat="55.9393517" lon="49.1991550"><time>2023-06-03T07:24:57.750</time></trkpt><trkpt lat="55.9393950" lon="49.1992050"><time>2023-06-03T07:25:00.743</time></trkpt><trkpt lat="55.9394250" lon="49.1992800"><time>2023-06-03T07:25:03.743</time></trkpt><trkpt lat="55.9394467" lon="49.1993600"><time>2023-06-03T07:25:06.740</time></trkpt><trkpt lat="55.9394833" lon="49.1994483"><time>2023-06-03T07:25:10.757</time></trkpt><trkpt lat="55.9394900" lon="49.1994583"><time>2023-06-03T07:25:11.743</time></trkpt><trkpt lat="55.9395700" lon="49.1995600"><time>2023-06-03T07:25:19.743</time></trkpt><trkpt lat="55.9396033" lon="49.1996233"><time>2023-06-03T07:25:23.740</time></trkpt><trkpt lat="55.9396450" lon="49.1996883"><time>2023-06-03T07:25:32.743</time></trkpt><trkpt lat="55.9396817" lon="49.1997967"><time>2023-06-03T07:25:43.743</time></trkpt><trkpt lat="55.9397150" lon="49.1999183"><time>2023-06-03T07:25:52.747</time></trkpt><trkpt lat="55.9397300" lon="49.1999950"><time>2023-06-03T07:25:55.750</time></trkpt><trkpt lat="55.9397433" lon="49.2002300"><time>2023-06-03T07:26:08.693</time></trkpt><trkpt lat="55.9397367" lon="49.2002700"><time>2023-06-03T07:26:11.487</time></trkpt><trkpt lat="55.9396583" lon="49.2005017"><time>2023-06-03T07:26:18.773</time></trkpt><trkpt lat="55.9396567" lon="49.2005083"><time>2023-06-03T07:26:19.677</time></trkpt><trkpt lat="55.9396150" lon="49.2004367"><time>2023-06-03T07:26:24.707</time></trkpt><trkpt lat="55.9395617" lon="49.2004150"><time>2023-06-03T07:26:30.743</time></trkpt><trkpt lat="55.9395350" lon="49.2003417"><time>2023-06-03T07:26:33.747</time></trkpt><trkpt lat="55.9395100" lon="49.2002583"><time>2023-06-03T07:26:37.737</time></trkpt><trkpt lat="55.9395050" lon="49.2001467"><time>2023-06-03T07:26:41.763</time></trkpt><trkpt lat="55.9395067" lon="49.2000650"><time>2023-06-03T07:26:44.743</time></trkpt><trkpt lat="55.9395583" lon="49.2001167"><time>2023-06-03T07:26:50.747</time></trkpt><trkpt lat="55.9395817" lon="49.2002000"><time>2023-06-03T07:26:54.753</time></trkpt><trkpt lat="55.9395633" lon="49.2001133"><time>2023-06-03T07:27:04.740</time></trkpt><trkpt lat="55.9395433" lon="49.2000400"><time>2023-06-03T07:27:07.750</time></trkpt><trkpt lat="55.9395317" lon="49.1999467"><time>2023-06-03T07:27:13.747</time></trkpt><trkpt lat="55.9395117" lon="49.1998617"><time>2023-06-03T07:27:18.750</time></trkpt><trkpt lat="55.9395300" lon="49.1997783"><time>2023-06-03T07:27:22.747</time></trkpt><trkpt lat="55.9395167" lon="49.1996167"><time>2023-06-03T07:27:29.747</time></trkpt><trkpt lat="55.9395050" lon="49.1995383"><time>2023-06-03T07:27:32.743</time></trkpt><trkpt lat="55.9394900" lon="49.1994533"><time>2023-06-03T07:27:36.743</time></trkpt><trkpt lat="55.9394600" lon="49.1993883"><time>2023-06-03T07:27:39.757</time></trkpt><trkpt lat="55.9394433" lon="49.1992967"><time>2023-06-03T07:27:43.743</time></trkpt><trkpt lat="55.9394117" lon="49.1991983"><time>2023-06-03T07:27:48.747</time></trkpt><trkpt lat="55.9393600" lon="49.1990000"><time>2023-06-03T07:27:59.743</time></trkpt><trkpt lat="55.9393200" lon="49.1989467"><time>2023-06-03T07:28:01.750</time></trkpt><trkpt lat="55.9392867" lon="49.1988767"><time>2023-06-03T07:28:05.737</time></trkpt><trkpt lat="55.9392800" lon="49.1987867"><time>2023-06-03T07:28:08.740</time></trkpt><trkpt lat="55.9392750" lon="49.1986967"><time>2023-06-03T07:28:11.743</time></trkpt><trkpt lat="55.9392667" lon="49.1986150"><time>2023-06-03T07:28:14.750</time></trkpt><trkpt lat="55.9392667" lon="49.1985250"><time>2023-06-03T07:28:19.740</time></trkpt><trkpt lat="55.9392767" lon="49.1984333"><time>2023-06-03T07:28:23.767</time></trkpt><trkpt lat="55.9392683" lon="49.1983517"><time>2023-06-03T07:28:26.743</time></trkpt><trkpt lat="55.9392517" lon="49.1982733"><time>2023-06-03T07:28:29.743</time></trkpt><trkpt lat="55.9392000" lon="49.1980667"><time>2023-06-03T07:28:37.740</time></trkpt><trkpt lat="55.9391317" lon="49.1980800"><time>2023-06-03T07:28:41.800</time></trkpt><trkpt lat="55.9390717" lon="49.1981217"><time>2023-06-03T07:28:43.720</time></trkpt><trkpt lat="55.9390167" lon="49.1981583"><time>2023-06-03T07:28:46.743</time></trkpt><trkpt lat="55.9389750" lon="49.1982117"><time>2023-06-03T07:28:49.743</time></trkpt><trkpt lat="55.9389350" lon="49.1982617"><time>2023-06-03T07:28:51.743</time></trkpt><trkpt lat="55.9388950" lon="49.1983400"><time>2023-06-03T07:28:53.753</time></trkpt><trkpt lat="55.9388417" lon="49.1984233"><time>2023-06-03T07:28:55.747</time></trkpt><trkpt lat="55.9387900" lon="49.1985283"><time>2023-06-03T07:28:57.747</time></trkpt><trkpt lat="55.9387617" lon="49.1986300"><time>2023-06-03T07:28:59.747</time></trkpt><trkpt lat="55.9387033" lon="49.1987367"><time>2023-06-03T07:29:01.740</time></trkpt><trkpt lat="55.9386650" lon="49.1988417"><time>2023-06-03T07:29:03.740</time></trkpt><trkpt lat="55.9386300" lon="49.1989583"><time>2023-06-03T07:29:05.750</time></trkpt><trkpt lat="55.9386033" lon="49.1990783"><time>2023-06-03T07:29:07.723</time></trkpt><trkpt lat="55.9385717" lon="49.1992100"><time>2023-06-03T07:29:09.727</time></trkpt><trkpt lat="55.9385383" lon="49.1993550"><time>2023-06-03T07:29:11.727</time></trkpt><trkpt lat="55.9385183" lon="49.1994967"><time>2023-06-03T07:29:13.727</time></trkpt><trkpt lat="55.9385017" lon="49.1996217"><time>2023-06-03T07:29:15.727</time></trkpt><trkpt lat="55.9384833" lon="49.1997533"><time>2023-06-03T07:29:17.727</time></trkpt><trkpt lat="55.9384550" lon="49.1998850"><time>2023-06-03T07:29:19.727</time></trkpt><trkpt lat="55.9384450" lon="49.2000000"><time>2023-06-03T07:29:21.727</time></trkpt><trkpt lat="55.9384300" lon="49.2001367"><time>2023-06-03T07:29:23.720</time></trkpt><trkpt lat="55.9384083" lon="49.2002733"><time>2023-06-03T07:29:25.727</time></trkpt><trkpt lat="55.9383900" lon="49.2003983"><time>2023-06-03T07:29:27.727</time></trkpt><trkpt lat="55.9383750" lon="49.2005133"><time>2023-06-03T07:29:29.727</time></trkpt><trkpt lat="55.9383500" lon="49.2006383"><time>2023-06-03T07:29:31.737</time></trkpt><trkpt lat="55.9383283" lon="49.2007533"><time>2023-06-03T07:29:33.723</time></trkpt><trkpt lat="55.9383150" lon="49.2008300"><time>2023-06-03T07:29:35.727</time></trkpt><trkpt lat="55.9382983" lon="49.2009283"><time>2023-06-03T07:29:38.727</time></trkpt><trkpt lat="55.9382850" lon="49.2010117"><time>2023-06-03T07:29:40.727</time></trkpt><trkpt lat="55.9382633" lon="49.2011033"><time>2023-06-03T07:29:42.727</time></trkpt><trkpt lat="55.9382200" lon="49.2011967"><time>2023-06-03T07:29:44.727</time></trkpt><trkpt lat="55.9381750" lon="49.2012933"><time>2023-06-03T07:29:46.743</time></trkpt><trkpt lat="55.9381417" lon="49.2013883"><time>2023-06-03T07:29:48.747</time></trkpt><trkpt lat="55.9381033" lon="49.2015067"><time>2023-06-03T07:29:50.743</time></trkpt><trkpt lat="55.9380717" lon="49.2016350"><time>2023-06-03T07:29:52.733</time></trkpt><trkpt lat="55.9380567" lon="49.2017583"><time>2023-06-03T07:29:54.750</time></trkpt><trkpt lat="55.9380533" lon="49.2018567"><time>2023-06-03T07:29:56.743</time></trkpt><trkpt lat="55.9380417" lon="49.2019700"><time>2023-06-03T07:29:58.737</time></trkpt><trkpt lat="55.9380067" lon="49.2020883"><time>2023-06-03T07:30:00.737</time></trkpt><trkpt lat="55.9379450" lon="49.2022167"><time>2023-06-03T07:30:02.750</time></trkpt><trkpt lat="55.9379050" lon="49.2022733"><time>2023-06-03T07:30:03.740</time></trkpt><trkpt lat="55.9378600" lon="49.2023217"><time>2023-06-03T07:30:04.737</time></trkpt><trkpt lat="55.9378133" lon="49.2023667"><time>2023-06-03T07:30:05.737</time></trkpt><trkpt lat="55.9377417" lon="49.2024367"><time>2023-06-03T07:30:07.747</time></trkpt><trkpt lat="55.9376900" lon="49.2024983"><time>2023-06-03T07:30:09.740</time></trkpt><trkpt lat="55.9376450" lon="49.2025317"><time>2023-06-03T07:30:11.750</time></trkpt><trkpt lat="55.9375867" lon="49.2025650"><time>2023-06-03T07:30:14.743</time></trkpt><trkpt lat="55.9375283" lon="49.2025733"><time>2023-06-03T07:30:17.743</time></trkpt><trkpt lat="55.9374800" lon="49.2025717"><time>2023-06-03T07:30:19.757</time></trkpt><trkpt lat="55.9374267" lon="49.2025733"><time>2023-06-03T07:30:22.750</time></trkpt><trkpt lat="55.9373650" lon="49.2025767"><time>2023-06-03T07:30:25.743</time></trkpt><trkpt lat="55.9373050" lon="49.2025667"><time>2023-06-03T07:30:28.743</time></trkpt><trkpt lat="55.9372617" lon="49.2026017"><time>2023-06-03T07:30:30.727</time></trkpt><trkpt lat="55.9372183" lon="49.2026617"><time>2023-06-03T07:30:32.750</time></trkpt><trkpt lat="55.9371733" lon="49.2027050"><time>2023-06-03T07:30:34.743</time></trkpt><trkpt lat="55.9371333" lon="49.2027717"><time>2023-06-03T07:30:36.757</time></trkpt><trkpt lat="55.9371117" lon="49.2028517"><time>2023-06-03T07:30:38.737</time></trkpt><trkpt lat="55.9370883" lon="49.2029300"><time>2023-06-03T07:30:40.747</time></trkpt><trkpt lat="55.9370700" lon="49.2030067"><time>2023-06-03T07:30:42.743</time></trkpt><trkpt lat="55.9370517" lon="49.2030833"><time>2023-06-03T07:30:44.747</time></trkpt><trkpt lat="55.9370400" lon="49.2031633"><time>2023-06-03T07:30:46.743</time></trkpt><trkpt lat="55.9370300" lon="49.2032433"><time>2023-06-03T07:30:48.743</time></trkpt><trkpt lat="55.9370150" lon="49.2033200"><time>2023-06-03T07:30:50.750</time></trkpt><trkpt lat="55.9369900" lon="49.2034167"><time>2023-06-03T07:30:52.747</time></trkpt><trkpt lat="55.9369600" lon="49.2035150"><time>2023-06-03T07:30:54.743</time></trkpt><trkpt lat="55.9369167" lon="49.2036300"><time>2023-06-03T07:30:56.730</time></trkpt><trkpt lat="55.9368583" lon="49.2037300"><time>2023-06-03T07:30:58.740</time></trkpt><trkpt lat="55.9368100" lon="49.2037900"><time>2023-06-03T07:31:00.737</time></trkpt><trkpt lat="55.9367767" lon="49.2038517"><time>2023-06-03T07:31:02.747</time></trkpt><trkpt lat="55.9367550" lon="49.2039400"><time>2023-06-03T07:31:04.750</time></trkpt><trkpt lat="55.9367400" lon="49.2040367"><time>2023-06-03T07:31:06.743</time></trkpt><trkpt lat="55.9367267" lon="49.2041350"><time>2023-06-03T07:31:08.740</time></trkpt><trkpt lat="55.9367083" lon="49.2042383"><time>2023-06-03T07:31:10.753</time></trkpt><trkpt lat="55.9366867" lon="49.2043350"><time>2023-06-03T07:31:12.747</time></trkpt><trkpt lat="55.9366617" lon="49.2044267"><time>2023-06-03T07:31:14.757</time></trkpt><trkpt lat="55.9366400" lon="49.2045217"><time>2023-06-03T07:31:16.743</time></trkpt><trkpt lat="55.9366117" lon="49.2046100"><time>2023-06-03T07:31:18.750</time></trkpt><trkpt lat="55.9365900" lon="49.2047000"><time>2023-06-03T07:31:20.740</time></trkpt><trkpt lat="55.9365850" lon="49.2047983"><time>2023-06-03T07:31:23.740</time></trkpt><trkpt lat="55.9365900" lon="49.2048833"><time>2023-06-03T07:31:26.750</time></trkpt><trkpt lat="55.9366317" lon="49.2049317"><time>2023-06-03T07:31:34.743</time></trkpt><trkpt lat="55.9366750" lon="49.2049617"><time>2023-06-03T07:31:38.747</time></trkpt><trkpt lat="55.9367117" lon="49.2050433"><time>2023-06-03T07:31:41.740</time></trkpt><trkpt lat="55.9367550" lon="49.2051233"><time>2023-06-03T07:31:43.740</time></trkpt><trkpt lat="55.9367900" lon="49.2052150"><time>2023-06-03T07:31:45.743</time></trkpt><trkpt lat="55.9368300" lon="49.2053250"><time>2023-06-03T07:31:47.740</time></trkpt><trkpt lat="55.9368667" lon="49.2053967"><time>2023-06-03T07:31:49.737</time></trkpt><trkpt lat="55.9369133" lon="49.2054350"><time>2023-06-03T07:31:51.750</time></trkpt><trkpt lat="55.9369700" lon="49.2054917"><time>2023-06-03T07:31:53.753</time></trkpt><trkpt lat="55.9370367" lon="49.2055200"><time>2023-06-03T07:31:55.740</time></trkpt><trkpt lat="55.9371017" lon="49.2055583"><time>2023-06-03T07:31:57.720</time></trkpt><trkpt lat="55.9371617" lon="49.2055783"><time>2023-06-03T07:31:59.727</time></trkpt><trkpt lat="55.9372183" lon="49.2055933"><time>2023-06-03T07:32:01.747</time></trkpt><trkpt lat="55.9372900" lon="49.2056050"><time>2023-06-03T07:32:03.753</time></trkpt><trkpt lat="55.9373700" lon="49.2056250"><time>2023-06-03T07:32:05.753</time></trkpt><trkpt lat="55.9374467" lon="49.2056567"><time>2023-06-03T07:32:07.750</time></trkpt><trkpt lat="55.9375333" lon="49.2056800"><time>2023-06-03T07:32:09.747</time></trkpt><trkpt lat="55.9375817" lon="49.2056967"><time>2023-06-03T07:32:10.743</time></trkpt><trkpt lat="55.9376617" lon="49.2057100"><time>2023-06-03T07:32:12.750</time></trkpt><trkpt lat="55.9377267" lon="49.2057317"><time>2023-06-03T07:32:14.743</time></trkpt><trkpt lat="55.9377800" lon="49.2057450"><time>2023-06-03T07:32:16.757</time></trkpt><trkpt lat="55.9378367" lon="49.2057433"><time>2023-06-03T07:32:18.753</time></trkpt><trkpt lat="55.9378983" lon="49.2057417"><time>2023-06-03T07:32:20.753</time></trkpt><trkpt lat="55.9379600" lon="49.2057267"><time>2023-06-03T07:32:22.743</time></trkpt><trkpt lat="55.9380217" lon="49.2057100"><time>2023-06-03T07:32:24.750</time></trkpt><trkpt lat="55.9380717" lon="49.2057150"><time>2023-06-03T07:32:26.747</time></trkpt><trkpt lat="55.9381233" lon="49.2057217"><time>2023-06-03T07:32:28.750</time></trkpt><trkpt lat="55.9381717" lon="49.2057300"><time>2023-06-03T07:32:30.743</time></trkpt><trkpt lat="55.9382233" lon="49.2057383"><time>2023-06-03T07:32:32.737</time></trkpt><trkpt lat="55.9382733" lon="49.2057583"><time>2023-06-03T07:32:36.743</time></trkpt><trkpt lat="55.9383533" lon="49.2058550"><time>2023-06-03T07:32:55.740</time></trkpt><trkpt lat="55.9382467" lon="49.2058533"><time>2023-06-03T07:33:17.740</time></trkpt><trkpt lat="55.9381533" lon="49.2058500"><time>2023-06-03T07:33:25.737</time></trkpt><trkpt lat="55.9380950" lon="49.2058567"><time>2023-06-03T07:33:28.730</time></trkpt><trkpt lat="55.9380433" lon="49.2058533"><time>2023-06-03T07:33:31.747</time></trkpt><trkpt lat="55.9379800" lon="49.2058733"><time>2023-06-03T07:33:34.740</time></trkpt><trkpt lat="55.9379250" lon="49.2058983"><time>2023-06-03T07:33:37.727</time></trkpt><trkpt lat="55.9378850" lon="49.2059600"><time>2023-06-03T07:33:40.740</time></trkpt><trkpt lat="55.9378383" lon="49.2060217"><time>2023-06-03T07:33:43.747</time></trkpt><trkpt lat="55.9377867" lon="49.2060967"><time>2023-06-03T07:33:46.737</time></trkpt><trkpt lat="55.9377367" lon="49.2061450"><time>2023-06-03T07:33:48.750</time></trkpt><trkpt lat="55.9376767" lon="49.2062100"><time>2023-06-03T07:33:50.743</time></trkpt><trkpt lat="55.9376267" lon="49.2062817"><time>2023-06-03T07:33:52.740</time></trkpt><trkpt lat="55.9375700" lon="49.2063533"><time>2023-06-03T07:33:54.747</time></trkpt><trkpt lat="55.9375000" lon="49.2064067"><time>2023-06-03T07:33:56.727</time></trkpt><trkpt lat="55.9374267" lon="49.2064167"><time>2023-06-03T07:33:58.747</time></trkpt><trkpt lat="55.9373500" lon="49.2064300"><time>2023-06-03T07:34:00.757</time></trkpt><trkpt lat="55.9372783" lon="49.2064500"><time>2023-06-03T07:34:02.750</time></trkpt><trkpt lat="55.9372217" lon="49.2064767"><time>2023-06-03T07:34:04.747</time></trkpt><trkpt lat="55.9371650" lon="49.2065083"><time>2023-06-03T07:34:06.750</time></trkpt><trkpt lat="55.9371083" lon="49.2065333"><time>2023-06-03T07:34:08.753</time></trkpt><trkpt lat="55.9370417" lon="49.2065433"><time>2023-06-03T07:34:10.747</time></trkpt><trkpt lat="55.9369800" lon="49.2065683"><time>2023-06-03T07:34:12.753</time></trkpt><trkpt lat="55.9369383" lon="49.2066800"><time>2023-06-03T07:34:32.723</time></trkpt><trkpt lat="55.9369117" lon="49.2068733"><time>2023-06-03T07:34:33.733</time></trkpt><trkpt lat="55.9368633" lon="49.2068700"><time>2023-06-03T07:34:35.717</time></trkpt><trkpt lat="55.9368333" lon="49.2069817"><time>2023-06-03T07:34:37.750</time></trkpt><trkpt lat="55.9368183" lon="49.2070900"><time>2023-06-03T07:34:39.717</time></trkpt><trkpt lat="55.9367867" lon="49.2071550"><time>2023-06-03T07:34:41.710</time></trkpt><trkpt lat="55.9367533" lon="49.2072317"><time>2023-06-03T07:34:43.707</time></trkpt><trkpt lat="55.9367117" lon="49.2072933"><time>2023-06-03T07:34:45.723</time></trkpt><trkpt lat="55.9366233" lon="49.2072950"><time>2023-06-03T07:34:47.733</time></trkpt><trkpt lat="55.9365633" lon="49.2073150"><time>2023-06-03T07:34:50.750</time></trkpt><trkpt lat="55.9365000" lon="49.2073550"><time>2023-06-03T07:34:53.737</time></trkpt><trkpt lat="55.9364383" lon="49.2074033"><time>2023-06-03T07:34:55.720</time></trkpt><trkpt lat="55.9363817" lon="49.2074467"><time>2023-06-03T07:34:58.750</time></trkpt><trkpt lat="55.9363333" lon="49.2074450"><time>2023-06-03T07:35:00.747</time></trkpt><trkpt lat="55.9362850" lon="49.2075200"><time>2023-06-03T07:35:32.757</time></trkpt><trkpt lat="55.9362483" lon="49.2076017"><time>2023-06-03T07:35:34.753</time></trkpt><trkpt lat="55.9362233" lon="49.2076700"><time>2023-06-03T07:35:36.753</time></trkpt><trkpt lat="55.9361933" lon="49.2077533"><time>2023-06-03T07:35:38.747</time></trkpt><trkpt lat="55.9361733" lon="49.2078550"><time>2023-06-03T07:35:40.750</time></trkpt><trkpt lat="55.9361617" lon="49.2079850"><time>2023-06-03T07:35:42.753</time></trkpt><trkpt lat="55.9361400" lon="49.2081100"><time>2023-06-03T07:35:44.753</time></trkpt><trkpt lat="55.9361183" lon="49.2082167"><time>2023-06-03T07:35:46.743</time></trkpt><trkpt lat="55.9361033" lon="49.2083050"><time>2023-06-03T07:35:48.750</time></trkpt><trkpt lat="55.9360800" lon="49.2084167"><time>2023-06-03T07:36:11.747</time></trkpt><trkpt lat="55.9360650" lon="49.2085000"><time>2023-06-03T07:36:14.747</time></trkpt><trkpt lat="55.9360383" lon="49.2085967"><time>2023-06-03T07:36:17.750</time></trkpt><trkpt lat="55.9360033" lon="49.2086667"><time>2023-06-03T07:36:19.743</time></trkpt><trkpt lat="55.9359650" lon="49.2087617"><time>2023-06-03T07:36:21.743</time></trkpt><trkpt lat="55.9359067" lon="49.2088800"><time>2023-06-03T07:36:23.740</time></trkpt><trkpt lat="55.9358500" lon="49.2089917"><time>2023-06-03T07:36:25.737</time></trkpt><trkpt lat="55.9358200" lon="49.2091133"><time>2023-06-03T07:36:27.763</time></trkpt><trkpt lat="55.9357983" lon="49.2092167"><time>2023-06-03T07:36:29.747</time></trkpt><trkpt lat="55.9357717" lon="49.2092950"><time>2023-06-03T07:36:32.707</time></trkpt><trkpt lat="55.9357200" lon="49.2093533"><time>2023-06-03T07:36:43.720</time></trkpt><trkpt lat="55.9356800" lon="49.2094283"><time>2023-06-03T07:36:55.727</time></trkpt><trkpt lat="55.9356567" lon="49.2095033"><time>2023-06-03T07:36:58.733</time></trkpt><trkpt lat="55.9356083" lon="49.2095750"><time>2023-06-03T07:37:39.717</time></trkpt><trkpt lat="55.9355867" lon="49.2096467"><time>2023-06-03T07:37:43.697</time></trkpt><trkpt lat="55.9355450" lon="49.2097250"><time>2023-06-03T07:37:49.707</time></trkpt><trkpt lat="55.9355083" lon="49.2098067"><time>2023-06-03T07:37:57.713</time></trkpt><trkpt lat="55.9354983" lon="49.2098983"><time>2023-06-03T07:38:03.710</time></trkpt><trkpt lat="55.9354533" lon="49.2100383"><time>2023-06-03T07:38:11.723</time></trkpt><trkpt lat="55.9354300" lon="49.2101133"><time>2023-06-03T07:38:14.710</time></trkpt><trkpt lat="55.9354083" lon="49.2101850"><time>2023-06-03T07:38:17.713</time></trkpt><trkpt lat="55.9353700" lon="49.2103283"><time>2023-06-03T07:38:48.723</time></trkpt><trkpt lat="55.9353517" lon="49.2104083"><time>2023-06-03T07:38:51.723</time></trkpt><trkpt lat="55.9353300" lon="49.2105100"><time>2023-06-03T07:40:08.747</time></trkpt><trkpt lat="55.9353200" lon="49.2105900"><time>2023-06-03T07:40:10.747</time></trkpt><trkpt lat="55.9353150" lon="49.2106900"><time>2023-06-03T07:40:12.747</time></trkpt><trkpt lat="55.9353200" lon="49.2107833"><time>2023-06-03T07:40:14.747</time></trkpt><trkpt lat="55.9353083" lon="49.2108883"><time>2023-06-03T07:40:16.740</time></trkpt><trkpt lat="55.9352850" lon="49.2109967"><time>2023-06-03T07:40:18.747</time></trkpt><trkpt lat="55.9352783" lon="49.2110950"><time>2023-06-03T07:40:20.740</time></trkpt><trkpt lat="55.9352750" lon="49.2111967"><time>2023-06-03T07:40:22.743</time></trkpt><trkpt lat="55.9352633" lon="49.2113167"><time>2023-06-03T07:40:25.747</time></trkpt><trkpt lat="55.9352467" lon="49.2114000"><time>2023-06-03T07:40:27.750</time></trkpt><trkpt lat="55.9352267" lon="49.2114967"><time>2023-06-03T07:40:30.743</time></trkpt><trkpt lat="55.9352133" lon="49.2115833"><time>2023-06-03T07:40:33.750</time></trkpt><trkpt lat="55.9351917" lon="49.2116733"><time>2023-06-03T07:40:36.757</time></trkpt><trkpt lat="55.9352133" lon="49.2117533"><time>2023-06-03T07:40:40.743</time></trkpt><trkpt lat="55.9352400" lon="49.2118200"><time>2023-06-03T07:40:42.757</time></trkpt><trkpt lat="55.9352700" lon="49.2119083"><time>2023-06-03T07:40:44.727</time></trkpt><trkpt lat="55.9352933" lon="49.2119950"><time>2023-06-03T07:40:46.737</time></trkpt><trkpt lat="55.9353183" lon="49.2120800"><time>2023-06-03T07:40:48.753</time></trkpt><trkpt lat="55.9353433" lon="49.2121683"><time>2023-06-03T07:40:50.753</time></trkpt><trkpt lat="55.9353550" lon="49.2122700"><time>2023-06-03T07:40:52.747</time></trkpt><trkpt lat="55.9353600" lon="49.2123600"><time>2023-06-03T07:40:54.737</time></trkpt><trkpt lat="55.9353317" lon="49.2122900"><time>2023-06-03T07:41:03.740</time></trkpt><trkpt lat="55.9353683" lon="49.2121100"><time>2023-06-03T07:41:45.707</time></trkpt><trkpt lat="55.9353167" lon="49.2121667"><time>2023-06-03T07:41:51.680</time></trkpt><trkpt lat="55.9352900" lon="49.2123267"><time>2023-06-03T07:42:00.743</time></trkpt><trkpt lat="55.9353200" lon="49.2124067"><time>2023-06-03T07:42:02.753</time></trkpt><trkpt lat="55.9353233" lon="49.2125050"><time>2023-06-03T07:42:04.753</time></trkpt><trkpt lat="55.9353150" lon="49.2126083"><time>2023-06-03T07:42:06.750</time></trkpt><trkpt lat="55.9353150" lon="49.2127050"><time>2023-06-03T07:42:08.750</time></trkpt><trkpt lat="55.9353250" lon="49.2127917"><time>2023-06-03T07:42:10.743</time></trkpt><trkpt lat="55.9353500" lon="49.2128750"><time>2023-06-03T07:42:12.740</time></trkpt><trkpt lat="55.9353683" lon="49.2129500"><time>2023-06-03T07:42:14.740</time></trkpt><trkpt lat="55.9353917" lon="49.2130283"><time>2023-06-03T07:42:16.743</time></trkpt><trkpt lat="55.9353867" lon="49.2131117"><time>2023-06-03T07:42:19.757</time></trkpt><trkpt lat="55.9353883" lon="49.2132700"><time>2023-06-03T07:42:49.747</time></trkpt><trkpt lat="55.9354183" lon="49.2133400"><time>2023-06-03T07:42:51.747</time></trkpt><trkpt lat="55.9354583" lon="49.2134217"><time>2023-06-03T07:42:54.753</time></trkpt><trkpt lat="55.9354967" lon="49.2134767"><time>2023-06-03T07:42:56.747</time></trkpt><trkpt lat="55.9355550" lon="49.2135167"><time>2023-06-03T07:42:59.737</time></trkpt><trkpt lat="55.9355950" lon="49.2135650"><time>2023-06-03T07:43:01.747</time></trkpt><trkpt lat="55.9356400" lon="49.2136317"><time>2023-06-03T07:43:03.743</time></trkpt><trkpt lat="55.9356650" lon="49.2137217"><time>2023-06-03T07:43:05.743</time></trkpt><trkpt lat="55.9356917" lon="49.2138183"><time>2023-06-03T07:43:07.747</time></trkpt><trkpt lat="55.9357450" lon="49.2139317"><time>2023-06-03T07:43:09.740</time></trkpt><trkpt lat="55.9357917" lon="49.2140317"><time>2023-06-03T07:43:11.747</time></trkpt><trkpt lat="55.9358167" lon="49.2141017"><time>2023-06-03T07:43:13.747</time></trkpt><trkpt lat="55.9359150" lon="49.2142333"><time>2023-06-03T07:43:32.750</time></trkpt><trkpt lat="55.9359767" lon="49.2143067"><time>2023-06-03T07:43:35.743</time></trkpt><trkpt lat="55.9360417" lon="49.2143967"><time>2023-06-03T07:43:37.727</time></trkpt><trkpt lat="55.9360833" lon="49.2145217"><time>2023-06-03T07:43:39.747</time></trkpt><trkpt lat="55.9361100" lon="49.2146483"><time>2023-06-03T07:43:41.743</time></trkpt><trkpt lat="55.9361300" lon="49.2147650"><time>2023-06-03T07:43:43.747</time></trkpt><trkpt lat="55.9361500" lon="49.2148667"><time>2023-06-03T07:43:45.747</time></trkpt><trkpt lat="55.9361583" lon="49.2149783"><time>2023-06-03T07:43:47.740</time></trkpt><trkpt lat="55.9361433" lon="49.2150700"><time>2023-06-03T07:43:49.747</time></trkpt><trkpt lat="55.9361117" lon="49.2151283"><time>2023-06-03T07:43:54.753</time></trkpt><trkpt lat="55.9361617" lon="49.2152517"><time>2023-06-03T07:44:13.747</time></trkpt><trkpt lat="55.9362500" lon="49.2154267"><time>2023-06-03T07:44:27.757</time></trkpt><trkpt lat="55.9362600" lon="49.2154600"><time>2023-06-03T07:44:28.747</time></trkpt><trkpt lat="55.9362883" lon="49.2155300"><time>2023-06-03T07:44:30.737</time></trkpt><trkpt lat="55.9363233" lon="49.2156083"><time>2023-06-03T07:44:32.743</time></trkpt><trkpt lat="55.9363583" lon="49.2156967"><time>2023-06-03T07:44:34.753</time></trkpt><trkpt lat="55.9363867" lon="49.2157817"><time>2023-06-03T07:44:36.747</time></trkpt><trkpt lat="55.9364067" lon="49.2158733"><time>2023-06-03T07:44:38.747</time></trkpt><trkpt lat="55.9364433" lon="49.2159883"><time>2023-06-03T07:44:40.747</time></trkpt><trkpt lat="55.9364717" lon="49.2160983"><time>2023-06-03T07:44:42.747</time></trkpt><trkpt lat="55.9365033" lon="49.2161967"><time>2023-06-03T07:44:44.740</time></trkpt><trkpt lat="55.9365467" lon="49.2162867"><time>2023-06-03T07:44:46.727</time></trkpt><trkpt lat="55.9365867" lon="49.2163683"><time>2023-06-03T07:44:48.723</time></trkpt><trkpt lat="55.9366367" lon="49.2164750"><time>2023-06-03T07:44:50.747</time></trkpt><trkpt lat="55.9366850" lon="49.2165917"><time>2023-06-03T07:44:52.737</time></trkpt><trkpt lat="55.9366983" lon="49.2167400"><time>2023-06-03T07:44:54.747</time></trkpt><trkpt lat="55.9367000" lon="49.2168883"><time>2023-06-03T07:44:56.757</time></trkpt><trkpt lat="55.9367033" lon="49.2169500"><time>2023-06-03T07:44:57.747</time></trkpt><trkpt lat="55.9367233" lon="49.2170400"><time>2023-06-03T07:44:59.757</time></trkpt><trkpt lat="55.9367517" lon="49.2171400"><time>2023-06-03T07:45:01.750</time></trkpt><trkpt lat="55.9367700" lon="49.2172500"><time>2023-06-03T07:45:03.740</time></trkpt><trkpt lat="55.9367850" lon="49.2173550"><time>2023-06-03T07:45:05.753</time></trkpt><trkpt lat="55.9368050" lon="49.2174317"><time>2023-06-03T07:45:08.760</time></trkpt><trkpt lat="55.9368417" lon="49.2175683"><time>2023-06-03T07:45:15.743</time></trkpt><trkpt lat="55.9367883" lon="49.2177233"><time>2023-06-03T07:45:31.750</time></trkpt><trkpt lat="55.9367900" lon="49.2177250"><time>2023-06-03T07:45:32.747</time></trkpt><trkpt lat="55.9367767" lon="49.2178400"><time>2023-06-03T07:46:01.753</time></trkpt><trkpt lat="55.9368000" lon="49.2179417"><time>2023-06-03T07:46:04.750</time></trkpt><trkpt lat="55.9368350" lon="49.2180417"><time>2023-06-03T07:46:20.720</time></trkpt><trkpt lat="55.9368767" lon="49.2181333"><time>2023-06-03T07:46:22.763</time></trkpt><trkpt lat="55.9368767" lon="49.2181333"><time>2023-06-03T07:46:22.817</time></trkpt><trkpt lat="55.9369183" lon="49.2182317"><time>2023-06-03T07:46:24.760</time></trkpt><trkpt lat="55.9369250" lon="49.2182750"><time>2023-06-03T07:46:25.753</time></trkpt><trkpt lat="55.9369567" lon="49.2184983"><time>2023-06-03T07:47:40.747</time></trkpt><trkpt lat="55.9369800" lon="49.2185950"><time>2023-06-03T07:47:43.757</time></trkpt><trkpt lat="55.9370017" lon="49.2186733"><time>2023-06-03T07:47:45.753</time></trkpt><trkpt lat="55.9370333" lon="49.2187450"><time>2023-06-03T07:47:47.747</time></trkpt><trkpt lat="55.9370650" lon="49.2188183"><time>2023-06-03T07:47:49.743</time></trkpt><trkpt lat="55.9371067" lon="49.2189017"><time>2023-06-03T07:47:51.743</time></trkpt><trkpt lat="55.9371350" lon="49.2190233"><time>2023-06-03T07:47:53.760</time></trkpt><trkpt lat="55.9371683" lon="49.2191117"><time>2023-06-03T07:47:55.747</time></trkpt><trkpt lat="55.9371983" lon="49.2192200"><time>2023-06-03T07:47:57.750</time></trkpt><trkpt lat="55.9372317" lon="49.2193417"><time>2023-06-03T07:47:59.747</time></trkpt><trkpt lat="55.9372683" lon="49.2194617"><time>2023-06-03T07:48:01.727</time></trkpt><trkpt lat="55.9373050" lon="49.2195733"><time>2023-06-03T07:48:03.733</time></trkpt><trkpt lat="55.9373417" lon="49.2196667"><time>2023-06-03T07:48:05.730</time></trkpt><trkpt lat="55.9373900" lon="49.2197650"><time>2023-06-03T07:48:07.750</time></trkpt><trkpt lat="55.9374350" lon="49.2198683"><time>2023-06-03T07:48:09.743</time></trkpt><trkpt lat="55.9374733" lon="49.2199733"><time>2023-06-03T07:48:11.733</time></trkpt><trkpt lat="55.9374983" lon="49.2200717"><time>2023-06-03T07:48:13.733</time></trkpt><trkpt lat="55.9375083" lon="49.2201933"><time>2023-06-03T07:48:15.737</time></trkpt><trkpt lat="55.9375233" lon="49.2203150"><time>2023-06-03T07:48:17.733</time></trkpt><trkpt lat="55.9375517" lon="49.2204350"><time>2023-06-03T07:48:19.733</time></trkpt><trkpt lat="55.9375817" lon="49.2205500"><time>2023-06-03T07:48:21.730</time></trkpt><trkpt lat="55.9375967" lon="49.2206617"><time>2023-06-03T07:48:23.733</time></trkpt><trkpt lat="55.9376183" lon="49.2207817"><time>2023-06-03T07:48:25.747</time></trkpt><trkpt lat="55.9376300" lon="49.2208617"><time>2023-06-03T07:48:26.750</time></trkpt><trkpt lat="55.9376550" lon="49.2209350"><time>2023-06-03T07:48:27.753</time></trkpt><trkpt lat="55.9376833" lon="49.2210150"><time>2023-06-03T07:48:28.753</time></trkpt><trkpt lat="55.9377133" lon="49.2210917"><time>2023-06-03T07:48:29.753</time></trkpt><trkpt lat="55.9377367" lon="49.2211700"><time>2023-06-03T07:48:30.753</time></trkpt><trkpt lat="55.9377633" lon="49.2213133"><time>2023-06-03T07:48:32.750</time></trkpt><trkpt lat="55.9377900" lon="49.2213850"><time>2023-06-03T07:48:34.750</time></trkpt><trkpt lat="55.9378050" lon="49.2214617"><time>2023-06-03T07:48:36.740</time></trkpt><trkpt lat="55.9378333" lon="49.2215500"><time>2023-06-03T07:48:38.733</time></trkpt><trkpt lat="55.9378633" lon="49.2216433"><time>2023-06-03T07:48:40.753</time></trkpt><trkpt lat="55.9378883" lon="49.2217217"><time>2023-06-03T07:48:42.733</time></trkpt><trkpt lat="55.9379100" lon="49.2218083"><time>2023-06-03T07:48:44.753</time></trkpt><trkpt lat="55.9379300" lon="49.2219250"><time>2023-06-03T07:48:46.747</time></trkpt><trkpt lat="55.9379700" lon="49.2220333"><time>2023-06-03T07:48:48.757</time></trkpt><trkpt lat="55.9380283" lon="49.2221317"><time>2023-06-03T07:48:50.753</time></trkpt><trkpt lat="55.9380783" lon="49.2222450"><time>2023-06-03T07:48:52.747</time></trkpt><trkpt lat="55.9381183" lon="49.2223567"><time>2023-06-03T07:48:54.753</time></trkpt><trkpt lat="55.9381467" lon="49.2224617"><time>2023-06-03T07:48:56.753</time></trkpt><trkpt lat="55.9381800" lon="49.2225317"><time>2023-06-03T07:48:58.747</time></trkpt><trkpt lat="55.9381983" lon="49.2226317"><time>2023-06-03T07:49:00.757</time></trkpt><trkpt lat="55.9382117" lon="49.2227483"><time>2023-06-03T07:49:02.747</time></trkpt><trkpt lat="55.9382383" lon="49.2228250"><time>2023-06-03T07:49:04.753</time></trkpt><trkpt lat="55.9382750" lon="49.2228967"><time>2023-06-03T07:49:06.733</time></trkpt><trkpt lat="55.9383233" lon="49.2229617"><time>2023-06-03T07:49:08.737</time></trkpt><trkpt lat="55.9383800" lon="49.2229883"><time>2023-06-03T07:49:10.727</time></trkpt><trkpt lat="55.9384367" lon="49.2230200"><time>2023-06-03T07:49:12.737</time></trkpt><trkpt lat="55.9384767" lon="49.2231017"><time>2023-06-03T07:49:15.753</time></trkpt><trkpt lat="55.9385100" lon="49.2231617"><time>2023-06-03T07:49:17.757</time></trkpt><trkpt lat="55.9385483" lon="49.2232117"><time>2023-06-03T07:49:19.750</time></trkpt><trkpt lat="55.9385967" lon="49.2232417"><time>2023-06-03T07:49:21.740</time></trkpt><trkpt lat="55.9386550" lon="49.2232450"><time>2023-06-03T07:49:23.747</time></trkpt><trkpt lat="55.9387083" lon="49.2232483"><time>2023-06-03T07:49:25.747</time></trkpt><trkpt lat="55.9387733" lon="49.2232400"><time>2023-06-03T07:49:28.763</time></trkpt><trkpt lat="55.9388283" lon="49.2232133"><time>2023-06-03T07:49:30.767</time></trkpt><trkpt lat="55.9388850" lon="49.2231733"><time>2023-06-03T07:49:32.750</time></trkpt><trkpt lat="55.9389467" lon="49.2231333"><time>2023-06-03T07:49:34.750</time></trkpt><trkpt lat="55.9389983" lon="49.2231050"><time>2023-06-03T07:49:36.750</time></trkpt><trkpt lat="55.9390517" lon="49.2230800"><time>2023-06-03T07:49:38.750</time></trkpt><trkpt lat="55.9391067" lon="49.2230500"><time>2023-06-03T07:49:41.747</time></trkpt><trkpt lat="55.9391483" lon="49.2230117"><time>2023-06-03T07:49:43.753</time></trkpt><trkpt lat="55.9392083" lon="49.2229600"><time>2023-06-03T07:49:45.753</time></trkpt><trkpt lat="55.9392650" lon="49.2229233"><time>2023-06-03T07:49:47.750</time></trkpt><trkpt lat="55.9393233" lon="49.2228900"><time>2023-06-03T07:49:50.750</time></trkpt><trkpt lat="55.9394283" lon="49.2229017"><time>2023-06-03T07:49:56.760</time></trkpt><trkpt lat="55.9395650" lon="49.2229683"><time>2023-06-03T07:50:04.753</time></trkpt><trkpt lat="55.9396167" lon="49.2230100"><time>2023-06-03T07:50:07.750</time></trkpt><trkpt lat="55.9396633" lon="49.2230633"><time>2023-06-03T07:50:10.753</time></trkpt><trkpt lat="55.9397033" lon="49.2231100"><time>2023-06-03T07:50:12.747</time></trkpt><trkpt lat="55.9397933" lon="49.2231617"><time>2023-06-03T07:50:31.737</time></trkpt><trkpt lat="55.9398333" lon="49.2232483"><time>2023-06-03T07:50:34.750</time></trkpt><trkpt lat="55.9398917" lon="49.2233367"><time>2023-06-03T07:50:36.750</time></trkpt><trkpt lat="55.9399483" lon="49.2234200"><time>2023-06-03T07:50:38.723</time></trkpt><trkpt lat="55.9400000" lon="49.2235017"><time>2023-06-03T07:50:40.737</time></trkpt><trkpt lat="55.9400333" lon="49.2236250"><time>2023-06-03T07:50:57.737</time></trkpt><trkpt lat="55.9400700" lon="49.2237017"><time>2023-06-03T07:50:59.727</time></trkpt><trkpt lat="55.9401233" lon="49.2237750"><time>2023-06-03T07:51:01.747</time></trkpt><trkpt lat="55.9401783" lon="49.2238417"><time>2023-06-03T07:51:03.747</time></trkpt><trkpt lat="55.9402417" lon="49.2238933"><time>2023-06-03T07:51:05.740</time></trkpt><trkpt lat="55.9403067" lon="49.2239483"><time>2023-06-03T07:51:07.750</time></trkpt><trkpt lat="55.9403667" lon="49.2239950"><time>2023-06-03T07:51:09.750</time></trkpt><trkpt lat="55.9404350" lon="49.2240417"><time>2023-06-03T07:51:11.750</time></trkpt><trkpt lat="55.9404967" lon="49.2240833"><time>2023-06-03T07:51:13.747</time></trkpt><trkpt lat="55.9405617" lon="49.2241267"><time>2023-06-03T07:51:15.757</time></trkpt><trkpt lat="55.9406200" lon="49.2241800"><time>2023-06-03T07:51:17.753</time></trkpt><trkpt lat="55.9406767" lon="49.2242367"><time>2023-06-03T07:51:19.747</time></trkpt><trkpt lat="55.9407383" lon="49.2242800"><time>2023-06-03T07:51:21.747</time></trkpt><trkpt lat="55.9407883" lon="49.2243217"><time>2023-06-03T07:51:23.747</time></trkpt><trkpt lat="55.9408400" lon="49.2243667"><time>2023-06-03T07:51:25.743</time></trkpt><trkpt lat="55.9408800" lon="49.2244433"><time>2023-06-03T07:51:27.753</time></trkpt><trkpt lat="55.9409283" lon="49.2245317"><time>2023-06-03T07:51:29.757</time></trkpt><trkpt lat="55.9409633" lon="49.2246350"><time>2023-06-03T07:51:31.757</time></trkpt><trkpt lat="55.9409783" lon="49.2247400"><time>2023-06-03T07:51:33.750</time></trkpt><trkpt lat="55.9409950" lon="49.2248450"><time>2023-06-03T07:51:35.733</time></trkpt><trkpt lat="55.9410083" lon="49.2249700"><time>2023-06-03T07:51:37.747</time></trkpt><trkpt lat="55.9410067" lon="49.2250983"><time>2023-06-03T07:51:39.733</time></trkpt><trkpt lat="55.9409917" lon="49.2252100"><time>2023-06-03T07:51:41.760</time></trkpt><trkpt lat="55.9409567" lon="49.2253367"><time>2023-06-03T07:51:43.753</time></trkpt><trkpt lat="55.9409217" lon="49.2254517"><time>2023-06-03T07:51:45.760</time></trkpt><trkpt lat="55.9408933" lon="49.2255683"><time>2023-06-03T07:51:47.747</time></trkpt><trkpt lat="55.9408783" lon="49.2256783"><time>2023-06-03T07:51:49.743</time></trkpt><trkpt lat="55.9408633" lon="49.2257633"><time>2023-06-03T07:51:51.730</time></trkpt><trkpt lat="55.9408967" lon="49.2256900"><time>2023-06-03T07:52:42.730</time></trkpt><trkpt lat="55.9409033" lon="49.2256050"><time>2023-06-03T07:52:45.753</time></trkpt><trkpt lat="55.9409133" lon="49.2255183"><time>2023-06-03T07:52:48.747</time></trkpt><trkpt lat="55.9409350" lon="49.2254367"><time>2023-06-03T07:52:51.757</time></trkpt><trkpt lat="55.9409200" lon="49.2255200"><time>2023-06-03T07:54:10.737</time></trkpt><trkpt lat="55.9409050" lon="49.2256133"><time>2023-06-03T07:54:12.727</time></trkpt><trkpt lat="55.9408917" lon="49.2257333"><time>2023-06-03T07:54:14.750</time></trkpt><trkpt lat="55.9408767" lon="49.2258550"><time>2023-06-03T07:54:16.750</time></trkpt><trkpt lat="55.9408650" lon="49.2259633"><time>2023-06-03T07:54:18.767</time></trkpt><trkpt lat="55.9408250" lon="49.2260550"><time>2023-06-03T07:54:21.757</time></trkpt><trkpt lat="55.9407750" lon="49.2261000"><time>2023-06-03T07:54:23.750</time></trkpt><trkpt lat="55.9407350" lon="49.2261783"><time>2023-06-03T07:54:26.753</time></trkpt><trkpt lat="55.9406900" lon="49.2262517"><time>2023-06-03T07:54:29.763</time></trkpt><trkpt lat="55.9406567" lon="49.2263367"><time>2023-06-03T07:54:32.747</time></trkpt><trkpt lat="55.9406183" lon="49.2264217"><time>2023-06-03T07:54:35.747</time></trkpt><trkpt lat="55.9406017" lon="49.2265100"><time>2023-06-03T07:54:37.747</time></trkpt><trkpt lat="55.9406033" lon="49.2266150"><time>2023-06-03T07:54:39.750</time></trkpt><trkpt lat="55.9406167" lon="49.2267183"><time>2023-06-03T07:54:41.747</time></trkpt><trkpt lat="55.9406333" lon="49.2268167"><time>2023-06-03T07:54:43.757</time></trkpt><trkpt lat="55.9406467" lon="49.2269267"><time>2023-06-03T07:54:45.747</time></trkpt><trkpt lat="55.9406100" lon="49.2270550"><time>2023-06-03T07:54:47.747</time></trkpt><trkpt lat="55.9405717" lon="49.2271700"><time>2023-06-03T07:54:49.750</time></trkpt><trkpt lat="55.9405400" lon="49.2273000"><time>2023-06-03T07:54:51.710</time></trkpt><trkpt lat="55.9405017" lon="49.2274200"><time>2023-06-03T07:54:53.703</time></trkpt><trkpt lat="55.9404783" lon="49.2275317"><time>2023-06-03T07:54:55.730</time></trkpt><trkpt lat="55.9404600" lon="49.2276067"><time>2023-06-03T07:54:57.730</time></trkpt><trkpt lat="55.9404467" lon="49.2276900"><time>2023-06-03T07:55:01.733</time></trkpt><trkpt lat="55.9403850" lon="49.2278400"><time>2023-06-03T07:55:37.710</time></trkpt><trkpt lat="55.9404300" lon="49.2276750"><time>2023-06-03T07:55:51.760</time></trkpt><trkpt lat="55.9404517" lon="49.2275450"><time>2023-06-03T07:55:53.730</time></trkpt><trkpt lat="55.9404917" lon="49.2274000"><time>2023-06-03T07:55:55.750</time></trkpt><trkpt lat="55.9405133" lon="49.2273233"><time>2023-06-03T07:55:56.750</time></trkpt><trkpt lat="55.9405483" lon="49.2271983"><time>2023-06-03T07:55:58.750</time></trkpt><trkpt lat="55.9405783" lon="49.2270800"><time>2023-06-03T07:56:00.760</time></trkpt><trkpt lat="55.9405867" lon="49.2269633"><time>2023-06-03T07:56:02.760</time></trkpt><trkpt lat="55.9405650" lon="49.2268567"><time>2023-06-03T07:56:04.757</time></trkpt><trkpt lat="55.9405417" lon="49.2267517"><time>2023-06-03T07:56:06.760</time></trkpt><trkpt lat="55.9405383" lon="49.2266450"><time>2023-06-03T07:56:08.750</time></trkpt><trkpt lat="55.9405433" lon="49.2265567"><time>2023-06-03T07:56:10.757</time></trkpt><trkpt lat="55.9405700" lon="49.2264650"><time>2023-06-03T07:56:12.727</time></trkpt><trkpt lat="55.9405933" lon="49.2263800"><time>2023-06-03T07:56:14.740</time></trkpt><trkpt lat="55.9406383" lon="49.2263050"><time>2023-06-03T07:56:17.757</time></trkpt><trkpt lat="55.9406783" lon="49.2262417"><time>2023-06-03T07:56:20.753</time></trkpt><trkpt lat="55.9407083" lon="49.2261650"><time>2023-06-03T07:56:23.753</time></trkpt><trkpt lat="55.9407500" lon="49.2260967"><time>2023-06-03T07:56:26.757</time></trkpt><trkpt lat="55.9407933" lon="49.2260550"><time>2023-06-03T07:56:28.747</time></trkpt><trkpt lat="55.9408300" lon="49.2260050"><time>2023-06-03T07:56:31.753</time></trkpt><trkpt lat="55.9408517" lon="49.2258950"><time>2023-06-03T07:56:35.760</time></trkpt><trkpt lat="55.9408667" lon="49.2258017"><time>2023-06-03T07:56:38.750</time></trkpt><trkpt lat="55.9408867" lon="49.2257200"><time>2023-06-03T07:56:41.743</time></trkpt><trkpt lat="55.9409083" lon="49.2256300"><time>2023-06-03T07:56:45.747</time></trkpt><trkpt lat="55.9409217" lon="49.2255283"><time>2023-06-03T07:56:49.730</time></trkpt><trkpt lat="55.9409417" lon="49.2254417"><time>2023-06-03T07:56:53.743</time></trkpt><trkpt lat="55.9409717" lon="49.2253483"><time>2023-06-03T07:56:57.753</time></trkpt><trkpt lat="55.9409950" lon="49.2252683"><time>2023-06-03T07:57:00.767</time></trkpt><trkpt lat="55.9410117" lon="49.2251850"><time>2023-06-03T07:57:03.727</time></trkpt><trkpt lat="55.9410150" lon="49.2251017"><time>2023-06-03T07:57:06.737</time></trkpt><trkpt lat="55.9410100" lon="49.2250033"><time>2023-06-03T07:57:11.693</time></trkpt><trkpt lat="55.9409967" lon="49.2249133"><time>2023-06-03T07:57:16.730</time></trkpt><trkpt lat="55.9409883" lon="49.2248233"><time>2023-06-03T07:57:43.733</time></trkpt><trkpt lat="55.9409650" lon="49.2247300"><time>2023-06-03T07:57:47.733</time></trkpt><trkpt lat="55.9409617" lon="49.2246383"><time>2023-06-03T07:57:54.737</time></trkpt><trkpt lat="55.9409450" lon="49.2245483"><time>2023-06-03T07:57:57.723</time></trkpt><trkpt lat="55.9409150" lon="49.2244867"><time>2023-06-03T07:58:00.757</time></trkpt><trkpt lat="55.9408833" lon="49.2243983"><time>2023-06-03T07:58:04.750</time></trkpt><trkpt lat="55.9408533" lon="49.2243367"><time>2023-06-03T07:58:07.730</time></trkpt><trkpt lat="55.9408083" lon="49.2243283"><time>2023-06-03T07:58:09.747</time></trkpt><trkpt lat="55.9407583" lon="49.2243017"><time>2023-06-03T07:58:12.750</time></trkpt><trkpt lat="55.9407100" lon="49.2242767"><time>2023-06-03T07:58:15.747</time></trkpt><trkpt lat="55.9406583" lon="49.2242383"><time>2023-06-03T07:58:18.750</time></trkpt><trkpt lat="55.9406133" lon="49.2241817"><time>2023-06-03T07:58:21.723</time></trkpt><trkpt lat="55.9405600" lon="49.2241250"><time>2023-06-03T07:58:24.737</time></trkpt><trkpt lat="55.9405183" lon="49.2240567"><time>2023-06-03T07:58:27.737</time></trkpt><trkpt lat="55.9404700" lon="49.2240217"><time>2023-06-03T07:58:30.733</time></trkpt><trkpt lat="55.9404133" lon="49.2239733"><time>2023-06-03T07:58:33.730</time></trkpt><trkpt lat="55.9403600" lon="49.2239267"><time>2023-06-03T07:58:36.727</time></trkpt><trkpt lat="55.9403117" lon="49.2238983"><time>2023-06-03T07:58:39.727</time></trkpt><trkpt lat="55.9402700" lon="49.2238617"><time>2023-06-03T07:58:42.747</time></trkpt><trkpt lat="55.9402017" lon="49.2238267"><time>2023-06-03T07:58:45.713</time></trkpt><trkpt lat="55.9401500" lon="49.2237867"><time>2023-06-03T07:58:48.697</time></trkpt><trkpt lat="55.9401133" lon="49.2237350"><time>2023-06-03T07:58:51.747</time></trkpt><trkpt lat="55.9401583" lon="49.2238000"><time>2023-06-03T07:59:22.707</time></trkpt><trkpt lat="55.9402000" lon="49.2238483"><time>2023-06-03T07:59:25.730</time></trkpt><trkpt lat="55.9402500" lon="49.2238917"><time>2023-06-03T07:59:29.710</time></trkpt><trkpt lat="55.9402983" lon="49.2239317"><time>2023-06-03T07:59:32.743</time></trkpt><trkpt lat="55.9403483" lon="49.2239633"><time>2023-06-03T07:59:35.733</time></trkpt><trkpt lat="55.9403900" lon="49.2240000"><time>2023-06-03T07:59:38.700</time></trkpt><trkpt lat="55.9404400" lon="49.2240317"><time>2023-06-03T07:59:42.730</time></trkpt><trkpt lat="55.9404833" lon="49.2240567"><time>2023-06-03T07:59:45.737</time></trkpt><trkpt lat="55.9405267" lon="49.2241033"><time>2023-06-03T07:59:48.737</time></trkpt><trkpt lat="55.9405717" lon="49.2241333"><time>2023-06-03T07:59:51.760</time></trkpt><trkpt lat="55.9406200" lon="49.2241650"><time>2023-06-03T07:59:55.760</time></trkpt><trkpt lat="55.9406583" lon="49.2242167"><time>2023-06-03T07:59:59.727</time></trkpt><trkpt lat="55.9406967" lon="49.2242683"><time>2023-06-03T08:00:03.753</time></trkpt><trkpt lat="55.9407317" lon="49.2243200"><time>2023-06-03T08:00:06.740</time></trkpt><trkpt lat="55.9407800" lon="49.2243633"><time>2023-06-03T08:00:10.753</time></trkpt><trkpt lat="55.9408283" lon="49.2244083"><time>2023-06-03T08:00:15.740</time></trkpt><trkpt lat="55.9408783" lon="49.2244500"><time>2023-06-03T08:00:18.747</time></trkpt><trkpt lat="55.9409267" lon="49.2244667"><time>2023-06-03T08:00:21.733</time></trkpt><trkpt lat="55.9409750" lon="49.2244650"><time>2023-06-03T08:00:24.753</time></trkpt><trkpt lat="55.9410300" lon="49.2244517"><time>2023-06-03T08:00:27.747</time></trkpt><trkpt lat="55.9410850" lon="49.2244317"><time>2023-06-03T08:00:31.747</time></trkpt><trkpt lat="55.9411333" lon="49.2244250"><time>2023-06-03T08:00:33.757</time></trkpt><trkpt lat="55.9411933" lon="49.2244100"><time>2023-06-03T08:00:36.753</time></trkpt><trkpt lat="55.9412317" lon="49.2243417"><time>2023-06-03T08:00:43.740</time></trkpt><trkpt lat="55.9412483" lon="49.2242500"><time>2023-06-03T08:01:12.757</time></trkpt><trkpt lat="55.9412633" lon="49.2241567"><time>2023-06-03T08:01:14.750</time></trkpt><trkpt lat="55.9412733" lon="49.2240600"><time>2023-06-03T08:01:16.747</time></trkpt><trkpt lat="55.9412750" lon="49.2239483"><time>2023-06-03T08:01:18.733</time></trkpt><trkpt lat="55.9412817" lon="49.2238433"><time>2023-06-03T08:01:20.737</time></trkpt><trkpt lat="55.9412917" lon="49.2237383"><time>2023-06-03T08:01:22.740</time></trkpt><trkpt lat="55.9413233" lon="49.2236483"><time>2023-06-03T08:01:24.750</time></trkpt><trkpt lat="55.9413633" lon="49.2235517"><time>2023-06-03T08:01:26.740</time></trkpt><trkpt lat="55.9414050" lon="49.2234783"><time>2023-06-03T08:01:28.730</time></trkpt><trkpt lat="55.9414717" lon="49.2233583"><time>2023-06-03T08:01:36.750</time></trkpt><trkpt lat="55.9415183" lon="49.2232867"><time>2023-06-03T08:01:38.730</time></trkpt><trkpt lat="55.9415667" lon="49.2231950"><time>2023-06-03T08:01:40.750</time></trkpt><trkpt lat="55.9416167" lon="49.2230783"><time>2023-06-03T08:01:42.750</time></trkpt><trkpt lat="55.9416567" lon="49.2229883"><time>2023-06-03T08:01:44.747</time></trkpt><trkpt lat="55.9417033" lon="49.2229067"><time>2023-06-03T08:01:46.750</time></trkpt><trkpt lat="55.9417400" lon="49.2228433"><time>2023-06-03T08:01:48.733</time></trkpt><trkpt lat="55.9417767" lon="49.2227400"><time>2023-06-03T08:01:50.747</time></trkpt><trkpt lat="55.9418367" lon="49.2226267"><time>2023-06-03T08:01:52.743</time></trkpt><trkpt lat="55.9418817" lon="49.2225267"><time>2023-06-03T08:01:54.747</time></trkpt><trkpt lat="55.9419167" lon="49.2224217"><time>2023-06-03T08:01:56.747</time></trkpt><trkpt lat="55.9419533" lon="49.2223400"><time>2023-06-03T08:01:58.727</time></trkpt><trkpt lat="55.9419833" lon="49.2222533"><time>2023-06-03T08:02:00.757</time></trkpt><trkpt lat="55.9420083" lon="49.2221817"><time>2023-06-03T08:02:02.753</time></trkpt><trkpt lat="55.9420333" lon="49.2221117"><time>2023-06-03T08:02:04.743</time></trkpt><trkpt lat="55.9420833" lon="49.2220183"><time>2023-06-03T08:02:06.743</time></trkpt><trkpt lat="55.9421417" lon="49.2219333"><time>2023-06-03T08:02:08.753</time></trkpt><trkpt lat="55.9422017" lon="49.2218533"><time>2023-06-03T08:02:10.750</time></trkpt><trkpt lat="55.9422417" lon="49.2217783"><time>2023-06-03T08:02:12.757</time></trkpt><trkpt lat="55.9422800" lon="49.2217133"><time>2023-06-03T08:02:14.753</time></trkpt><trkpt lat="55.9423183" lon="49.2216383"><time>2023-06-03T08:02:16.743</time></trkpt><trkpt lat="55.9423617" lon="49.2215633"><time>2023-06-03T08:02:18.743</time></trkpt><trkpt lat="55.9424150" lon="49.2214783"><time>2023-06-03T08:02:20.753</time></trkpt><trkpt lat="55.9424817" lon="49.2213967"><time>2023-06-03T08:02:22.743</time></trkpt><trkpt lat="55.9425400" lon="49.2213150"><time>2023-06-03T08:02:24.743</time></trkpt><trkpt lat="55.9425983" lon="49.2212467"><time>2023-06-03T08:02:26.743</time></trkpt><trkpt lat="55.9426467" lon="49.2211633"><time>2023-06-03T08:02:28.757</time></trkpt><trkpt lat="55.9426900" lon="49.2211017"><time>2023-06-03T08:02:30.747</time></trkpt><trkpt lat="55.9427483" lon="49.2210383"><time>2023-06-03T08:02:32.760</time></trkpt><trkpt lat="55.9427967" lon="49.2209767"><time>2023-06-03T08:02:34.750</time></trkpt><trkpt lat="55.9428400" lon="49.2208967"><time>2023-06-03T08:02:36.747</time></trkpt><trkpt lat="55.9428600" lon="49.2208100"><time>2023-06-03T08:02:38.743</time></trkpt><trkpt lat="55.9428867" lon="49.2207233"><time>2023-06-03T08:02:41.740</time></trkpt><trkpt lat="55.9429233" lon="49.2206717"><time>2023-06-03T08:02:43.750</time></trkpt><trkpt lat="55.9429600" lon="49.2206133"><time>2023-06-03T08:02:45.747</time></trkpt><trkpt lat="55.9430100" lon="49.2205500"><time>2023-06-03T08:02:48.753</time></trkpt><trkpt lat="55.9430517" lon="49.2204850"><time>2023-06-03T08:02:50.747</time></trkpt><trkpt lat="55.9430917" lon="49.2204200"><time>2023-06-03T08:02:52.747</time></trkpt><trkpt lat="55.9431367" lon="49.2203400"><time>2023-06-03T08:02:54.747</time></trkpt><trkpt lat="55.9431717" lon="49.2202533"><time>2023-06-03T08:02:56.740</time></trkpt><trkpt lat="55.9432050" lon="49.2201917"><time>2023-06-03T08:02:58.727</time></trkpt><trkpt lat="55.9432667" lon="49.2201250"><time>2023-06-03T08:03:01.730</time></trkpt><trkpt lat="55.9433117" lon="49.2200483"><time>2023-06-03T08:03:03.743</time></trkpt><trkpt lat="55.9433567" lon="49.2199650"><time>2023-06-03T08:03:05.737</time></trkpt><trkpt lat="55.9433883" lon="49.2198800"><time>2023-06-03T08:03:07.747</time></trkpt><trkpt lat="55.9434200" lon="49.2197967"><time>2023-06-03T08:03:09.753</time></trkpt><trkpt lat="55.9434633" lon="49.2197017"><time>2023-06-03T08:03:11.747</time></trkpt><trkpt lat="55.9435117" lon="49.2196150"><time>2023-06-03T08:03:13.743</time></trkpt><trkpt lat="55.9435600" lon="49.2195383"><time>2023-06-03T08:03:15.750</time></trkpt><trkpt lat="55.9436083" lon="49.2194533"><time>2023-06-03T08:03:17.753</time></trkpt><trkpt lat="55.9436500" lon="49.2193733"><time>2023-06-03T08:03:19.750</time></trkpt><trkpt lat="55.9437000" lon="49.2192900"><time>2023-06-03T08:03:21.740</time></trkpt><trkpt lat="55.9437483" lon="49.2192100"><time>2023-06-03T08:03:23.747</time></trkpt><trkpt lat="55.9437867" lon="49.2191333"><time>2023-06-03T08:03:25.743</time></trkpt><trkpt lat="55.9438283" lon="49.2190417"><time>2023-06-03T08:03:27.737</time></trkpt><trkpt lat="55.9438717" lon="49.2189600"><time>2023-06-03T08:03:29.753</time></trkpt><trkpt lat="55.9439067" lon="49.2188933"><time>2023-06-03T08:03:31.753</time></trkpt><trkpt lat="55.9439333" lon="49.2187983"><time>2023-06-03T08:03:34.747</time></trkpt><trkpt lat="55.9439467" lon="49.2186950"><time>2023-06-03T08:03:37.750</time></trkpt><trkpt lat="55.9439433" lon="49.2186117"><time>2023-06-03T08:03:39.730</time></trkpt><trkpt lat="55.9439200" lon="49.2185117"><time>2023-06-03T08:03:42.747</time></trkpt><trkpt lat="55.9439200" lon="49.2184300"><time>2023-06-03T08:03:44.753</time></trkpt><trkpt lat="55.9439350" lon="49.2183283"><time>2023-06-03T08:03:47.747</time></trkpt><trkpt lat="55.9439750" lon="49.2182683"><time>2023-06-03T08:03:49.750</time></trkpt><trkpt lat="55.9440033" lon="49.2182000"><time>2023-06-03T08:03:51.750</time></trkpt><trkpt lat="55.9440083" lon="49.2181200"><time>2023-06-03T08:03:53.733</time></trkpt><trkpt lat="55.9440183" lon="49.2180200"><time>2023-06-03T08:03:55.730</time></trkpt><trkpt lat="55.9440233" lon="49.2179283"><time>2023-06-03T08:03:57.733</time></trkpt><trkpt lat="55.9440333" lon="49.2178317"><time>2023-06-03T08:03:59.727</time></trkpt><trkpt lat="55.9440467" lon="49.2177317"><time>2023-06-03T08:04:01.747</time></trkpt><trkpt lat="55.9440483" lon="49.2176450"><time>2023-06-03T08:04:03.747</time></trkpt><trkpt lat="55.9440467" lon="49.2175567"><time>2023-06-03T08:04:05.760</time></trkpt><trkpt lat="55.9440350" lon="49.2174517"><time>2023-06-03T08:04:07.757</time></trkpt><trkpt lat="55.9440283" lon="49.2173467"><time>2023-06-03T08:04:09.767</time></trkpt><trkpt lat="55.9440250" lon="49.2172467"><time>2023-06-03T08:04:11.753</time></trkpt><trkpt lat="55.9440267" lon="49.2171967"><time>2023-06-03T08:04:12.750</time></trkpt><trkpt lat="55.9440117" lon="49.2170883"><time>2023-06-03T08:04:14.743</time></trkpt><trkpt lat="55.9440050" lon="49.2169600"><time>2023-06-03T08:04:16.753</time></trkpt><trkpt lat="55.9440017" lon="49.2168450"><time>2023-06-03T08:04:18.750</time></trkpt><trkpt lat="55.9440000" lon="49.2167233"><time>2023-06-03T08:04:20.753</time></trkpt><trkpt lat="55.9440100" lon="49.2166200"><time>2023-06-03T08:04:22.753</time></trkpt><trkpt lat="55.9440150" lon="49.2164533"><time>2023-06-03T08:04:30.747</time></trkpt><trkpt lat="55.9440033" lon="49.2163400"><time>2023-06-03T08:04:32.753</time></trkpt><trkpt lat="55.9439900" lon="49.2162250"><time>2023-06-03T08:04:34.743</time></trkpt><trkpt lat="55.9439883" lon="49.2161067"><time>2023-06-03T08:04:36.767</time></trkpt><trkpt lat="55.9439900" lon="49.2159950"><time>2023-06-03T08:04:38.760</time></trkpt><trkpt lat="55.9439933" lon="49.2159000"><time>2023-06-03T08:04:40.753</time></trkpt><trkpt lat="55.9440033" lon="49.2158067"><time>2023-06-03T08:04:42.763</time></trkpt><trkpt lat="55.9440017" lon="49.2157217"><time>2023-06-03T08:04:45.753</time></trkpt><trkpt lat="55.9440183" lon="49.2156117"><time>2023-06-03T08:05:06.737</time></trkpt><trkpt lat="55.9440350" lon="49.2155700"><time>2023-06-03T08:05:07.730</time></trkpt><trkpt lat="55.9440550" lon="49.2154700"><time>2023-06-03T08:05:09.730</time></trkpt><trkpt lat="55.9440717" lon="49.2153750"><time>2023-06-03T08:05:11.743</time></trkpt><trkpt lat="55.9440817" lon="49.2152483"><time>2023-06-03T08:05:14.733</time></trkpt><trkpt lat="55.9440917" lon="49.2151433"><time>2023-06-03T08:05:16.733</time></trkpt><trkpt lat="55.9440967" lon="49.2150533"><time>2023-06-03T08:05:18.733</time></trkpt><trkpt lat="55.9441167" lon="49.2149750"><time>2023-06-03T08:05:29.743</time></trkpt><trkpt lat="55.9441283" lon="49.2148767"><time>2023-06-03T08:05:32.757</time></trkpt><trkpt lat="55.9441350" lon="49.2148450"><time>2023-06-03T08:05:33.747</time></trkpt><trkpt lat="55.9441500" lon="49.2147667"><time>2023-06-03T08:05:36.743</time></trkpt><trkpt lat="55.9441700" lon="49.2146700"><time>2023-06-03T08:05:40.747</time></trkpt><trkpt lat="55.9441917" lon="49.2145900"><time>2023-06-03T08:05:43.740</time></trkpt><trkpt lat="55.9442117" lon="49.2145033"><time>2023-06-03T08:05:46.747</time></trkpt><trkpt lat="55.9442317" lon="49.2144200"><time>2023-06-03T08:05:50.753</time></trkpt><trkpt lat="55.9442317" lon="49.2144200"><time>2023-06-03T08:05:50.790</time></trkpt><trkpt lat="55.9442017" lon="49.2144850"><time>2023-06-03T08:05:57.767</time></trkpt><trkpt lat="55.9441950" lon="49.2145350"><time>2023-06-03T08:05:58.753</time></trkpt><trkpt lat="55.9441767" lon="49.2146400"><time>2023-06-03T08:06:00.727</time></trkpt><trkpt lat="55.9441683" lon="49.2147433"><time>2023-06-03T08:06:02.750</time></trkpt><trkpt lat="55.9441567" lon="49.2148400"><time>2023-06-03T08:06:04.750</time></trkpt><trkpt lat="55.9441317" lon="49.2149367"><time>2023-06-03T08:06:06.757</time></trkpt><trkpt lat="55.9441050" lon="49.2150183"><time>2023-06-03T08:06:09.763</time></trkpt><trkpt lat="55.9440967" lon="49.2151150"><time>2023-06-03T08:06:17.753</time></trkpt><trkpt lat="55.9440933" lon="49.2152167"><time>2023-06-03T08:06:20.737</time></trkpt><trkpt lat="55.9440900" lon="49.2153167"><time>2023-06-03T08:06:22.730</time></trkpt><trkpt lat="55.9440783" lon="49.2154350"><time>2023-06-03T08:06:24.733</time></trkpt><trkpt lat="55.9440650" lon="49.2155483"><time>2023-06-03T08:06:26.737</time></trkpt><trkpt lat="55.9440467" lon="49.2156483"><time>2023-06-03T08:06:28.747</time></trkpt><trkpt lat="55.9440250" lon="49.2157433"><time>2023-06-03T08:06:30.753</time></trkpt><trkpt lat="55.9440100" lon="49.2158533"><time>2023-06-03T08:06:32.747</time></trkpt><trkpt lat="55.9440050" lon="49.2159617"><time>2023-06-03T08:06:34.743</time></trkpt><trkpt lat="55.9440050" lon="49.2160867"><time>2023-06-03T08:06:36.747</time></trkpt><trkpt lat="55.9440133" lon="49.2162117"><time>2023-06-03T08:06:38.753</time></trkpt><trkpt lat="55.9440233" lon="49.2163367"><time>2023-06-03T08:06:40.750</time></trkpt><trkpt lat="55.9440267" lon="49.2164617"><time>2023-06-03T08:06:42.747</time></trkpt><trkpt lat="55.9440367" lon="49.2165900"><time>2023-06-03T08:06:44.743</time></trkpt><trkpt lat="55.9440533" lon="49.2167050"><time>2023-06-03T08:06:46.743</time></trkpt><trkpt lat="55.9440833" lon="49.2168117"><time>2023-06-03T08:06:48.747</time></trkpt><trkpt lat="55.9441183" lon="49.2169000"><time>2023-06-03T08:06:50.757</time></trkpt><trkpt lat="55.9441417" lon="49.2169750"><time>2023-06-03T08:06:52.747</time></trkpt><trkpt lat="55.9441633" lon="49.2170533"><time>2023-06-03T08:06:54.747</time></trkpt><trkpt lat="55.9441700" lon="49.2171567"><time>2023-06-03T08:06:57.750</time></trkpt><trkpt lat="55.9441617" lon="49.2172833"><time>2023-06-03T08:06:59.747</time></trkpt><trkpt lat="55.9441417" lon="49.2173833"><time>2023-06-03T08:07:01.737</time></trkpt><trkpt lat="55.9441217" lon="49.2174933"><time>2023-06-03T08:07:03.753</time></trkpt><trkpt lat="55.9441200" lon="49.2175933"><time>2023-06-03T08:07:05.743</time></trkpt><trkpt lat="55.9441000" lon="49.2177117"><time>2023-06-03T08:07:07.743</time></trkpt><trkpt lat="55.9441050" lon="49.2178067"><time>2023-06-03T08:07:09.750</time></trkpt><trkpt lat="55.9440833" lon="49.2178783"><time>2023-06-03T08:07:11.753</time></trkpt><trkpt lat="55.9440450" lon="49.2179400"><time>2023-06-03T08:07:13.747</time></trkpt><trkpt lat="55.9440167" lon="49.2180350"><time>2023-06-03T08:07:15.747</time></trkpt><trkpt lat="55.9440133" lon="49.2181433"><time>2023-06-03T08:07:17.743</time></trkpt><trkpt lat="55.9440067" lon="49.2182400"><time>2023-06-03T08:07:19.750</time></trkpt><trkpt lat="55.9440150" lon="49.2183400"><time>2023-06-03T08:07:22.743</time></trkpt><trkpt lat="55.9440117" lon="49.2184267"><time>2023-06-03T08:07:24.753</time></trkpt><trkpt lat="55.9439950" lon="49.2185183"><time>2023-06-03T08:07:26.750</time></trkpt><trkpt lat="55.9439717" lon="49.2186150"><time>2023-06-03T08:07:28.750</time></trkpt><trkpt lat="55.9439417" lon="49.2186833"><time>2023-06-03T08:07:29.753</time></trkpt><trkpt lat="55.9439133" lon="49.2187533"><time>2023-06-03T08:07:30.750</time></trkpt><trkpt lat="55.9438700" lon="49.2188800"><time>2023-06-03T08:07:32.747</time></trkpt><trkpt lat="55.9438300" lon="49.2190033"><time>2023-06-03T08:07:34.740</time></trkpt><trkpt lat="55.9437833" lon="49.2191183"><time>2023-06-03T08:07:36.747</time></trkpt><trkpt lat="55.9437350" lon="49.2192167"><time>2023-06-03T08:07:38.727</time></trkpt><trkpt lat="55.9436767" lon="49.2193317"><time>2023-06-03T08:07:40.750</time></trkpt><trkpt lat="55.9436117" lon="49.2194367"><time>2023-06-03T08:07:42.760</time></trkpt><trkpt lat="55.9435583" lon="49.2195367"><time>2023-06-03T08:07:44.727</time></trkpt><trkpt lat="55.9435167" lon="49.2196450"><time>2023-06-03T08:07:46.727</time></trkpt><trkpt lat="55.9434767" lon="49.2197417"><time>2023-06-03T08:07:48.730</time></trkpt><trkpt lat="55.9434450" lon="49.2198350"><time>2023-06-03T08:07:50.743</time></trkpt><trkpt lat="55.9434067" lon="49.2199250"><time>2023-06-03T08:07:52.743</time></trkpt><trkpt lat="55.9433617" lon="49.2200183"><time>2023-06-03T08:07:54.747</time></trkpt><trkpt lat="55.9433000" lon="49.2200867"><time>2023-06-03T08:07:56.750</time></trkpt><trkpt lat="55.9432417" lon="49.2201350"><time>2023-06-03T08:07:58.743</time></trkpt><trkpt lat="55.9431950" lon="49.2202100"><time>2023-06-03T08:08:00.730</time></trkpt><trkpt lat="55.9431583" lon="49.2203033"><time>2023-06-03T08:08:02.740</time></trkpt><trkpt lat="55.9431083" lon="49.2203717"><time>2023-06-03T08:08:04.753</time></trkpt><trkpt lat="55.9430633" lon="49.2204483"><time>2023-06-03T08:08:06.753</time></trkpt><trkpt lat="55.9430117" lon="49.2205233"><time>2023-06-03T08:08:08.757</time></trkpt><trkpt lat="55.9429667" lon="49.2205833"><time>2023-06-03T08:08:10.753</time></trkpt><trkpt lat="55.9429117" lon="49.2206550"><time>2023-06-03T08:08:12.753</time></trkpt><trkpt lat="55.9428783" lon="49.2207467"><time>2023-06-03T08:08:14.743</time></trkpt><trkpt lat="55.9428617" lon="49.2208367"><time>2023-06-03T08:08:16.740</time></trkpt><trkpt lat="55.9428500" lon="49.2209283"><time>2023-06-03T08:08:18.747</time></trkpt><trkpt lat="55.9428317" lon="49.2210033"><time>2023-06-03T08:08:20.747</time></trkpt><trkpt lat="55.9427983" lon="49.2210767"><time>2023-06-03T08:08:22.740</time></trkpt><trkpt lat="55.9427567" lon="49.2211567"><time>2023-06-03T08:08:24.747</time></trkpt><trkpt lat="55.9427083" lon="49.2212433"><time>2023-06-03T08:08:26.743</time></trkpt><trkpt lat="55.9426650" lon="49.2213283"><time>2023-06-03T08:08:28.747</time></trkpt><trkpt lat="55.9426117" lon="49.2213950"><time>2023-06-03T08:08:30.730</time></trkpt><trkpt lat="55.9425550" lon="49.2214583"><time>2023-06-03T08:08:32.727</time></trkpt><trkpt lat="55.9424967" lon="49.2215367"><time>2023-06-03T08:08:34.720</time></trkpt><trkpt lat="55.9424367" lon="49.2216117"><time>2023-06-03T08:08:36.743</time></trkpt><trkpt lat="55.9423933" lon="49.2216783"><time>2023-06-03T08:08:38.720</time></trkpt><trkpt lat="55.9423550" lon="49.2217467"><time>2023-06-03T08:08:40.750</time></trkpt><trkpt lat="55.9423217" lon="49.2218167"><time>2023-06-03T08:08:42.750</time></trkpt><trkpt lat="55.9422750" lon="49.2218867"><time>2023-06-03T08:08:44.743</time></trkpt><trkpt lat="55.9422333" lon="49.2219500"><time>2023-06-03T08:08:46.747</time></trkpt><trkpt lat="55.9421883" lon="49.2220100"><time>2023-06-03T08:08:48.747</time></trkpt><trkpt lat="55.9421400" lon="49.2220933"><time>2023-06-03T08:08:50.750</time></trkpt><trkpt lat="55.9420933" lon="49.2221767"><time>2023-06-03T08:08:52.753</time></trkpt><trkpt lat="55.9420533" lon="49.2222417"><time>2023-06-03T08:08:54.720</time></trkpt><trkpt lat="55.9420117" lon="49.2223300"><time>2023-06-03T08:08:57.727</time></trkpt><trkpt lat="55.9419933" lon="49.2224067"><time>2023-06-03T08:08:59.727</time></trkpt><trkpt lat="55.9419700" lon="49.2224917"><time>2023-06-03T08:09:01.747</time></trkpt><trkpt lat="55.9419467" lon="49.2225783"><time>2023-06-03T08:09:03.747</time></trkpt><trkpt lat="55.9419033" lon="49.2226583"><time>2023-06-03T08:09:05.747</time></trkpt><trkpt lat="55.9418533" lon="49.2227317"><time>2023-06-03T08:09:07.750</time></trkpt><trkpt lat="55.9418017" lon="49.2228100"><time>2023-06-03T08:09:09.743</time></trkpt><trkpt lat="55.9417533" lon="49.2228850"><time>2023-06-03T08:09:11.747</time></trkpt><trkpt lat="55.9417033" lon="49.2229750"><time>2023-06-03T08:09:13.743</time></trkpt><trkpt lat="55.9416600" lon="49.2230467"><time>2023-06-03T08:09:15.747</time></trkpt><trkpt lat="55.9416167" lon="49.2231067"><time>2023-06-03T08:09:17.747</time></trkpt><trkpt lat="55.9415667" lon="49.2231817"><time>2023-06-03T08:09:19.743</time></trkpt><trkpt lat="55.9415100" lon="49.2232450"><time>2023-06-03T08:09:21.743</time></trkpt><trkpt lat="55.9414450" lon="49.2233383"><time>2023-06-03T08:09:23.743</time></trkpt><trkpt lat="55.9413950" lon="49.2234283"><time>2023-06-03T08:09:25.743</time></trkpt><trkpt lat="55.9413517" lon="49.2235233"><time>2023-06-03T08:09:27.747</time></trkpt><trkpt lat="55.9413300" lon="49.2236333"><time>2023-06-03T08:09:29.727</time></trkpt><trkpt lat="55.9413317" lon="49.2237317"><time>2023-06-03T08:09:31.750</time></trkpt><trkpt lat="55.9413450" lon="49.2238167"><time>2023-06-03T08:09:33.747</time></trkpt><trkpt lat="55.9413550" lon="49.2239283"><time>2023-06-03T08:09:36.750</time></trkpt><trkpt lat="55.9413417" lon="49.2240383"><time>2023-06-03T08:09:38.757</time></trkpt><trkpt lat="55.9413233" lon="49.2241600"><time>2023-06-03T08:09:40.760</time></trkpt><trkpt lat="55.9412800" lon="49.2242700"><time>2023-06-03T08:09:42.733</time></trkpt><trkpt lat="55.9412333" lon="49.2243633"><time>2023-06-03T08:09:44.727</time></trkpt><trkpt lat="55.9411867" lon="49.2243933"><time>2023-06-03T08:09:46.750</time></trkpt><trkpt lat="55.9411417" lon="49.2244117"><time>2023-06-03T08:09:48.740</time></trkpt><trkpt lat="55.9410833" lon="49.2244333"><time>2023-06-03T08:09:51.747</time></trkpt><trkpt lat="55.9410367" lon="49.2244467"><time>2023-06-03T08:09:53.743</time></trkpt><trkpt lat="55.9409750" lon="49.2244500"><time>2023-06-03T08:09:56.750</time></trkpt><trkpt lat="55.9409150" lon="49.2244467"><time>2023-06-03T08:09:59.740</time></trkpt><trkpt lat="55.9408650" lon="49.2243967"><time>2023-06-03T08:10:03.750</time></trkpt><trkpt lat="55.9408250" lon="49.2243583"><time>2023-06-03T08:10:05.747</time></trkpt><trkpt lat="55.9407650" lon="49.2243133"><time>2023-06-03T08:10:07.743</time></trkpt><trkpt lat="55.9406983" lon="49.2242617"><time>2023-06-03T08:10:09.747</time></trkpt><trkpt lat="55.9406383" lon="49.2241967"><time>2023-06-03T08:10:11.747</time></trkpt><trkpt lat="55.9405800" lon="49.2241367"><time>2023-06-03T08:10:13.747</time></trkpt><trkpt lat="55.9405200" lon="49.2240833"><time>2023-06-03T08:10:15.753</time></trkpt><trkpt lat="55.9404567" lon="49.2240317"><time>2023-06-03T08:10:17.747</time></trkpt><trkpt lat="55.9403967" lon="49.2239817"><time>2023-06-03T08:10:19.747</time></trkpt><trkpt lat="55.9403417" lon="49.2239433"><time>2023-06-03T08:10:21.747</time></trkpt><trkpt lat="55.9402817" lon="49.2239000"><time>2023-06-03T08:10:23.743</time></trkpt><trkpt lat="55.9402100" lon="49.2238533"><time>2023-06-03T08:10:25.753</time></trkpt><trkpt lat="55.9401533" lon="49.2237967"><time>2023-06-03T08:10:27.750</time></trkpt><trkpt lat="55.9401050" lon="49.2237283"><time>2023-06-03T08:10:29.743</time></trkpt><trkpt lat="55.9400567" lon="49.2236483"><time>2023-06-03T08:10:31.743</time></trkpt><trkpt lat="55.9400100" lon="49.2235533"><time>2023-06-03T08:10:33.747</time></trkpt><trkpt lat="55.9399667" lon="49.2234800"><time>2023-06-03T08:10:35.750</time></trkpt><trkpt lat="55.9399217" lon="49.2234083"><time>2023-06-03T08:10:37.747</time></trkpt><trkpt lat="55.9398733" lon="49.2233450"><time>2023-06-03T08:10:39.753</time></trkpt><trkpt lat="55.9398317" lon="49.2232783"><time>2023-06-03T08:10:42.750</time></trkpt><trkpt lat="55.9398017" lon="49.2232167"><time>2023-06-03T08:10:45.747</time></trkpt><trkpt lat="55.9397800" lon="49.2231433"><time>2023-06-03T08:10:48.740</time></trkpt><trkpt lat="55.9397450" lon="49.2230717"><time>2023-06-03T08:10:52.723</time></trkpt><trkpt lat="55.9397867" lon="49.2231200"><time>2023-06-03T08:11:02.743</time></trkpt><trkpt lat="55.9398533" lon="49.2232117"><time>2023-06-03T08:11:04.753</time></trkpt><trkpt lat="55.9398950" lon="49.2232783"><time>2023-06-03T08:11:05.750</time></trkpt><trkpt lat="55.9399300" lon="49.2233450"><time>2023-06-03T08:11:06.743</time></trkpt><trkpt lat="55.9399617" lon="49.2234033"><time>2023-06-03T08:11:07.740</time></trkpt><trkpt lat="55.9400167" lon="49.2235083"><time>2023-06-03T08:11:09.743</time></trkpt><trkpt lat="55.9400683" lon="49.2235967"><time>2023-06-03T08:11:11.743</time></trkpt><trkpt lat="55.9401200" lon="49.2236817"><time>2023-06-03T08:11:13.727</time></trkpt><trkpt lat="55.9401750" lon="49.2237767"><time>2023-06-03T08:11:15.743</time></trkpt><trkpt lat="55.9402400" lon="49.2238683"><time>2023-06-03T08:11:17.743</time></trkpt><trkpt lat="55.9403000" lon="49.2239233"><time>2023-06-03T08:11:19.730</time></trkpt><trkpt lat="55.9403617" lon="49.2239667"><time>2023-06-03T08:11:21.723</time></trkpt><trkpt lat="55.9404450" lon="49.2240083"><time>2023-06-03T08:11:23.747</time></trkpt><trkpt lat="55.9405183" lon="49.2240633"><time>2023-06-03T08:11:25.743</time></trkpt><trkpt lat="55.9405833" lon="49.2241267"><time>2023-06-03T08:11:27.757</time></trkpt><trkpt lat="55.9406417" lon="49.2241950"><time>2023-06-03T08:11:29.750</time></trkpt><trkpt lat="55.9406967" lon="49.2242583"><time>2023-06-03T08:11:31.747</time></trkpt><trkpt lat="55.9407550" lon="49.2243133"><time>2023-06-03T08:11:33.753</time></trkpt><trkpt lat="55.9408117" lon="49.2243600"><time>2023-06-03T08:11:35.747</time></trkpt><trkpt lat="55.9408650" lon="49.2244083"><time>2023-06-03T08:11:37.743</time></trkpt><trkpt lat="55.9409033" lon="49.2244533"><time>2023-06-03T08:11:39.747</time></trkpt><trkpt lat="55.9409567" lon="49.2244817"><time>2023-06-03T08:11:41.750</time></trkpt><trkpt lat="55.9410133" lon="49.2244883"><time>2023-06-03T08:11:43.743</time></trkpt><trkpt lat="55.9410633" lon="49.2244700"><time>2023-06-03T08:11:45.740</time></trkpt><trkpt lat="55.9411217" lon="49.2244433"><time>2023-06-03T08:11:48.750</time></trkpt><trkpt lat="55.9411733" lon="49.2244283"><time>2023-06-03T08:11:51.737</time></trkpt><trkpt lat="55.9412233" lon="49.2243850"><time>2023-06-03T08:11:54.747</time></trkpt><trkpt lat="55.9412433" lon="49.2243117"><time>2023-06-03T08:11:57.747</time></trkpt><trkpt lat="55.9412450" lon="49.2242133"><time>2023-06-03T08:12:00.757</time></trkpt><trkpt lat="55.9412633" lon="49.2240900"><time>2023-06-03T08:12:03.743</time></trkpt><trkpt lat="55.9412750" lon="49.2239950"><time>2023-06-03T08:12:05.750</time></trkpt><trkpt lat="55.9412717" lon="49.2238733"><time>2023-06-03T08:12:07.747</time></trkpt><trkpt lat="55.9412767" lon="49.2237450"><time>2023-06-03T08:12:09.753</time></trkpt><trkpt lat="55.9412950" lon="49.2236467"><time>2023-06-03T08:12:11.747</time></trkpt><trkpt lat="55.9413283" lon="49.2235583"><time>2023-06-03T08:12:13.727</time></trkpt><trkpt lat="55.9413750" lon="49.2234767"><time>2023-06-03T08:12:15.730</time></trkpt><trkpt lat="55.9414083" lon="49.2234000"><time>2023-06-03T08:12:17.750</time></trkpt><trkpt lat="55.9414467" lon="49.2233417"><time>2023-06-03T08:12:19.750</time></trkpt><trkpt lat="55.9414967" lon="49.2232567"><time>2023-06-03T08:12:22.747</time></trkpt><trkpt lat="55.9415283" lon="49.2231750"><time>2023-06-03T08:12:24.773</time></trkpt><trkpt lat="55.9415600" lon="49.2230850"><time>2023-06-03T08:12:26.750</time></trkpt><trkpt lat="55.9415917" lon="49.2229950"><time>2023-06-03T08:12:28.730</time></trkpt><trkpt lat="55.9416233" lon="49.2229350"><time>2023-06-03T08:12:30.727</time></trkpt><trkpt lat="55.9416767" lon="49.2228717"><time>2023-06-03T08:12:32.730</time></trkpt><trkpt lat="55.9417300" lon="49.2228017"><time>2023-06-03T08:12:34.727</time></trkpt><trkpt lat="55.9417700" lon="49.2227050"><time>2023-06-03T08:12:36.730</time></trkpt><trkpt lat="55.9418100" lon="49.2225983"><time>2023-06-03T08:12:38.730</time></trkpt><trkpt lat="55.9418450" lon="49.2225050"><time>2023-06-03T08:12:40.727</time></trkpt><trkpt lat="55.9418883" lon="49.2224367"><time>2023-06-03T08:12:42.727</time></trkpt><trkpt lat="55.9419267" lon="49.2223600"><time>2023-06-03T08:12:44.717</time></trkpt><trkpt lat="55.9419617" lon="49.2222683"><time>2023-06-03T08:12:46.743</time></trkpt><trkpt lat="55.9420033" lon="49.2221917"><time>2023-06-03T08:12:48.753</time></trkpt><trkpt lat="55.9420467" lon="49.2221000"><time>2023-06-03T08:12:50.753</time></trkpt><trkpt lat="55.9420950" lon="49.2220167"><time>2023-06-03T08:12:52.743</time></trkpt><trkpt lat="55.9421533" lon="49.2219183"><time>2023-06-03T08:12:54.723</time></trkpt><trkpt lat="55.9422167" lon="49.2218100"><time>2023-06-03T08:12:56.727</time></trkpt><trkpt lat="55.9422650" lon="49.2217283"><time>2023-06-03T08:12:58.723</time></trkpt><trkpt lat="55.9422983" lon="49.2216483"><time>2023-06-03T08:13:00.750</time></trkpt><trkpt lat="55.9423517" lon="49.2215683"><time>2023-06-03T08:13:02.747</time></trkpt><trkpt lat="55.9424067" lon="49.2214883"><time>2023-06-03T08:13:04.750</time></trkpt><trkpt lat="55.9424617" lon="49.2214133"><time>2023-06-03T08:13:06.747</time></trkpt><trkpt lat="55.9425167" lon="49.2213400"><time>2023-06-03T08:13:08.747</time></trkpt><trkpt lat="55.9425667" lon="49.2212583"><time>2023-06-03T08:13:10.743</time></trkpt><trkpt lat="55.9426100" lon="49.2211700"><time>2023-06-03T08:13:12.753</time></trkpt><trkpt lat="55.9426617" lon="49.2210917"><time>2023-06-03T08:13:14.747</time></trkpt><trkpt lat="55.9427000" lon="49.2210233"><time>2023-06-03T08:13:16.747</time></trkpt><trkpt lat="55.9427483" lon="49.2209517"><time>2023-06-03T08:13:18.740</time></trkpt><trkpt lat="55.9427933" lon="49.2209000"><time>2023-06-03T08:13:20.747</time></trkpt><trkpt lat="55.9428350" lon="49.2208033"><time>2023-06-03T08:13:23.757</time></trkpt><trkpt lat="55.9428683" lon="49.2207467"><time>2023-06-03T08:13:26.750</time></trkpt><trkpt lat="55.9429150" lon="49.2206733"><time>2023-06-03T08:13:33.743</time></trkpt><trkpt lat="55.9429567" lon="49.2205900"><time>2023-06-03T08:13:36.747</time></trkpt><trkpt lat="55.9430117" lon="49.2205100"><time>2023-06-03T08:13:39.750</time></trkpt><trkpt lat="55.9430617" lon="49.2204467"><time>2023-06-03T08:13:41.750</time></trkpt><trkpt lat="55.9431133" lon="49.2203633"><time>2023-06-03T08:13:43.747</time></trkpt><trkpt lat="55.9431617" lon="49.2202683"><time>2023-06-03T08:13:45.743</time></trkpt><trkpt lat="55.9431983" lon="49.2201833"><time>2023-06-03T08:13:47.743</time></trkpt><trkpt lat="55.9432383" lon="49.2201367"><time>2023-06-03T08:13:49.747</time></trkpt><trkpt lat="55.9432850" lon="49.2200933"><time>2023-06-03T08:13:51.757</time></trkpt><trkpt lat="55.9433367" lon="49.2200300"><time>2023-06-03T08:13:53.753</time></trkpt><trkpt lat="55.9433783" lon="49.2199483"><time>2023-06-03T08:13:55.747</time></trkpt><trkpt lat="55.9434150" lon="49.2198633"><time>2023-06-03T08:13:57.750</time></trkpt><trkpt lat="55.9434517" lon="49.2197667"><time>2023-06-03T08:13:59.750</time></trkpt><trkpt lat="55.9434933" lon="49.2196700"><time>2023-06-03T08:14:01.743</time></trkpt><trkpt lat="55.9435333" lon="49.2195900"><time>2023-06-03T08:14:03.750</time></trkpt><trkpt lat="55.9435667" lon="49.2195217"><time>2023-06-03T08:14:05.747</time></trkpt><trkpt lat="55.9435983" lon="49.2194317"><time>2023-06-03T08:14:07.740</time></trkpt><trkpt lat="55.9436450" lon="49.2193567"><time>2023-06-03T08:14:09.750</time></trkpt><trkpt lat="55.9436917" lon="49.2192717"><time>2023-06-03T08:14:11.747</time></trkpt><trkpt lat="55.9437317" lon="49.2191750"><time>2023-06-03T08:14:13.737</time></trkpt><trkpt lat="55.9437650" lon="49.2190817"><time>2023-06-03T08:14:15.740</time></trkpt><trkpt lat="55.9438100" lon="49.2190000"><time>2023-06-03T08:14:17.740</time></trkpt><trkpt lat="55.9438467" lon="49.2189300"><time>2023-06-03T08:14:19.753</time></trkpt><trkpt lat="55.9438833" lon="49.2188817"><time>2023-06-03T08:14:21.740</time></trkpt><trkpt lat="55.9439033" lon="49.2187967"><time>2023-06-03T08:14:24.747</time></trkpt><trkpt lat="55.9439233" lon="49.2186933"><time>2023-06-03T08:14:27.740</time></trkpt><trkpt lat="55.9439233" lon="49.2185967"><time>2023-06-03T08:14:30.743</time></trkpt><trkpt lat="55.9439100" lon="49.2184800"><time>2023-06-03T08:14:33.740</time></trkpt><trkpt lat="55.9439183" lon="49.2183850"><time>2023-06-03T08:14:37.733</time></trkpt><trkpt lat="55.9439317" lon="49.2182183"><time>2023-06-03T08:14:45.727</time></trkpt><trkpt lat="55.9439550" lon="49.2181267"><time>2023-06-03T08:14:47.723</time></trkpt><trkpt lat="55.9439567" lon="49.2180467"><time>2023-06-03T08:14:49.740</time></trkpt><trkpt lat="55.9439517" lon="49.2179367"><time>2023-06-03T08:14:52.747</time></trkpt><trkpt lat="55.9439683" lon="49.2178483"><time>2023-06-03T08:14:54.727</time></trkpt><trkpt lat="55.9439867" lon="49.2177467"><time>2023-06-03T08:14:56.723</time></trkpt><trkpt lat="55.9440117" lon="49.2176583"><time>2023-06-03T08:14:58.740</time></trkpt><trkpt lat="55.9440217" lon="49.2175767"><time>2023-06-03T08:15:00.750</time></trkpt><trkpt lat="55.9440300" lon="49.2174950"><time>2023-06-03T08:15:02.733</time></trkpt><trkpt lat="55.9440300" lon="49.2174033"><time>2023-06-03T08:15:04.747</time></trkpt><trkpt lat="55.9440083" lon="49.2173100"><time>2023-06-03T08:15:06.743</time></trkpt><trkpt lat="55.9439867" lon="49.2172283"><time>2023-06-03T08:15:08.743</time></trkpt><trkpt lat="55.9439733" lon="49.2171167"><time>2023-06-03T08:15:10.747</time></trkpt><trkpt lat="55.9439583" lon="49.2170200"><time>2023-06-03T08:15:12.750</time></trkpt><trkpt lat="55.9439533" lon="49.2169217"><time>2023-06-03T08:15:14.740</time></trkpt><trkpt lat="55.9439467" lon="49.2168133"><time>2023-06-03T08:15:16.743</time></trkpt><trkpt lat="55.9439450" lon="49.2166883"><time>2023-06-03T08:15:18.753</time></trkpt><trkpt lat="55.9439483" lon="49.2165583"><time>2023-06-03T08:15:20.750</time></trkpt><trkpt lat="55.9439517" lon="49.2164383"><time>2023-06-03T08:15:22.737</time></trkpt><trkpt lat="55.9439500" lon="49.2163217"><time>2023-06-03T08:15:24.757</time></trkpt><trkpt lat="55.9439517" lon="49.2162000"><time>2023-06-03T08:15:26.743</time></trkpt><trkpt lat="55.9439650" lon="49.2160900"><time>2023-06-03T08:15:28.750</time></trkpt><trkpt lat="55.9439750" lon="49.2159733"><time>2023-06-03T08:15:30.750</time></trkpt><trkpt lat="55.9439833" lon="49.2158833"><time>2023-06-03T08:15:32.730</time></trkpt><trkpt lat="55.9439900" lon="49.2158033"><time>2023-06-03T08:15:34.743</time></trkpt><trkpt lat="55.9440150" lon="49.2157133"><time>2023-06-03T08:15:36.737</time></trkpt><trkpt lat="55.9440367" lon="49.2156167"><time>2023-06-03T08:15:38.747</time></trkpt><trkpt lat="55.9440633" lon="49.2155100"><time>2023-06-03T08:15:40.747</time></trkpt><trkpt lat="55.9440717" lon="49.2154300"><time>2023-06-03T08:15:43.760</time></trkpt><trkpt lat="55.9440817" lon="49.2153467"><time>2023-06-03T08:15:46.740</time></trkpt><trkpt lat="55.9440917" lon="49.2152517"><time>2023-06-03T08:15:49.757</time></trkpt><trkpt lat="55.9440983" lon="49.2151550"><time>2023-06-03T08:15:52.750</time></trkpt><trkpt lat="55.9440983" lon="49.2150700"><time>2023-06-03T08:15:55.750</time></trkpt><trkpt lat="55.9441067" lon="49.2149817"><time>2023-06-03T08:16:00.750</time></trkpt><trkpt lat="55.9441150" lon="49.2148983"><time>2023-06-03T08:16:04.720</time></trkpt><trkpt lat="55.9441350" lon="49.2148267"><time>2023-06-03T08:16:07.747</time></trkpt><trkpt lat="55.9441567" lon="49.2147317"><time>2023-06-03T08:16:11.750</time></trkpt><trkpt lat="55.9441833" lon="49.2146650"><time>2023-06-03T08:16:14.743</time></trkpt><trkpt lat="55.9441567" lon="49.2147350"><time>2023-06-03T08:16:24.727</time></trkpt><trkpt lat="55.9441450" lon="49.2148150"><time>2023-06-03T08:16:28.743</time></trkpt><trkpt lat="55.9441233" lon="49.2149017"><time>2023-06-03T08:16:33.747</time></trkpt><trkpt lat="55.9441017" lon="49.2151217"><time>2023-06-03T08:17:37.700</time></trkpt><trkpt lat="55.9441067" lon="49.2152033"><time>2023-06-03T08:17:39.720</time></trkpt><trkpt lat="55.9440983" lon="49.2153233"><time>2023-06-03T08:17:41.727</time></trkpt><trkpt lat="55.9440917" lon="49.2154450"><time>2023-06-03T08:17:43.730</time></trkpt><trkpt lat="55.9440733" lon="49.2155683"><time>2023-06-03T08:17:45.727</time></trkpt><trkpt lat="55.9440483" lon="49.2156833"><time>2023-06-03T08:17:47.723</time></trkpt><trkpt lat="55.9440317" lon="49.2157950"><time>2023-06-03T08:17:49.740</time></trkpt><trkpt lat="55.9440217" lon="49.2159067"><time>2023-06-03T08:17:51.747</time></trkpt><trkpt lat="55.9440250" lon="49.2160283"><time>2023-06-03T08:17:53.750</time></trkpt><trkpt lat="55.9440283" lon="49.2161483"><time>2023-06-03T08:17:55.743</time></trkpt><trkpt lat="55.9440267" lon="49.2162733"><time>2023-06-03T08:17:57.730</time></trkpt><trkpt lat="55.9440350" lon="49.2163917"><time>2023-06-03T08:17:59.727</time></trkpt><trkpt lat="55.9440467" lon="49.2165067"><time>2023-06-03T08:18:01.747</time></trkpt><trkpt lat="55.9440633" lon="49.2166050"><time>2023-06-03T08:18:03.727</time></trkpt><trkpt lat="55.9441017" lon="49.2166883"><time>2023-06-03T08:18:05.747</time></trkpt><trkpt lat="55.9441417" lon="49.2167817"><time>2023-06-03T08:18:07.750</time></trkpt><trkpt lat="55.9441733" lon="49.2168633"><time>2023-06-03T08:18:09.753</time></trkpt><trkpt lat="55.9442150" lon="49.2169583"><time>2023-06-03T08:18:12.740</time></trkpt><trkpt lat="55.9442317" lon="49.2170467"><time>2023-06-03T08:18:14.743</time></trkpt><trkpt lat="55.9442217" lon="49.2171400"><time>2023-06-03T08:18:16.747</time></trkpt><trkpt lat="55.9442083" lon="49.2172200"><time>2023-06-03T08:18:18.740</time></trkpt><trkpt lat="55.9441950" lon="49.2173267"><time>2023-06-03T08:18:21.737</time></trkpt><trkpt lat="55.9441900" lon="49.2174200"><time>2023-06-03T08:18:23.740</time></trkpt><trkpt lat="55.9441833" lon="49.2175250"><time>2023-06-03T08:18:25.747</time></trkpt><trkpt lat="55.9441750" lon="49.2176233"><time>2023-06-03T08:18:27.747</time></trkpt><trkpt lat="55.9441617" lon="49.2177367"><time>2023-06-03T08:18:29.747</time></trkpt><trkpt lat="55.9441367" lon="49.2178117"><time>2023-06-03T08:18:30.753</time></trkpt><trkpt lat="55.9441267" lon="49.2178950"><time>2023-06-03T08:18:32.753</time></trkpt><trkpt lat="55.9440817" lon="49.2180017"><time>2023-06-03T08:18:35.743</time></trkpt><trkpt lat="55.9440600" lon="49.2181017"><time>2023-06-03T08:18:37.750</time></trkpt><trkpt lat="55.9440650" lon="49.2181983"><time>2023-06-03T08:18:39.750</time></trkpt><trkpt lat="55.9440600" lon="49.2183033"><time>2023-06-03T08:18:41.737</time></trkpt><trkpt lat="55.9440467" lon="49.2184067"><time>2023-06-03T08:18:43.747</time></trkpt><trkpt lat="55.9440267" lon="49.2185067"><time>2023-06-03T08:18:45.743</time></trkpt><trkpt lat="55.9439950" lon="49.2186133"><time>2023-06-03T08:18:47.740</time></trkpt><trkpt lat="55.9439583" lon="49.2187167"><time>2023-06-03T08:18:49.737</time></trkpt><trkpt lat="55.9439083" lon="49.2188083"><time>2023-06-03T08:18:51.743</time></trkpt><trkpt lat="55.9438583" lon="49.2189150"><time>2023-06-03T08:18:53.743</time></trkpt><trkpt lat="55.9438150" lon="49.2190167"><time>2023-06-03T08:18:55.737</time></trkpt><trkpt lat="55.9437717" lon="49.2191167"><time>2023-06-03T08:18:57.747</time></trkpt><trkpt lat="55.9437233" lon="49.2192083"><time>2023-06-03T08:18:59.743</time></trkpt><trkpt lat="55.9436717" lon="49.2192933"><time>2023-06-03T08:19:01.747</time></trkpt><trkpt lat="55.9436267" lon="49.2193783"><time>2023-06-03T08:19:03.720</time></trkpt><trkpt lat="55.9435850" lon="49.2194583"><time>2023-06-03T08:19:05.743</time></trkpt><trkpt lat="55.9435450" lon="49.2195417"><time>2023-06-03T08:19:07.763</time></trkpt><trkpt lat="55.9435017" lon="49.2196167"><time>2023-06-03T08:19:09.743</time></trkpt><trkpt lat="55.9434667" lon="49.2196800"><time>2023-06-03T08:19:11.753</time></trkpt><trkpt lat="55.9434400" lon="49.2197700"><time>2023-06-03T08:19:13.753</time></trkpt><trkpt lat="55.9434233" lon="49.2198483"><time>2023-06-03T08:19:15.750</time></trkpt><trkpt lat="55.9433967" lon="49.2199267"><time>2023-06-03T08:19:17.747</time></trkpt><trkpt lat="55.9433533" lon="49.2200017"><time>2023-06-03T08:19:19.753</time></trkpt><trkpt lat="55.9433033" lon="49.2200667"><time>2023-06-03T08:19:21.743</time></trkpt><trkpt lat="55.9432467" lon="49.2201083"><time>2023-06-03T08:19:23.720</time></trkpt><trkpt lat="55.9432000" lon="49.2201800"><time>2023-06-03T08:19:25.723</time></trkpt><trkpt lat="55.9431583" lon="49.2202700"><time>2023-06-03T08:19:27.743</time></trkpt><trkpt lat="55.9431117" lon="49.2203483"><time>2023-06-03T08:19:29.743</time></trkpt><trkpt lat="55.9430833" lon="49.2204167"><time>2023-06-03T08:19:31.767</time></trkpt><trkpt lat="55.9430467" lon="49.2204833"><time>2023-06-03T08:19:33.740</time></trkpt><trkpt lat="55.9429933" lon="49.2205333"><time>2023-06-03T08:19:35.750</time></trkpt><trkpt lat="55.9429317" lon="49.2205950"><time>2023-06-03T08:19:37.747</time></trkpt><trkpt lat="55.9428917" lon="49.2206783"><time>2023-06-03T08:19:39.743</time></trkpt><trkpt lat="55.9428717" lon="49.2207617"><time>2023-06-03T08:19:41.743</time></trkpt><trkpt lat="55.9428650" lon="49.2208617"><time>2023-06-03T08:19:43.737</time></trkpt><trkpt lat="55.9428550" lon="49.2209400"><time>2023-06-03T08:19:45.740</time></trkpt><trkpt lat="55.9428133" lon="49.2210167"><time>2023-06-03T08:19:47.740</time></trkpt><trkpt lat="55.9427800" lon="49.2210917"><time>2023-06-03T08:19:49.743</time></trkpt><trkpt lat="55.9427450" lon="49.2211633"><time>2023-06-03T08:19:51.747</time></trkpt><trkpt lat="55.9427100" lon="49.2212317"><time>2023-06-03T08:19:53.747</time></trkpt><trkpt lat="55.9426717" lon="49.2213000"><time>2023-06-03T08:19:55.747</time></trkpt><trkpt lat="55.9426133" lon="49.2213617"><time>2023-06-03T08:19:57.740</time></trkpt><trkpt lat="55.9425500" lon="49.2214283"><time>2023-06-03T08:19:59.747</time></trkpt><trkpt lat="55.9425017" lon="49.2214950"><time>2023-06-03T08:20:01.747</time></trkpt><trkpt lat="55.9424550" lon="49.2215700"><time>2023-06-03T08:20:03.737</time></trkpt><trkpt lat="55.9424133" lon="49.2216400"><time>2023-06-03T08:20:05.740</time></trkpt><trkpt lat="55.9423733" lon="49.2217050"><time>2023-06-03T08:20:07.740</time></trkpt><trkpt lat="55.9423333" lon="49.2217750"><time>2023-06-03T08:20:09.743</time></trkpt><trkpt lat="55.9422917" lon="49.2218567"><time>2023-06-03T08:20:11.743</time></trkpt><trkpt lat="55.9422533" lon="49.2219333"><time>2023-06-03T08:20:13.740</time></trkpt><trkpt lat="55.9422167" lon="49.2219967"><time>2023-06-03T08:20:15.747</time></trkpt><trkpt lat="55.9421717" lon="49.2220667"><time>2023-06-03T08:20:17.740</time></trkpt><trkpt lat="55.9421383" lon="49.2221283"><time>2023-06-03T08:20:19.743</time></trkpt><trkpt lat="55.9420983" lon="49.2222083"><time>2023-06-03T08:20:22.740</time></trkpt><trkpt lat="55.9420600" lon="49.2222933"><time>2023-06-03T08:20:24.737</time></trkpt><trkpt lat="55.9420250" lon="49.2223667"><time>2023-06-03T08:20:26.747</time></trkpt><trkpt lat="55.9419817" lon="49.2224717"><time>2023-06-03T08:20:28.723</time></trkpt><trkpt lat="55.9419383" lon="49.2225617"><time>2023-06-03T08:20:30.727</time></trkpt><trkpt lat="55.9418950" lon="49.2226383"><time>2023-06-03T08:20:32.727</time></trkpt><trkpt lat="55.9418450" lon="49.2227100"><time>2023-06-03T08:20:34.743</time></trkpt><trkpt lat="55.9417900" lon="49.2227833"><time>2023-06-03T08:20:36.750</time></trkpt><trkpt lat="55.9417350" lon="49.2228600"><time>2023-06-03T08:20:38.743</time></trkpt><trkpt lat="55.9416983" lon="49.2229383"><time>2023-06-03T08:20:40.737</time></trkpt><trkpt lat="55.9416467" lon="49.2230150"><time>2023-06-03T08:20:42.747</time></trkpt><trkpt lat="55.9416033" lon="49.2230967"><time>2023-06-03T08:20:44.750</time></trkpt><trkpt lat="55.9415733" lon="49.2231700"><time>2023-06-03T08:20:46.740</time></trkpt><trkpt lat="55.9415150" lon="49.2232367"><time>2023-06-03T08:20:48.740</time></trkpt><trkpt lat="55.9414500" lon="49.2233117"><time>2023-06-03T08:20:50.743</time></trkpt><trkpt lat="55.9413883" lon="49.2233917"><time>2023-06-03T08:20:52.750</time></trkpt><trkpt lat="55.9413350" lon="49.2234833"><time>2023-06-03T08:20:54.750</time></trkpt><trkpt lat="55.9412967" lon="49.2235917"><time>2023-06-03T08:20:56.753</time></trkpt><trkpt lat="55.9412733" lon="49.2236983"><time>2023-06-03T08:20:58.743</time></trkpt><trkpt lat="55.9412767" lon="49.2238033"><time>2023-06-03T08:21:00.740</time></trkpt><trkpt lat="55.9412967" lon="49.2238767"><time>2023-06-03T08:21:02.743</time></trkpt><trkpt lat="55.9412867" lon="49.2239550"><time>2023-06-03T08:21:04.737</time></trkpt><trkpt lat="55.9412983" lon="49.2240367"><time>2023-06-03T08:21:06.743</time></trkpt><trkpt lat="55.9412883" lon="49.2241417"><time>2023-06-03T08:21:08.743</time></trkpt><trkpt lat="55.9412417" lon="49.2242667"><time>2023-06-03T08:21:10.747</time></trkpt><trkpt lat="55.9412167" lon="49.2243383"><time>2023-06-03T08:21:11.743</time></trkpt><trkpt lat="55.9411800" lon="49.2244683"><time>2023-06-03T08:21:13.740</time></trkpt><trkpt lat="55.9411517" lon="49.2245883"><time>2023-06-03T08:21:15.740</time></trkpt><trkpt lat="55.9411233" lon="49.2247017"><time>2023-06-03T08:21:17.750</time></trkpt><trkpt lat="55.9410983" lon="49.2247733"><time>2023-06-03T08:21:19.740</time></trkpt><trkpt lat="55.9410867" lon="49.2246833"><time>2023-06-03T08:21:29.763</time></trkpt><trkpt lat="55.9410683" lon="49.2245883"><time>2023-06-03T08:21:32.740</time></trkpt><trkpt lat="55.9410417" lon="49.2245233"><time>2023-06-03T08:21:35.737</time></trkpt><trkpt lat="55.9410183" lon="49.2244517"><time>2023-06-03T08:21:38.740</time></trkpt><trkpt lat="55.9409667" lon="49.2244283"><time>2023-06-03T08:21:42.747</time></trkpt><trkpt lat="55.9409167" lon="49.2244050"><time>2023-06-03T08:21:45.720</time></trkpt><trkpt lat="55.9408717" lon="49.2243600"><time>2023-06-03T08:21:48.700</time></trkpt><trkpt lat="55.9408200" lon="49.2243200"><time>2023-06-03T08:21:51.723</time></trkpt><trkpt lat="55.9407750" lon="49.2242733"><time>2023-06-03T08:21:54.750</time></trkpt><trkpt lat="55.9407250" lon="49.2242300"><time>2023-06-03T08:21:57.747</time></trkpt><trkpt lat="55.9406783" lon="49.2242100"><time>2023-06-03T08:22:00.743</time></trkpt><trkpt lat="55.9406417" lon="49.2241600"><time>2023-06-03T08:22:03.740</time></trkpt><trkpt lat="55.9405867" lon="49.2241117"><time>2023-06-03T08:22:07.743</time></trkpt><trkpt lat="55.9405350" lon="49.2240733"><time>2023-06-03T08:22:11.743</time></trkpt><trkpt lat="55.9404933" lon="49.2240333"><time>2023-06-03T08:22:14.743</time></trkpt><trkpt lat="55.9404467" lon="49.2239917"><time>2023-06-03T08:22:17.753</time></trkpt><trkpt lat="55.9404017" lon="49.2239550"><time>2023-06-03T08:22:20.747</time></trkpt><trkpt lat="55.9403500" lon="49.2239017"><time>2023-06-03T08:22:24.747</time></trkpt><trkpt lat="55.9402967" lon="49.2238767"><time>2023-06-03T08:22:27.747</time></trkpt><trkpt lat="55.9402483" lon="49.2238333"><time>2023-06-03T08:22:30.737</time></trkpt><trkpt lat="55.9401967" lon="49.2237867"><time>2023-06-03T08:22:33.740</time></trkpt><trkpt lat="55.9401550" lon="49.2237217"><time>2023-06-03T08:22:36.737</time></trkpt><trkpt lat="55.9401100" lon="49.2236383"><time>2023-06-03T08:22:39.750</time></trkpt><trkpt lat="55.9400567" lon="49.2235767"><time>2023-06-03T08:22:41.747</time></trkpt><trkpt lat="55.9400083" lon="49.2235200"><time>2023-06-03T08:22:43.743</time></trkpt><trkpt lat="55.9399633" lon="49.2234567"><time>2023-06-03T08:22:45.737</time></trkpt><trkpt lat="55.9399167" lon="49.2233783"><time>2023-06-03T08:22:47.743</time></trkpt><trkpt lat="55.9398750" lon="49.2233083"><time>2023-06-03T08:22:49.740</time></trkpt><trkpt lat="55.9398367" lon="49.2232583"><time>2023-06-03T08:22:52.743</time></trkpt><trkpt lat="55.9398050" lon="49.2231783"><time>2023-06-03T08:22:57.740</time></trkpt><trkpt lat="55.9397617" lon="49.2231133"><time>2023-06-03T08:23:01.747</time></trkpt><trkpt lat="55.9397200" lon="49.2230667"><time>2023-06-03T08:23:04.747</time></trkpt><trkpt lat="55.9396717" lon="49.2230167"><time>2023-06-03T08:23:10.740</time></trkpt><trkpt lat="55.9396100" lon="49.2230133"><time>2023-06-03T08:23:13.737</time></trkpt><trkpt lat="55.9395500" lon="49.2230083"><time>2023-06-03T08:23:17.740</time></trkpt><trkpt lat="55.9395050" lon="49.2230317"><time>2023-06-03T08:23:21.740</time></trkpt><trkpt lat="55.9394617" lon="49.2230617"><time>2023-06-03T08:23:24.743</time></trkpt><trkpt lat="55.9394100" lon="49.2230900"><time>2023-06-03T08:23:27.753</time></trkpt><trkpt lat="55.9393533" lon="49.2231083"><time>2023-06-03T08:23:31.743</time></trkpt><trkpt lat="55.9393083" lon="49.2231217"><time>2023-06-03T08:23:34.740</time></trkpt><trkpt lat="55.9392533" lon="49.2231433"><time>2023-06-03T08:23:38.740</time></trkpt><trkpt lat="55.9391617" lon="49.2231933"><time>2023-06-03T08:23:47.737</time></trkpt><trkpt lat="55.9390700" lon="49.2232750"><time>2023-06-03T08:24:00.740</time></trkpt><trkpt lat="55.9389533" lon="49.2233300"><time>2023-06-03T08:24:09.740</time></trkpt><trkpt lat="55.9388917" lon="49.2233500"><time>2023-06-03T08:24:12.737</time></trkpt><trkpt lat="55.9388467" lon="49.2233633"><time>2023-06-03T08:24:14.743</time></trkpt><trkpt lat="55.9387933" lon="49.2233733"><time>2023-06-03T08:24:17.740</time></trkpt><trkpt lat="55.9387467" lon="49.2233783"><time>2023-06-03T08:24:21.747</time></trkpt><trkpt lat="55.9386867" lon="49.2233800"><time>2023-06-03T08:24:25.743</time></trkpt><trkpt lat="55.9385800" lon="49.2233000"><time>2023-06-03T08:24:44.743</time></trkpt><trkpt lat="55.9384900" lon="49.2232183"><time>2023-06-03T08:25:25.747</time></trkpt><trkpt lat="55.9383967" lon="49.2231800"><time>2023-06-03T08:25:42.740</time></trkpt><trkpt lat="55.9382983" lon="49.2231267"><time>2023-06-03T08:25:53.743</time></trkpt><trkpt lat="55.9382467" lon="49.2230367"><time>2023-06-03T08:26:43.740</time></trkpt><trkpt lat="55.9382267" lon="49.2229467"><time>2023-06-03T08:26:46.747</time></trkpt><trkpt lat="55.9382117" lon="49.2228633"><time>2023-06-03T08:26:50.727</time></trkpt><trkpt lat="55.9382050" lon="49.2227750"><time>2023-06-03T08:26:54.743</time></trkpt><trkpt lat="55.9381850" lon="49.2226983"><time>2023-06-03T08:26:57.700</time></trkpt><trkpt lat="55.9381417" lon="49.2226633"><time>2023-06-03T08:27:01.760</time></trkpt><trkpt lat="55.9380933" lon="49.2226250"><time>2023-06-03T08:27:04.747</time></trkpt><trkpt lat="55.9380550" lon="49.2225650"><time>2023-06-03T08:27:06.747</time></trkpt><trkpt lat="55.9380083" lon="49.2224867"><time>2023-06-03T08:27:08.740</time></trkpt><trkpt lat="55.9379750" lon="49.2224267"><time>2023-06-03T08:27:10.743</time></trkpt><trkpt lat="55.9379367" lon="49.2223417"><time>2023-06-03T08:27:12.750</time></trkpt><trkpt lat="55.9379083" lon="49.2222417"><time>2023-06-03T08:27:15.737</time></trkpt><trkpt lat="55.9378883" lon="49.2221467"><time>2023-06-03T08:27:18.760</time></trkpt><trkpt lat="55.9378633" lon="49.2220633"><time>2023-06-03T08:27:20.750</time></trkpt><trkpt lat="55.9378267" lon="49.2219583"><time>2023-06-03T08:27:22.737</time></trkpt><trkpt lat="55.9377783" lon="49.2218433"><time>2023-06-03T08:27:24.747</time></trkpt><trkpt lat="55.9377367" lon="49.2217483"><time>2023-06-03T08:27:26.740</time></trkpt><trkpt lat="55.9376983" lon="49.2216283"><time>2023-06-03T08:27:28.743</time></trkpt><trkpt lat="55.9376783" lon="49.2215483"><time>2023-06-03T08:27:29.733</time></trkpt><trkpt lat="55.9376583" lon="49.2214667"><time>2023-06-03T08:27:30.737</time></trkpt><trkpt lat="55.9376217" lon="49.2213283"><time>2023-06-03T08:27:32.737</time></trkpt><trkpt lat="55.9375950" lon="49.2212333"><time>2023-06-03T08:27:34.740</time></trkpt><trkpt lat="55.9375617" lon="49.2211650"><time>2023-06-03T08:27:36.747</time></trkpt><trkpt lat="55.9375383" lon="49.2210683"><time>2023-06-03T08:27:38.737</time></trkpt><trkpt lat="55.9375233" lon="49.2209517"><time>2023-06-03T08:27:41.740</time></trkpt><trkpt lat="55.9375050" lon="49.2208733"><time>2023-06-03T08:27:43.717</time></trkpt><trkpt lat="55.9374867" lon="49.2207850"><time>2023-06-03T08:27:46.693</time></trkpt><trkpt lat="55.9374667" lon="49.2206833"><time>2023-06-03T08:27:50.707</time></trkpt><trkpt lat="55.9374483" lon="49.2205983"><time>2023-06-03T08:27:53.690</time></trkpt><trkpt lat="55.9374517" lon="49.2205183"><time>2023-06-03T08:27:56.713</time></trkpt><trkpt lat="55.9374667" lon="49.2204283"><time>2023-06-03T08:28:00.720</time></trkpt><trkpt lat="55.9374600" lon="49.2203400"><time>2023-06-03T08:28:03.717</time></trkpt><trkpt lat="55.9374667" lon="49.2202550"><time>2023-06-03T08:28:11.760</time></trkpt><trkpt lat="55.9374300" lon="49.2201983"><time>2023-06-03T08:28:13.747</time></trkpt><trkpt lat="55.9373883" lon="49.2201383"><time>2023-06-03T08:28:16.737</time></trkpt><trkpt lat="55.9373500" lon="49.2200800"><time>2023-06-03T08:28:18.743</time></trkpt><trkpt lat="55.9373150" lon="49.2200150"><time>2023-06-03T08:28:20.747</time></trkpt><trkpt lat="55.9372850" lon="49.2199400"><time>2023-06-03T08:28:22.750</time></trkpt><trkpt lat="55.9372500" lon="49.2198550"><time>2023-06-03T08:28:24.747</time></trkpt><trkpt lat="55.9372217" lon="49.2197700"><time>2023-06-03T08:28:26.743</time></trkpt><trkpt lat="55.9371933" lon="49.2196950"><time>2023-06-03T08:28:28.743</time></trkpt><trkpt lat="55.9371733" lon="49.2196150"><time>2023-06-03T08:28:30.750</time></trkpt><trkpt lat="55.9371633" lon="49.2195233"><time>2023-06-03T08:28:32.747</time></trkpt><trkpt lat="55.9371367" lon="49.2194067"><time>2023-06-03T08:28:34.740</time></trkpt><trkpt lat="55.9371083" lon="49.2193117"><time>2023-06-03T08:28:36.707</time></trkpt><trkpt lat="55.9370767" lon="49.2191900"><time>2023-06-03T08:28:38.703</time></trkpt><trkpt lat="55.9370433" lon="49.2190800"><time>2023-06-03T08:28:40.723</time></trkpt><trkpt lat="55.9370250" lon="49.2190017"><time>2023-06-03T08:28:42.710</time></trkpt><trkpt lat="55.9369933" lon="49.2189367"><time>2023-06-03T08:28:44.743</time></trkpt><trkpt lat="55.9369633" lon="49.2188450"><time>2023-06-03T08:28:46.737</time></trkpt><trkpt lat="55.9369433" lon="49.2187500"><time>2023-06-03T08:28:48.740</time></trkpt><trkpt lat="55.9369217" lon="49.2186583"><time>2023-06-03T08:28:50.743</time></trkpt><trkpt lat="55.9368850" lon="49.2185483"><time>2023-06-03T08:28:52.740</time></trkpt><trkpt lat="55.9368517" lon="49.2184417"><time>2023-06-03T08:28:54.747</time></trkpt><trkpt lat="55.9368183" lon="49.2183150"><time>2023-06-03T08:28:56.737</time></trkpt><trkpt lat="55.9367917" lon="49.2181600"><time>2023-06-03T08:28:58.743</time></trkpt><trkpt lat="55.9367783" lon="49.2180833"><time>2023-06-03T08:28:59.747</time></trkpt><trkpt lat="55.9367433" lon="49.2179517"><time>2023-06-03T08:29:01.727</time></trkpt><trkpt lat="55.9367117" lon="49.2178283"><time>2023-06-03T08:29:03.747</time></trkpt><trkpt lat="55.9366800" lon="49.2176950"><time>2023-06-03T08:29:05.747</time></trkpt><trkpt lat="55.9366600" lon="49.2175800"><time>2023-06-03T08:29:07.747</time></trkpt><trkpt lat="55.9366300" lon="49.2174833"><time>2023-06-03T08:29:09.767</time></trkpt><trkpt lat="55.9366083" lon="49.2173683"><time>2023-06-03T08:29:11.753</time></trkpt><trkpt lat="55.9365833" lon="49.2172383"><time>2023-06-03T08:29:13.743</time></trkpt><trkpt lat="55.9365733" lon="49.2171183"><time>2023-06-03T08:29:15.747</time></trkpt><trkpt lat="55.9365717" lon="49.2169967"><time>2023-06-03T08:29:17.740</time></trkpt><trkpt lat="55.9365750" lon="49.2169033"><time>2023-06-03T08:29:19.743</time></trkpt><trkpt lat="55.9365450" lon="49.2168167"><time>2023-06-03T08:29:21.747</time></trkpt><trkpt lat="55.9365067" lon="49.2167300"><time>2023-06-03T08:29:23.750</time></trkpt><trkpt lat="55.9364617" lon="49.2166383"><time>2023-06-03T08:29:25.740</time></trkpt><trkpt lat="55.9364383" lon="49.2165533"><time>2023-06-03T08:29:27.753</time></trkpt><trkpt lat="55.9364067" lon="49.2164317"><time>2023-06-03T08:29:29.750</time></trkpt><trkpt lat="55.9363867" lon="49.2163050"><time>2023-06-03T08:29:31.737</time></trkpt><trkpt lat="55.9363667" lon="49.2161917"><time>2023-06-03T08:29:33.750</time></trkpt><trkpt lat="55.9363467" lon="49.2161067"><time>2023-06-03T08:29:35.743</time></trkpt><trkpt lat="55.9363250" lon="49.2160150"><time>2023-06-03T08:29:37.747</time></trkpt><trkpt lat="55.9363017" lon="49.2159100"><time>2023-06-03T08:29:39.743</time></trkpt><trkpt lat="55.9362650" lon="49.2158200"><time>2023-06-03T08:29:41.743</time></trkpt><trkpt lat="55.9362300" lon="49.2157433"><time>2023-06-03T08:29:43.743</time></trkpt><trkpt lat="55.9361850" lon="49.2156733"><time>2023-06-03T08:29:45.737</time></trkpt><trkpt lat="55.9361417" lon="49.2155933"><time>2023-06-03T08:29:47.750</time></trkpt><trkpt lat="55.9361083" lon="49.2154767"><time>2023-06-03T08:29:49.743</time></trkpt><trkpt lat="55.9361083" lon="49.2152983"><time>2023-06-03T08:29:51.737</time></trkpt><trkpt lat="55.9361083" lon="49.2152083"><time>2023-06-03T08:29:52.737</time></trkpt><trkpt lat="55.9361083" lon="49.2151217"><time>2023-06-03T08:29:53.743</time></trkpt><trkpt lat="55.9361083" lon="49.2150383"><time>2023-06-03T08:29:54.737</time></trkpt><trkpt lat="55.9361033" lon="49.2148800"><time>2023-06-03T08:29:56.753</time></trkpt><trkpt lat="55.9360933" lon="49.2147967"><time>2023-06-03T08:29:57.743</time></trkpt><trkpt lat="55.9360717" lon="49.2146483"><time>2023-06-03T08:29:59.747</time></trkpt><trkpt lat="55.9360533" lon="49.2145183"><time>2023-06-03T08:30:01.743</time></trkpt><trkpt lat="55.9360233" lon="49.2144133"><time>2023-06-03T08:30:03.733</time></trkpt><trkpt lat="55.9359917" lon="49.2143467"><time>2023-06-03T08:30:05.767</time></trkpt><trkpt lat="55.9359483" lon="49.2142900"><time>2023-06-03T08:30:07.737</time></trkpt><trkpt lat="55.9358850" lon="49.2142783"><time>2023-06-03T08:30:10.737</time></trkpt><trkpt lat="55.9358250" lon="49.2142617"><time>2023-06-03T08:30:13.750</time></trkpt><trkpt lat="55.9357800" lon="49.2141883"><time>2023-06-03T08:30:15.747</time></trkpt><trkpt lat="55.9357400" lon="49.2140967"><time>2023-06-03T08:30:17.747</time></trkpt><trkpt lat="55.9356967" lon="49.2139933"><time>2023-06-03T08:30:19.733</time></trkpt><trkpt lat="55.9356650" lon="49.2138917"><time>2023-06-03T08:30:21.750</time></trkpt><trkpt lat="55.9356100" lon="49.2138133"><time>2023-06-03T08:30:23.747</time></trkpt><trkpt lat="55.9355717" lon="49.2137233"><time>2023-06-03T08:30:25.740</time></trkpt><trkpt lat="55.9355217" lon="49.2136633"><time>2023-06-03T08:30:27.740</time></trkpt><trkpt lat="55.9354800" lon="49.2136033"><time>2023-06-03T08:30:29.740</time></trkpt><trkpt lat="55.9354300" lon="49.2135183"><time>2023-06-03T08:30:31.747</time></trkpt><trkpt lat="55.9354017" lon="49.2134250"><time>2023-06-03T08:30:33.747</time></trkpt><trkpt lat="55.9353700" lon="49.2133550"><time>2023-06-03T08:30:35.743</time></trkpt><trkpt lat="55.9353367" lon="49.2133000"><time>2023-06-03T08:30:39.737</time></trkpt><trkpt lat="55.9353333" lon="49.2131367"><time>2023-06-03T08:31:05.740</time></trkpt><trkpt lat="55.9352733" lon="49.2131567"><time>2023-06-03T08:31:47.743</time></trkpt><trkpt lat="55.9352200" lon="49.2132183"><time>2023-06-03T08:31:50.743</time></trkpt><trkpt lat="55.9351667" lon="49.2132633"><time>2023-06-03T08:31:52.743</time></trkpt><trkpt lat="55.9351233" lon="49.2132933"><time>2023-06-03T08:31:54.730</time></trkpt><trkpt lat="55.9350683" lon="49.2133600"><time>2023-06-03T08:31:57.747</time></trkpt><trkpt lat="55.9350150" lon="49.2134183"><time>2023-06-03T08:31:59.740</time></trkpt><trkpt lat="55.9349667" lon="49.2134700"><time>2023-06-03T08:32:01.740</time></trkpt><trkpt lat="55.9349133" lon="49.2135150"><time>2023-06-03T08:32:03.747</time></trkpt><trkpt lat="55.9348650" lon="49.2135733"><time>2023-06-03T08:32:05.747</time></trkpt><trkpt lat="55.9348150" lon="49.2136267"><time>2023-06-03T08:32:07.750</time></trkpt><trkpt lat="55.9347600" lon="49.2136900"><time>2023-06-03T08:32:09.740</time></trkpt><trkpt lat="55.9347050" lon="49.2137450"><time>2023-06-03T08:32:11.747</time></trkpt><trkpt lat="55.9346517" lon="49.2137967"><time>2023-06-03T08:32:13.747</time></trkpt><trkpt lat="55.9345967" lon="49.2138333"><time>2023-06-03T08:32:15.767</time></trkpt><trkpt lat="55.9345383" lon="49.2138767"><time>2023-06-03T08:32:17.747</time></trkpt><trkpt lat="55.9344733" lon="49.2139333"><time>2023-06-03T08:32:19.740</time></trkpt><trkpt lat="55.9344083" lon="49.2140050"><time>2023-06-03T08:32:21.740</time></trkpt><trkpt lat="55.9343450" lon="49.2140700"><time>2023-06-03T08:32:23.747</time></trkpt><trkpt lat="55.9342750" lon="49.2141233"><time>2023-06-03T08:32:25.743</time></trkpt><trkpt lat="55.9342217" lon="49.2142033"><time>2023-06-03T08:32:27.740</time></trkpt><trkpt lat="55.9341800" lon="49.2143000"><time>2023-06-03T08:32:29.740</time></trkpt><trkpt lat="55.9341267" lon="49.2144250"><time>2023-06-03T08:32:31.747</time></trkpt><trkpt lat="55.9340733" lon="49.2145500"><time>2023-06-03T08:32:33.750</time></trkpt><trkpt lat="55.9340183" lon="49.2146650"><time>2023-06-03T08:32:35.740</time></trkpt><trkpt lat="55.9339583" lon="49.2147817"><time>2023-06-03T08:32:37.743</time></trkpt><trkpt lat="55.9339100" lon="49.2148950"><time>2023-06-03T08:32:39.740</time></trkpt><trkpt lat="55.9338467" lon="49.2149983"><time>2023-06-03T08:32:41.737</time></trkpt><trkpt lat="55.9338000" lon="49.2150850"><time>2023-06-03T08:32:43.740</time></trkpt><trkpt lat="55.9337400" lon="49.2151833"><time>2023-06-03T08:32:45.740</time></trkpt><trkpt lat="55.9336900" lon="49.2152983"><time>2023-06-03T08:32:47.747</time></trkpt><trkpt lat="55.9336633" lon="49.2153667"><time>2023-06-03T08:32:48.740</time></trkpt><trkpt lat="55.9336217" lon="49.2154883"><time>2023-06-03T08:32:50.743</time></trkpt><trkpt lat="55.9335767" lon="49.2155867"><time>2023-06-03T08:32:52.740</time></trkpt><trkpt lat="55.9335283" lon="49.2156900"><time>2023-06-03T08:32:54.740</time></trkpt><trkpt lat="55.9334867" lon="49.2157967"><time>2023-06-03T08:32:56.747</time></trkpt><trkpt lat="55.9334317" lon="49.2159083"><time>2023-06-03T08:32:58.747</time></trkpt><trkpt lat="55.9333867" lon="49.2160017"><time>2023-06-03T08:33:00.743</time></trkpt><trkpt lat="55.9333383" lon="49.2160767"><time>2023-06-03T08:33:02.740</time></trkpt><trkpt lat="55.9332900" lon="49.2161367"><time>2023-06-03T08:33:04.750</time></trkpt><trkpt lat="55.9332250" lon="49.2161933"><time>2023-06-03T08:33:06.740</time></trkpt><trkpt lat="55.9331617" lon="49.2162250"><time>2023-06-03T08:33:08.747</time></trkpt><trkpt lat="55.9331067" lon="49.2162533"><time>2023-06-03T08:33:10.743</time></trkpt><trkpt lat="55.9330550" lon="49.2162867"><time>2023-06-03T08:33:12.743</time></trkpt><trkpt lat="55.9330033" lon="49.2163383"><time>2023-06-03T08:33:14.743</time></trkpt><trkpt lat="55.9329450" lon="49.2164017"><time>2023-06-03T08:33:17.727</time></trkpt><trkpt lat="55.9328583" lon="49.2164600"><time>2023-06-03T08:33:19.727</time></trkpt><trkpt lat="55.9328133" lon="49.2164900"><time>2023-06-03T08:33:20.723</time></trkpt><trkpt lat="55.9327517" lon="49.2165200"><time>2023-06-03T08:33:22.743</time></trkpt><trkpt lat="55.9326850" lon="49.2165483"><time>2023-06-03T08:33:24.747</time></trkpt><trkpt lat="55.9326050" lon="49.2166050"><time>2023-06-03T08:33:26.747</time></trkpt><trkpt lat="55.9325467" lon="49.2166517"><time>2023-06-03T08:33:28.743</time></trkpt><trkpt lat="55.9324917" lon="49.2166950"><time>2023-06-03T08:33:30.743</time></trkpt><trkpt lat="55.9324250" lon="49.2167417"><time>2023-06-03T08:33:32.743</time></trkpt><trkpt lat="55.9323600" lon="49.2167800"><time>2023-06-03T08:33:34.740</time></trkpt><trkpt lat="55.9322883" lon="49.2168267"><time>2023-06-03T08:33:36.750</time></trkpt><trkpt lat="55.9322217" lon="49.2168567"><time>2023-06-03T08:33:38.747</time></trkpt><trkpt lat="55.9321683" lon="49.2169050"><time>2023-06-03T08:33:40.743</time></trkpt><trkpt lat="55.9321250" lon="49.2169333"><time>2023-06-03T08:33:41.743</time></trkpt><trkpt lat="55.9320483" lon="49.2169583"><time>2023-06-03T08:33:43.750</time></trkpt><trkpt lat="55.9319800" lon="49.2169817"><time>2023-06-03T08:33:45.747</time></trkpt><trkpt lat="55.9319267" lon="49.2170050"><time>2023-06-03T08:33:47.750</time></trkpt><trkpt lat="55.9318483" lon="49.2170400"><time>2023-06-03T08:33:49.743</time></trkpt><trkpt lat="55.9317967" lon="49.2170683"><time>2023-06-03T08:33:51.743</time></trkpt><trkpt lat="55.9317467" lon="49.2171050"><time>2023-06-03T08:33:53.747</time></trkpt><trkpt lat="55.9317017" lon="49.2171500"><time>2023-06-03T08:33:55.747</time></trkpt><trkpt lat="55.9316583" lon="49.2172033"><time>2023-06-03T08:33:57.740</time></trkpt><trkpt lat="55.9316050" lon="49.2172517"><time>2023-06-03T08:33:59.740</time></trkpt><trkpt lat="55.9315483" lon="49.2172983"><time>2023-06-03T08:34:01.743</time></trkpt><trkpt lat="55.9314833" lon="49.2173517"><time>2023-06-03T08:34:03.743</time></trkpt><trkpt lat="55.9314133" lon="49.2174167"><time>2023-06-03T08:34:05.737</time></trkpt><trkpt lat="55.9313633" lon="49.2174867"><time>2023-06-03T08:34:07.737</time></trkpt><trkpt lat="55.9313017" lon="49.2175500"><time>2023-06-03T08:34:09.747</time></trkpt><trkpt lat="55.9312400" lon="49.2176200"><time>2023-06-03T08:34:11.743</time></trkpt><trkpt lat="55.9311767" lon="49.2176683"><time>2023-06-03T08:34:13.753</time></trkpt><trkpt lat="55.9311067" lon="49.2177300"><time>2023-06-03T08:34:15.743</time></trkpt><trkpt lat="55.9310500" lon="49.2177783"><time>2023-06-03T08:34:17.743</time></trkpt><trkpt lat="55.9309817" lon="49.2178317"><time>2023-06-03T08:34:19.747</time></trkpt><trkpt lat="55.9309150" lon="49.2178817"><time>2023-06-03T08:34:21.743</time></trkpt><trkpt lat="55.9308550" lon="49.2179367"><time>2023-06-03T08:34:23.753</time></trkpt><trkpt lat="55.9307867" lon="49.2180017"><time>2023-06-03T08:34:25.743</time></trkpt><trkpt lat="55.9307233" lon="49.2180550"><time>2023-06-03T08:34:27.747</time></trkpt><trkpt lat="55.9306617" lon="49.2181167"><time>2023-06-03T08:34:29.750</time></trkpt><trkpt lat="55.9305867" lon="49.2182033"><time>2023-06-03T08:34:31.753</time></trkpt><trkpt lat="55.9305133" lon="49.2182817"><time>2023-06-03T08:34:33.747</time></trkpt><trkpt lat="55.9304733" lon="49.2183317"><time>2023-06-03T08:34:34.740</time></trkpt><trkpt lat="55.9304033" lon="49.2184217"><time>2023-06-03T08:34:36.740</time></trkpt><trkpt lat="55.9303350" lon="49.2184983"><time>2023-06-03T08:34:38.743</time></trkpt><trkpt lat="55.9302900" lon="49.2185417"><time>2023-06-03T08:34:41.743</time></trkpt><trkpt lat="55.9301933" lon="49.2186017"><time>2023-06-03T08:35:25.737</time></trkpt><trkpt lat="55.9300983" lon="49.2187250"><time>2023-06-03T08:35:54.747</time></trkpt><trkpt lat="55.9299667" lon="49.2187817"><time>2023-06-03T08:36:26.743</time></trkpt><trkpt lat="55.9299217" lon="49.2188317"><time>2023-06-03T08:36:36.743</time></trkpt><trkpt lat="55.9298800" lon="49.2188867"><time>2023-06-03T08:36:38.737</time></trkpt><trkpt lat="55.9298217" lon="49.2189633"><time>2023-06-03T08:36:40.747</time></trkpt><trkpt lat="55.9297567" lon="49.2190217"><time>2023-06-03T08:36:42.743</time></trkpt><trkpt lat="55.9296933" lon="49.2190867"><time>2023-06-03T08:36:44.750</time></trkpt><trkpt lat="55.9296317" lon="49.2191417"><time>2023-06-03T08:36:46.743</time></trkpt><trkpt lat="55.9295650" lon="49.2191983"><time>2023-06-03T08:36:48.737</time></trkpt><trkpt lat="55.9294900" lon="49.2192650"><time>2023-06-03T08:36:50.750</time></trkpt><trkpt lat="55.9294250" lon="49.2193317"><time>2023-06-03T08:36:52.740</time></trkpt><trkpt lat="55.9293650" lon="49.2193800"><time>2023-06-03T08:36:54.747</time></trkpt><trkpt lat="55.9293083" lon="49.2194483"><time>2023-06-03T08:36:56.747</time></trkpt><trkpt lat="55.9292400" lon="49.2195283"><time>2023-06-03T08:36:58.740</time></trkpt><trkpt lat="55.9291717" lon="49.2195800"><time>2023-06-03T08:37:00.753</time></trkpt><trkpt lat="55.9290983" lon="49.2196333"><time>2023-06-03T08:37:02.743</time></trkpt><trkpt lat="55.9290200" lon="49.2196883"><time>2023-06-03T08:37:04.707</time></trkpt><trkpt lat="55.9289433" lon="49.2197367"><time>2023-06-03T08:37:06.737</time></trkpt><trkpt lat="55.9288767" lon="49.2197817"><time>2023-06-03T08:37:08.740</time></trkpt><trkpt lat="55.9288233" lon="49.2198317"><time>2023-06-03T08:37:10.743</time></trkpt><trkpt lat="55.9287733" lon="49.2198767"><time>2023-06-03T08:37:12.747</time></trkpt><trkpt lat="55.9287067" lon="49.2199300"><time>2023-06-03T08:37:14.750</time></trkpt><trkpt lat="55.9286233" lon="49.2199783"><time>2023-06-03T08:37:16.747</time></trkpt><trkpt lat="55.9285783" lon="49.2200083"><time>2023-06-03T08:37:17.747</time></trkpt><trkpt lat="55.9285117" lon="49.2200633"><time>2023-06-03T08:37:19.747</time></trkpt><trkpt lat="55.9284450" lon="49.2201117"><time>2023-06-03T08:37:21.750</time></trkpt><trkpt lat="55.9283783" lon="49.2201583"><time>2023-06-03T08:37:23.743</time></trkpt><trkpt lat="55.9283050" lon="49.2201933"><time>2023-06-03T08:37:25.747</time></trkpt><trkpt lat="55.9282400" lon="49.2202333"><time>2023-06-03T08:37:27.750</time></trkpt><trkpt lat="55.9281767" lon="49.2202650"><time>2023-06-03T08:37:29.760</time></trkpt><trkpt lat="55.9281083" lon="49.2202983"><time>2023-06-03T08:37:31.747</time></trkpt><trkpt lat="55.9280483" lon="49.2203317"><time>2023-06-03T08:37:33.747</time></trkpt><trkpt lat="55.9279950" lon="49.2203700"><time>2023-06-03T08:37:35.740</time></trkpt><trkpt lat="55.9279283" lon="49.2203900"><time>2023-06-03T08:37:37.740</time></trkpt><trkpt lat="55.9278583" lon="49.2204150"><time>2023-06-03T08:37:39.740</time></trkpt><trkpt lat="55.9277767" lon="49.2204667"><time>2023-06-03T08:37:41.743</time></trkpt><trkpt lat="55.9277000" lon="49.2205250"><time>2023-06-03T08:37:43.737</time></trkpt><trkpt lat="55.9276450" lon="49.2206150"><time>2023-06-03T08:37:45.743</time></trkpt><trkpt lat="55.9275967" lon="49.2207083"><time>2023-06-03T08:37:47.743</time></trkpt><trkpt lat="55.9275517" lon="49.2207833"><time>2023-06-03T08:37:49.747</time></trkpt><trkpt lat="55.9275150" lon="49.2208567"><time>2023-06-03T08:37:51.743</time></trkpt><trkpt lat="55.9274500" lon="49.2209467"><time>2023-06-03T08:37:53.747</time></trkpt><trkpt lat="55.9273950" lon="49.2210317"><time>2023-06-03T08:37:55.747</time></trkpt><trkpt lat="55.9273467" lon="49.2211050"><time>2023-06-03T08:37:57.737</time></trkpt><trkpt lat="55.9272800" lon="49.2211600"><time>2023-06-03T08:37:59.727</time></trkpt><trkpt lat="55.9272083" lon="49.2212067"><time>2023-06-03T08:38:01.720</time></trkpt><trkpt lat="55.9271367" lon="49.2212417"><time>2023-06-03T08:38:03.750</time></trkpt><trkpt lat="55.9270900" lon="49.2212700"><time>2023-06-03T08:38:05.747</time></trkpt><trkpt lat="55.9270267" lon="49.2213167"><time>2023-06-03T08:38:07.743</time></trkpt><trkpt lat="55.9269650" lon="49.2213500"><time>2023-06-03T08:38:09.737</time></trkpt><trkpt lat="55.9268950" lon="49.2213867"><time>2023-06-03T08:38:11.747</time></trkpt><trkpt lat="55.9268400" lon="49.2214117"><time>2023-06-03T08:38:13.747</time></trkpt><trkpt lat="55.9267933" lon="49.2214067"><time>2023-06-03T08:38:15.743</time></trkpt><trkpt lat="55.9266850" lon="49.2213750"><time>2023-06-03T08:38:31.740</time></trkpt><trkpt lat="55.9266033" lon="49.2213517"><time>2023-06-03T08:39:07.750</time></trkpt><trkpt lat="55.9265783" lon="49.2212750"><time>2023-06-03T08:39:10.743</time></trkpt><trkpt lat="55.9265350" lon="49.2212050"><time>2023-06-03T08:39:12.747</time></trkpt><trkpt lat="55.9265133" lon="49.2211200"><time>2023-06-03T08:39:15.723</time></trkpt><trkpt lat="55.9264967" lon="49.2210167"><time>2023-06-03T08:39:18.737</time></trkpt><trkpt lat="55.9264833" lon="49.2209350"><time>2023-06-03T08:39:20.743</time></trkpt><trkpt lat="55.9264700" lon="49.2208400"><time>2023-06-03T08:39:22.747</time></trkpt><trkpt lat="55.9264567" lon="49.2207417"><time>2023-06-03T08:39:24.747</time></trkpt><trkpt lat="55.9264400" lon="49.2206233"><time>2023-06-03T08:39:26.747</time></trkpt><trkpt lat="55.9264350" lon="49.2205300"><time>2023-06-03T08:39:28.740</time></trkpt><trkpt lat="55.9264317" lon="49.2204150"><time>2023-06-03T08:39:30.737</time></trkpt><trkpt lat="55.9264200" lon="49.2203017"><time>2023-06-03T08:39:32.700</time></trkpt><trkpt lat="55.9264050" lon="49.2201683"><time>2023-06-03T08:39:34.700</time></trkpt><trkpt lat="55.9263933" lon="49.2200900"><time>2023-06-03T08:39:35.720</time></trkpt><trkpt lat="55.9263750" lon="49.2199617"><time>2023-06-03T08:39:37.730</time></trkpt><trkpt lat="55.9263450" lon="49.2198283"><time>2023-06-03T08:39:39.747</time></trkpt><trkpt lat="55.9263183" lon="49.2197350"><time>2023-06-03T08:39:41.743</time></trkpt><trkpt lat="55.9262867" lon="49.2196700"><time>2023-06-03T08:39:43.727</time></trkpt><trkpt lat="55.9262283" lon="49.2196933"><time>2023-06-03T08:39:46.737</time></trkpt><trkpt lat="55.9261833" lon="49.2197167"><time>2023-06-03T08:39:48.740</time></trkpt><trkpt lat="55.9261267" lon="49.2197583"><time>2023-06-03T08:39:51.737</time></trkpt><trkpt lat="55.9261200" lon="49.2198400"><time>2023-06-03T08:39:54.737</time></trkpt><trkpt lat="55.9261317" lon="49.2199333"><time>2023-06-03T08:39:57.730</time></trkpt><trkpt lat="55.9261200" lon="49.2200133"><time>2023-06-03T08:39:59.737</time></trkpt><trkpt lat="55.9260917" lon="49.2200883"><time>2023-06-03T08:40:01.743</time></trkpt><trkpt lat="55.9260300" lon="49.2201467"><time>2023-06-03T08:40:04.743</time></trkpt><trkpt lat="55.9260033" lon="49.2201633"><time>2023-06-03T08:40:05.747</time></trkpt><trkpt lat="55.9259300" lon="49.2201900"><time>2023-06-03T08:40:07.743</time></trkpt><trkpt lat="55.9258650" lon="49.2202117"><time>2023-06-03T08:40:09.737</time></trkpt><trkpt lat="55.9257733" lon="49.2202433"><time>2023-06-03T08:40:11.743</time></trkpt><trkpt lat="55.9257083" lon="49.2202583"><time>2023-06-03T08:40:12.740</time></trkpt><trkpt lat="55.9256467" lon="49.2202667"><time>2023-06-03T08:40:13.750</time></trkpt><trkpt lat="55.9255933" lon="49.2202833"><time>2023-06-03T08:40:14.747</time></trkpt><trkpt lat="55.9255433" lon="49.2202983"><time>2023-06-03T08:40:15.743</time></trkpt><trkpt lat="55.9254967" lon="49.2203100"><time>2023-06-03T08:40:16.747</time></trkpt><trkpt lat="55.9254250" lon="49.2203333"><time>2023-06-03T08:40:18.747</time></trkpt><trkpt lat="55.9253633" lon="49.2203483"><time>2023-06-03T08:40:20.750</time></trkpt><trkpt lat="55.9253033" lon="49.2203817"><time>2023-06-03T08:40:23.743</time></trkpt><trkpt lat="55.9252600" lon="49.2204117"><time>2023-06-03T08:40:27.757</time></trkpt><trkpt lat="55.9252167" lon="49.2204683"><time>2023-06-03T08:40:32.747</time></trkpt><trkpt lat="55.9251217" lon="49.2204000"><time>2023-06-03T08:40:51.737</time></trkpt><trkpt lat="55.9251150" lon="49.2204050"><time>2023-06-03T08:40:52.747</time></trkpt><trkpt lat="55.9251383" lon="49.2204767"><time>2023-06-03T08:41:15.737</time></trkpt><trkpt lat="55.9251633" lon="49.2206050"><time>2023-06-03T08:41:24.747</time></trkpt><trkpt lat="55.9250717" lon="49.2207283"><time>2023-06-03T08:42:30.753</time></trkpt><trkpt lat="55.9249483" lon="49.2207083"><time>2023-06-03T08:42:43.740</time></trkpt><trkpt lat="55.9248317" lon="49.2208083"><time>2023-06-03T08:42:54.747</time></trkpt><trkpt lat="55.9247617" lon="49.2209383"><time>2023-06-03T08:43:06.757</time></trkpt><trkpt lat="55.9247483" lon="49.2209433"><time>2023-06-03T08:43:07.750</time></trkpt><trkpt lat="55.9246600" lon="49.2208817"><time>2023-06-03T08:43:15.737</time></trkpt><trkpt lat="55.9246167" lon="49.2208567"><time>2023-06-03T08:43:19.730</time></trkpt><trkpt lat="55.9245617" lon="49.2208850"><time>2023-06-03T08:43:23.747</time></trkpt><trkpt lat="55.9245233" lon="49.2209367"><time>2023-06-03T08:43:26.743</time></trkpt><trkpt lat="55.9244817" lon="49.2209733"><time>2023-06-03T08:43:30.750</time></trkpt><trkpt lat="55.9244817" lon="49.2209733"><time>2023-06-03T08:43:30.803</time></trkpt><trkpt lat="55.9245250" lon="49.2209433"><time>2023-06-03T08:43:42.757</time></trkpt><trkpt lat="55.9245383" lon="49.2209383"><time>2023-06-03T08:43:43.747</time></trkpt><trkpt lat="55.9246217" lon="49.2209267"><time>2023-06-03T08:43:53.740</time></trkpt><trkpt lat="55.9247317" lon="49.2209367"><time>2023-06-03T08:44:09.730</time></trkpt><trkpt lat="55.9248267" lon="49.2208267"><time>2023-06-03T08:44:42.747</time></trkpt><trkpt lat="55.9249333" lon="49.2207567"><time>2023-06-03T08:44:58.743</time></trkpt><trkpt lat="55.9250067" lon="49.2206200"><time>2023-06-03T08:45:11.747</time></trkpt><trkpt lat="55.9250833" lon="49.2205767"><time>2023-06-03T08:45:20.750</time></trkpt><trkpt lat="55.9251167" lon="49.2205133"><time>2023-06-03T08:45:24.757</time></trkpt><trkpt lat="55.9251633" lon="49.2204567"><time>2023-06-03T08:45:29.743</time></trkpt><trkpt lat="55.9252400" lon="49.2202917"><time>2023-06-03T08:45:47.703</time></trkpt><trkpt lat="55.9252783" lon="49.2204067"><time>2023-06-03T08:46:51.750</time></trkpt><trkpt lat="55.9253117" lon="49.2202967"><time>2023-06-03T08:51:28.747</time></trkpt><trkpt lat="55.9252767" lon="49.2203533"><time>2023-06-03T08:51:57.740</time></trkpt><trkpt lat="55.9253317" lon="49.2203450"><time>2023-06-03T08:52:00.707</time></trkpt><trkpt lat="55.9253900" lon="49.2203650"><time>2023-06-03T08:52:04.743</time></trkpt><trkpt lat="55.9254433" lon="49.2203717"><time>2023-06-03T08:52:07.753</time></trkpt><trkpt lat="55.9254900" lon="49.2203567"><time>2023-06-03T08:52:10.750</time></trkpt><trkpt lat="55.9255350" lon="49.2203517"><time>2023-06-03T08:52:13.747</time></trkpt><trkpt lat="55.9255933" lon="49.2203433"><time>2023-06-03T08:52:16.747</time></trkpt><trkpt lat="55.9256483" lon="49.2203317"><time>2023-06-03T08:52:19.740</time></trkpt><trkpt lat="55.9256983" lon="49.2203017"><time>2023-06-03T08:52:22.743</time></trkpt><trkpt lat="55.9257500" lon="49.2202733"><time>2023-06-03T08:52:26.747</time></trkpt><trkpt lat="55.9258083" lon="49.2202683"><time>2023-06-03T08:52:30.743</time></trkpt><trkpt lat="55.9258667" lon="49.2202467"><time>2023-06-03T08:52:35.753</time></trkpt><trkpt lat="55.9259217" lon="49.2202317"><time>2023-06-03T08:52:39.743</time></trkpt><trkpt lat="55.9259783" lon="49.2202000"><time>2023-06-03T08:52:43.750</time></trkpt><trkpt lat="55.9260233" lon="49.2201117"><time>2023-06-03T08:52:46.747</time></trkpt><trkpt lat="55.9260500" lon="49.2200283"><time>2023-06-03T08:52:48.747</time></trkpt><trkpt lat="55.9260317" lon="49.2199467"><time>2023-06-03T08:52:50.750</time></trkpt><trkpt lat="55.9260150" lon="49.2198500"><time>2023-06-03T08:52:53.747</time></trkpt><trkpt lat="55.9260200" lon="49.2197533"><time>2023-06-03T08:52:56.743</time></trkpt><trkpt lat="55.9260617" lon="49.2196817"><time>2023-06-03T08:52:59.740</time></trkpt><trkpt lat="55.9261083" lon="49.2196417"><time>2023-06-03T08:53:01.707</time></trkpt><trkpt lat="55.9261567" lon="49.2196167"><time>2023-06-03T08:53:03.747</time></trkpt><trkpt lat="55.9262067" lon="49.2196300"><time>2023-06-03T08:53:05.743</time></trkpt><trkpt lat="55.9262633" lon="49.2196900"><time>2023-06-03T08:53:07.743</time></trkpt><trkpt lat="55.9263067" lon="49.2197733"><time>2023-06-03T08:53:09.743</time></trkpt><trkpt lat="55.9263467" lon="49.2198483"><time>2023-06-03T08:53:11.743</time></trkpt><trkpt lat="55.9263900" lon="49.2199267"><time>2023-06-03T08:53:13.740</time></trkpt><trkpt lat="55.9264100" lon="49.2200417"><time>2023-06-03T08:53:15.740</time></trkpt><trkpt lat="55.9264233" lon="49.2201517"><time>2023-06-03T08:53:17.743</time></trkpt><trkpt lat="55.9264283" lon="49.2202583"><time>2023-06-03T08:53:19.740</time></trkpt><trkpt lat="55.9264450" lon="49.2203650"><time>2023-06-03T08:53:21.740</time></trkpt><trkpt lat="55.9264667" lon="49.2204717"><time>2023-06-03T08:53:23.750</time></trkpt><trkpt lat="55.9264800" lon="49.2205867"><time>2023-06-03T08:53:25.740</time></trkpt><trkpt lat="55.9264950" lon="49.2206783"><time>2023-06-03T08:53:27.743</time></trkpt><trkpt lat="55.9265150" lon="49.2207700"><time>2023-06-03T08:53:29.747</time></trkpt><trkpt lat="55.9265550" lon="49.2208667"><time>2023-06-03T08:53:31.747</time></trkpt><trkpt lat="55.9265850" lon="49.2209833"><time>2023-06-03T08:53:33.743</time></trkpt><trkpt lat="55.9266150" lon="49.2210850"><time>2023-06-03T08:53:35.743</time></trkpt><trkpt lat="55.9266300" lon="49.2211683"><time>2023-06-03T08:53:37.743</time></trkpt><trkpt lat="55.9266400" lon="49.2212483"><time>2023-06-03T08:53:40.723</time></trkpt><trkpt lat="55.9266183" lon="49.2213383"><time>2023-06-03T08:53:44.737</time></trkpt><trkpt lat="55.9265750" lon="49.2213917"><time>2023-06-03T08:53:46.743</time></trkpt><trkpt lat="55.9265317" lon="49.2214600"><time>2023-06-03T08:53:48.750</time></trkpt><trkpt lat="55.9264767" lon="49.2215400"><time>2023-06-03T08:53:50.723</time></trkpt><trkpt lat="55.9264383" lon="49.2215833"><time>2023-06-03T08:53:51.730</time></trkpt><trkpt lat="55.9263650" lon="49.2216700"><time>2023-06-03T08:53:53.743</time></trkpt><trkpt lat="55.9263083" lon="49.2217733"><time>2023-06-03T08:53:55.750</time></trkpt><trkpt lat="55.9262633" lon="49.2218900"><time>2023-06-03T08:53:57.747</time></trkpt><trkpt lat="55.9262367" lon="49.2220217"><time>2023-06-03T08:53:59.750</time></trkpt><trkpt lat="55.9262133" lon="49.2220917"><time>2023-06-03T08:54:00.743</time></trkpt><trkpt lat="55.9261650" lon="49.2222117"><time>2023-06-03T08:54:02.743</time></trkpt><trkpt lat="55.9261250" lon="49.2223450"><time>2023-06-03T08:54:04.743</time></trkpt><trkpt lat="55.9261017" lon="49.2224200"><time>2023-06-03T08:54:05.740</time></trkpt><trkpt lat="55.9260583" lon="49.2225617"><time>2023-06-03T08:54:07.740</time></trkpt><trkpt lat="55.9260267" lon="49.2226967"><time>2023-06-03T08:54:09.747</time></trkpt><trkpt lat="55.9259883" lon="49.2228317"><time>2023-06-03T08:54:11.747</time></trkpt><trkpt lat="55.9259350" lon="49.2229750"><time>2023-06-03T08:54:13.740</time></trkpt><trkpt lat="55.9259117" lon="49.2230483"><time>2023-06-03T08:54:14.750</time></trkpt><trkpt lat="55.9258733" lon="49.2231950"><time>2023-06-03T08:54:16.750</time></trkpt><trkpt lat="55.9258483" lon="49.2232683"><time>2023-06-03T08:54:17.747</time></trkpt><trkpt lat="55.9258200" lon="49.2233350"><time>2023-06-03T08:54:18.723</time></trkpt><trkpt lat="55.9257900" lon="49.2234033"><time>2023-06-03T08:54:19.730</time></trkpt><trkpt lat="55.9257600" lon="49.2234717"><time>2023-06-03T08:54:20.730</time></trkpt><trkpt lat="55.9257267" lon="49.2235317"><time>2023-06-03T08:54:21.727</time></trkpt><trkpt lat="55.9256650" lon="49.2236417"><time>2023-06-03T08:54:23.720</time></trkpt><trkpt lat="55.9256117" lon="49.2237350"><time>2023-06-03T08:54:25.727</time></trkpt><trkpt lat="55.9255500" lon="49.2238200"><time>2023-06-03T08:54:27.720</time></trkpt><trkpt lat="55.9254983" lon="49.2239067"><time>2023-06-03T08:54:29.727</time></trkpt><trkpt lat="55.9254500" lon="49.2239900"><time>2023-06-03T08:54:31.730</time></trkpt><trkpt lat="55.9253817" lon="49.2240833"><time>2023-06-03T08:54:33.740</time></trkpt><trkpt lat="55.9253283" lon="49.2241650"><time>2023-06-03T08:54:35.730</time></trkpt><trkpt lat="55.9252667" lon="49.2242450"><time>2023-06-03T08:54:37.747</time></trkpt><trkpt lat="55.9252017" lon="49.2243150"><time>2023-06-03T08:54:39.747</time></trkpt><trkpt lat="55.9251500" lon="49.2244033"><time>2023-06-03T08:54:41.737</time></trkpt><trkpt lat="55.9250783" lon="49.2244583"><time>2023-06-03T08:54:43.743</time></trkpt><trkpt lat="55.9249967" lon="49.2244950"><time>2023-06-03T08:54:45.737</time></trkpt><trkpt lat="55.9249233" lon="49.2245117"><time>2023-06-03T08:54:47.740</time></trkpt><trkpt lat="55.9248550" lon="49.2245100"><time>2023-06-03T08:54:49.747</time></trkpt><trkpt lat="55.9247933" lon="49.2245133"><time>2023-06-03T08:54:51.750</time></trkpt><trkpt lat="55.9247417" lon="49.2245367"><time>2023-06-03T08:54:53.747</time></trkpt><trkpt lat="55.9246917" lon="49.2245400"><time>2023-06-03T08:54:55.747</time></trkpt><trkpt lat="55.9246250" lon="49.2245500"><time>2023-06-03T08:54:57.747</time></trkpt><trkpt lat="55.9245533" lon="49.2245700"><time>2023-06-03T08:54:59.743</time></trkpt><trkpt lat="55.9244817" lon="49.2246033"><time>2023-06-03T08:55:01.747</time></trkpt><trkpt lat="55.9244133" lon="49.2245983"><time>2023-06-03T08:55:03.743</time></trkpt><trkpt lat="55.9243467" lon="49.2246100"><time>2023-06-03T08:55:05.747</time></trkpt><trkpt lat="55.9242700" lon="49.2246317"><time>2023-06-03T08:55:07.710</time></trkpt><trkpt lat="55.9242017" lon="49.2246617"><time>2023-06-03T08:55:09.737</time></trkpt><trkpt lat="55.9241317" lon="49.2246633"><time>2023-06-03T08:55:11.747</time></trkpt><trkpt lat="55.9240667" lon="49.2246900"><time>2023-06-03T08:55:13.757</time></trkpt><trkpt lat="55.9239933" lon="49.2247117"><time>2023-06-03T08:55:15.767</time></trkpt><trkpt lat="55.9239200" lon="49.2247283"><time>2023-06-03T08:55:17.750</time></trkpt><trkpt lat="55.9238500" lon="49.2247550"><time>2023-06-03T08:55:19.747</time></trkpt><trkpt lat="55.9237867" lon="49.2247700"><time>2023-06-03T08:55:21.730</time></trkpt><trkpt lat="55.9237250" lon="49.2247667"><time>2023-06-03T08:55:23.753</time></trkpt><trkpt lat="55.9236633" lon="49.2247550"><time>2023-06-03T08:55:25.743</time></trkpt><trkpt lat="55.9235967" lon="49.2247567"><time>2023-06-03T08:55:27.747</time></trkpt><trkpt lat="55.9235250" lon="49.2247500"><time>2023-06-03T08:55:29.743</time></trkpt><trkpt lat="55.9234383" lon="49.2247517"><time>2023-06-03T08:55:31.750</time></trkpt><trkpt lat="55.9233900" lon="49.2247450"><time>2023-06-03T08:55:32.747</time></trkpt><trkpt lat="55.9233417" lon="49.2247367"><time>2023-06-03T08:55:33.743</time></trkpt><trkpt lat="55.9232933" lon="49.2247300"><time>2023-06-03T08:55:34.747</time></trkpt><trkpt lat="55.9232317" lon="49.2247317"><time>2023-06-03T08:55:35.743</time></trkpt><trkpt lat="55.9231733" lon="49.2247383"><time>2023-06-03T08:55:36.740</time></trkpt><trkpt lat="55.9231217" lon="49.2247367"><time>2023-06-03T08:55:37.743</time></trkpt><trkpt lat="55.9230733" lon="49.2247383"><time>2023-06-03T08:55:38.747</time></trkpt><trkpt lat="55.9230283" lon="49.2247333"><time>2023-06-03T08:55:39.743</time></trkpt><trkpt lat="55.9229533" lon="49.2247233"><time>2023-06-03T08:55:41.743</time></trkpt><trkpt lat="55.9228850" lon="49.2247300"><time>2023-06-03T08:55:43.710</time></trkpt><trkpt lat="55.9228200" lon="49.2247283"><time>2023-06-03T08:55:45.727</time></trkpt><trkpt lat="55.9227600" lon="49.2247700"><time>2023-06-03T08:55:47.730</time></trkpt><trkpt lat="55.9227017" lon="49.2248133"><time>2023-06-03T08:55:49.730</time></trkpt><trkpt lat="55.9226483" lon="49.2248700"><time>2023-06-03T08:55:51.750</time></trkpt><trkpt lat="55.9225750" lon="49.2248833"><time>2023-06-03T08:55:53.747</time></trkpt><trkpt lat="55.9225100" lon="49.2249133"><time>2023-06-03T08:55:55.750</time></trkpt><trkpt lat="55.9224483" lon="49.2249333"><time>2023-06-03T08:55:57.743</time></trkpt><trkpt lat="55.9223817" lon="49.2249667"><time>2023-06-03T08:55:59.747</time></trkpt><trkpt lat="55.9223033" lon="49.2249800"><time>2023-06-03T08:56:01.727</time></trkpt><trkpt lat="55.9222400" lon="49.2250100"><time>2023-06-03T08:56:03.753</time></trkpt><trkpt lat="55.9221517" lon="49.2250483"><time>2023-06-03T08:56:05.733</time></trkpt><trkpt lat="55.9220817" lon="49.2250800"><time>2023-06-03T08:56:07.747</time></trkpt><trkpt lat="55.9220350" lon="49.2251033"><time>2023-06-03T08:56:08.743</time></trkpt><trkpt lat="55.9219917" lon="49.2251267"><time>2023-06-03T08:56:09.750</time></trkpt><trkpt lat="55.9219483" lon="49.2251550"><time>2023-06-03T08:56:10.760</time></trkpt><trkpt lat="55.9219017" lon="49.2251917"><time>2023-06-03T08:56:11.760</time></trkpt><trkpt lat="55.9218500" lon="49.2252233"><time>2023-06-03T08:56:12.757</time></trkpt><trkpt lat="55.9217967" lon="49.2252433"><time>2023-06-03T08:56:13.753</time></trkpt><trkpt lat="55.9217500" lon="49.2252650"><time>2023-06-03T08:56:14.760</time></trkpt><trkpt lat="55.9217017" lon="49.2252883"><time>2023-06-03T08:56:15.753</time></trkpt><trkpt lat="55.9216500" lon="49.2253100"><time>2023-06-03T08:56:16.747</time></trkpt><trkpt lat="55.9215967" lon="49.2253333"><time>2023-06-03T08:56:17.747</time></trkpt><trkpt lat="55.9215450" lon="49.2253617"><time>2023-06-03T08:56:18.753</time></trkpt><trkpt lat="55.9214967" lon="49.2253950"><time>2023-06-03T08:56:19.757</time></trkpt><trkpt lat="55.9214467" lon="49.2254267"><time>2023-06-03T08:56:20.747</time></trkpt><trkpt lat="55.9214000" lon="49.2254600"><time>2023-06-03T08:56:21.753</time></trkpt><trkpt lat="55.9213250" lon="49.2255283"><time>2023-06-03T08:56:23.750</time></trkpt><trkpt lat="55.9212583" lon="49.2255883"><time>2023-06-03T08:56:25.733</time></trkpt><trkpt lat="55.9212017" lon="49.2256100"><time>2023-06-03T08:56:27.733</time></trkpt><trkpt lat="55.9210717" lon="49.2256183"><time>2023-06-03T08:56:56.750</time></trkpt><trkpt lat="55.9210133" lon="49.2256250"><time>2023-06-03T08:56:59.740</time></trkpt><trkpt lat="55.9209483" lon="49.2256633"><time>2023-06-03T08:57:02.757</time></trkpt><trkpt lat="55.9208917" lon="49.2257033"><time>2023-06-03T08:57:04.750</time></trkpt><trkpt lat="55.9208100" lon="49.2257517"><time>2023-06-03T08:57:06.743</time></trkpt><trkpt lat="55.9207233" lon="49.2257917"><time>2023-06-03T08:57:08.733</time></trkpt><trkpt lat="55.9206383" lon="49.2258500"><time>2023-06-03T08:57:10.743</time></trkpt><trkpt lat="55.9205617" lon="49.2259067"><time>2023-06-03T08:57:12.757</time></trkpt><trkpt lat="55.9204967" lon="49.2259617"><time>2023-06-03T08:57:14.753</time></trkpt><trkpt lat="55.9204283" lon="49.2260133"><time>2023-06-03T08:57:16.753</time></trkpt><trkpt lat="55.9203600" lon="49.2260617"><time>2023-06-03T08:57:18.760</time></trkpt><trkpt lat="55.9202900" lon="49.2261283"><time>2023-06-03T08:57:20.750</time></trkpt><trkpt lat="55.9202133" lon="49.2262000"><time>2023-06-03T08:57:22.747</time></trkpt><trkpt lat="55.9201317" lon="49.2262817"><time>2023-06-03T08:57:24.760</time></trkpt><trkpt lat="55.9200533" lon="49.2263517"><time>2023-06-03T08:57:26.747</time></trkpt><trkpt lat="55.9199767" lon="49.2264133"><time>2023-06-03T08:57:28.747</time></trkpt><trkpt lat="55.9199050" lon="49.2264783"><time>2023-06-03T08:57:30.753</time></trkpt><trkpt lat="55.9198200" lon="49.2265367"><time>2023-06-03T08:57:32.743</time></trkpt><trkpt lat="55.9197767" lon="49.2265667"><time>2023-06-03T08:57:33.747</time></trkpt><trkpt lat="55.9196917" lon="49.2266267"><time>2023-06-03T08:57:35.753</time></trkpt><trkpt lat="55.9196500" lon="49.2266583"><time>2023-06-03T08:57:36.753</time></trkpt><trkpt lat="55.9196100" lon="49.2266950"><time>2023-06-03T08:57:37.743</time></trkpt><trkpt lat="55.9195517" lon="49.2267733"><time>2023-06-03T08:57:39.750</time></trkpt><trkpt lat="55.9194950" lon="49.2268433"><time>2023-06-03T08:57:41.747</time></trkpt><trkpt lat="55.9194350" lon="49.2269017"><time>2023-06-03T08:57:43.747</time></trkpt><trkpt lat="55.9193750" lon="49.2269533"><time>2023-06-03T08:57:45.747</time></trkpt><trkpt lat="55.9193050" lon="49.2270250"><time>2023-06-03T08:57:47.753</time></trkpt><trkpt lat="55.9192283" lon="49.2270950"><time>2023-06-03T08:57:49.743</time></trkpt><trkpt lat="55.9191433" lon="49.2271467"><time>2023-06-03T08:57:51.750</time></trkpt><trkpt lat="55.9190767" lon="49.2272317"><time>2023-06-03T08:57:53.717</time></trkpt><trkpt lat="55.9190317" lon="49.2272667"><time>2023-06-03T08:57:54.733</time></trkpt><trkpt lat="55.9189867" lon="49.2273017"><time>2023-06-03T08:57:55.733</time></trkpt><trkpt lat="55.9189417" lon="49.2273183"><time>2023-06-03T08:57:56.733</time></trkpt><trkpt lat="55.9188983" lon="49.2273417"><time>2023-06-03T08:57:57.730</time></trkpt><trkpt lat="55.9188133" lon="49.2273883"><time>2023-06-03T08:57:59.757</time></trkpt><trkpt lat="55.9187317" lon="49.2274417"><time>2023-06-03T08:58:01.753</time></trkpt><trkpt lat="55.9186467" lon="49.2274683"><time>2023-06-03T08:58:03.747</time></trkpt><trkpt lat="55.9185800" lon="49.2274967"><time>2023-06-03T08:58:05.753</time></trkpt><trkpt lat="55.9185150" lon="49.2275300"><time>2023-06-03T08:58:07.757</time></trkpt><trkpt lat="55.9184317" lon="49.2275383"><time>2023-06-03T08:58:09.750</time></trkpt><trkpt lat="55.9183550" lon="49.2275733"><time>2023-06-03T08:58:11.750</time></trkpt><trkpt lat="55.9182850" lon="49.2275983"><time>2023-06-03T08:58:13.747</time></trkpt><trkpt lat="55.9182233" lon="49.2276217"><time>2023-06-03T08:58:15.747</time></trkpt><trkpt lat="55.9181533" lon="49.2276500"><time>2023-06-03T08:58:17.750</time></trkpt><trkpt lat="55.9180883" lon="49.2276867"><time>2023-06-03T08:58:19.750</time></trkpt><trkpt lat="55.9180167" lon="49.2277250"><time>2023-06-03T08:58:21.743</time></trkpt><trkpt lat="55.9179467" lon="49.2277633"><time>2023-06-03T08:58:23.743</time></trkpt><trkpt lat="55.9178817" lon="49.2278150"><time>2023-06-03T08:58:25.750</time></trkpt><trkpt lat="55.9177983" lon="49.2278667"><time>2023-06-03T08:58:27.747</time></trkpt><trkpt lat="55.9177200" lon="49.2279133"><time>2023-06-03T08:58:29.747</time></trkpt><trkpt lat="55.9176417" lon="49.2279850"><time>2023-06-03T08:58:31.743</time></trkpt><trkpt lat="55.9176017" lon="49.2280217"><time>2023-06-03T08:58:32.747</time></trkpt><trkpt lat="55.9175283" lon="49.2280983"><time>2023-06-03T08:58:34.747</time></trkpt><trkpt lat="55.9174650" lon="49.2281750"><time>2023-06-03T08:58:36.757</time></trkpt><trkpt lat="55.9174083" lon="49.2282600"><time>2023-06-03T08:58:38.740</time></trkpt><trkpt lat="55.9173417" lon="49.2283167"><time>2023-06-03T08:58:40.750</time></trkpt><trkpt lat="55.9173100" lon="49.2283467"><time>2023-06-03T08:58:41.750</time></trkpt><trkpt lat="55.9172400" lon="49.2284250"><time>2023-06-03T08:58:43.750</time></trkpt><trkpt lat="55.9171667" lon="49.2285050"><time>2023-06-03T08:58:45.757</time></trkpt><trkpt lat="55.9170967" lon="49.2285617"><time>2023-06-03T08:58:47.753</time></trkpt><trkpt lat="55.9170167" lon="49.2286200"><time>2023-06-03T08:58:49.747</time></trkpt><trkpt lat="55.9169383" lon="49.2286767"><time>2023-06-03T08:58:51.737</time></trkpt><trkpt lat="55.9168950" lon="49.2287017"><time>2023-06-03T08:58:52.743</time></trkpt><trkpt lat="55.9168117" lon="49.2287600"><time>2023-06-03T08:58:54.750</time></trkpt><trkpt lat="55.9167283" lon="49.2288283"><time>2023-06-03T08:58:56.757</time></trkpt><trkpt lat="55.9166883" lon="49.2288650"><time>2023-06-03T08:58:57.747</time></trkpt><trkpt lat="55.9166100" lon="49.2289300"><time>2023-06-03T08:58:59.750</time></trkpt><trkpt lat="55.9165367" lon="49.2289800"><time>2023-06-03T08:59:01.740</time></trkpt><trkpt lat="55.9164650" lon="49.2290400"><time>2023-06-03T08:59:03.750</time></trkpt><trkpt lat="55.9163933" lon="49.2290883"><time>2023-06-03T08:59:05.747</time></trkpt><trkpt lat="55.9163333" lon="49.2291300"><time>2023-06-03T08:59:07.733</time></trkpt><trkpt lat="55.9162633" lon="49.2291717"><time>2023-06-03T08:59:09.730</time></trkpt><trkpt lat="55.9162133" lon="49.2292000"><time>2023-06-03T08:59:11.730</time></trkpt><trkpt lat="55.9161600" lon="49.2292150"><time>2023-06-03T08:59:13.727</time></trkpt><trkpt lat="55.9160983" lon="49.2292367"><time>2023-06-03T08:59:15.743</time></trkpt><trkpt lat="55.9160350" lon="49.2292700"><time>2023-06-03T08:59:17.747</time></trkpt><trkpt lat="55.9159633" lon="49.2293083"><time>2023-06-03T08:59:19.747</time></trkpt><trkpt lat="55.9158950" lon="49.2293350"><time>2023-06-03T08:59:21.753</time></trkpt><trkpt lat="55.9158283" lon="49.2293550"><time>2023-06-03T08:59:23.757</time></trkpt><trkpt lat="55.9157567" lon="49.2293833"><time>2023-06-03T08:59:25.750</time></trkpt><trkpt lat="55.9156817" lon="49.2294017"><time>2023-06-03T08:59:27.743</time></trkpt><trkpt lat="55.9155983" lon="49.2294150"><time>2023-06-03T08:59:29.747</time></trkpt><trkpt lat="55.9155533" lon="49.2294167"><time>2023-06-03T08:59:30.743</time></trkpt><trkpt lat="55.9155067" lon="49.2294233"><time>2023-06-03T08:59:31.747</time></trkpt><trkpt lat="55.9154600" lon="49.2294333"><time>2023-06-03T08:59:32.747</time></trkpt><trkpt lat="55.9153783" lon="49.2294467"><time>2023-06-03T08:59:34.743</time></trkpt><trkpt lat="55.9152883" lon="49.2294633"><time>2023-06-03T08:59:36.720</time></trkpt><trkpt lat="55.9152483" lon="49.2294600"><time>2023-06-03T08:59:37.730</time></trkpt><trkpt lat="55.9151617" lon="49.2294567"><time>2023-06-03T08:59:39.727</time></trkpt><trkpt lat="55.9150933" lon="49.2294550"><time>2023-06-03T08:59:41.727</time></trkpt><trkpt lat="55.9150217" lon="49.2294600"><time>2023-06-03T08:59:43.730</time></trkpt><trkpt lat="55.9149400" lon="49.2294767"><time>2023-06-03T08:59:45.727</time></trkpt><trkpt lat="55.9148583" lon="49.2294767"><time>2023-06-03T08:59:47.727</time></trkpt><trkpt lat="55.9147867" lon="49.2294883"><time>2023-06-03T08:59:49.727</time></trkpt><trkpt lat="55.9147217" lon="49.2295017"><time>2023-06-03T08:59:51.733</time></trkpt><trkpt lat="55.9146600" lon="49.2295233"><time>2023-06-03T08:59:53.750</time></trkpt><trkpt lat="55.9145933" lon="49.2295333"><time>2023-06-03T08:59:55.747</time></trkpt><trkpt lat="55.9145267" lon="49.2295167"><time>2023-06-03T08:59:57.727</time></trkpt><trkpt lat="55.9144617" lon="49.2295000"><time>2023-06-03T08:59:59.747</time></trkpt><trkpt lat="55.9144083" lon="49.2295067"><time>2023-06-03T09:00:01.747</time></trkpt><trkpt lat="55.9143600" lon="49.2295133"><time>2023-06-03T09:00:03.747</time></trkpt><trkpt lat="55.9143017" lon="49.2295067"><time>2023-06-03T09:00:05.750</time></trkpt><trkpt lat="55.9142383" lon="49.2294933"><time>2023-06-03T09:00:07.750</time></trkpt><trkpt lat="55.9141900" lon="49.2294833"><time>2023-06-03T09:00:09.757</time></trkpt><trkpt lat="55.9141433" lon="49.2294683"><time>2023-06-03T09:00:11.747</time></trkpt><trkpt lat="55.9140967" lon="49.2294283"><time>2023-06-03T09:00:14.750</time></trkpt><trkpt lat="55.9140517" lon="49.2294050"><time>2023-06-03T09:00:16.743</time></trkpt><trkpt lat="55.9140050" lon="49.2293783"><time>2023-06-03T09:00:18.743</time></trkpt><trkpt lat="55.9139517" lon="49.2293817"><time>2023-06-03T09:00:20.740</time></trkpt><trkpt lat="55.9138950" lon="49.2293883"><time>2023-06-03T09:00:22.727</time></trkpt><trkpt lat="55.9138433" lon="49.2293867"><time>2023-06-03T09:00:24.723</time></trkpt><trkpt lat="55.9137950" lon="49.2293633"><time>2023-06-03T09:00:29.750</time></trkpt><trkpt lat="55.9137400" lon="49.2293483"><time>2023-06-03T09:00:33.757</time></trkpt><trkpt lat="55.9136917" lon="49.2293233"><time>2023-06-03T09:00:37.747</time></trkpt><trkpt lat="55.9136433" lon="49.2293117"><time>2023-06-03T09:00:40.750</time></trkpt><trkpt lat="55.9135833" lon="49.2293183"><time>2023-06-03T09:00:43.753</time></trkpt><trkpt lat="55.9135350" lon="49.2293333"><time>2023-06-03T09:00:46.743</time></trkpt><trkpt lat="55.9134783" lon="49.2293450"><time>2023-06-03T09:00:49.740</time></trkpt><trkpt lat="55.9134233" lon="49.2293500"><time>2023-06-03T09:00:53.713</time></trkpt><trkpt lat="55.9133783" lon="49.2293533"><time>2023-06-03T09:00:56.747</time></trkpt><trkpt lat="55.9133267" lon="49.2293600"><time>2023-06-03T09:00:59.747</time></trkpt><trkpt lat="55.9132700" lon="49.2293817"><time>2023-06-03T09:01:03.740</time></trkpt><trkpt lat="55.9132233" lon="49.2294100"><time>2023-06-03T09:01:07.747</time></trkpt><trkpt lat="55.9131883" lon="49.2294633"><time>2023-06-03T09:01:11.743</time></trkpt><trkpt lat="55.9131467" lon="49.2294967"><time>2023-06-03T09:01:14.757</time></trkpt><trkpt lat="55.9131000" lon="49.2295200"><time>2023-06-03T09:01:18.750</time></trkpt><trkpt lat="55.9130567" lon="49.2295600"><time>2023-06-03T09:01:22.727</time></trkpt><trkpt lat="55.9130117" lon="49.2296167"><time>2023-06-03T09:01:26.750</time></trkpt><trkpt lat="55.9129750" lon="49.2296833"><time>2023-06-03T09:01:31.747</time></trkpt><trkpt lat="55.9129600" lon="49.2297667"><time>2023-06-03T09:01:35.727</time></trkpt><trkpt lat="55.9129333" lon="49.2298317"><time>2023-06-03T09:01:40.727</time></trkpt><trkpt lat="55.9128850" lon="49.2299017"><time>2023-06-03T09:01:44.747</time></trkpt><trkpt lat="55.9128583" lon="49.2299733"><time>2023-06-03T09:01:47.760</time></trkpt><trkpt lat="55.9128550" lon="49.2300600"><time>2023-06-03T09:01:51.750</time></trkpt><trkpt lat="55.9128200" lon="49.2301300"><time>2023-06-03T09:01:55.750</time></trkpt><trkpt lat="55.9127800" lon="49.2301917"><time>2023-06-03T09:01:59.753</time></trkpt><trkpt lat="55.9127367" lon="49.2302333"><time>2023-06-03T09:02:02.740</time></trkpt><trkpt lat="55.9126500" lon="49.2303150"><time>2023-06-03T09:02:13.717</time></trkpt><trkpt lat="55.9126383" lon="49.2303933"><time>2023-06-03T09:02:15.747</time></trkpt><trkpt lat="55.9126150" lon="49.2304767"><time>2023-06-03T09:02:17.733</time></trkpt><trkpt lat="55.9125783" lon="49.2305817"><time>2023-06-03T09:02:19.743</time></trkpt><trkpt lat="55.9125317" lon="49.2306817"><time>2023-06-03T09:02:21.743</time></trkpt><trkpt lat="55.9125000" lon="49.2307433"><time>2023-06-03T09:02:22.743</time></trkpt><trkpt lat="55.9124517" lon="49.2308550"><time>2023-06-03T09:02:24.750</time></trkpt><trkpt lat="55.9124033" lon="49.2309633"><time>2023-06-03T09:02:26.750</time></trkpt><trkpt lat="55.9123633" lon="49.2310850"><time>2023-06-03T09:02:28.747</time></trkpt><trkpt lat="55.9123317" lon="49.2311950"><time>2023-06-03T09:02:30.740</time></trkpt><trkpt lat="55.9122967" lon="49.2313167"><time>2023-06-03T09:02:32.747</time></trkpt><trkpt lat="55.9122683" lon="49.2314417"><time>2023-06-03T09:02:34.747</time></trkpt><trkpt lat="55.9122417" lon="49.2315417"><time>2023-06-03T09:02:36.743</time></trkpt><trkpt lat="55.9122217" lon="49.2316500"><time>2023-06-03T09:02:38.750</time></trkpt><trkpt lat="55.9121967" lon="49.2317683"><time>2023-06-03T09:02:40.740</time></trkpt><trkpt lat="55.9121750" lon="49.2318967"><time>2023-06-03T09:02:42.750</time></trkpt><trkpt lat="55.9121467" lon="49.2320150"><time>2023-06-03T09:02:44.743</time></trkpt><trkpt lat="55.9121133" lon="49.2321350"><time>2023-06-03T09:02:46.737</time></trkpt><trkpt lat="55.9120833" lon="49.2322533"><time>2023-06-03T09:02:48.740</time></trkpt><trkpt lat="55.9120633" lon="49.2323633"><time>2023-06-03T09:02:50.747</time></trkpt><trkpt lat="55.9120383" lon="49.2324867"><time>2023-06-03T09:02:52.740</time></trkpt><trkpt lat="55.9120150" lon="49.2326017"><time>2023-06-03T09:02:54.743</time></trkpt><trkpt lat="55.9119900" lon="49.2327350"><time>2023-06-03T09:02:56.747</time></trkpt><trkpt lat="55.9119600" lon="49.2328567"><time>2023-06-03T09:02:58.750</time></trkpt><trkpt lat="55.9119350" lon="49.2329783"><time>2023-06-03T09:03:00.747</time></trkpt><trkpt lat="55.9119050" lon="49.2330917"><time>2023-06-03T09:03:02.730</time></trkpt><trkpt lat="55.9118700" lon="49.2332000"><time>2023-06-03T09:03:04.727</time></trkpt><trkpt lat="55.9118267" lon="49.2333100"><time>2023-06-03T09:03:06.727</time></trkpt><trkpt lat="55.9117950" lon="49.2334250"><time>2023-06-03T09:03:08.743</time></trkpt><trkpt lat="55.9117500" lon="49.2335400"><time>2023-06-03T09:03:10.747</time></trkpt><trkpt lat="55.9117317" lon="49.2336533"><time>2023-06-03T09:03:12.747</time></trkpt><trkpt lat="55.9117067" lon="49.2337733"><time>2023-06-03T09:03:14.743</time></trkpt><trkpt lat="55.9116833" lon="49.2339100"><time>2023-06-03T09:03:16.750</time></trkpt><trkpt lat="55.9116517" lon="49.2340217"><time>2023-06-03T09:03:18.747</time></trkpt><trkpt lat="55.9116317" lon="49.2341417"><time>2023-06-03T09:03:20.750</time></trkpt><trkpt lat="55.9116150" lon="49.2342517"><time>2023-06-03T09:03:22.743</time></trkpt><trkpt lat="55.9115933" lon="49.2343733"><time>2023-06-03T09:03:24.740</time></trkpt><trkpt lat="55.9115750" lon="49.2345050"><time>2023-06-03T09:03:26.747</time></trkpt><trkpt lat="55.9115550" lon="49.2346283"><time>2023-06-03T09:03:28.737</time></trkpt><trkpt lat="55.9115450" lon="49.2347483"><time>2023-06-03T09:03:30.753</time></trkpt><trkpt lat="55.9115283" lon="49.2348750"><time>2023-06-03T09:03:32.743</time></trkpt><trkpt lat="55.9115067" lon="49.2349867"><time>2023-06-03T09:03:34.740</time></trkpt><trkpt lat="55.9114883" lon="49.2350933"><time>2023-06-03T09:03:36.747</time></trkpt><trkpt lat="55.9114650" lon="49.2352017"><time>2023-06-03T09:03:38.747</time></trkpt><trkpt lat="55.9114333" lon="49.2353133"><time>2023-06-03T09:03:40.747</time></trkpt><trkpt lat="55.9114233" lon="49.2354350"><time>2023-06-03T09:03:42.753</time></trkpt><trkpt lat="55.9114033" lon="49.2355517"><time>2023-06-03T09:03:44.747</time></trkpt><trkpt lat="55.9113800" lon="49.2356683"><time>2023-06-03T09:03:46.743</time></trkpt><trkpt lat="55.9113483" lon="49.2357967"><time>2023-06-03T09:03:48.757</time></trkpt><trkpt lat="55.9113250" lon="49.2359150"><time>2023-06-03T09:03:50.747</time></trkpt><trkpt lat="55.9112983" lon="49.2360333"><time>2023-06-03T09:03:52.740</time></trkpt><trkpt lat="55.9112800" lon="49.2361683"><time>2023-06-03T09:03:54.747</time></trkpt><trkpt lat="55.9112650" lon="49.2362950"><time>2023-06-03T09:03:56.727</time></trkpt><trkpt lat="55.9112433" lon="49.2364333"><time>2023-06-03T09:03:58.727</time></trkpt><trkpt lat="55.9112167" lon="49.2365583"><time>2023-06-03T09:04:00.727</time></trkpt><trkpt lat="55.9111783" lon="49.2366750"><time>2023-06-03T09:04:02.747</time></trkpt><trkpt lat="55.9111533" lon="49.2367867"><time>2023-06-03T09:04:04.743</time></trkpt><trkpt lat="55.9111383" lon="49.2369083"><time>2023-06-03T09:04:06.747</time></trkpt><trkpt lat="55.9111250" lon="49.2370317"><time>2023-06-03T09:04:08.743</time></trkpt><trkpt lat="55.9111067" lon="49.2371550"><time>2023-06-03T09:04:10.743</time></trkpt><trkpt lat="55.9110900" lon="49.2372717"><time>2023-06-03T09:04:12.747</time></trkpt><trkpt lat="55.9110650" lon="49.2373983"><time>2023-06-03T09:04:14.727</time></trkpt><trkpt lat="55.9110367" lon="49.2375267"><time>2023-06-03T09:04:16.727</time></trkpt><trkpt lat="55.9110117" lon="49.2376467"><time>2023-06-03T09:04:18.740</time></trkpt><trkpt lat="55.9109967" lon="49.2377733"><time>2023-06-03T09:04:20.727</time></trkpt><trkpt lat="55.9109750" lon="49.2378833"><time>2023-06-03T09:04:22.747</time></trkpt><trkpt lat="55.9109483" lon="49.2379983"><time>2023-06-03T09:04:24.737</time></trkpt><trkpt lat="55.9109383" lon="49.2381383"><time>2023-06-03T09:04:26.750</time></trkpt><trkpt lat="55.9109317" lon="49.2382650"><time>2023-06-03T09:04:28.743</time></trkpt><trkpt lat="55.9109283" lon="49.2383933"><time>2023-06-03T09:04:30.747</time></trkpt><trkpt lat="55.9109283" lon="49.2385283"><time>2023-06-03T09:04:32.750</time></trkpt><trkpt lat="55.9109167" lon="49.2386600"><time>2023-06-03T09:04:34.743</time></trkpt><trkpt lat="55.9109067" lon="49.2388067"><time>2023-06-03T09:04:36.743</time></trkpt><trkpt lat="55.9108933" lon="49.2389517"><time>2023-06-03T09:04:38.743</time></trkpt><trkpt lat="55.9108867" lon="49.2390867"><time>2023-06-03T09:04:40.740</time></trkpt><trkpt lat="55.9108983" lon="49.2392100"><time>2023-06-03T09:04:42.747</time></trkpt><trkpt lat="55.9109083" lon="49.2393467"><time>2023-06-03T09:04:44.753</time></trkpt><trkpt lat="55.9109117" lon="49.2394883"><time>2023-06-03T09:04:46.737</time></trkpt><trkpt lat="55.9109217" lon="49.2396067"><time>2023-06-03T09:04:48.743</time></trkpt><trkpt lat="55.9109533" lon="49.2397217"><time>2023-06-03T09:04:50.737</time></trkpt><trkpt lat="55.9109617" lon="49.2398533"><time>2023-06-03T09:04:52.750</time></trkpt><trkpt lat="55.9109667" lon="49.2399950"><time>2023-06-03T09:04:54.747</time></trkpt><trkpt lat="55.9109600" lon="49.2401267"><time>2023-06-03T09:04:56.707</time></trkpt><trkpt lat="55.9109617" lon="49.2402633"><time>2023-06-03T09:04:58.730</time></trkpt><trkpt lat="55.9109617" lon="49.2403967"><time>2023-06-03T09:05:00.727</time></trkpt><trkpt lat="55.9109467" lon="49.2405250"><time>2023-06-03T09:05:02.727</time></trkpt><trkpt lat="55.9109333" lon="49.2406500"><time>2023-06-03T09:05:04.743</time></trkpt><trkpt lat="55.9109217" lon="49.2407483"><time>2023-06-03T09:05:06.747</time></trkpt><trkpt lat="55.9108533" lon="49.2409500"><time>2023-06-03T09:05:42.747</time></trkpt><trkpt lat="55.9109067" lon="49.2409167"><time>2023-06-03T09:06:32.727</time></trkpt><trkpt lat="55.9109567" lon="49.2408700"><time>2023-06-03T09:06:34.727</time></trkpt><trkpt lat="55.9109983" lon="49.2407950"><time>2023-06-03T09:06:36.727</time></trkpt><trkpt lat="55.9110283" lon="49.2406833"><time>2023-06-03T09:06:38.747</time></trkpt><trkpt lat="55.9110450" lon="49.2405833"><time>2023-06-03T09:06:40.743</time></trkpt><trkpt lat="55.9110667" lon="49.2404950"><time>2023-06-03T09:06:42.753</time></trkpt><trkpt lat="55.9110883" lon="49.2404017"><time>2023-06-03T09:06:44.743</time></trkpt><trkpt lat="55.9111117" lon="49.2402867"><time>2023-06-03T09:06:46.743</time></trkpt><trkpt lat="55.9111350" lon="49.2401683"><time>2023-06-03T09:06:48.747</time></trkpt><trkpt lat="55.9111650" lon="49.2400533"><time>2023-06-03T09:06:50.740</time></trkpt><trkpt lat="55.9111800" lon="49.2399300"><time>2023-06-03T09:06:52.743</time></trkpt><trkpt lat="55.9111850" lon="49.2397950"><time>2023-06-03T09:06:54.750</time></trkpt><trkpt lat="55.9112233" lon="49.2396617"><time>2023-06-03T09:06:56.753</time></trkpt><trkpt lat="55.9112633" lon="49.2395333"><time>2023-06-03T09:06:58.743</time></trkpt><trkpt lat="55.9113200" lon="49.2394067"><time>2023-06-03T09:07:00.747</time></trkpt><trkpt lat="55.9113567" lon="49.2392700"><time>2023-06-03T09:07:02.753</time></trkpt><trkpt lat="55.9113867" lon="49.2391250"><time>2023-06-03T09:07:04.737</time></trkpt><trkpt lat="55.9114200" lon="49.2390067"><time>2023-06-03T09:07:06.747</time></trkpt><trkpt lat="55.9114400" lon="49.2389350"><time>2023-06-03T09:07:07.740</time></trkpt><trkpt lat="55.9114767" lon="49.2387917"><time>2023-06-03T09:07:09.723</time></trkpt><trkpt lat="55.9114950" lon="49.2386617"><time>2023-06-03T09:07:11.737</time></trkpt><trkpt lat="55.9115183" lon="49.2385467"><time>2023-06-03T09:07:13.727</time></trkpt><trkpt lat="55.9115550" lon="49.2384317"><time>2023-06-03T09:07:15.747</time></trkpt><trkpt lat="55.9115750" lon="49.2383017"><time>2023-06-03T09:07:17.737</time></trkpt><trkpt lat="55.9115883" lon="49.2381800"><time>2023-06-03T09:07:19.720</time></trkpt><trkpt lat="55.9116117" lon="49.2380917"><time>2023-06-03T09:07:21.743</time></trkpt><trkpt lat="55.9116567" lon="49.2380000"><time>2023-06-03T09:07:24.743</time></trkpt><trkpt lat="55.9117250" lon="49.2379233"><time>2023-06-03T09:07:26.743</time></trkpt><trkpt lat="55.9117867" lon="49.2378500"><time>2023-06-03T09:07:28.747</time></trkpt><trkpt lat="55.9118617" lon="49.2377667"><time>2023-06-03T09:07:30.747</time></trkpt><trkpt lat="55.9119317" lon="49.2376750"><time>2023-06-03T09:07:32.743</time></trkpt><trkpt lat="55.9119733" lon="49.2376300"><time>2023-06-03T09:07:33.737</time></trkpt><trkpt lat="55.9120117" lon="49.2375850"><time>2023-06-03T09:07:34.747</time></trkpt><trkpt lat="55.9120550" lon="49.2375467"><time>2023-06-03T09:07:35.743</time></trkpt><trkpt lat="55.9121033" lon="49.2375050"><time>2023-06-03T09:07:36.743</time></trkpt><trkpt lat="55.9121450" lon="49.2374700"><time>2023-06-03T09:07:37.740</time></trkpt><trkpt lat="55.9122167" lon="49.2374050"><time>2023-06-03T09:07:39.740</time></trkpt><trkpt lat="55.9122567" lon="49.2373667"><time>2023-06-03T09:07:40.747</time></trkpt><trkpt lat="55.9123183" lon="49.2372950"><time>2023-06-03T09:07:42.743</time></trkpt><trkpt lat="55.9124000" lon="49.2372050"><time>2023-06-03T09:07:44.753</time></trkpt><trkpt lat="55.9124417" lon="49.2371683"><time>2023-06-03T09:07:45.750</time></trkpt><trkpt lat="55.9124833" lon="49.2371200"><time>2023-06-03T09:07:46.747</time></trkpt><trkpt lat="55.9125233" lon="49.2370800"><time>2023-06-03T09:07:47.747</time></trkpt><trkpt lat="55.9125700" lon="49.2370450"><time>2023-06-03T09:07:48.747</time></trkpt><trkpt lat="55.9126483" lon="49.2370000"><time>2023-06-03T09:07:50.747</time></trkpt><trkpt lat="55.9127200" lon="49.2369900"><time>2023-06-03T09:07:52.747</time></trkpt><trkpt lat="55.9127933" lon="49.2369800"><time>2023-06-03T09:07:54.740</time></trkpt><trkpt lat="55.9128567" lon="49.2369800"><time>2023-06-03T09:07:56.740</time></trkpt><trkpt lat="55.9129233" lon="49.2369583"><time>2023-06-03T09:07:58.753</time></trkpt><trkpt lat="55.9129683" lon="49.2369367"><time>2023-06-03T09:07:59.747</time></trkpt><trkpt lat="55.9130317" lon="49.2368917"><time>2023-06-03T09:08:01.743</time></trkpt><trkpt lat="55.9130867" lon="49.2368550"><time>2023-06-03T09:08:03.740</time></trkpt><trkpt lat="55.9131383" lon="49.2368133"><time>2023-06-03T09:08:05.750</time></trkpt><trkpt lat="55.9131983" lon="49.2367633"><time>2023-06-03T09:08:07.713</time></trkpt><trkpt lat="55.9132467" lon="49.2367150"><time>2023-06-03T09:08:09.720</time></trkpt><trkpt lat="55.9133150" lon="49.2366733"><time>2023-06-03T09:08:11.727</time></trkpt><trkpt lat="55.9133833" lon="49.2366533"><time>2023-06-03T09:08:13.723</time></trkpt><trkpt lat="55.9134567" lon="49.2366550"><time>2023-06-03T09:08:15.743</time></trkpt><trkpt lat="55.9135200" lon="49.2366633"><time>2023-06-03T09:08:17.737</time></trkpt><trkpt lat="55.9135867" lon="49.2366717"><time>2023-06-03T09:08:19.743</time></trkpt><trkpt lat="55.9136567" lon="49.2366683"><time>2023-06-03T09:08:21.743</time></trkpt><trkpt lat="55.9137200" lon="49.2366683"><time>2023-06-03T09:08:23.743</time></trkpt><trkpt lat="55.9138050" lon="49.2366783"><time>2023-06-03T09:08:25.743</time></trkpt><trkpt lat="55.9138550" lon="49.2367067"><time>2023-06-03T09:08:26.747</time></trkpt><trkpt lat="55.9139067" lon="49.2367300"><time>2023-06-03T09:08:27.737</time></trkpt><trkpt lat="55.9139617" lon="49.2367567"><time>2023-06-03T09:08:28.737</time></trkpt><trkpt lat="55.9140183" lon="49.2367767"><time>2023-06-03T09:08:29.743</time></trkpt><trkpt lat="55.9140633" lon="49.2367983"><time>2023-06-03T09:08:30.750</time></trkpt><trkpt lat="55.9141400" lon="49.2368350"><time>2023-06-03T09:08:32.753</time></trkpt><trkpt lat="55.9141983" lon="49.2368550"><time>2023-06-03T09:08:34.740</time></trkpt><trkpt lat="55.9142617" lon="49.2368617"><time>2023-06-03T09:08:36.743</time></trkpt><trkpt lat="55.9143183" lon="49.2368500"><time>2023-06-03T09:08:38.737</time></trkpt><trkpt lat="55.9143733" lon="49.2368433"><time>2023-06-03T09:08:40.743</time></trkpt><trkpt lat="55.9144300" lon="49.2368383"><time>2023-06-03T09:08:42.737</time></trkpt><trkpt lat="55.9145083" lon="49.2368733"><time>2023-06-03T09:08:44.737</time></trkpt><trkpt lat="55.9145550" lon="49.2369100"><time>2023-06-03T09:08:45.737</time></trkpt><trkpt lat="55.9146000" lon="49.2369633"><time>2023-06-03T09:08:46.737</time></trkpt><trkpt lat="55.9146383" lon="49.2370283"><time>2023-06-03T09:08:47.740</time></trkpt><trkpt lat="55.9146833" lon="49.2370933"><time>2023-06-03T09:08:48.737</time></trkpt><trkpt lat="55.9147233" lon="49.2371550"><time>2023-06-03T09:08:49.737</time></trkpt><trkpt lat="55.9147567" lon="49.2372183"><time>2023-06-03T09:08:50.733</time></trkpt><trkpt lat="55.9147850" lon="49.2372917"><time>2023-06-03T09:08:51.760</time></trkpt><trkpt lat="55.9148250" lon="49.2374050"><time>2023-06-03T09:08:53.753</time></trkpt><trkpt lat="55.9148350" lon="49.2374517"><time>2023-06-03T09:08:54.743</time></trkpt><trkpt lat="55.9148317" lon="49.2375600"><time>2023-06-03T09:08:57.743</time></trkpt><trkpt lat="55.9147617" lon="49.2376883"><time>2023-06-03T09:09:41.737</time></trkpt><trkpt lat="55.9147083" lon="49.2376750"><time>2023-06-03T09:10:08.743</time></trkpt><trkpt lat="55.9146633" lon="49.2376817"><time>2023-06-03T09:10:12.757</time></trkpt><trkpt lat="55.9146150" lon="49.2376900"><time>2023-06-03T09:10:16.753</time></trkpt><trkpt lat="55.9145500" lon="49.2377033"><time>2023-06-03T09:10:24.733</time></trkpt><trkpt lat="55.9145500" lon="49.2377033"><time>2023-06-03T09:10:24.760</time></trkpt><trkpt lat="55.9146100" lon="49.2376850"><time>2023-06-03T09:10:35.760</time></trkpt><trkpt lat="55.9146217" lon="49.2376900"><time>2023-06-03T09:10:36.753</time></trkpt><trkpt lat="55.9147167" lon="49.2377217"><time>2023-06-03T09:11:14.740</time></trkpt><trkpt lat="55.9147417" lon="49.2376483"><time>2023-06-03T09:11:53.750</time></trkpt><trkpt lat="55.9147817" lon="49.2376067"><time>2023-06-03T09:11:57.747</time></trkpt><trkpt lat="55.9148267" lon="49.2376117"><time>2023-06-03T09:12:00.743</time></trkpt><trkpt lat="55.9148483" lon="49.2375317"><time>2023-06-03T09:12:04.747</time></trkpt><trkpt lat="55.9148283" lon="49.2374167"><time>2023-06-03T09:12:07.743</time></trkpt><trkpt lat="55.9147933" lon="49.2373383"><time>2023-06-03T09:12:09.733</time></trkpt><trkpt lat="55.9147583" lon="49.2372433"><time>2023-06-03T09:12:11.750</time></trkpt><trkpt lat="55.9147250" lon="49.2371533"><time>2023-06-03T09:12:13.737</time></trkpt><trkpt lat="55.9146817" lon="49.2370533"><time>2023-06-03T09:12:15.743</time></trkpt><trkpt lat="55.9146400" lon="49.2369583"><time>2023-06-03T09:12:17.740</time></trkpt><trkpt lat="55.9146017" lon="49.2368933"><time>2023-06-03T09:12:19.743</time></trkpt><trkpt lat="55.9145633" lon="49.2368467"><time>2023-06-03T09:12:22.740</time></trkpt><trkpt lat="55.9145183" lon="49.2368483"><time>2023-06-03T09:12:26.747</time></trkpt><trkpt lat="55.9144800" lon="49.2368933"><time>2023-06-03T09:12:29.743</time></trkpt><trkpt lat="55.9144233" lon="49.2369000"><time>2023-06-03T09:12:33.743</time></trkpt><trkpt lat="55.9143750" lon="49.2368900"><time>2023-06-03T09:12:36.747</time></trkpt><trkpt lat="55.9143017" lon="49.2368667"><time>2023-06-03T09:12:42.750</time></trkpt><trkpt lat="55.9141767" lon="49.2367950"><time>2023-06-03T09:12:51.743</time></trkpt><trkpt lat="55.9141283" lon="49.2367550"><time>2023-06-03T09:12:55.737</time></trkpt><trkpt lat="55.9140850" lon="49.2367300"><time>2023-06-03T09:12:59.753</time></trkpt><trkpt lat="55.9140383" lon="49.2367333"><time>2023-06-03T09:13:02.753</time></trkpt><trkpt lat="55.9139883" lon="49.2367150"><time>2023-06-03T09:13:04.727</time></trkpt><trkpt lat="55.9139333" lon="49.2367150"><time>2023-06-03T09:13:06.713</time></trkpt><trkpt lat="55.9138800" lon="49.2367250"><time>2023-06-03T09:13:08.753</time></trkpt><trkpt lat="55.9138283" lon="49.2367133"><time>2023-06-03T09:13:10.743</time></trkpt><trkpt lat="55.9137817" lon="49.2366983"><time>2023-06-03T09:13:12.743</time></trkpt><trkpt lat="55.9137267" lon="49.2366850"><time>2023-06-03T09:13:14.723</time></trkpt><trkpt lat="55.9136633" lon="49.2366683"><time>2023-06-03T09:13:17.743</time></trkpt><trkpt lat="55.9135967" lon="49.2366633"><time>2023-06-03T09:13:19.737</time></trkpt><trkpt lat="55.9135333" lon="49.2366750"><time>2023-06-03T09:13:21.737</time></trkpt><trkpt lat="55.9134783" lon="49.2366900"><time>2023-06-03T09:13:23.747</time></trkpt><trkpt lat="55.9134250" lon="49.2366983"><time>2023-06-03T09:13:25.743</time></trkpt><trkpt lat="55.9133767" lon="49.2367150"><time>2023-06-03T09:13:27.753</time></trkpt><trkpt lat="55.9133250" lon="49.2367767"><time>2023-06-03T09:13:30.743</time></trkpt><trkpt lat="55.9132667" lon="49.2368400"><time>2023-06-03T09:13:32.747</time></trkpt><trkpt lat="55.9132033" lon="49.2369100"><time>2023-06-03T09:13:34.737</time></trkpt><trkpt lat="55.9131400" lon="49.2369683"><time>2023-06-03T09:13:36.747</time></trkpt><trkpt lat="55.9130783" lon="49.2369883"><time>2023-06-03T09:13:38.737</time></trkpt><trkpt lat="55.9130100" lon="49.2369867"><time>2023-06-03T09:13:40.743</time></trkpt><trkpt lat="55.9129450" lon="49.2369817"><time>2023-06-03T09:13:42.750</time></trkpt><trkpt lat="55.9128750" lon="49.2369883"><time>2023-06-03T09:13:44.750</time></trkpt><trkpt lat="55.9128133" lon="49.2370283"><time>2023-06-03T09:13:46.740</time></trkpt><trkpt lat="55.9127683" lon="49.2370683"><time>2023-06-03T09:13:48.750</time></trkpt><trkpt lat="55.9127233" lon="49.2371183"><time>2023-06-03T09:13:50.747</time></trkpt><trkpt lat="55.9126750" lon="49.2371833"><time>2023-06-03T09:13:52.743</time></trkpt><trkpt lat="55.9126283" lon="49.2372483"><time>2023-06-03T09:13:54.747</time></trkpt><trkpt lat="55.9125733" lon="49.2373067"><time>2023-06-03T09:13:56.750</time></trkpt><trkpt lat="55.9125133" lon="49.2373583"><time>2023-06-03T09:13:58.740</time></trkpt><trkpt lat="55.9124567" lon="49.2374150"><time>2023-06-03T09:14:00.743</time></trkpt><trkpt lat="55.9123967" lon="49.2374600"><time>2023-06-03T09:14:02.743</time></trkpt><trkpt lat="55.9123450" lon="49.2375017"><time>2023-06-03T09:14:04.737</time></trkpt><trkpt lat="55.9122917" lon="49.2375600"><time>2023-06-03T09:14:06.747</time></trkpt><trkpt lat="55.9122317" lon="49.2376217"><time>2023-06-03T09:14:08.740</time></trkpt><trkpt lat="55.9121733" lon="49.2376767"><time>2023-06-03T09:14:10.747</time></trkpt><trkpt lat="55.9121300" lon="49.2377233"><time>2023-06-03T09:14:12.750</time></trkpt><trkpt lat="55.9120800" lon="49.2377650"><time>2023-06-03T09:14:14.740</time></trkpt><trkpt lat="55.9120383" lon="49.2378067"><time>2023-06-03T09:14:16.743</time></trkpt><trkpt lat="55.9119950" lon="49.2378433"><time>2023-06-03T09:14:18.743</time></trkpt><trkpt lat="55.9119617" lon="49.2379083"><time>2023-06-03T09:14:20.750</time></trkpt><trkpt lat="55.9119283" lon="49.2379883"><time>2023-06-03T09:14:22.743</time></trkpt><trkpt lat="55.9118967" lon="49.2380683"><time>2023-06-03T09:14:24.750</time></trkpt><trkpt lat="55.9118617" lon="49.2381567"><time>2023-06-03T09:14:26.747</time></trkpt><trkpt lat="55.9118267" lon="49.2382383"><time>2023-06-03T09:14:28.753</time></trkpt><trkpt lat="55.9118000" lon="49.2383350"><time>2023-06-03T09:14:30.743</time></trkpt><trkpt lat="55.9117700" lon="49.2384067"><time>2023-06-03T09:14:32.773</time></trkpt><trkpt lat="55.9117367" lon="49.2384833"><time>2023-06-03T09:14:34.737</time></trkpt><trkpt lat="55.9116967" lon="49.2385917"><time>2023-06-03T09:14:36.733</time></trkpt><trkpt lat="55.9116500" lon="49.2387050"><time>2023-06-03T09:14:38.713</time></trkpt><trkpt lat="55.9116133" lon="49.2388050"><time>2023-06-03T09:14:40.753</time></trkpt><trkpt lat="55.9115833" lon="49.2388983"><time>2023-06-03T09:14:42.747</time></trkpt><trkpt lat="55.9115517" lon="49.2389867"><time>2023-06-03T09:14:44.747</time></trkpt><trkpt lat="55.9115217" lon="49.2391017"><time>2023-06-03T09:14:46.740</time></trkpt><trkpt lat="55.9114883" lon="49.2392200"><time>2023-06-03T09:14:48.733</time></trkpt><trkpt lat="55.9114550" lon="49.2393267"><time>2023-06-03T09:14:50.710</time></trkpt><trkpt lat="55.9114233" lon="49.2394317"><time>2023-06-03T09:14:52.750</time></trkpt><trkpt lat="55.9113917" lon="49.2395333"><time>2023-06-03T09:14:54.743</time></trkpt><trkpt lat="55.9113650" lon="49.2396333"><time>2023-06-03T09:14:56.740</time></trkpt><trkpt lat="55.9113483" lon="49.2397167"><time>2023-06-03T09:14:58.727</time></trkpt><trkpt lat="55.9113350" lon="49.2398033"><time>2023-06-03T09:15:00.750</time></trkpt><trkpt lat="55.9113050" lon="49.2399000"><time>2023-06-03T09:15:02.750</time></trkpt><trkpt lat="55.9112833" lon="49.2400100"><time>2023-06-03T09:15:04.740</time></trkpt><trkpt lat="55.9112517" lon="49.2401183"><time>2023-06-03T09:15:06.743</time></trkpt><trkpt lat="55.9112200" lon="49.2402483"><time>2023-06-03T09:15:08.750</time></trkpt><trkpt lat="55.9111800" lon="49.2403617"><time>2023-06-03T09:15:10.743</time></trkpt><trkpt lat="55.9111383" lon="49.2404650"><time>2023-06-03T09:15:12.757</time></trkpt><trkpt lat="55.9111083" lon="49.2405467"><time>2023-06-03T09:15:14.743</time></trkpt><trkpt lat="55.9110717" lon="49.2406350"><time>2023-06-03T09:15:16.740</time></trkpt><trkpt lat="55.9110350" lon="49.2407583"><time>2023-06-03T09:15:18.740</time></trkpt><trkpt lat="55.9110050" lon="49.2408783"><time>2023-06-03T09:15:20.740</time></trkpt><trkpt lat="55.9109700" lon="49.2410050"><time>2023-06-03T09:15:22.740</time></trkpt><trkpt lat="55.9109383" lon="49.2411267"><time>2023-06-03T09:15:24.753</time></trkpt><trkpt lat="55.9109100" lon="49.2412500"><time>2023-06-03T09:15:26.743</time></trkpt><trkpt lat="55.9108783" lon="49.2413533"><time>2023-06-03T09:15:28.747</time></trkpt><trkpt lat="55.9108350" lon="49.2414567"><time>2023-06-03T09:15:30.747</time></trkpt><trkpt lat="55.9108000" lon="49.2415667"><time>2023-06-03T09:15:32.743</time></trkpt><trkpt lat="55.9107633" lon="49.2416683"><time>2023-06-03T09:15:34.753</time></trkpt><trkpt lat="55.9107367" lon="49.2417583"><time>2023-06-03T09:15:36.753</time></trkpt><trkpt lat="55.9107100" lon="49.2418433"><time>2023-06-03T09:15:38.757</time></trkpt><trkpt lat="55.9106950" lon="49.2419267"><time>2023-06-03T09:15:40.747</time></trkpt><trkpt lat="55.9106717" lon="49.2420050"><time>2023-06-03T09:15:42.750</time></trkpt><trkpt lat="55.9106333" lon="49.2420817"><time>2023-06-03T09:15:44.750</time></trkpt><trkpt lat="55.9105850" lon="49.2421717"><time>2023-06-03T09:15:46.753</time></trkpt><trkpt lat="55.9105467" lon="49.2422517"><time>2023-06-03T09:15:48.747</time></trkpt><trkpt lat="55.9105117" lon="49.2423250"><time>2023-06-03T09:15:51.747</time></trkpt><trkpt lat="55.9104500" lon="49.2424700"><time>2023-06-03T09:16:19.743</time></trkpt><trkpt lat="55.9104083" lon="49.2426383"><time>2023-06-03T09:16:42.750</time></trkpt><trkpt lat="55.9103683" lon="49.2427383"><time>2023-06-03T09:16:45.743</time></trkpt><trkpt lat="55.9103383" lon="49.2428317"><time>2023-06-03T09:16:47.757</time></trkpt><trkpt lat="55.9103000" lon="49.2429417"><time>2023-06-03T09:16:49.750</time></trkpt><trkpt lat="55.9102583" lon="49.2430683"><time>2023-06-03T09:16:51.747</time></trkpt><trkpt lat="55.9102217" lon="49.2431933"><time>2023-06-03T09:16:53.750</time></trkpt><trkpt lat="55.9101900" lon="49.2433133"><time>2023-06-03T09:16:55.750</time></trkpt><trkpt lat="55.9101417" lon="49.2434333"><time>2023-06-03T09:16:57.747</time></trkpt><trkpt lat="55.9100950" lon="49.2435500"><time>2023-06-03T09:16:59.750</time></trkpt><trkpt lat="55.9100467" lon="49.2436800"><time>2023-06-03T09:17:01.750</time></trkpt><trkpt lat="55.9100033" lon="49.2437350"><time>2023-06-03T09:17:02.757</time></trkpt><trkpt lat="55.9099600" lon="49.2437917"><time>2023-06-03T09:17:03.747</time></trkpt><trkpt lat="55.9099133" lon="49.2438483"><time>2023-06-03T09:17:04.743</time></trkpt><trkpt lat="55.9098667" lon="49.2439017"><time>2023-06-03T09:17:05.743</time></trkpt><trkpt lat="55.9098200" lon="49.2439467"><time>2023-06-03T09:17:06.743</time></trkpt><trkpt lat="55.9097767" lon="49.2439850"><time>2023-06-03T09:17:07.743</time></trkpt><trkpt lat="55.9096983" lon="49.2440633"><time>2023-06-03T09:17:09.743</time></trkpt><trkpt lat="55.9096533" lon="49.2440933"><time>2023-06-03T09:17:10.740</time></trkpt><trkpt lat="55.9096050" lon="49.2441117"><time>2023-06-03T09:17:11.737</time></trkpt><trkpt lat="55.9095617" lon="49.2441333"><time>2023-06-03T09:17:12.750</time></trkpt><trkpt lat="55.9094750" lon="49.2441850"><time>2023-06-03T09:17:14.747</time></trkpt><trkpt lat="55.9094000" lon="49.2442500"><time>2023-06-03T09:17:16.747</time></trkpt><trkpt lat="55.9093233" lon="49.2443033"><time>2023-06-03T09:17:18.743</time></trkpt><trkpt lat="55.9092667" lon="49.2443617"><time>2023-06-03T09:17:20.747</time></trkpt><trkpt lat="55.9091950" lon="49.2444333"><time>2023-06-03T09:17:22.750</time></trkpt><trkpt lat="55.9091183" lon="49.2445167"><time>2023-06-03T09:17:24.743</time></trkpt><trkpt lat="55.9090767" lon="49.2445567"><time>2023-06-03T09:17:25.740</time></trkpt><trkpt lat="55.9090317" lon="49.2445950"><time>2023-06-03T09:17:26.740</time></trkpt><trkpt lat="55.9089833" lon="49.2446267"><time>2023-06-03T09:17:27.743</time></trkpt><trkpt lat="55.9089317" lon="49.2446567"><time>2023-06-03T09:17:28.730</time></trkpt><trkpt lat="55.9088817" lon="49.2446933"><time>2023-06-03T09:17:29.740</time></trkpt><trkpt lat="55.9088400" lon="49.2447400"><time>2023-06-03T09:17:30.700</time></trkpt><trkpt lat="55.9088000" lon="49.2447883"><time>2023-06-03T09:17:31.713</time></trkpt><trkpt lat="55.9087617" lon="49.2448300"><time>2023-06-03T09:17:32.720</time></trkpt><trkpt lat="55.9087217" lon="49.2448717"><time>2023-06-03T09:17:33.720</time></trkpt><trkpt lat="55.9086767" lon="49.2449133"><time>2023-06-03T09:17:34.723</time></trkpt><trkpt lat="55.9086233" lon="49.2449550"><time>2023-06-03T09:17:35.727</time></trkpt><trkpt lat="55.9085667" lon="49.2449850"><time>2023-06-03T09:17:36.743</time></trkpt><trkpt lat="55.9085150" lon="49.2450250"><time>2023-06-03T09:17:37.743</time></trkpt><trkpt lat="55.9084600" lon="49.2450550"><time>2023-06-03T09:17:38.743</time></trkpt><trkpt lat="55.9084083" lon="49.2450900"><time>2023-06-03T09:17:39.743</time></trkpt><trkpt lat="55.9083600" lon="49.2451317"><time>2023-06-03T09:17:40.750</time></trkpt><trkpt lat="55.9083100" lon="49.2451683"><time>2023-06-03T09:17:41.763</time></trkpt><trkpt lat="55.9082550" lon="49.2451950"><time>2023-06-03T09:17:43.750</time></trkpt><trkpt lat="55.9082333" lon="49.2451233"><time>2023-06-03T09:17:48.747</time></trkpt><trkpt lat="55.9082000" lon="49.2450533"><time>2023-06-03T09:17:50.747</time></trkpt><trkpt lat="55.9081750" lon="49.2449483"><time>2023-06-03T09:17:53.750</time></trkpt><trkpt lat="55.9081467" lon="49.2448717"><time>2023-06-03T09:17:56.753</time></trkpt><trkpt lat="55.9081300" lon="49.2447800"><time>2023-06-03T09:18:02.763</time></trkpt><trkpt lat="55.9080950" lon="49.2447017"><time>2023-06-03T09:18:05.750</time></trkpt><trkpt lat="55.9080683" lon="49.2446083"><time>2023-06-03T09:18:09.747</time></trkpt><trkpt lat="55.9080333" lon="49.2445333"><time>2023-06-03T09:18:13.747</time></trkpt><trkpt lat="55.9080167" lon="49.2444567"><time>2023-06-03T09:18:16.747</time></trkpt><trkpt lat="55.9079850" lon="49.2443750"><time>2023-06-03T09:18:19.753</time></trkpt><trkpt lat="55.9079683" lon="49.2442817"><time>2023-06-03T09:18:22.750</time></trkpt><trkpt lat="55.9079600" lon="49.2441733"><time>2023-06-03T09:18:25.747</time></trkpt><trkpt lat="55.9078717" lon="49.2440500"><time>2023-06-03T09:18:37.753</time></trkpt><trkpt lat="55.9078650" lon="49.2440433"><time>2023-06-03T09:18:38.723</time></trkpt><trkpt lat="55.9077933" lon="49.2439933"><time>2023-06-03T09:18:47.707</time></trkpt><trkpt lat="55.9076600" lon="49.2439950"><time>2023-06-03T09:18:59.747</time></trkpt><trkpt lat="55.9076067" lon="49.2439600"><time>2023-06-03T09:19:03.747</time></trkpt><trkpt lat="55.9075433" lon="49.2439433"><time>2023-06-03T09:19:06.747</time></trkpt><trkpt lat="55.9074883" lon="49.2439417"><time>2023-06-03T09:19:08.743</time></trkpt><trkpt lat="55.9074300" lon="49.2439350"><time>2023-06-03T09:19:10.737</time></trkpt><trkpt lat="55.9073683" lon="49.2439333"><time>2023-06-03T09:19:12.757</time></trkpt><trkpt lat="55.9073133" lon="49.2439217"><time>2023-06-03T09:19:16.723</time></trkpt><trkpt lat="55.9072733" lon="49.2438567"><time>2023-06-03T09:19:18.747</time></trkpt><trkpt lat="55.9072300" lon="49.2437900"><time>2023-06-03T09:19:20.753</time></trkpt><trkpt lat="55.9071933" lon="49.2437200"><time>2023-06-03T09:19:22.747</time></trkpt><trkpt lat="55.9071700" lon="49.2436517"><time>2023-06-03T09:19:24.767</time></trkpt><trkpt lat="55.9071233" lon="49.2435700"><time>2023-06-03T09:19:27.727</time></trkpt><trkpt lat="55.9070833" lon="49.2435000"><time>2023-06-03T09:19:29.730</time></trkpt><trkpt lat="55.9070500" lon="49.2434267"><time>2023-06-03T09:19:31.747</time></trkpt><trkpt lat="55.9070233" lon="49.2433433"><time>2023-06-03T09:19:34.743</time></trkpt><trkpt lat="55.9069900" lon="49.2432617"><time>2023-06-03T09:19:37.750</time></trkpt><trkpt lat="55.9069767" lon="49.2432367"><time>2023-06-03T09:19:38.747</time></trkpt><trkpt lat="55.9069500" lon="49.2431600"><time>2023-06-03T09:19:41.750</time></trkpt><trkpt lat="55.9069233" lon="49.2430833"><time>2023-06-03T09:19:44.750</time></trkpt><trkpt lat="55.9068967" lon="49.2430167"><time>2023-06-03T09:19:47.743</time></trkpt><trkpt lat="55.9068483" lon="49.2429267"><time>2023-06-03T09:19:52.747</time></trkpt><trkpt lat="55.9068150" lon="49.2428433"><time>2023-06-03T09:19:55.743</time></trkpt><trkpt lat="55.9067917" lon="49.2427617"><time>2023-06-03T09:19:58.747</time></trkpt><trkpt lat="55.9067600" lon="49.2426733"><time>2023-06-03T09:20:01.727</time></trkpt><trkpt lat="55.9067267" lon="49.2425867"><time>2023-06-03T09:20:04.763</time></trkpt><trkpt lat="55.9067217" lon="49.2425683"><time>2023-06-03T09:20:05.740</time></trkpt><trkpt lat="55.9066750" lon="49.2424317"><time>2023-06-03T09:20:13.753</time></trkpt><trkpt lat="55.9066450" lon="49.2423533"><time>2023-06-03T09:20:16.750</time></trkpt><trkpt lat="55.9066033" lon="49.2422667"><time>2023-06-03T09:20:19.757</time></trkpt><trkpt lat="55.9065650" lon="49.2421933"><time>2023-06-03T09:20:22.753</time></trkpt><trkpt lat="55.9065650" lon="49.2421933"><time>2023-06-03T09:20:22.780</time></trkpt><trkpt lat="55.9064850" lon="49.2420250"><time>2023-06-03T09:21:42.750</time></trkpt><trkpt lat="55.9064833" lon="49.2420217"><time>2023-06-03T09:21:43.747</time></trkpt><trkpt lat="55.9065767" lon="49.2421217"><time>2023-06-03T09:21:55.747</time></trkpt><trkpt lat="55.9065883" lon="49.2422000"><time>2023-06-03T09:22:15.743</time></trkpt><trkpt lat="55.9066300" lon="49.2422850"><time>2023-06-03T09:22:18.747</time></trkpt><trkpt lat="55.9066683" lon="49.2423750"><time>2023-06-03T09:22:21.747</time></trkpt><trkpt lat="55.9067000" lon="49.2424583"><time>2023-06-03T09:22:24.730</time></trkpt><trkpt lat="55.9067333" lon="49.2425367"><time>2023-06-03T09:22:27.747</time></trkpt><trkpt lat="55.9067667" lon="49.2426100"><time>2023-06-03T09:22:30.750</time></trkpt><trkpt lat="55.9068067" lon="49.2426867"><time>2023-06-03T09:22:33.747</time></trkpt><trkpt lat="55.9068450" lon="49.2427650"><time>2023-06-03T09:22:36.757</time></trkpt><trkpt lat="55.9068900" lon="49.2428550"><time>2023-06-03T09:22:39.747</time></trkpt><trkpt lat="55.9069133" lon="49.2429417"><time>2023-06-03T09:22:42.743</time></trkpt><trkpt lat="55.9069333" lon="49.2430433"><time>2023-06-03T09:22:45.747</time></trkpt><trkpt lat="55.9069550" lon="49.2431467"><time>2023-06-03T09:22:48.743</time></trkpt><trkpt lat="55.9069983" lon="49.2432267"><time>2023-06-03T09:22:51.747</time></trkpt><trkpt lat="55.9070333" lon="49.2433167"><time>2023-06-03T09:22:54.727</time></trkpt><trkpt lat="55.9070650" lon="49.2433983"><time>2023-06-03T09:22:57.727</time></trkpt><trkpt lat="55.9070950" lon="49.2434917"><time>2023-06-03T09:23:00.733</time></trkpt><trkpt lat="55.9071250" lon="49.2435883"><time>2023-06-03T09:23:03.733</time></trkpt><trkpt lat="55.9071700" lon="49.2436650"><time>2023-06-03T09:23:06.733</time></trkpt><trkpt lat="55.9072000" lon="49.2437317"><time>2023-06-03T09:23:09.730</time></trkpt><trkpt lat="55.9072333" lon="49.2438167"><time>2023-06-03T09:23:12.753</time></trkpt><trkpt lat="55.9072767" lon="49.2438500"><time>2023-06-03T09:23:15.737</time></trkpt><trkpt lat="55.9073233" lon="49.2438883"><time>2023-06-03T09:23:20.753</time></trkpt><trkpt lat="55.9073800" lon="49.2439217"><time>2023-06-03T09:23:24.753</time></trkpt><trkpt lat="55.9074350" lon="49.2439450"><time>2023-06-03T09:23:27.757</time></trkpt><trkpt lat="55.9074800" lon="49.2439483"><time>2023-06-03T09:23:30.747</time></trkpt><trkpt lat="55.9075317" lon="49.2439617"><time>2023-06-03T09:23:34.750</time></trkpt><trkpt lat="55.9075833" lon="49.2439900"><time>2023-06-03T09:23:37.747</time></trkpt><trkpt lat="55.9076383" lon="49.2439900"><time>2023-06-03T09:23:41.753</time></trkpt><trkpt lat="55.9076917" lon="49.2440083"><time>2023-06-03T09:23:45.740</time></trkpt><trkpt lat="55.9077683" lon="49.2440467"><time>2023-06-03T09:23:50.707</time></trkpt><trkpt lat="55.9078167" lon="49.2440933"><time>2023-06-03T09:23:53.727</time></trkpt><trkpt lat="55.9078600" lon="49.2441800"><time>2023-06-03T09:23:56.727</time></trkpt><trkpt lat="55.9078900" lon="49.2442450"><time>2023-06-03T09:23:58.747</time></trkpt><trkpt lat="55.9079267" lon="49.2443183"><time>2023-06-03T09:24:01.747</time></trkpt><trkpt lat="55.9079750" lon="49.2443933"><time>2023-06-03T09:24:04.750</time></trkpt><trkpt lat="55.9080133" lon="49.2444817"><time>2023-06-03T09:24:07.753</time></trkpt><trkpt lat="55.9080483" lon="49.2445500"><time>2023-06-03T09:24:10.740</time></trkpt><trkpt lat="55.9080767" lon="49.2446783"><time>2023-06-03T09:24:15.747</time></trkpt><trkpt lat="55.9080983" lon="49.2447750"><time>2023-06-03T09:24:19.743</time></trkpt><trkpt lat="55.9081200" lon="49.2448567"><time>2023-06-03T09:24:23.743</time></trkpt><trkpt lat="55.9081933" lon="49.2449433"><time>2023-06-03T09:24:30.743</time></trkpt><trkpt lat="55.9082533" lon="49.2449317"><time>2023-06-03T09:24:32.747</time></trkpt><trkpt lat="55.9083000" lon="49.2449117"><time>2023-06-03T09:24:34.743</time></trkpt><trkpt lat="55.9083517" lon="49.2448750"><time>2023-06-03T09:24:36.753</time></trkpt><trkpt lat="55.9084100" lon="49.2448267"><time>2023-06-03T09:24:38.753</time></trkpt><trkpt lat="55.9084633" lon="49.2447950"><time>2023-06-03T09:24:40.747</time></trkpt><trkpt lat="55.9085133" lon="49.2447517"><time>2023-06-03T09:24:42.763</time></trkpt><trkpt lat="55.9085683" lon="49.2447267"><time>2023-06-03T09:24:44.750</time></trkpt><trkpt lat="55.9086300" lon="49.2446983"><time>2023-06-03T09:24:46.747</time></trkpt><trkpt lat="55.9086817" lon="49.2446500"><time>2023-06-03T09:24:48.747</time></trkpt><trkpt lat="55.9087367" lon="49.2446167"><time>2023-06-03T09:24:51.750</time></trkpt><trkpt lat="55.9087867" lon="49.2445833"><time>2023-06-03T09:24:53.747</time></trkpt><trkpt lat="55.9088400" lon="49.2445567"><time>2023-06-03T09:24:57.747</time></trkpt><trkpt lat="55.9089367" lon="49.2444950"><time>2023-06-03T09:25:05.753</time></trkpt><trkpt lat="55.9089900" lon="49.2444517"><time>2023-06-03T09:25:08.760</time></trkpt><trkpt lat="55.9090450" lon="49.2444217"><time>2023-06-03T09:25:10.750</time></trkpt><trkpt lat="55.9091033" lon="49.2443850"><time>2023-06-03T09:25:12.747</time></trkpt><trkpt lat="55.9091633" lon="49.2443450"><time>2023-06-03T09:25:14.743</time></trkpt><trkpt lat="55.9092233" lon="49.2443117"><time>2023-06-03T09:25:16.757</time></trkpt><trkpt lat="55.9092850" lon="49.2442833"><time>2023-06-03T09:25:18.747</time></trkpt><trkpt lat="55.9093383" lon="49.2442583"><time>2023-06-03T09:25:20.757</time></trkpt><trkpt lat="55.9094050" lon="49.2442133"><time>2023-06-03T09:25:22.750</time></trkpt><trkpt lat="55.9094750" lon="49.2441633"><time>2023-06-03T09:25:24.737</time></trkpt><trkpt lat="55.9095417" lon="49.2441100"><time>2023-06-03T09:25:26.753</time></trkpt><trkpt lat="55.9095983" lon="49.2440683"><time>2023-06-03T09:25:28.747</time></trkpt><trkpt lat="55.9096533" lon="49.2440050"><time>2023-06-03T09:25:31.730</time></trkpt><trkpt lat="55.9096950" lon="49.2439750"><time>2023-06-03T09:25:33.727</time></trkpt><trkpt lat="55.9097367" lon="49.2439183"><time>2023-06-03T09:25:36.757</time></trkpt><trkpt lat="55.9097633" lon="49.2438417"><time>2023-06-03T09:25:39.750</time></trkpt><trkpt lat="55.9097917" lon="49.2437533"><time>2023-06-03T09:25:42.753</time></trkpt><trkpt lat="55.9098400" lon="49.2436700"><time>2023-06-03T09:25:44.743</time></trkpt><trkpt lat="55.9098867" lon="49.2435800"><time>2023-06-03T09:25:46.740</time></trkpt><trkpt lat="55.9099350" lon="49.2434733"><time>2023-06-03T09:25:48.743</time></trkpt><trkpt lat="55.9099900" lon="49.2433633"><time>2023-06-03T09:25:50.747</time></trkpt><trkpt lat="55.9100267" lon="49.2432967"><time>2023-06-03T09:25:51.747</time></trkpt><trkpt lat="55.9100517" lon="49.2432300"><time>2023-06-03T09:25:52.743</time></trkpt><trkpt lat="55.9101050" lon="49.2431083"><time>2023-06-03T09:25:54.730</time></trkpt><trkpt lat="55.9101383" lon="49.2430500"><time>2023-06-03T09:25:55.750</time></trkpt><trkpt lat="55.9102050" lon="49.2429567"><time>2023-06-03T09:25:57.757</time></trkpt><trkpt lat="55.9102633" lon="49.2428650"><time>2023-06-03T09:25:59.730</time></trkpt><trkpt lat="55.9103083" lon="49.2427650"><time>2023-06-03T09:26:01.730</time></trkpt><trkpt lat="55.9103483" lon="49.2426617"><time>2023-06-03T09:26:03.727</time></trkpt><trkpt lat="55.9103900" lon="49.2425433"><time>2023-06-03T09:26:05.747</time></trkpt><trkpt lat="55.9104367" lon="49.2424183"><time>2023-06-03T09:26:07.730</time></trkpt><trkpt lat="55.9104833" lon="49.2423000"><time>2023-06-03T09:26:09.730</time></trkpt><trkpt lat="55.9105317" lon="49.2421867"><time>2023-06-03T09:26:11.743</time></trkpt><trkpt lat="55.9105867" lon="49.2420833"><time>2023-06-03T09:26:13.753</time></trkpt><trkpt lat="55.9106350" lon="49.2419733"><time>2023-06-03T09:26:15.757</time></trkpt><trkpt lat="55.9106617" lon="49.2419083"><time>2023-06-03T09:26:16.747</time></trkpt><trkpt lat="55.9106900" lon="49.2418367"><time>2023-06-03T09:26:17.743</time></trkpt><trkpt lat="55.9107167" lon="49.2417650"><time>2023-06-03T09:26:18.747</time></trkpt><trkpt lat="55.9107433" lon="49.2416950"><time>2023-06-03T09:26:19.747</time></trkpt><trkpt lat="55.9107900" lon="49.2415583"><time>2023-06-03T09:26:21.743</time></trkpt><trkpt lat="55.9108167" lon="49.2414867"><time>2023-06-03T09:26:22.743</time></trkpt><trkpt lat="55.9108433" lon="49.2414133"><time>2023-06-03T09:26:23.743</time></trkpt><trkpt lat="55.9108683" lon="49.2413417"><time>2023-06-03T09:26:24.743</time></trkpt><trkpt lat="55.9108850" lon="49.2412667"><time>2023-06-03T09:26:25.740</time></trkpt><trkpt lat="55.9109017" lon="49.2411883"><time>2023-06-03T09:26:26.733</time></trkpt><trkpt lat="55.9109183" lon="49.2411050"><time>2023-06-03T09:26:27.730</time></trkpt><trkpt lat="55.9109300" lon="49.2410217"><time>2023-06-03T09:26:28.727</time></trkpt><trkpt lat="55.9109483" lon="49.2408617"><time>2023-06-03T09:26:30.747</time></trkpt><trkpt lat="55.9109483" lon="49.2407767"><time>2023-06-03T09:26:31.743</time></trkpt><trkpt lat="55.9109483" lon="49.2406950"><time>2023-06-03T09:26:32.743</time></trkpt><trkpt lat="55.9109500" lon="49.2405350"><time>2023-06-03T09:26:34.750</time></trkpt><trkpt lat="55.9109483" lon="49.2404450"><time>2023-06-03T09:26:35.760</time></trkpt><trkpt lat="55.9109517" lon="49.2403567"><time>2023-06-03T09:26:36.750</time></trkpt><trkpt lat="55.9109517" lon="49.2402767"><time>2023-06-03T09:26:37.747</time></trkpt><trkpt lat="55.9109517" lon="49.2401400"><time>2023-06-03T09:26:39.737</time></trkpt><trkpt lat="55.9109433" lon="49.2400000"><time>2023-06-03T09:26:41.747</time></trkpt><trkpt lat="55.9109383" lon="49.2398467"><time>2023-06-03T09:26:43.743</time></trkpt><trkpt lat="55.9109217" lon="49.2397133"><time>2023-06-03T09:26:45.747</time></trkpt><trkpt lat="55.9109133" lon="49.2395800"><time>2023-06-03T09:26:47.737</time></trkpt><trkpt lat="55.9109167" lon="49.2394317"><time>2023-06-03T09:26:49.720</time></trkpt><trkpt lat="55.9109150" lon="49.2393517"><time>2023-06-03T09:26:50.723</time></trkpt><trkpt lat="55.9109133" lon="49.2392717"><time>2023-06-03T09:26:51.733</time></trkpt><trkpt lat="55.9109100" lon="49.2391883"><time>2023-06-03T09:26:52.727</time></trkpt><trkpt lat="55.9109117" lon="49.2390400"><time>2023-06-03T09:26:54.733</time></trkpt><trkpt lat="55.9109100" lon="49.2388733"><time>2023-06-03T09:26:56.730</time></trkpt><trkpt lat="55.9109117" lon="49.2387850"><time>2023-06-03T09:26:57.757</time></trkpt><trkpt lat="55.9109200" lon="49.2387050"><time>2023-06-03T09:26:58.747</time></trkpt><trkpt lat="55.9109267" lon="49.2386233"><time>2023-06-03T09:26:59.737</time></trkpt><trkpt lat="55.9109417" lon="49.2384733"><time>2023-06-03T09:27:01.747</time></trkpt><trkpt lat="55.9109467" lon="49.2383917"><time>2023-06-03T09:27:02.743</time></trkpt><trkpt lat="55.9109533" lon="49.2383100"><time>2023-06-03T09:27:03.743</time></trkpt><trkpt lat="55.9109700" lon="49.2382333"><time>2023-06-03T09:27:04.740</time></trkpt><trkpt lat="55.9109833" lon="49.2381483"><time>2023-06-03T09:27:05.737</time></trkpt><trkpt lat="55.9109967" lon="49.2380700"><time>2023-06-03T09:27:06.737</time></trkpt><trkpt lat="55.9110050" lon="49.2379867"><time>2023-06-03T09:27:07.737</time></trkpt><trkpt lat="55.9110150" lon="49.2379033"><time>2023-06-03T09:27:08.740</time></trkpt><trkpt lat="55.9110233" lon="49.2378200"><time>2023-06-03T09:27:09.740</time></trkpt><trkpt lat="55.9110417" lon="49.2377433"><time>2023-06-03T09:27:10.737</time></trkpt><trkpt lat="55.9110667" lon="49.2376050"><time>2023-06-03T09:27:12.740</time></trkpt><trkpt lat="55.9110933" lon="49.2374533"><time>2023-06-03T09:27:14.733</time></trkpt><trkpt lat="55.9111100" lon="49.2373700"><time>2023-06-03T09:27:15.743</time></trkpt><trkpt lat="55.9111217" lon="49.2372850"><time>2023-06-03T09:27:16.740</time></trkpt><trkpt lat="55.9111300" lon="49.2372000"><time>2023-06-03T09:27:17.747</time></trkpt><trkpt lat="55.9111483" lon="49.2371183"><time>2023-06-03T09:27:18.747</time></trkpt><trkpt lat="55.9111633" lon="49.2370367"><time>2023-06-03T09:27:19.747</time></trkpt><trkpt lat="55.9111833" lon="49.2369483"><time>2023-06-03T09:27:20.747</time></trkpt><trkpt lat="55.9112000" lon="49.2368500"><time>2023-06-03T09:27:21.740</time></trkpt><trkpt lat="55.9112233" lon="49.2367617"><time>2023-06-03T09:27:22.740</time></trkpt><trkpt lat="55.9112383" lon="49.2366833"><time>2023-06-03T09:27:23.747</time></trkpt><trkpt lat="55.9112567" lon="49.2366100"><time>2023-06-03T09:27:24.750</time></trkpt><trkpt lat="55.9112933" lon="49.2364583"><time>2023-06-03T09:27:26.763</time></trkpt><trkpt lat="55.9113067" lon="49.2363767"><time>2023-06-03T09:27:27.743</time></trkpt><trkpt lat="55.9113167" lon="49.2362917"><time>2023-06-03T09:27:28.743</time></trkpt><trkpt lat="55.9113417" lon="49.2361333"><time>2023-06-03T09:27:30.743</time></trkpt><trkpt lat="55.9113500" lon="49.2360533"><time>2023-06-03T09:27:31.750</time></trkpt><trkpt lat="55.9113583" lon="49.2359667"><time>2023-06-03T09:27:32.750</time></trkpt><trkpt lat="55.9113717" lon="49.2358800"><time>2023-06-03T09:27:33.743</time></trkpt><trkpt lat="55.9113850" lon="49.2358033"><time>2023-06-03T09:27:34.747</time></trkpt><trkpt lat="55.9114150" lon="49.2356517"><time>2023-06-03T09:27:36.743</time></trkpt><trkpt lat="55.9114300" lon="49.2355683"><time>2023-06-03T09:27:37.740</time></trkpt><trkpt lat="55.9114433" lon="49.2354833"><time>2023-06-03T09:27:38.743</time></trkpt><trkpt lat="55.9114550" lon="49.2354033"><time>2023-06-03T09:27:39.750</time></trkpt><trkpt lat="55.9114750" lon="49.2352583"><time>2023-06-03T09:27:41.750</time></trkpt><trkpt lat="55.9114883" lon="49.2351167"><time>2023-06-03T09:27:43.743</time></trkpt><trkpt lat="55.9115100" lon="49.2349617"><time>2023-06-03T09:27:45.743</time></trkpt><trkpt lat="55.9115300" lon="49.2348817"><time>2023-06-03T09:27:46.743</time></trkpt><trkpt lat="55.9115500" lon="49.2348050"><time>2023-06-03T09:27:47.740</time></trkpt><trkpt lat="55.9115850" lon="49.2346517"><time>2023-06-03T09:27:49.750</time></trkpt><trkpt lat="55.9116017" lon="49.2345633"><time>2023-06-03T09:27:50.743</time></trkpt><trkpt lat="55.9116100" lon="49.2344817"><time>2023-06-03T09:27:51.767</time></trkpt><trkpt lat="55.9116317" lon="49.2343233"><time>2023-06-03T09:27:53.717</time></trkpt><trkpt lat="55.9116517" lon="49.2342417"><time>2023-06-03T09:27:54.727</time></trkpt><trkpt lat="55.9116667" lon="49.2341600"><time>2023-06-03T09:27:55.750</time></trkpt><trkpt lat="55.9116783" lon="49.2340783"><time>2023-06-03T09:27:56.753</time></trkpt><trkpt lat="55.9116933" lon="49.2340000"><time>2023-06-03T09:27:57.750</time></trkpt><trkpt lat="55.9117233" lon="49.2338650"><time>2023-06-03T09:27:59.747</time></trkpt><trkpt lat="55.9117417" lon="49.2337817"><time>2023-06-03T09:28:00.747</time></trkpt><trkpt lat="55.9117533" lon="49.2337017"><time>2023-06-03T09:28:01.743</time></trkpt><trkpt lat="55.9117800" lon="49.2335600"><time>2023-06-03T09:28:03.747</time></trkpt><trkpt lat="55.9118067" lon="49.2334100"><time>2023-06-03T09:28:05.747</time></trkpt><trkpt lat="55.9118333" lon="49.2332583"><time>2023-06-03T09:28:07.750</time></trkpt><trkpt lat="55.9118450" lon="49.2331800"><time>2023-06-03T09:28:08.757</time></trkpt><trkpt lat="55.9118750" lon="49.2330417"><time>2023-06-03T09:28:10.747</time></trkpt><trkpt lat="55.9119067" lon="49.2328983"><time>2023-06-03T09:28:12.757</time></trkpt><trkpt lat="55.9119367" lon="49.2327483"><time>2023-06-03T09:28:14.753</time></trkpt><trkpt lat="55.9119667" lon="49.2326017"><time>2023-06-03T09:28:16.743</time></trkpt><trkpt lat="55.9119900" lon="49.2324617"><time>2023-06-03T09:28:18.743</time></trkpt><trkpt lat="55.9120167" lon="49.2323117"><time>2023-06-03T09:28:20.753</time></trkpt><trkpt lat="55.9120267" lon="49.2322300"><time>2023-06-03T09:28:21.747</time></trkpt><trkpt lat="55.9120417" lon="49.2320817"><time>2023-06-03T09:28:23.743</time></trkpt><trkpt lat="55.9120617" lon="49.2319417"><time>2023-06-03T09:28:25.747</time></trkpt><trkpt lat="55.9120950" lon="49.2317900"><time>2023-06-03T09:28:27.727</time></trkpt><trkpt lat="55.9121133" lon="49.2317117"><time>2023-06-03T09:28:28.747</time></trkpt><trkpt lat="55.9121367" lon="49.2315583"><time>2023-06-03T09:28:30.747</time></trkpt><trkpt lat="55.9121600" lon="49.2314100"><time>2023-06-03T09:28:32.757</time></trkpt><trkpt lat="55.9121867" lon="49.2312650"><time>2023-06-03T09:28:34.750</time></trkpt><trkpt lat="55.9122200" lon="49.2311183"><time>2023-06-03T09:28:36.750</time></trkpt><trkpt lat="55.9122417" lon="49.2309717"><time>2023-06-03T09:28:38.733</time></trkpt><trkpt lat="55.9122700" lon="49.2308283"><time>2023-06-03T09:28:40.763</time></trkpt><trkpt lat="55.9122817" lon="49.2307467"><time>2023-06-03T09:28:41.750</time></trkpt><trkpt lat="55.9122833" lon="49.2306650"><time>2023-06-03T09:28:42.747</time></trkpt><trkpt lat="55.9122900" lon="49.2305117"><time>2023-06-03T09:28:44.753</time></trkpt><trkpt lat="55.9122967" lon="49.2303733"><time>2023-06-03T09:28:46.747</time></trkpt><trkpt lat="55.9122750" lon="49.2302217"><time>2023-06-03T09:28:48.753</time></trkpt><trkpt lat="55.9122250" lon="49.2301117"><time>2023-06-03T09:28:50.747</time></trkpt><trkpt lat="55.9121650" lon="49.2300417"><time>2023-06-03T09:28:52.740</time></trkpt><trkpt lat="55.9121150" lon="49.2299817"><time>2023-06-03T09:28:54.747</time></trkpt><trkpt lat="55.9120717" lon="49.2298567"><time>2023-06-03T09:28:56.753</time></trkpt><trkpt lat="55.9120283" lon="49.2297767"><time>2023-06-03T09:28:58.743</time></trkpt><trkpt lat="55.9119917" lon="49.2296717"><time>2023-06-03T09:29:00.727</time></trkpt><trkpt lat="55.9119533" lon="49.2295317"><time>2023-06-03T09:29:02.757</time></trkpt><trkpt lat="55.9119383" lon="49.2294533"><time>2023-06-03T09:29:03.750</time></trkpt><trkpt lat="55.9119150" lon="49.2293017"><time>2023-06-03T09:29:05.750</time></trkpt><trkpt lat="55.9119033" lon="49.2292183"><time>2023-06-03T09:29:06.730</time></trkpt><trkpt lat="55.9119000" lon="49.2291267"><time>2023-06-03T09:29:07.730</time></trkpt><trkpt lat="55.9118967" lon="49.2290433"><time>2023-06-03T09:29:08.707</time></trkpt><trkpt lat="55.9118917" lon="49.2289583"><time>2023-06-03T09:29:09.727</time></trkpt><trkpt lat="55.9118833" lon="49.2288733"><time>2023-06-03T09:29:10.700</time></trkpt><trkpt lat="55.9118800" lon="49.2287817"><time>2023-06-03T09:29:11.697</time></trkpt><trkpt lat="55.9118750" lon="49.2286917"><time>2023-06-03T09:29:12.700</time></trkpt><trkpt lat="55.9118667" lon="49.2286083"><time>2023-06-03T09:29:13.717</time></trkpt><trkpt lat="55.9118583" lon="49.2285250"><time>2023-06-03T09:29:14.700</time></trkpt><trkpt lat="55.9118500" lon="49.2284433"><time>2023-06-03T09:29:15.723</time></trkpt><trkpt lat="55.9118417" lon="49.2283450"><time>2023-06-03T09:29:16.720</time></trkpt><trkpt lat="55.9118350" lon="49.2282533"><time>2023-06-03T09:29:17.713</time></trkpt><trkpt lat="55.9118233" lon="49.2281650"><time>2023-06-03T09:29:18.727</time></trkpt><trkpt lat="55.9118133" lon="49.2280867"><time>2023-06-03T09:29:19.730</time></trkpt><trkpt lat="55.9117850" lon="49.2279433"><time>2023-06-03T09:29:21.720</time></trkpt><trkpt lat="55.9117517" lon="49.2278133"><time>2023-06-03T09:29:23.727</time></trkpt><trkpt lat="55.9117333" lon="49.2277167"><time>2023-06-03T09:29:25.747</time></trkpt><trkpt lat="55.9117117" lon="49.2276433"><time>2023-06-03T09:29:29.743</time></trkpt><trkpt lat="55.9117400" lon="49.2274983"><time>2023-06-03T09:30:02.747</time></trkpt><trkpt lat="55.9117067" lon="49.2273967"><time>2023-06-03T09:30:04.727</time></trkpt><trkpt lat="55.9116733" lon="49.2273033"><time>2023-06-03T09:30:06.753</time></trkpt><trkpt lat="55.9116433" lon="49.2272000"><time>2023-06-03T09:30:08.733</time></trkpt><trkpt lat="55.9116117" lon="49.2271017"><time>2023-06-03T09:30:10.757</time></trkpt><trkpt lat="55.9115800" lon="49.2269850"><time>2023-06-03T09:30:12.743</time></trkpt><trkpt lat="55.9115417" lon="49.2268650"><time>2023-06-03T09:30:14.753</time></trkpt><trkpt lat="55.9115100" lon="49.2267300"><time>2023-06-03T09:30:16.750</time></trkpt><trkpt lat="55.9114733" lon="49.2266033"><time>2023-06-03T09:30:18.757</time></trkpt><trkpt lat="55.9114383" lon="49.2264883"><time>2023-06-03T09:30:20.757</time></trkpt><trkpt lat="55.9114167" lon="49.2263583"><time>2023-06-03T09:30:22.750</time></trkpt><trkpt lat="55.9113767" lon="49.2262200"><time>2023-06-03T09:30:24.750</time></trkpt><trkpt lat="55.9113317" lon="49.2260967"><time>2023-06-03T09:30:26.750</time></trkpt><trkpt lat="55.9112800" lon="49.2259800"><time>2023-06-03T09:30:28.730</time></trkpt><trkpt lat="55.9112417" lon="49.2258650"><time>2023-06-03T09:30:30.743</time></trkpt><trkpt lat="55.9112017" lon="49.2257433"><time>2023-06-03T09:30:32.747</time></trkpt><trkpt lat="55.9111550" lon="49.2256233"><time>2023-06-03T09:30:34.743</time></trkpt><trkpt lat="55.9111017" lon="49.2254983"><time>2023-06-03T09:30:36.750</time></trkpt><trkpt lat="55.9110417" lon="49.2253850"><time>2023-06-03T09:30:38.747</time></trkpt><trkpt lat="55.9109933" lon="49.2252733"><time>2023-06-03T09:30:40.747</time></trkpt><trkpt lat="55.9109667" lon="49.2252067"><time>2023-06-03T09:30:41.747</time></trkpt><trkpt lat="55.9109417" lon="49.2251367"><time>2023-06-03T09:30:42.757</time></trkpt><trkpt lat="55.9109183" lon="49.2250667"><time>2023-06-03T09:30:43.747</time></trkpt><trkpt lat="55.9108950" lon="49.2249933"><time>2023-06-03T09:30:44.757</time></trkpt><trkpt lat="55.9108767" lon="49.2249167"><time>2023-06-03T09:30:45.750</time></trkpt><trkpt lat="55.9108583" lon="49.2248433"><time>2023-06-03T09:30:46.747</time></trkpt><trkpt lat="55.9108417" lon="49.2247683"><time>2023-06-03T09:30:47.747</time></trkpt><trkpt lat="55.9108283" lon="49.2246917"><time>2023-06-03T09:30:48.733</time></trkpt><trkpt lat="55.9108167" lon="49.2246100"><time>2023-06-03T09:30:49.730</time></trkpt><trkpt lat="55.9108050" lon="49.2245300"><time>2023-06-03T09:30:50.757</time></trkpt><trkpt lat="55.9107917" lon="49.2244483"><time>2023-06-03T09:30:51.743</time></trkpt><trkpt lat="55.9107850" lon="49.2243650"><time>2023-06-03T09:30:52.747</time></trkpt><trkpt lat="55.9107767" lon="49.2242200"><time>2023-06-03T09:30:54.737</time></trkpt><trkpt lat="55.9107683" lon="49.2240950"><time>2023-06-03T09:30:56.757</time></trkpt><trkpt lat="55.9107583" lon="49.2239783"><time>2023-06-03T09:30:58.757</time></trkpt><trkpt lat="55.9107500" lon="49.2238483"><time>2023-06-03T09:31:00.760</time></trkpt><trkpt lat="55.9107367" lon="49.2237200"><time>2023-06-03T09:31:02.747</time></trkpt><trkpt lat="55.9107167" lon="49.2235883"><time>2023-06-03T09:31:04.760</time></trkpt><trkpt lat="55.9106867" lon="49.2234483"><time>2023-06-03T09:31:06.757</time></trkpt><trkpt lat="55.9106550" lon="49.2233100"><time>2023-06-03T09:31:08.730</time></trkpt><trkpt lat="55.9106383" lon="49.2232333"><time>2023-06-03T09:31:09.737</time></trkpt><trkpt lat="55.9106150" lon="49.2231517"><time>2023-06-03T09:31:10.730</time></trkpt><trkpt lat="55.9105917" lon="49.2230650"><time>2023-06-03T09:31:11.727</time></trkpt><trkpt lat="55.9105650" lon="49.2229817"><time>2023-06-03T09:31:12.727</time></trkpt><trkpt lat="55.9105267" lon="49.2228350"><time>2023-06-03T09:31:14.733</time></trkpt><trkpt lat="55.9104883" lon="49.2226917"><time>2023-06-03T09:31:16.737</time></trkpt><trkpt lat="55.9104667" lon="49.2226183"><time>2023-06-03T09:31:17.730</time></trkpt><trkpt lat="55.9104367" lon="49.2224667"><time>2023-06-03T09:31:19.757</time></trkpt><trkpt lat="55.9104183" lon="49.2223883"><time>2023-06-03T09:31:20.760</time></trkpt><trkpt lat="55.9103950" lon="49.2223117"><time>2023-06-03T09:31:21.753</time></trkpt><trkpt lat="55.9103767" lon="49.2222300"><time>2023-06-03T09:31:22.753</time></trkpt><trkpt lat="55.9103567" lon="49.2221450"><time>2023-06-03T09:31:23.757</time></trkpt><trkpt lat="55.9103367" lon="49.2220617"><time>2023-06-03T09:31:24.750</time></trkpt><trkpt lat="55.9103150" lon="49.2219750"><time>2023-06-03T09:31:25.747</time></trkpt><trkpt lat="55.9102900" lon="49.2218917"><time>2023-06-03T09:31:26.757</time></trkpt><trkpt lat="55.9102667" lon="49.2218133"><time>2023-06-03T09:31:27.757</time></trkpt><trkpt lat="55.9102400" lon="49.2217350"><time>2023-06-03T09:31:28.747</time></trkpt><trkpt lat="55.9102150" lon="49.2216617"><time>2023-06-03T09:31:29.743</time></trkpt><trkpt lat="55.9101900" lon="49.2215900"><time>2023-06-03T09:31:30.753</time></trkpt><trkpt lat="55.9101650" lon="49.2215233"><time>2023-06-03T09:31:31.753</time></trkpt><trkpt lat="55.9101133" lon="49.2213950"><time>2023-06-03T09:31:33.743</time></trkpt><trkpt lat="55.9100650" lon="49.2212650"><time>2023-06-03T09:31:35.740</time></trkpt><trkpt lat="55.9100167" lon="49.2211483"><time>2023-06-03T09:31:37.740</time></trkpt><trkpt lat="55.9099683" lon="49.2210617"><time>2023-06-03T09:31:39.727</time></trkpt><trkpt lat="55.9099267" lon="49.2209850"><time>2023-06-03T09:31:41.757</time></trkpt><trkpt lat="55.9098900" lon="49.2209167"><time>2023-06-03T09:31:43.743</time></trkpt><trkpt lat="55.9098500" lon="49.2208333"><time>2023-06-03T09:31:45.743</time></trkpt><trkpt lat="55.9097967" lon="49.2207400"><time>2023-06-03T09:31:47.740</time></trkpt><trkpt lat="55.9097450" lon="49.2206417"><time>2023-06-03T09:31:49.750</time></trkpt><trkpt lat="55.9096950" lon="49.2205567"><time>2023-06-03T09:31:51.757</time></trkpt><trkpt lat="55.9096450" lon="49.2204700"><time>2023-06-03T09:31:53.753</time></trkpt><trkpt lat="55.9095950" lon="49.2203867"><time>2023-06-03T09:31:55.757</time></trkpt><trkpt lat="55.9095500" lon="49.2203233"><time>2023-06-03T09:31:57.750</time></trkpt><trkpt lat="55.9095167" lon="49.2202633"><time>2023-06-03T09:31:59.743</time></trkpt><trkpt lat="55.9094817" lon="49.2201733"><time>2023-06-03T09:32:02.730</time></trkpt><trkpt lat="55.9094483" lon="49.2201050"><time>2023-06-03T09:32:04.750</time></trkpt><trkpt lat="55.9094133" lon="49.2200150"><time>2023-06-03T09:32:06.747</time></trkpt><trkpt lat="55.9093750" lon="49.2199200"><time>2023-06-03T09:32:08.737</time></trkpt><trkpt lat="55.9093500" lon="49.2198167"><time>2023-06-03T09:32:10.743</time></trkpt><trkpt lat="55.9093300" lon="49.2197117"><time>2023-06-03T09:32:12.753</time></trkpt><trkpt lat="55.9093100" lon="49.2196000"><time>2023-06-03T09:32:14.730</time></trkpt><trkpt lat="55.9092883" lon="49.2194967"><time>2023-06-03T09:32:16.733</time></trkpt><trkpt lat="55.9092733" lon="49.2194117"><time>2023-06-03T09:32:18.747</time></trkpt><trkpt lat="55.9092550" lon="49.2192600"><time>2023-06-03T09:32:40.740</time></trkpt><trkpt lat="55.9092383" lon="49.2191517"><time>2023-06-03T09:32:42.757</time></trkpt><trkpt lat="55.9092150" lon="49.2190333"><time>2023-06-03T09:32:44.750</time></trkpt><trkpt lat="55.9091917" lon="49.2189083"><time>2023-06-03T09:32:46.743</time></trkpt><trkpt lat="55.9091683" lon="49.2187717"><time>2023-06-03T09:32:48.743</time></trkpt><trkpt lat="55.9091500" lon="49.2186317"><time>2023-06-03T09:32:50.753</time></trkpt><trkpt lat="55.9091333" lon="49.2185050"><time>2023-06-03T09:32:52.753</time></trkpt><trkpt lat="55.9091100" lon="49.2183800"><time>2023-06-03T09:32:54.733</time></trkpt><trkpt lat="55.9090850" lon="49.2182533"><time>2023-06-03T09:32:56.760</time></trkpt><trkpt lat="55.9090533" lon="49.2181283"><time>2023-06-03T09:32:58.753</time></trkpt><trkpt lat="55.9090233" lon="49.2179983"><time>2023-06-03T09:33:00.757</time></trkpt><trkpt lat="55.9089867" lon="49.2178583"><time>2023-06-03T09:33:02.747</time></trkpt><trkpt lat="55.9089750" lon="49.2177783"><time>2023-06-03T09:33:03.740</time></trkpt><trkpt lat="55.9089450" lon="49.2176350"><time>2023-06-03T09:33:05.747</time></trkpt><trkpt lat="55.9089150" lon="49.2174950"><time>2023-06-03T09:33:07.753</time></trkpt><trkpt lat="55.9088950" lon="49.2173633"><time>2023-06-03T09:33:09.743</time></trkpt><trkpt lat="55.9088700" lon="49.2172350"><time>2023-06-03T09:33:11.747</time></trkpt><trkpt lat="55.9088483" lon="49.2171033"><time>2023-06-03T09:33:13.717</time></trkpt><trkpt lat="55.9088533" lon="49.2169633"><time>2023-06-03T09:33:15.727</time></trkpt><trkpt lat="55.9088717" lon="49.2168350"><time>2023-06-03T09:33:17.727</time></trkpt><trkpt lat="55.9088883" lon="49.2167150"><time>2023-06-03T09:33:19.730</time></trkpt><trkpt lat="55.9089033" lon="49.2165783"><time>2023-06-03T09:33:21.757</time></trkpt><trkpt lat="55.9089217" lon="49.2164400"><time>2023-06-03T09:33:23.743</time></trkpt><trkpt lat="55.9089367" lon="49.2163033"><time>2023-06-03T09:33:25.743</time></trkpt><trkpt lat="55.9089583" lon="49.2161700"><time>2023-06-03T09:33:27.757</time></trkpt><trkpt lat="55.9089817" lon="49.2160400"><time>2023-06-03T09:33:29.747</time></trkpt><trkpt lat="55.9090067" lon="49.2158950"><time>2023-06-03T09:33:31.733</time></trkpt><trkpt lat="55.9090267" lon="49.2157550"><time>2023-06-03T09:33:33.727</time></trkpt><trkpt lat="55.9090500" lon="49.2156233"><time>2023-06-03T09:33:35.723</time></trkpt><trkpt lat="55.9090833" lon="49.2154900"><time>2023-06-03T09:33:37.733</time></trkpt><trkpt lat="55.9091117" lon="49.2153600"><time>2023-06-03T09:33:39.723</time></trkpt><trkpt lat="55.9091383" lon="49.2152333"><time>2023-06-03T09:33:41.750</time></trkpt><trkpt lat="55.9091683" lon="49.2151100"><time>2023-06-03T09:33:43.753</time></trkpt><trkpt lat="55.9092000" lon="49.2149900"><time>2023-06-03T09:33:45.743</time></trkpt><trkpt lat="55.9092417" lon="49.2148800"><time>2023-06-03T09:33:47.760</time></trkpt><trkpt lat="55.9092867" lon="49.2147717"><time>2023-06-03T09:33:49.753</time></trkpt><trkpt lat="55.9093317" lon="49.2146667"><time>2023-06-03T09:33:51.757</time></trkpt><trkpt lat="55.9093733" lon="49.2145633"><time>2023-06-03T09:33:53.747</time></trkpt><trkpt lat="55.9094200" lon="49.2144667"><time>2023-06-03T09:33:55.757</time></trkpt><trkpt lat="55.9094633" lon="49.2143667"><time>2023-06-03T09:33:57.733</time></trkpt><trkpt lat="55.9094983" lon="49.2142750"><time>2023-06-03T09:33:59.700</time></trkpt><trkpt lat="55.9095133" lon="49.2141683"><time>2023-06-03T09:34:01.727</time></trkpt><trkpt lat="55.9094767" lon="49.2140617"><time>2023-06-03T09:34:03.730</time></trkpt><trkpt lat="55.9094200" lon="49.2139533"><time>2023-06-03T09:34:05.727</time></trkpt><trkpt lat="55.9093517" lon="49.2138550"><time>2023-06-03T09:34:07.727</time></trkpt><trkpt lat="55.9092850" lon="49.2137600"><time>2023-06-03T09:34:09.730</time></trkpt><trkpt lat="55.9092500" lon="49.2137000"><time>2023-06-03T09:34:10.730</time></trkpt><trkpt lat="55.9091850" lon="49.2135933"><time>2023-06-03T09:34:12.733</time></trkpt><trkpt lat="55.9091233" lon="49.2135000"><time>2023-06-03T09:34:14.757</time></trkpt><trkpt lat="55.9090600" lon="49.2134017"><time>2023-06-03T09:34:16.743</time></trkpt><trkpt lat="55.9089967" lon="49.2132900"><time>2023-06-03T09:34:18.747</time></trkpt><trkpt lat="55.9089667" lon="49.2132300"><time>2023-06-03T09:34:19.760</time></trkpt><trkpt lat="55.9089167" lon="49.2131050"><time>2023-06-03T09:34:21.733</time></trkpt><trkpt lat="55.9088700" lon="49.2129817"><time>2023-06-03T09:34:23.733</time></trkpt><trkpt lat="55.9088200" lon="49.2128633"><time>2023-06-03T09:34:25.747</time></trkpt><trkpt lat="55.9087700" lon="49.2127467"><time>2023-06-03T09:34:27.750</time></trkpt><trkpt lat="55.9087133" lon="49.2126517"><time>2023-06-03T09:34:29.747</time></trkpt><trkpt lat="55.9086483" lon="49.2125533"><time>2023-06-03T09:34:31.733</time></trkpt><trkpt lat="55.9085850" lon="49.2124600"><time>2023-06-03T09:34:33.753</time></trkpt><trkpt lat="55.9085317" lon="49.2123717"><time>2023-06-03T09:34:35.753</time></trkpt><trkpt lat="55.9084717" lon="49.2122633"><time>2023-06-03T09:34:37.743</time></trkpt><trkpt lat="55.9084367" lon="49.2122117"><time>2023-06-03T09:34:38.747</time></trkpt><trkpt lat="55.9084033" lon="49.2121533"><time>2023-06-03T09:34:39.743</time></trkpt><trkpt lat="55.9083750" lon="49.2120883"><time>2023-06-03T09:34:40.760</time></trkpt><trkpt lat="55.9083467" lon="49.2120217"><time>2023-06-03T09:34:41.730</time></trkpt><trkpt lat="55.9083133" lon="49.2119550"><time>2023-06-03T09:34:42.753</time></trkpt><trkpt lat="55.9082817" lon="49.2118883"><time>2023-06-03T09:34:43.743</time></trkpt><trkpt lat="55.9082200" lon="49.2117717"><time>2023-06-03T09:34:45.747</time></trkpt><trkpt lat="55.9081633" lon="49.2116667"><time>2023-06-03T09:34:47.743</time></trkpt><trkpt lat="55.9081133" lon="49.2115650"><time>2023-06-03T09:34:49.743</time></trkpt><trkpt lat="55.9080633" lon="49.2114750"><time>2023-06-03T09:34:51.750</time></trkpt><trkpt lat="55.9080283" lon="49.2114133"><time>2023-06-03T09:34:53.753</time></trkpt><trkpt lat="55.9079867" lon="49.2113633"><time>2023-06-03T09:34:56.733</time></trkpt><trkpt lat="55.9079483" lon="49.2113050"><time>2023-06-03T09:34:59.730</time></trkpt><trkpt lat="55.9079000" lon="49.2112600"><time>2023-06-03T09:35:02.750</time></trkpt><trkpt lat="55.9078550" lon="49.2112317"><time>2023-06-03T09:35:05.747</time></trkpt><trkpt lat="55.9078250" lon="49.2111683"><time>2023-06-03T09:35:08.757</time></trkpt><trkpt lat="55.9077800" lon="49.2111117"><time>2023-06-03T09:35:11.753</time></trkpt><trkpt lat="55.9077350" lon="49.2110433"><time>2023-06-03T09:35:14.750</time></trkpt><trkpt lat="55.9076900" lon="49.2109800"><time>2023-06-03T09:35:17.733</time></trkpt><trkpt lat="55.9076467" lon="49.2109300"><time>2023-06-03T09:35:20.760</time></trkpt><trkpt lat="55.9076017" lon="49.2108717"><time>2023-06-03T09:35:23.740</time></trkpt><trkpt lat="55.9075517" lon="49.2108400"><time>2023-06-03T09:35:26.757</time></trkpt><trkpt lat="55.9075033" lon="49.2107967"><time>2023-06-03T09:35:29.757</time></trkpt><trkpt lat="55.9074583" lon="49.2107750"><time>2023-06-03T09:35:32.757</time></trkpt><trkpt lat="55.9074067" lon="49.2107517"><time>2023-06-03T09:35:36.750</time></trkpt><trkpt lat="55.9073567" lon="49.2107317"><time>2023-06-03T09:35:39.750</time></trkpt><trkpt lat="55.9072733" lon="49.2106833"><time>2023-06-03T09:36:17.747</time></trkpt><trkpt lat="55.9072183" lon="49.2106550"><time>2023-06-03T09:36:19.750</time></trkpt><trkpt lat="55.9071500" lon="49.2106183"><time>2023-06-03T09:36:21.743</time></trkpt><trkpt lat="55.9070817" lon="49.2105950"><time>2023-06-03T09:36:23.753</time></trkpt><trkpt lat="55.9070217" lon="49.2105583"><time>2023-06-03T09:36:25.753</time></trkpt><trkpt lat="55.9069567" lon="49.2105233"><time>2023-06-03T09:36:27.747</time></trkpt><trkpt lat="55.9068950" lon="49.2104883"><time>2023-06-03T09:36:29.747</time></trkpt><trkpt lat="55.9068300" lon="49.2104550"><time>2023-06-03T09:36:31.747</time></trkpt><trkpt lat="55.9067617" lon="49.2104200"><time>2023-06-03T09:36:33.747</time></trkpt><trkpt lat="55.9066917" lon="49.2103917"><time>2023-06-03T09:36:35.747</time></trkpt><trkpt lat="55.9066167" lon="49.2103500"><time>2023-06-03T09:36:37.757</time></trkpt><trkpt lat="55.9065400" lon="49.2103083"><time>2023-06-03T09:36:39.750</time></trkpt><trkpt lat="55.9064600" lon="49.2102650"><time>2023-06-03T09:36:41.763</time></trkpt><trkpt lat="55.9063850" lon="49.2102133"><time>2023-06-03T09:36:43.760</time></trkpt><trkpt lat="55.9063217" lon="49.2101550"><time>2023-06-03T09:36:45.753</time></trkpt><trkpt lat="55.9062517" lon="49.2100833"><time>2023-06-03T09:36:47.753</time></trkpt><trkpt lat="55.9061850" lon="49.2100133"><time>2023-06-03T09:36:49.737</time></trkpt><trkpt lat="55.9061233" lon="49.2099383"><time>2023-06-03T09:36:51.737</time></trkpt><trkpt lat="55.9060567" lon="49.2098567"><time>2023-06-03T09:36:53.733</time></trkpt><trkpt lat="55.9059917" lon="49.2097750"><time>2023-06-03T09:36:55.760</time></trkpt><trkpt lat="55.9059250" lon="49.2096900"><time>2023-06-03T09:36:57.750</time></trkpt><trkpt lat="55.9058617" lon="49.2096083"><time>2023-06-03T09:36:59.733</time></trkpt><trkpt lat="55.9057883" lon="49.2095150"><time>2023-06-03T09:37:01.747</time></trkpt><trkpt lat="55.9057183" lon="49.2094217"><time>2023-06-03T09:37:03.747</time></trkpt><trkpt lat="55.9056500" lon="49.2093383"><time>2023-06-03T09:37:05.747</time></trkpt><trkpt lat="55.9055817" lon="49.2092550"><time>2023-06-03T09:37:07.750</time></trkpt><trkpt lat="55.9055217" lon="49.2091567"><time>2023-06-03T09:37:09.753</time></trkpt><trkpt lat="55.9054650" lon="49.2090733"><time>2023-06-03T09:37:11.760</time></trkpt><trkpt lat="55.9054000" lon="49.2089850"><time>2023-06-03T09:37:13.737</time></trkpt><trkpt lat="55.9053333" lon="49.2089067"><time>2023-06-03T09:37:15.737</time></trkpt><trkpt lat="55.9052683" lon="49.2088083"><time>2023-06-03T09:37:17.743</time></trkpt><trkpt lat="55.9052350" lon="49.2087500"><time>2023-06-03T09:37:18.737</time></trkpt><trkpt lat="55.9052033" lon="49.2086883"><time>2023-06-03T09:37:19.753</time></trkpt><trkpt lat="55.9051483" lon="49.2085683"><time>2023-06-03T09:37:21.747</time></trkpt><trkpt lat="55.9051167" lon="49.2085017"><time>2023-06-03T09:37:22.753</time></trkpt><trkpt lat="55.9050867" lon="49.2084333"><time>2023-06-03T09:37:23.740</time></trkpt><trkpt lat="55.9050400" lon="49.2083017"><time>2023-06-03T09:37:25.730</time></trkpt><trkpt lat="55.9049967" lon="49.2081733"><time>2023-06-03T09:37:27.730</time></trkpt><trkpt lat="55.9049517" lon="49.2080467"><time>2023-06-03T09:37:29.750</time></trkpt><trkpt lat="55.9049083" lon="49.2079200"><time>2023-06-03T09:37:31.760</time></trkpt><trkpt lat="55.9048717" lon="49.2077850"><time>2023-06-03T09:37:33.757</time></trkpt><trkpt lat="55.9048383" lon="49.2076533"><time>2023-06-03T09:37:35.747</time></trkpt><trkpt lat="55.9048050" lon="49.2075217"><time>2023-06-03T09:37:37.743</time></trkpt><trkpt lat="55.9047583" lon="49.2074017"><time>2023-06-03T09:37:39.730</time></trkpt><trkpt lat="55.9047217" lon="49.2072850"><time>2023-06-03T09:37:41.747</time></trkpt><trkpt lat="55.9046933" lon="49.2071467"><time>2023-06-03T09:37:43.750</time></trkpt><trkpt lat="55.9046750" lon="49.2070733"><time>2023-06-03T09:37:44.750</time></trkpt><trkpt lat="55.9046400" lon="49.2069467"><time>2023-06-03T09:37:46.740</time></trkpt><trkpt lat="55.9045983" lon="49.2068367"><time>2023-06-03T09:37:48.757</time></trkpt><trkpt lat="55.9045533" lon="49.2067250"><time>2023-06-03T09:37:50.740</time></trkpt><trkpt lat="55.9045067" lon="49.2066183"><time>2023-06-03T09:37:52.733</time></trkpt><trkpt lat="55.9044767" lon="49.2065400"><time>2023-06-03T09:37:54.757</time></trkpt><trkpt lat="55.9044233" lon="49.2063800"><time>2023-06-03T09:40:01.743</time></trkpt><trkpt lat="55.9043850" lon="49.2063000"><time>2023-06-03T09:40:03.747</time></trkpt><trkpt lat="55.9043367" lon="49.2062317"><time>2023-06-03T09:40:05.747</time></trkpt><trkpt lat="55.9042817" lon="49.2061733"><time>2023-06-03T09:40:07.753</time></trkpt><trkpt lat="55.9042233" lon="49.2061100"><time>2023-06-03T09:40:09.750</time></trkpt><trkpt lat="55.9041617" lon="49.2060367"><time>2023-06-03T09:40:11.723</time></trkpt><trkpt lat="55.9041017" lon="49.2059667"><time>2023-06-03T09:40:13.730</time></trkpt><trkpt lat="55.9040400" lon="49.2058867"><time>2023-06-03T09:40:15.730</time></trkpt><trkpt lat="55.9039750" lon="49.2058083"><time>2023-06-03T09:40:17.743</time></trkpt><trkpt lat="55.9039050" lon="49.2057300"><time>2023-06-03T09:40:19.750</time></trkpt><trkpt lat="55.9038450" lon="49.2056650"><time>2023-06-03T09:40:21.750</time></trkpt><trkpt lat="55.9037800" lon="49.2055917"><time>2023-06-03T09:40:23.747</time></trkpt><trkpt lat="55.9037150" lon="49.2055067"><time>2023-06-03T09:40:25.727</time></trkpt><trkpt lat="55.9036483" lon="49.2054217"><time>2023-06-03T09:40:27.757</time></trkpt><trkpt lat="55.9035750" lon="49.2053517"><time>2023-06-03T09:40:29.757</time></trkpt><trkpt lat="55.9035000" lon="49.2052733"><time>2023-06-03T09:40:31.757</time></trkpt><trkpt lat="55.9034350" lon="49.2051917"><time>2023-06-03T09:40:33.747</time></trkpt><trkpt lat="55.9033683" lon="49.2051067"><time>2023-06-03T09:40:35.753</time></trkpt><trkpt lat="55.9033300" lon="49.2050650"><time>2023-06-03T09:40:36.757</time></trkpt><trkpt lat="55.9032600" lon="49.2049833"><time>2023-06-03T09:40:38.743</time></trkpt><trkpt lat="55.9031950" lon="49.2049017"><time>2023-06-03T09:40:40.747</time></trkpt><trkpt lat="55.9031217" lon="49.2048117"><time>2023-06-03T09:40:42.770</time></trkpt><trkpt lat="55.9030833" lon="49.2047683"><time>2023-06-03T09:40:43.747</time></trkpt><trkpt lat="55.9030450" lon="49.2047233"><time>2023-06-03T09:40:44.747</time></trkpt><trkpt lat="55.9030033" lon="49.2046783"><time>2023-06-03T09:40:45.740</time></trkpt><trkpt lat="55.9029617" lon="49.2046317"><time>2023-06-03T09:40:46.750</time></trkpt><trkpt lat="55.9029233" lon="49.2045883"><time>2023-06-03T09:40:47.733</time></trkpt><trkpt lat="55.9028483" lon="49.2045067"><time>2023-06-03T09:40:49.730</time></trkpt><trkpt lat="55.9028083" lon="49.2044650"><time>2023-06-03T09:40:50.733</time></trkpt><trkpt lat="55.9027717" lon="49.2044167"><time>2023-06-03T09:40:51.743</time></trkpt><trkpt lat="55.9027000" lon="49.2043150"><time>2023-06-03T09:40:53.753</time></trkpt><trkpt lat="55.9026233" lon="49.2042367"><time>2023-06-03T09:40:55.760</time></trkpt><trkpt lat="55.9025517" lon="49.2041550"><time>2023-06-03T09:40:57.747</time></trkpt><trkpt lat="55.9024850" lon="49.2040717"><time>2023-06-03T09:40:59.753</time></trkpt><trkpt lat="55.9024117" lon="49.2040033"><time>2023-06-03T09:41:01.753</time></trkpt><trkpt lat="55.9023417" lon="49.2039250"><time>2023-06-03T09:41:03.727</time></trkpt><trkpt lat="55.9022717" lon="49.2038367"><time>2023-06-03T09:41:05.747</time></trkpt><trkpt lat="55.9021983" lon="49.2037467"><time>2023-06-03T09:41:07.747</time></trkpt><trkpt lat="55.9021300" lon="49.2036633"><time>2023-06-03T09:41:09.747</time></trkpt><trkpt lat="55.9020667" lon="49.2035683"><time>2023-06-03T09:41:11.757</time></trkpt><trkpt lat="55.9019950" lon="49.2034883"><time>2023-06-03T09:41:13.757</time></trkpt><trkpt lat="55.9019250" lon="49.2034083"><time>2023-06-03T09:41:15.733</time></trkpt><trkpt lat="55.9018567" lon="49.2033300"><time>2023-06-03T09:41:17.730</time></trkpt><trkpt lat="55.9017900" lon="49.2032533"><time>2023-06-03T09:41:19.747</time></trkpt><trkpt lat="55.9017333" lon="49.2031700"><time>2023-06-03T09:41:21.753</time></trkpt><trkpt lat="55.9016700" lon="49.2031000"><time>2023-06-03T09:41:23.757</time></trkpt><trkpt lat="55.9015983" lon="49.2030167"><time>2023-06-03T09:41:25.760</time></trkpt><trkpt lat="55.9015300" lon="49.2029400"><time>2023-06-03T09:41:27.737</time></trkpt><trkpt lat="55.9014583" lon="49.2028567"><time>2023-06-03T09:41:29.753</time></trkpt><trkpt lat="55.9013900" lon="49.2027717"><time>2023-06-03T09:41:31.750</time></trkpt><trkpt lat="55.9013200" lon="49.2026900"><time>2023-06-03T09:41:33.730</time></trkpt><trkpt lat="55.9012450" lon="49.2026083"><time>2023-06-03T09:41:35.747</time></trkpt><trkpt lat="55.9012067" lon="49.2025667"><time>2023-06-03T09:41:36.757</time></trkpt><trkpt lat="55.9011683" lon="49.2025150"><time>2023-06-03T09:41:37.753</time></trkpt><trkpt lat="55.9011317" lon="49.2024683"><time>2023-06-03T09:41:38.750</time></trkpt><trkpt lat="55.9010600" lon="49.2023733"><time>2023-06-03T09:41:40.747</time></trkpt><trkpt lat="55.9010233" lon="49.2023250"><time>2023-06-03T09:41:41.743</time></trkpt><trkpt lat="55.9009517" lon="49.2022317"><time>2023-06-03T09:41:43.750</time></trkpt><trkpt lat="55.9009133" lon="49.2021867"><time>2023-06-03T09:41:44.753</time></trkpt><trkpt lat="55.9008417" lon="49.2020967"><time>2023-06-03T09:41:46.747</time></trkpt><trkpt lat="55.9007717" lon="49.2020217"><time>2023-06-03T09:41:48.747</time></trkpt><trkpt lat="55.9007033" lon="49.2019367"><time>2023-06-03T09:41:50.743</time></trkpt><trkpt lat="55.9006383" lon="49.2018583"><time>2023-06-03T09:41:52.743</time></trkpt><trkpt lat="55.9005733" lon="49.2017817"><time>2023-06-03T09:41:54.757</time></trkpt><trkpt lat="55.9005067" lon="49.2017033"><time>2023-06-03T09:41:56.747</time></trkpt><trkpt lat="55.9004383" lon="49.2016300"><time>2023-06-03T09:41:58.730</time></trkpt><trkpt lat="55.9003700" lon="49.2015517"><time>2023-06-03T09:42:00.753</time></trkpt><trkpt lat="55.9003083" lon="49.2014633"><time>2023-06-03T09:42:02.753</time></trkpt><trkpt lat="55.9002600" lon="49.2013450"><time>2023-06-03T09:42:04.753</time></trkpt><trkpt lat="55.9002300" lon="49.2012117"><time>2023-06-03T09:42:06.747</time></trkpt><trkpt lat="55.9002267" lon="49.2010633"><time>2023-06-03T09:42:08.760</time></trkpt><trkpt lat="55.9002567" lon="49.2009267"><time>2023-06-03T09:42:10.757</time></trkpt><trkpt lat="55.9002983" lon="49.2007950"><time>2023-06-03T09:42:12.753</time></trkpt><trkpt lat="55.9003417" lon="49.2006600"><time>2023-06-03T09:42:14.743</time></trkpt><trkpt lat="55.9003783" lon="49.2005317"><time>2023-06-03T09:42:16.747</time></trkpt><trkpt lat="55.9004200" lon="49.2003983"><time>2023-06-03T09:42:18.743</time></trkpt><trkpt lat="55.9004600" lon="49.2002667"><time>2023-06-03T09:42:20.747</time></trkpt><trkpt lat="55.9005017" lon="49.2001350"><time>2023-06-03T09:42:22.723</time></trkpt><trkpt lat="55.9005400" lon="49.2000000"><time>2023-06-03T09:42:24.753</time></trkpt><trkpt lat="55.9005817" lon="49.1998667"><time>2023-06-03T09:42:26.747</time></trkpt><trkpt lat="55.9006167" lon="49.1997350"><time>2023-06-03T09:42:28.743</time></trkpt><trkpt lat="55.9006567" lon="49.1996000"><time>2023-06-03T09:42:30.750</time></trkpt><trkpt lat="55.9006983" lon="49.1994600"><time>2023-06-03T09:42:32.757</time></trkpt><trkpt lat="55.9007217" lon="49.1993867"><time>2023-06-03T09:42:33.773</time></trkpt><trkpt lat="55.9007650" lon="49.1992483"><time>2023-06-03T09:42:35.747</time></trkpt><trkpt lat="55.9007983" lon="49.1991167"><time>2023-06-03T09:42:37.733</time></trkpt><trkpt lat="55.9008383" lon="49.1989900"><time>2023-06-03T09:42:39.753</time></trkpt><trkpt lat="55.9008783" lon="49.1988600"><time>2023-06-03T09:42:41.750</time></trkpt><trkpt lat="55.9009150" lon="49.1987317"><time>2023-06-03T09:42:43.750</time></trkpt><trkpt lat="55.9009567" lon="49.1986083"><time>2023-06-03T09:42:45.747</time></trkpt><trkpt lat="55.9009917" lon="49.1984967"><time>2023-06-03T09:42:47.730</time></trkpt><trkpt lat="55.9010250" lon="49.1983750"><time>2023-06-03T09:42:49.750</time></trkpt><trkpt lat="55.9010567" lon="49.1982483"><time>2023-06-03T09:42:51.750</time></trkpt><trkpt lat="55.9010850" lon="49.1981250"><time>2023-06-03T09:42:53.747</time></trkpt><trkpt lat="55.9011150" lon="49.1980167"><time>2023-06-03T09:42:55.747</time></trkpt><trkpt lat="55.9011467" lon="49.1979117"><time>2023-06-03T09:42:57.747</time></trkpt><trkpt lat="55.9011733" lon="49.1978167"><time>2023-06-03T09:42:59.750</time></trkpt><trkpt lat="55.9011967" lon="49.1977300"><time>2023-06-03T09:43:01.747</time></trkpt><trkpt lat="55.9012167" lon="49.1976450"><time>2023-06-03T09:43:04.727</time></trkpt><trkpt lat="55.9012250" lon="49.1975650"><time>2023-06-03T09:43:15.753</time></trkpt><trkpt lat="55.9012617" lon="49.1974850"><time>2023-06-03T09:43:20.750</time></trkpt><trkpt lat="55.9012867" lon="49.1973583"><time>2023-06-03T09:43:44.750</time></trkpt><trkpt lat="55.9013067" lon="49.1972600"><time>2023-06-03T09:43:46.753</time></trkpt><trkpt lat="55.9013350" lon="49.1971467"><time>2023-06-03T09:43:48.753</time></trkpt><trkpt lat="55.9013750" lon="49.1970183"><time>2023-06-03T09:43:50.760</time></trkpt><trkpt lat="55.9014217" lon="49.1968817"><time>2023-06-03T09:43:52.747</time></trkpt><trkpt lat="55.9014667" lon="49.1967550"><time>2023-06-03T09:43:54.757</time></trkpt><trkpt lat="55.9015033" lon="49.1966267"><time>2023-06-03T09:43:56.733</time></trkpt><trkpt lat="55.9015383" lon="49.1964900"><time>2023-06-03T09:43:58.750</time></trkpt><trkpt lat="55.9015783" lon="49.1963517"><time>2023-06-03T09:44:00.750</time></trkpt><trkpt lat="55.9016217" lon="49.1962167"><time>2023-06-03T09:44:02.757</time></trkpt><trkpt lat="55.9016567" lon="49.1960750"><time>2023-06-03T09:44:04.777</time></trkpt><trkpt lat="55.9016833" lon="49.1960033"><time>2023-06-03T09:44:05.750</time></trkpt><trkpt lat="55.9017250" lon="49.1958650"><time>2023-06-03T09:44:07.733</time></trkpt><trkpt lat="55.9017450" lon="49.1957933"><time>2023-06-03T09:44:08.750</time></trkpt><trkpt lat="55.9017817" lon="49.1956567"><time>2023-06-03T09:44:10.740</time></trkpt><trkpt lat="55.9018000" lon="49.1955833"><time>2023-06-03T09:44:11.743</time></trkpt><trkpt lat="55.9018250" lon="49.1954500"><time>2023-06-03T09:44:13.753</time></trkpt><trkpt lat="55.9018567" lon="49.1953200"><time>2023-06-03T09:44:15.747</time></trkpt><trkpt lat="55.9018933" lon="49.1951983"><time>2023-06-03T09:44:17.727</time></trkpt><trkpt lat="55.9019250" lon="49.1951283"><time>2023-06-03T09:44:18.730</time></trkpt><trkpt lat="55.9019483" lon="49.1950567"><time>2023-06-03T09:44:19.730</time></trkpt><trkpt lat="55.9019783" lon="49.1949133"><time>2023-06-03T09:44:21.753</time></trkpt><trkpt lat="55.9020150" lon="49.1947750"><time>2023-06-03T09:44:23.753</time></trkpt><trkpt lat="55.9020483" lon="49.1946383"><time>2023-06-03T09:44:25.750</time></trkpt><trkpt lat="55.9020850" lon="49.1945033"><time>2023-06-03T09:44:27.750</time></trkpt><trkpt lat="55.9021150" lon="49.1943650"><time>2023-06-03T09:44:29.743</time></trkpt><trkpt lat="55.9021583" lon="49.1942300"><time>2023-06-03T09:44:31.723</time></trkpt><trkpt lat="55.9022033" lon="49.1941017"><time>2023-06-03T09:44:33.723</time></trkpt><trkpt lat="55.9022467" lon="49.1939783"><time>2023-06-03T09:44:35.723</time></trkpt><trkpt lat="55.9022800" lon="49.1938417"><time>2023-06-03T09:44:37.733</time></trkpt><trkpt lat="55.9023100" lon="49.1937117"><time>2023-06-03T09:44:39.730</time></trkpt><trkpt lat="55.9023467" lon="49.1935750"><time>2023-06-03T09:44:41.747</time></trkpt><trkpt lat="55.9023650" lon="49.1935017"><time>2023-06-03T09:44:42.757</time></trkpt><trkpt lat="55.9023883" lon="49.1934283"><time>2023-06-03T09:44:43.750</time></trkpt><trkpt lat="55.9024333" lon="49.1932900"><time>2023-06-03T09:44:45.750</time></trkpt><trkpt lat="55.9024517" lon="49.1932150"><time>2023-06-03T09:44:46.753</time></trkpt><trkpt lat="55.9024817" lon="49.1930733"><time>2023-06-03T09:44:48.757</time></trkpt><trkpt lat="55.9025167" lon="49.1929400"><time>2023-06-03T09:44:50.733</time></trkpt><trkpt lat="55.9025600" lon="49.1928017"><time>2023-06-03T09:44:52.753</time></trkpt><trkpt lat="55.9025950" lon="49.1926633"><time>2023-06-03T09:44:54.753</time></trkpt><trkpt lat="55.9026317" lon="49.1925367"><time>2023-06-03T09:44:56.747</time></trkpt><trkpt lat="55.9026733" lon="49.1924017"><time>2023-06-03T09:44:58.743</time></trkpt><trkpt lat="55.9027133" lon="49.1922750"><time>2023-06-03T09:45:00.753</time></trkpt><trkpt lat="55.9027533" lon="49.1921483"><time>2023-06-03T09:45:02.730</time></trkpt><trkpt lat="55.9027867" lon="49.1920133"><time>2023-06-03T09:45:04.727</time></trkpt><trkpt lat="55.9028283" lon="49.1918833"><time>2023-06-03T09:45:06.753</time></trkpt><trkpt lat="55.9028683" lon="49.1917533"><time>2023-06-03T09:45:08.750</time></trkpt><trkpt lat="55.9029100" lon="49.1916183"><time>2023-06-03T09:45:10.750</time></trkpt><trkpt lat="55.9029450" lon="49.1914867"><time>2023-06-03T09:45:12.750</time></trkpt><trkpt lat="55.9029833" lon="49.1913567"><time>2023-06-03T09:45:14.747</time></trkpt><trkpt lat="55.9030167" lon="49.1912117"><time>2023-06-03T09:45:16.743</time></trkpt><trkpt lat="55.9030483" lon="49.1910800"><time>2023-06-03T09:45:18.703</time></trkpt><trkpt lat="55.9030800" lon="49.1909517"><time>2023-06-03T09:45:20.693</time></trkpt><trkpt lat="55.9031167" lon="49.1908200"><time>2023-06-03T09:45:22.730</time></trkpt><trkpt lat="55.9031517" lon="49.1906900"><time>2023-06-03T09:45:24.727</time></trkpt><trkpt lat="55.9031867" lon="49.1905567"><time>2023-06-03T09:45:26.727</time></trkpt><trkpt lat="55.9032217" lon="49.1904233"><time>2023-06-03T09:45:28.747</time></trkpt><trkpt lat="55.9032450" lon="49.1903050"><time>2023-06-03T09:45:30.710</time></trkpt><trkpt lat="55.9032783" lon="49.1901750"><time>2023-06-03T09:45:32.750</time></trkpt><trkpt lat="55.9033083" lon="49.1900450"><time>2023-06-03T09:45:34.747</time></trkpt><trkpt lat="55.9033367" lon="49.1899133"><time>2023-06-03T09:45:36.737</time></trkpt><trkpt lat="55.9033650" lon="49.1897817"><time>2023-06-03T09:45:38.743</time></trkpt><trkpt lat="55.9033933" lon="49.1896450"><time>2023-06-03T09:45:40.743</time></trkpt><trkpt lat="55.9034267" lon="49.1895100"><time>2023-06-03T09:45:42.750</time></trkpt><trkpt lat="55.9034550" lon="49.1893767"><time>2023-06-03T09:45:44.750</time></trkpt><trkpt lat="55.9034883" lon="49.1892500"><time>2023-06-03T09:45:46.740</time></trkpt><trkpt lat="55.9035267" lon="49.1891250"><time>2023-06-03T09:45:48.740</time></trkpt><trkpt lat="55.9035683" lon="49.1889933"><time>2023-06-03T09:45:50.747</time></trkpt><trkpt lat="55.9035983" lon="49.1888500"><time>2023-06-03T09:45:52.747</time></trkpt><trkpt lat="55.9036283" lon="49.1887150"><time>2023-06-03T09:45:54.750</time></trkpt><trkpt lat="55.9036667" lon="49.1885833"><time>2023-06-03T09:45:56.753</time></trkpt><trkpt lat="55.9037050" lon="49.1884500"><time>2023-06-03T09:45:58.747</time></trkpt><trkpt lat="55.9037383" lon="49.1883117"><time>2023-06-03T09:46:00.747</time></trkpt><trkpt lat="55.9037717" lon="49.1881767"><time>2023-06-03T09:46:02.737</time></trkpt><trkpt lat="55.9038067" lon="49.1880400"><time>2023-06-03T09:46:04.750</time></trkpt><trkpt lat="55.9038533" lon="49.1879117"><time>2023-06-03T09:46:06.743</time></trkpt><trkpt lat="55.9038883" lon="49.1877783"><time>2023-06-03T09:46:08.750</time></trkpt><trkpt lat="55.9039233" lon="49.1876517"><time>2023-06-03T09:46:10.743</time></trkpt><trkpt lat="55.9039400" lon="49.1875767"><time>2023-06-03T09:46:11.750</time></trkpt><trkpt lat="55.9039700" lon="49.1874500"><time>2023-06-03T09:46:13.740</time></trkpt><trkpt lat="55.9040067" lon="49.1873250"><time>2023-06-03T09:46:15.747</time></trkpt><trkpt lat="55.9040450" lon="49.1871983"><time>2023-06-03T09:46:17.747</time></trkpt><trkpt lat="55.9040650" lon="49.1871250"><time>2023-06-03T09:46:18.747</time></trkpt><trkpt lat="55.9040833" lon="49.1870517"><time>2023-06-03T09:46:19.747</time></trkpt><trkpt lat="55.9041200" lon="49.1869117"><time>2023-06-03T09:46:21.750</time></trkpt><trkpt lat="55.9041550" lon="49.1867717"><time>2023-06-03T09:46:23.753</time></trkpt><trkpt lat="55.9041683" lon="49.1866967"><time>2023-06-03T09:46:24.750</time></trkpt><trkpt lat="55.9042050" lon="49.1865600"><time>2023-06-03T09:46:26.747</time></trkpt><trkpt lat="55.9042400" lon="49.1864200"><time>2023-06-03T09:46:28.743</time></trkpt><trkpt lat="55.9042650" lon="49.1862800"><time>2023-06-03T09:46:30.743</time></trkpt><trkpt lat="55.9042950" lon="49.1861483"><time>2023-06-03T09:46:32.727</time></trkpt><trkpt lat="55.9043283" lon="49.1860133"><time>2023-06-03T09:46:34.743</time></trkpt><trkpt lat="55.9043600" lon="49.1858633"><time>2023-06-03T09:46:36.740</time></trkpt><trkpt lat="55.9043883" lon="49.1857183"><time>2023-06-03T09:46:38.750</time></trkpt><trkpt lat="55.9044167" lon="49.1855817"><time>2023-06-03T09:46:40.747</time></trkpt><trkpt lat="55.9044483" lon="49.1854450"><time>2023-06-03T09:46:42.750</time></trkpt><trkpt lat="55.9044767" lon="49.1853050"><time>2023-06-03T09:46:44.753</time></trkpt><trkpt lat="55.9045067" lon="49.1851717"><time>2023-06-03T09:46:46.767</time></trkpt><trkpt lat="55.9045200" lon="49.1851083"><time>2023-06-03T09:46:47.753</time></trkpt><trkpt lat="55.9045433" lon="49.1849917"><time>2023-06-03T09:46:49.750</time></trkpt><trkpt lat="55.9045600" lon="49.1848750"><time>2023-06-03T09:46:51.747</time></trkpt><trkpt lat="55.9045833" lon="49.1847700"><time>2023-06-03T09:46:53.750</time></trkpt><trkpt lat="55.9046050" lon="49.1846833"><time>2023-06-03T09:46:55.757</time></trkpt><trkpt lat="55.9046483" lon="49.1847117"><time>2023-06-03T09:47:53.693</time></trkpt><trkpt lat="55.9046917" lon="49.1847450"><time>2023-06-03T09:48:00.697</time></trkpt><trkpt lat="55.9047483" lon="49.1847650"><time>2023-06-03T09:48:04.697</time></trkpt><trkpt lat="55.9047933" lon="49.1847900"><time>2023-06-03T09:48:07.697</time></trkpt><trkpt lat="55.9048467" lon="49.1848167"><time>2023-06-03T09:48:11.697</time></trkpt><trkpt lat="55.9048967" lon="49.1848550"><time>2023-06-03T09:48:15.697</time></trkpt><trkpt lat="55.9049517" lon="49.1849050"><time>2023-06-03T09:48:35.773</time></trkpt><trkpt lat="55.9049667" lon="49.1849133"><time>2023-06-03T09:48:36.740</time></trkpt><trkpt lat="55.9050217" lon="49.1849417"><time>2023-06-03T09:48:40.747</time></trkpt><trkpt lat="55.9050683" lon="49.1849650"><time>2023-06-03T09:48:44.730</time></trkpt><trkpt lat="55.9051183" lon="49.1849383"><time>2023-06-03T09:48:48.717</time></trkpt><trkpt lat="55.9051633" lon="49.1849467"><time>2023-06-03T09:48:52.730</time></trkpt><trkpt lat="55.9052033" lon="49.1850100"><time>2023-06-03T09:48:57.737</time></trkpt><trkpt lat="55.9052817" lon="49.1850417"><time>2023-06-03T09:49:11.737</time></trkpt><trkpt lat="55.9053250" lon="49.1850750"><time>2023-06-03T09:49:14.740</time></trkpt><trkpt lat="55.9053800" lon="49.1851100"><time>2023-06-03T09:49:18.693</time></trkpt><trkpt lat="55.9054233" lon="49.1851367"><time>2023-06-03T09:49:21.737</time></trkpt><trkpt lat="55.9054733" lon="49.1851400"><time>2023-06-03T09:49:26.733</time></trkpt><trkpt lat="55.9055183" lon="49.1851683"><time>2023-06-03T09:49:29.740</time></trkpt><trkpt lat="55.9055333" lon="49.1851717"><time>2023-06-03T09:49:30.747</time></trkpt><trkpt lat="55.9055817" lon="49.1852150"><time>2023-06-03T09:49:34.727</time></trkpt><trkpt lat="55.9056367" lon="49.1852433"><time>2023-06-03T09:49:38.720</time></trkpt><trkpt lat="55.9056900" lon="49.1853183"><time>2023-06-03T09:49:46.740</time></trkpt><trkpt lat="55.9057283" lon="49.1853633"><time>2023-06-03T09:49:50.737</time></trkpt><trkpt lat="55.9057783" lon="49.1854200"><time>2023-06-03T09:49:54.690</time></trkpt><trkpt lat="55.9058233" lon="49.1854617"><time>2023-06-03T09:49:58.743</time></trkpt><trkpt lat="55.9057817" lon="49.1854067"><time>2023-06-03T09:50:08.737</time></trkpt><trkpt lat="55.9057583" lon="49.1853183"><time>2023-06-03T09:50:12.697</time></trkpt><trkpt lat="55.9057067" lon="49.1853083"><time>2023-06-03T09:50:23.730</time></trkpt><trkpt lat="55.9057067" lon="49.1854200"><time>2023-06-03T09:50:26.737</time></trkpt><trkpt lat="55.9056950" lon="49.1855067"><time>2023-06-03T09:50:29.747</time></trkpt><trkpt lat="55.9056733" lon="49.1856000"><time>2023-06-03T09:50:33.743</time></trkpt><trkpt lat="55.9056317" lon="49.1856567"><time>2023-06-03T09:50:36.740</time></trkpt><trkpt lat="55.9055833" lon="49.1856900"><time>2023-06-03T09:50:41.737</time></trkpt><trkpt lat="55.9055433" lon="49.1857333"><time>2023-06-03T09:50:45.733</time></trkpt><trkpt lat="55.9055100" lon="49.1857883"><time>2023-06-03T09:50:48.757</time></trkpt><trkpt lat="55.9054733" lon="49.1858633"><time>2023-06-03T09:50:53.763</time></trkpt><trkpt lat="55.9054383" lon="49.1859217"><time>2023-06-03T09:50:56.740</time></trkpt><trkpt lat="55.9053783" lon="49.1860833"><time>2023-06-03T09:51:46.763</time></trkpt><trkpt lat="55.9053750" lon="49.1860950"><time>2023-06-03T09:51:47.757</time></trkpt><trkpt lat="55.9053683" lon="49.1861933"><time>2023-06-03T09:51:52.723</time></trkpt><trkpt lat="55.9053667" lon="49.1862817"><time>2023-06-03T09:51:56.740</time></trkpt><trkpt lat="55.9053417" lon="49.1864817"><time>2023-06-03T09:52:07.697</time></trkpt><trkpt lat="55.9053700" lon="49.1866883"><time>2023-06-03T09:52:19.733</time></trkpt><trkpt lat="55.9053817" lon="49.1868033"><time>2023-06-03T09:52:23.707</time></trkpt><trkpt lat="55.9053850" lon="49.1868867"><time>2023-06-03T09:52:25.700</time></trkpt><trkpt lat="55.9053733" lon="49.1869667"><time>2023-06-03T09:52:27.740</time></trkpt><trkpt lat="55.9053450" lon="49.1870783"><time>2023-06-03T09:52:30.750</time></trkpt><trkpt lat="55.9053167" lon="49.1871800"><time>2023-06-03T09:52:33.693</time></trkpt><trkpt lat="55.9052833" lon="49.1872617"><time>2023-06-03T09:52:36.777</time></trkpt><trkpt lat="55.9052450" lon="49.1873317"><time>2023-06-03T09:52:39.690</time></trkpt><trkpt lat="55.9051933" lon="49.1874133"><time>2023-06-03T09:52:42.707</time></trkpt><trkpt lat="55.9051583" lon="49.1874900"><time>2023-06-03T09:52:45.713</time></trkpt><trkpt lat="55.9051283" lon="49.1875583"><time>2023-06-03T09:52:50.737</time></trkpt><trkpt lat="55.9050967" lon="49.1876283"><time>2023-06-03T09:52:56.767</time></trkpt><trkpt lat="55.9050900" lon="49.1876350"><time>2023-06-03T09:52:57.697</time></trkpt><trkpt lat="55.9051267" lon="49.1875650"><time>2023-06-03T09:53:11.747</time></trkpt><trkpt lat="55.9051367" lon="49.1875433"><time>2023-06-03T09:53:12.733</time></trkpt><trkpt lat="55.9051717" lon="49.1874850"><time>2023-06-03T09:53:15.740</time></trkpt><trkpt lat="55.9052033" lon="49.1874250"><time>2023-06-03T09:53:18.730</time></trkpt><trkpt lat="55.9052333" lon="49.1873617"><time>2023-06-03T09:53:20.710</time></trkpt><trkpt lat="55.9052633" lon="49.1872800"><time>2023-06-03T09:53:22.723</time></trkpt><trkpt lat="55.9053017" lon="49.1871750"><time>2023-06-03T09:53:24.700</time></trkpt><trkpt lat="55.9053200" lon="49.1870400"><time>2023-06-03T09:53:26.740</time></trkpt><trkpt lat="55.9053283" lon="49.1869167"><time>2023-06-03T09:53:28.733</time></trkpt><trkpt lat="55.9053283" lon="49.1867967"><time>2023-06-03T09:53:30.740</time></trkpt><trkpt lat="55.9053250" lon="49.1866717"><time>2023-06-03T09:53:32.743</time></trkpt><trkpt lat="55.9053117" lon="49.1865633"><time>2023-06-03T09:53:34.750</time></trkpt><trkpt lat="55.9053083" lon="49.1864567"><time>2023-06-03T09:53:36.737</time></trkpt><trkpt lat="55.9053083" lon="49.1863433"><time>2023-06-03T09:53:38.723</time></trkpt><trkpt lat="55.9053233" lon="49.1862333"><time>2023-06-03T09:53:40.697</time></trkpt><trkpt lat="55.9053617" lon="49.1861217"><time>2023-06-03T09:53:42.727</time></trkpt><trkpt lat="55.9054033" lon="49.1860417"><time>2023-06-03T09:53:44.687</time></trkpt><trkpt lat="55.9054400" lon="49.1859833"><time>2023-06-03T09:53:46.727</time></trkpt><trkpt lat="55.9054517" lon="49.1859567"><time>2023-06-03T09:53:47.710</time></trkpt><trkpt lat="55.9054800" lon="49.1858783"><time>2023-06-03T09:53:50.707</time></trkpt><trkpt lat="55.9055167" lon="49.1857917"><time>2023-06-03T09:53:53.693</time></trkpt><trkpt lat="55.9055533" lon="49.1857350"><time>2023-06-03T09:53:55.733</time></trkpt><trkpt lat="55.9056133" lon="49.1856833"><time>2023-06-03T09:53:57.727</time></trkpt><trkpt lat="55.9056750" lon="49.1856250"><time>2023-06-03T09:53:59.740</time></trkpt><trkpt lat="55.9057317" lon="49.1855517"><time>2023-06-03T09:54:01.740</time></trkpt><trkpt lat="55.9057717" lon="49.1854633"><time>2023-06-03T09:54:03.737</time></trkpt><trkpt lat="55.9057967" lon="49.1853967"><time>2023-06-03T09:54:05.730</time></trkpt><trkpt lat="55.9058217" lon="49.1853083"><time>2023-06-03T09:54:08.740</time></trkpt><trkpt lat="55.9058333" lon="49.1852100"><time>2023-06-03T09:54:11.740</time></trkpt><trkpt lat="55.9058450" lon="49.1851117"><time>2023-06-03T09:54:14.703</time></trkpt><trkpt lat="55.9058600" lon="49.1850150"><time>2023-06-03T09:54:17.737</time></trkpt><trkpt lat="55.9058717" lon="49.1849333"><time>2023-06-03T09:54:20.697</time></trkpt><trkpt lat="55.9058917" lon="49.1848217"><time>2023-06-03T09:54:24.743</time></trkpt><trkpt lat="55.9059083" lon="49.1847100"><time>2023-06-03T09:54:26.730</time></trkpt><trkpt lat="55.9059367" lon="49.1846083"><time>2023-06-03T09:54:28.743</time></trkpt><trkpt lat="55.9059633" lon="49.1845233"><time>2023-06-03T09:54:30.727</time></trkpt><trkpt lat="55.9059800" lon="49.1844183"><time>2023-06-03T09:54:32.733</time></trkpt><trkpt lat="55.9059850" lon="49.1843233"><time>2023-06-03T09:54:34.740</time></trkpt><trkpt lat="55.9059933" lon="49.1842283"><time>2023-06-03T09:54:36.747</time></trkpt><trkpt lat="55.9060017" lon="49.1841200"><time>2023-06-03T09:54:39.700</time></trkpt><trkpt lat="55.9060100" lon="49.1840383"><time>2023-06-03T09:54:42.703</time></trkpt><trkpt lat="55.9060283" lon="49.1839450"><time>2023-06-03T09:54:46.730</time></trkpt><trkpt lat="55.9060433" lon="49.1838517"><time>2023-06-03T09:54:50.740</time></trkpt><trkpt lat="55.9060067" lon="49.1839050"><time>2023-06-03T09:54:57.743</time></trkpt><trkpt lat="55.9059500" lon="49.1839783"><time>2023-06-03T09:54:59.757</time></trkpt><trkpt lat="55.9058917" lon="49.1840483"><time>2023-06-03T09:55:01.723</time></trkpt><trkpt lat="55.9058300" lon="49.1840967"><time>2023-06-03T09:55:03.737</time></trkpt><trkpt lat="55.9057683" lon="49.1841550"><time>2023-06-03T09:55:05.727</time></trkpt><trkpt lat="55.9057133" lon="49.1841867"><time>2023-06-03T09:55:07.747</time></trkpt><trkpt lat="55.9056833" lon="49.1842050"><time>2023-06-03T09:55:08.767</time></trkpt><trkpt lat="55.9056250" lon="49.1842500"><time>2023-06-03T09:55:10.757</time></trkpt><trkpt lat="55.9055733" lon="49.1842750"><time>2023-06-03T09:55:12.753</time></trkpt><trkpt lat="55.9055317" lon="49.1843150"><time>2023-06-03T09:55:14.753</time></trkpt><trkpt lat="55.9054933" lon="49.1843600"><time>2023-06-03T09:55:17.753</time></trkpt><trkpt lat="55.9054467" lon="49.1843783"><time>2023-06-03T09:55:21.770</time></trkpt><trkpt lat="55.9054467" lon="49.1843783"><time>2023-06-03T09:55:21.800</time></trkpt><trkpt lat="55.9054100" lon="49.1844350"><time>2023-06-03T09:55:26.760</time></trkpt><trkpt lat="55.9053983" lon="49.1844867"><time>2023-06-03T09:55:27.707</time></trkpt><trkpt lat="55.9053617" lon="49.1845717"><time>2023-06-03T09:55:29.737</time></trkpt><trkpt lat="55.9053333" lon="49.1846400"><time>2023-06-03T09:55:31.720</time></trkpt><trkpt lat="55.9053083" lon="49.1847300"><time>2023-06-03T09:55:35.717</time></trkpt><trkpt lat="55.9052867" lon="49.1848233"><time>2023-06-03T09:55:38.683</time></trkpt><trkpt lat="55.9052567" lon="49.1849183"><time>2023-06-03T09:55:41.707</time></trkpt><trkpt lat="55.9052317" lon="49.1849917"><time>2023-06-03T09:55:43.727</time></trkpt><trkpt lat="55.9051750" lon="49.1849700"><time>2023-06-03T09:55:48.753</time></trkpt><trkpt lat="55.9051300" lon="49.1849617"><time>2023-06-03T09:55:52.750</time></trkpt><trkpt lat="55.9050833" lon="49.1849867"><time>2023-06-03T09:55:55.743</time></trkpt><trkpt lat="55.9050383" lon="49.1849733"><time>2023-06-03T09:55:58.747</time></trkpt><trkpt lat="55.9049900" lon="49.1849250"><time>2023-06-03T09:56:02.737</time></trkpt><trkpt lat="55.9049467" lon="49.1848950"><time>2023-06-03T09:56:08.753</time></trkpt><trkpt lat="55.9048917" lon="49.1848817"><time>2023-06-03T09:56:17.757</time></trkpt><trkpt lat="55.9048433" lon="49.1848267"><time>2023-06-03T09:56:20.747</time></trkpt><trkpt lat="55.9047983" lon="49.1847533"><time>2023-06-03T09:56:23.733</time></trkpt><trkpt lat="55.9047550" lon="49.1846750"><time>2023-06-03T09:56:29.747</time></trkpt><trkpt lat="55.9047283" lon="49.1846033"><time>2023-06-03T09:56:32.750</time></trkpt><trkpt lat="55.9046617" lon="49.1844833"><time>2023-06-03T09:56:54.747</time></trkpt><trkpt lat="55.9046800" lon="49.1843533"><time>2023-06-03T09:56:57.733</time></trkpt><trkpt lat="55.9047050" lon="49.1842333"><time>2023-06-03T09:56:59.747</time></trkpt><trkpt lat="55.9047350" lon="49.1841100"><time>2023-06-03T09:57:01.743</time></trkpt><trkpt lat="55.9047617" lon="49.1839983"><time>2023-06-03T09:57:03.760</time></trkpt><trkpt lat="55.9047850" lon="49.1839000"><time>2023-06-03T09:57:05.747</time></trkpt><trkpt lat="55.9048100" lon="49.1837967"><time>2023-06-03T09:57:07.747</time></trkpt><trkpt lat="55.9048433" lon="49.1836800"><time>2023-06-03T09:57:09.750</time></trkpt><trkpt lat="55.9048767" lon="49.1835600"><time>2023-06-03T09:57:11.750</time></trkpt><trkpt lat="55.9049100" lon="49.1834283"><time>2023-06-03T09:57:13.753</time></trkpt><trkpt lat="55.9049383" lon="49.1832933"><time>2023-06-03T09:57:15.747</time></trkpt><trkpt lat="55.9049717" lon="49.1831600"><time>2023-06-03T09:57:17.747</time></trkpt><trkpt lat="55.9050017" lon="49.1830200"><time>2023-06-03T09:57:19.753</time></trkpt><trkpt lat="55.9050333" lon="49.1828783"><time>2023-06-03T09:57:21.740</time></trkpt><trkpt lat="55.9050617" lon="49.1827517"><time>2023-06-03T09:57:23.750</time></trkpt><trkpt lat="55.9050950" lon="49.1826183"><time>2023-06-03T09:57:25.740</time></trkpt><trkpt lat="55.9051317" lon="49.1824750"><time>2023-06-03T09:57:27.747</time></trkpt><trkpt lat="55.9051500" lon="49.1824017"><time>2023-06-03T09:57:28.747</time></trkpt><trkpt lat="55.9051700" lon="49.1823283"><time>2023-06-03T09:57:29.747</time></trkpt><trkpt lat="55.9051900" lon="49.1822533"><time>2023-06-03T09:57:30.753</time></trkpt><trkpt lat="55.9052050" lon="49.1821767"><time>2023-06-03T09:57:31.753</time></trkpt><trkpt lat="55.9052217" lon="49.1820983"><time>2023-06-03T09:57:32.753</time></trkpt><trkpt lat="55.9052567" lon="49.1819500"><time>2023-06-03T09:57:34.753</time></trkpt><trkpt lat="55.9052767" lon="49.1818733"><time>2023-06-03T09:57:35.753</time></trkpt><trkpt lat="55.9053000" lon="49.1817950"><time>2023-06-03T09:57:36.720</time></trkpt><trkpt lat="55.9053200" lon="49.1817150"><time>2023-06-03T09:57:37.747</time></trkpt><trkpt lat="55.9053417" lon="49.1816383"><time>2023-06-03T09:57:38.753</time></trkpt><trkpt lat="55.9053633" lon="49.1815617"><time>2023-06-03T09:57:39.743</time></trkpt><trkpt lat="55.9053817" lon="49.1814867"><time>2023-06-03T09:57:40.743</time></trkpt><trkpt lat="55.9054183" lon="49.1813367"><time>2023-06-03T09:57:42.733</time></trkpt><trkpt lat="55.9054367" lon="49.1812617"><time>2023-06-03T09:57:43.733</time></trkpt><trkpt lat="55.9054700" lon="49.1811117"><time>2023-06-03T09:57:45.750</time></trkpt><trkpt lat="55.9054850" lon="49.1810333"><time>2023-06-03T09:57:46.747</time></trkpt><trkpt lat="55.9055183" lon="49.1808850"><time>2023-06-03T09:57:48.753</time></trkpt><trkpt lat="55.9055367" lon="49.1808117"><time>2023-06-03T09:57:49.757</time></trkpt><trkpt lat="55.9055550" lon="49.1807367"><time>2023-06-03T09:57:50.757</time></trkpt><trkpt lat="55.9055733" lon="49.1806617"><time>2023-06-03T09:57:51.747</time></trkpt><trkpt lat="55.9055900" lon="49.1805833"><time>2023-06-03T09:57:52.750</time></trkpt><trkpt lat="55.9056067" lon="49.1804983"><time>2023-06-03T09:57:53.743</time></trkpt><trkpt lat="55.9056250" lon="49.1804183"><time>2023-06-03T09:57:54.743</time></trkpt><trkpt lat="55.9056417" lon="49.1803383"><time>2023-06-03T09:57:55.753</time></trkpt><trkpt lat="55.9056583" lon="49.1802583"><time>2023-06-03T09:57:56.760</time></trkpt><trkpt lat="55.9056783" lon="49.1801817"><time>2023-06-03T09:57:57.753</time></trkpt><trkpt lat="55.9056950" lon="49.1801050"><time>2023-06-03T09:57:58.747</time></trkpt><trkpt lat="55.9057283" lon="49.1799550"><time>2023-06-03T09:58:00.757</time></trkpt><trkpt lat="55.9057467" lon="49.1798750"><time>2023-06-03T09:58:01.753</time></trkpt><trkpt lat="55.9057650" lon="49.1797950"><time>2023-06-03T09:58:02.747</time></trkpt><trkpt lat="55.9057833" lon="49.1797183"><time>2023-06-03T09:58:03.730</time></trkpt><trkpt lat="55.9058033" lon="49.1796450"><time>2023-06-03T09:58:04.750</time></trkpt><trkpt lat="55.9058250" lon="49.1795683"><time>2023-06-03T09:58:05.750</time></trkpt><trkpt lat="55.9058467" lon="49.1794850"><time>2023-06-03T09:58:06.747</time></trkpt><trkpt lat="55.9058650" lon="49.1794050"><time>2023-06-03T09:58:07.737</time></trkpt><trkpt lat="55.9058850" lon="49.1793233"><time>2023-06-03T09:58:08.750</time></trkpt><trkpt lat="55.9059017" lon="49.1792450"><time>2023-06-03T09:58:09.743</time></trkpt><trkpt lat="55.9059217" lon="49.1791667"><time>2023-06-03T09:58:10.757</time></trkpt><trkpt lat="55.9059617" lon="49.1790233"><time>2023-06-03T09:58:12.753</time></trkpt><trkpt lat="55.9059833" lon="49.1789433"><time>2023-06-03T09:58:13.747</time></trkpt><trkpt lat="55.9060033" lon="49.1788650"><time>2023-06-03T09:58:14.753</time></trkpt><trkpt lat="55.9060250" lon="49.1787883"><time>2023-06-03T09:58:15.750</time></trkpt><trkpt lat="55.9060433" lon="49.1787133"><time>2023-06-03T09:58:16.747</time></trkpt><trkpt lat="55.9060767" lon="49.1785650"><time>2023-06-03T09:58:18.717</time></trkpt><trkpt lat="55.9060950" lon="49.1784917"><time>2023-06-03T09:58:19.727</time></trkpt><trkpt lat="55.9061283" lon="49.1783500"><time>2023-06-03T09:58:21.723</time></trkpt><trkpt lat="55.9061533" lon="49.1782800"><time>2023-06-03T09:58:22.750</time></trkpt><trkpt lat="55.9061733" lon="49.1782083"><time>2023-06-03T09:58:23.750</time></trkpt><trkpt lat="55.9061967" lon="49.1781350"><time>2023-06-03T09:58:24.753</time></trkpt><trkpt lat="55.9062217" lon="49.1780633"><time>2023-06-03T09:58:25.747</time></trkpt><trkpt lat="55.9062433" lon="49.1779883"><time>2023-06-03T09:58:26.753</time></trkpt><trkpt lat="55.9062617" lon="49.1779133"><time>2023-06-03T09:58:27.750</time></trkpt><trkpt lat="55.9062800" lon="49.1778400"><time>2023-06-03T09:58:28.740</time></trkpt><trkpt lat="55.9063017" lon="49.1777650"><time>2023-06-03T09:58:29.740</time></trkpt><trkpt lat="55.9063267" lon="49.1776917"><time>2023-06-03T09:58:30.750</time></trkpt><trkpt lat="55.9063483" lon="49.1776150"><time>2023-06-03T09:58:31.730</time></trkpt><trkpt lat="55.9063700" lon="49.1775400"><time>2023-06-03T09:58:32.760</time></trkpt><trkpt lat="55.9063883" lon="49.1774650"><time>2023-06-03T09:58:33.750</time></trkpt><trkpt lat="55.9064117" lon="49.1773867"><time>2023-06-03T09:58:34.757</time></trkpt><trkpt lat="55.9064350" lon="49.1773133"><time>2023-06-03T09:58:35.750</time></trkpt><trkpt lat="55.9064600" lon="49.1772367"><time>2023-06-03T09:58:36.757</time></trkpt><trkpt lat="55.9064817" lon="49.1771617"><time>2023-06-03T09:58:37.737</time></trkpt><trkpt lat="55.9065017" lon="49.1770850"><time>2023-06-03T09:58:38.747</time></trkpt><trkpt lat="55.9065200" lon="49.1770050"><time>2023-06-03T09:58:39.743</time></trkpt><trkpt lat="55.9065450" lon="49.1769283"><time>2023-06-03T09:58:40.753</time></trkpt><trkpt lat="55.9065683" lon="49.1768567"><time>2023-06-03T09:58:41.743</time></trkpt><trkpt lat="55.9066133" lon="49.1767200"><time>2023-06-03T09:58:43.743</time></trkpt><trkpt lat="55.9066583" lon="49.1765800"><time>2023-06-03T09:58:45.747</time></trkpt><trkpt lat="55.9067033" lon="49.1764367"><time>2023-06-03T09:58:47.743</time></trkpt><trkpt lat="55.9067267" lon="49.1763633"><time>2023-06-03T09:58:48.753</time></trkpt><trkpt lat="55.9067733" lon="49.1762333"><time>2023-06-03T09:58:50.750</time></trkpt><trkpt lat="55.9067983" lon="49.1761600"><time>2023-06-03T09:58:51.753</time></trkpt><trkpt lat="55.9068433" lon="49.1760217"><time>2023-06-03T09:58:53.750</time></trkpt><trkpt lat="55.9068950" lon="49.1758933"><time>2023-06-03T09:58:55.747</time></trkpt><trkpt lat="55.9069217" lon="49.1758250"><time>2023-06-03T09:58:56.757</time></trkpt><trkpt lat="55.9069700" lon="49.1756933"><time>2023-06-03T09:58:58.750</time></trkpt><trkpt lat="55.9069983" lon="49.1756267"><time>2023-06-03T09:58:59.757</time></trkpt><trkpt lat="55.9070233" lon="49.1755600"><time>2023-06-03T09:59:00.757</time></trkpt><trkpt lat="55.9070483" lon="49.1754917"><time>2023-06-03T09:59:01.747</time></trkpt><trkpt lat="55.9071017" lon="49.1753633"><time>2023-06-03T09:59:03.757</time></trkpt><trkpt lat="55.9071300" lon="49.1752983"><time>2023-06-03T09:59:04.753</time></trkpt><trkpt lat="55.9071867" lon="49.1751767"><time>2023-06-03T09:59:06.757</time></trkpt><trkpt lat="55.9072167" lon="49.1751167"><time>2023-06-03T09:59:07.750</time></trkpt><trkpt lat="55.9072717" lon="49.1749933"><time>2023-06-03T09:59:09.747</time></trkpt><trkpt lat="55.9073233" lon="49.1748633"><time>2023-06-03T09:59:11.750</time></trkpt><trkpt lat="55.9073500" lon="49.1747983"><time>2023-06-03T09:59:12.760</time></trkpt><trkpt lat="55.9073800" lon="49.1747333"><time>2023-06-03T09:59:13.757</time></trkpt><trkpt lat="55.9074133" lon="49.1746667"><time>2023-06-03T09:59:14.753</time></trkpt><trkpt lat="55.9074700" lon="49.1745433"><time>2023-06-03T09:59:16.750</time></trkpt><trkpt lat="55.9075233" lon="49.1744233"><time>2023-06-03T09:59:18.747</time></trkpt><trkpt lat="55.9075567" lon="49.1743583"><time>2023-06-03T09:59:19.747</time></trkpt><trkpt lat="55.9075917" lon="49.1742950"><time>2023-06-03T09:59:20.753</time></trkpt><trkpt lat="55.9076233" lon="49.1742367"><time>2023-06-03T09:59:21.753</time></trkpt><trkpt lat="55.9076533" lon="49.1741750"><time>2023-06-03T09:59:22.750</time></trkpt><trkpt lat="55.9077117" lon="49.1740583"><time>2023-06-03T09:59:24.750</time></trkpt><trkpt lat="55.9077667" lon="49.1739417"><time>2023-06-03T09:59:26.757</time></trkpt><trkpt lat="55.9077983" lon="49.1738833"><time>2023-06-03T09:59:27.750</time></trkpt><trkpt lat="55.9078550" lon="49.1737717"><time>2023-06-03T09:59:29.757</time></trkpt><trkpt lat="55.9079133" lon="49.1736533"><time>2023-06-03T09:59:31.753</time></trkpt><trkpt lat="55.9079417" lon="49.1735900"><time>2023-06-03T09:59:32.750</time></trkpt><trkpt lat="55.9079700" lon="49.1735250"><time>2023-06-03T09:59:33.747</time></trkpt><trkpt lat="55.9080283" lon="49.1734083"><time>2023-06-03T09:59:35.750</time></trkpt><trkpt lat="55.9080617" lon="49.1733500"><time>2023-06-03T09:59:36.747</time></trkpt><trkpt lat="55.9080917" lon="49.1732867"><time>2023-06-03T09:59:37.747</time></trkpt><trkpt lat="55.9081233" lon="49.1732250"><time>2023-06-03T09:59:38.737</time></trkpt><trkpt lat="55.9081550" lon="49.1731650"><time>2023-06-03T09:59:39.750</time></trkpt><trkpt lat="55.9081867" lon="49.1731067"><time>2023-06-03T09:59:40.743</time></trkpt><trkpt lat="55.9082167" lon="49.1730467"><time>2023-06-03T09:59:41.747</time></trkpt><trkpt lat="55.9082717" lon="49.1729233"><time>2023-06-03T09:59:43.757</time></trkpt><trkpt lat="55.9083317" lon="49.1728100"><time>2023-06-03T09:59:45.747</time></trkpt><trkpt lat="55.9083867" lon="49.1726950"><time>2023-06-03T09:59:47.730</time></trkpt><trkpt lat="55.9084433" lon="49.1725817"><time>2023-06-03T09:59:49.730</time></trkpt><trkpt lat="55.9085017" lon="49.1724683"><time>2023-06-03T09:59:51.730</time></trkpt><trkpt lat="55.9085533" lon="49.1723533"><time>2023-06-03T09:59:53.733</time></trkpt><trkpt lat="55.9086067" lon="49.1722433"><time>2023-06-03T09:59:55.747</time></trkpt><trkpt lat="55.9086383" lon="49.1721833"><time>2023-06-03T09:59:56.747</time></trkpt><trkpt lat="55.9086683" lon="49.1721200"><time>2023-06-03T09:59:57.747</time></trkpt><trkpt lat="55.9087267" lon="49.1719983"><time>2023-06-03T09:59:59.747</time></trkpt><trkpt lat="55.9087833" lon="49.1718867"><time>2023-06-03T10:00:01.750</time></trkpt><trkpt lat="55.9088417" lon="49.1717717"><time>2023-06-03T10:00:03.747</time></trkpt><trkpt lat="55.9088750" lon="49.1717150"><time>2023-06-03T10:00:04.757</time></trkpt><trkpt lat="55.9089067" lon="49.1716567"><time>2023-06-03T10:00:05.750</time></trkpt><trkpt lat="55.9089633" lon="49.1715333"><time>2023-06-03T10:00:07.730</time></trkpt><trkpt lat="55.9090200" lon="49.1714117"><time>2023-06-03T10:00:09.750</time></trkpt><trkpt lat="55.9090817" lon="49.1712950"><time>2023-06-03T10:00:11.750</time></trkpt><trkpt lat="55.9091450" lon="49.1711717"><time>2023-06-03T10:00:13.747</time></trkpt><trkpt lat="55.9091767" lon="49.1711067"><time>2023-06-03T10:00:14.757</time></trkpt><trkpt lat="55.9092100" lon="49.1710483"><time>2023-06-03T10:00:15.753</time></trkpt><trkpt lat="55.9092400" lon="49.1709867"><time>2023-06-03T10:00:16.747</time></trkpt><trkpt lat="55.9092967" lon="49.1708717"><time>2023-06-03T10:00:18.753</time></trkpt><trkpt lat="55.9093517" lon="49.1707533"><time>2023-06-03T10:00:20.740</time></trkpt><trkpt lat="55.9093817" lon="49.1706900"><time>2023-06-03T10:00:21.747</time></trkpt><trkpt lat="55.9094083" lon="49.1706233"><time>2023-06-03T10:00:22.750</time></trkpt><trkpt lat="55.9094667" lon="49.1705100"><time>2023-06-03T10:00:24.760</time></trkpt><trkpt lat="55.9095250" lon="49.1703967"><time>2023-06-03T10:00:26.727</time></trkpt><trkpt lat="55.9095533" lon="49.1703283"><time>2023-06-03T10:00:27.753</time></trkpt><trkpt lat="55.9096067" lon="49.1702050"><time>2023-06-03T10:00:29.753</time></trkpt><trkpt lat="55.9096333" lon="49.1701383"><time>2023-06-03T10:00:30.750</time></trkpt><trkpt lat="55.9096650" lon="49.1700700"><time>2023-06-03T10:00:31.753</time></trkpt><trkpt lat="55.9096950" lon="49.1700017"><time>2023-06-03T10:00:32.757</time></trkpt><trkpt lat="55.9097267" lon="49.1699367"><time>2023-06-03T10:00:33.753</time></trkpt><trkpt lat="55.9097600" lon="49.1698700"><time>2023-06-03T10:00:34.753</time></trkpt><trkpt lat="55.9097883" lon="49.1698033"><time>2023-06-03T10:00:35.753</time></trkpt><trkpt lat="55.9098183" lon="49.1697400"><time>2023-06-03T10:00:36.747</time></trkpt><trkpt lat="55.9098483" lon="49.1696783"><time>2023-06-03T10:00:37.747</time></trkpt><trkpt lat="55.9098817" lon="49.1696167"><time>2023-06-03T10:00:38.740</time></trkpt><trkpt lat="55.9099133" lon="49.1695583"><time>2023-06-03T10:00:39.757</time></trkpt><trkpt lat="55.9099483" lon="49.1694967"><time>2023-06-03T10:00:40.753</time></trkpt><trkpt lat="55.9099800" lon="49.1694333"><time>2023-06-03T10:00:41.747</time></trkpt><trkpt lat="55.9100117" lon="49.1693700"><time>2023-06-03T10:00:42.753</time></trkpt><trkpt lat="55.9100783" lon="49.1692567"><time>2023-06-03T10:00:44.747</time></trkpt><trkpt lat="55.9101417" lon="49.1691433"><time>2023-06-03T10:00:46.747</time></trkpt><trkpt lat="55.9102067" lon="49.1690333"><time>2023-06-03T10:00:48.733</time></trkpt><trkpt lat="55.9102633" lon="49.1689200"><time>2023-06-03T10:00:50.743</time></trkpt><trkpt lat="55.9103200" lon="49.1688100"><time>2023-06-03T10:00:52.740</time></trkpt><trkpt lat="55.9103767" lon="49.1686967"><time>2023-06-03T10:00:54.747</time></trkpt><trkpt lat="55.9104250" lon="49.1685700"><time>2023-06-03T10:00:56.757</time></trkpt><trkpt lat="55.9104817" lon="49.1684517"><time>2023-06-03T10:00:58.747</time></trkpt><trkpt lat="55.9105433" lon="49.1683400"><time>2023-06-03T10:01:00.753</time></trkpt><trkpt lat="55.9105750" lon="49.1682733"><time>2023-06-03T10:01:01.753</time></trkpt><trkpt lat="55.9106050" lon="49.1682133"><time>2023-06-03T10:01:02.757</time></trkpt><trkpt lat="55.9106550" lon="49.1680950"><time>2023-06-03T10:01:04.750</time></trkpt><trkpt lat="55.9107133" lon="49.1679917"><time>2023-06-03T10:01:06.747</time></trkpt><trkpt lat="55.9107667" lon="49.1678800"><time>2023-06-03T10:01:08.757</time></trkpt><trkpt lat="55.9108183" lon="49.1677633"><time>2023-06-03T10:01:10.747</time></trkpt><trkpt lat="55.9108483" lon="49.1677033"><time>2023-06-03T10:01:11.743</time></trkpt><trkpt lat="55.9109050" lon="49.1675850"><time>2023-06-03T10:01:13.743</time></trkpt><trkpt lat="55.9109383" lon="49.1675250"><time>2023-06-03T10:01:14.743</time></trkpt><trkpt lat="55.9109900" lon="49.1674100"><time>2023-06-03T10:01:16.747</time></trkpt><trkpt lat="55.9110350" lon="49.1673100"><time>2023-06-03T10:01:18.747</time></trkpt><trkpt lat="55.9110867" lon="49.1671983"><time>2023-06-03T10:01:20.750</time></trkpt><trkpt lat="55.9111300" lon="49.1670867"><time>2023-06-03T10:01:22.750</time></trkpt><trkpt lat="55.9111833" lon="49.1669783"><time>2023-06-03T10:01:24.757</time></trkpt><trkpt lat="55.9112350" lon="49.1668800"><time>2023-06-03T10:01:26.757</time></trkpt><trkpt lat="55.9112883" lon="49.1667783"><time>2023-06-03T10:01:28.743</time></trkpt><trkpt lat="55.9113383" lon="49.1666717"><time>2023-06-03T10:01:30.753</time></trkpt><trkpt lat="55.9113800" lon="49.1665750"><time>2023-06-03T10:01:32.750</time></trkpt><trkpt lat="55.9114300" lon="49.1664717"><time>2023-06-03T10:01:34.747</time></trkpt><trkpt lat="55.9114867" lon="49.1663733"><time>2023-06-03T10:01:36.737</time></trkpt><trkpt lat="55.9115350" lon="49.1662733"><time>2023-06-03T10:01:38.750</time></trkpt><trkpt lat="55.9115867" lon="49.1661817"><time>2023-06-03T10:01:40.747</time></trkpt><trkpt lat="55.9116450" lon="49.1660867"><time>2023-06-03T10:01:42.750</time></trkpt><trkpt lat="55.9117000" lon="49.1659800"><time>2023-06-03T10:01:44.747</time></trkpt><trkpt lat="55.9117550" lon="49.1658783"><time>2023-06-03T10:01:46.720</time></trkpt><trkpt lat="55.9118117" lon="49.1657817"><time>2023-06-03T10:01:48.753</time></trkpt><trkpt lat="55.9118517" lon="49.1656850"><time>2023-06-03T10:01:50.750</time></trkpt><trkpt lat="55.9118900" lon="49.1655867"><time>2023-06-03T10:01:52.747</time></trkpt><trkpt lat="55.9119350" lon="49.1654950"><time>2023-06-03T10:01:54.753</time></trkpt><trkpt lat="55.9119733" lon="49.1653900"><time>2023-06-03T10:01:56.733</time></trkpt><trkpt lat="55.9120167" lon="49.1652900"><time>2023-06-03T10:01:58.750</time></trkpt><trkpt lat="55.9120683" lon="49.1651933"><time>2023-06-03T10:02:00.750</time></trkpt><trkpt lat="55.9121117" lon="49.1651000"><time>2023-06-03T10:02:02.750</time></trkpt><trkpt lat="55.9121600" lon="49.1649983"><time>2023-06-03T10:02:04.750</time></trkpt><trkpt lat="55.9122050" lon="49.1648933"><time>2023-06-03T10:02:06.760</time></trkpt><trkpt lat="55.9122533" lon="49.1648033"><time>2023-06-03T10:02:08.753</time></trkpt><trkpt lat="55.9122967" lon="49.1647083"><time>2023-06-03T10:02:10.750</time></trkpt><trkpt lat="55.9123450" lon="49.1646167"><time>2023-06-03T10:02:12.757</time></trkpt><trkpt lat="55.9123933" lon="49.1645283"><time>2023-06-03T10:02:14.747</time></trkpt><trkpt lat="55.9124417" lon="49.1644333"><time>2023-06-03T10:02:16.747</time></trkpt><trkpt lat="55.9124850" lon="49.1643417"><time>2023-06-03T10:02:18.753</time></trkpt><trkpt lat="55.9125333" lon="49.1642667"><time>2023-06-03T10:02:20.760</time></trkpt><trkpt lat="55.9125783" lon="49.1641700"><time>2023-06-03T10:02:22.747</time></trkpt><trkpt lat="55.9126250" lon="49.1640717"><time>2023-06-03T10:02:24.747</time></trkpt><trkpt lat="55.9126717" lon="49.1639750"><time>2023-06-03T10:02:26.747</time></trkpt><trkpt lat="55.9127150" lon="49.1638883"><time>2023-06-03T10:02:28.753</time></trkpt><trkpt lat="55.9127583" lon="49.1638050"><time>2023-06-03T10:02:30.747</time></trkpt><trkpt lat="55.9127983" lon="49.1637217"><time>2023-06-03T10:02:32.753</time></trkpt><trkpt lat="55.9128367" lon="49.1636450"><time>2023-06-03T10:02:34.753</time></trkpt><trkpt lat="55.9128750" lon="49.1635683"><time>2023-06-03T10:02:37.727</time></trkpt><trkpt lat="55.9129133" lon="49.1635100"><time>2023-06-03T10:02:40.750</time></trkpt><trkpt lat="55.9129517" lon="49.1634517"><time>2023-06-03T10:02:43.753</time></trkpt><trkpt lat="55.9129767" lon="49.1633800"><time>2023-06-03T10:02:46.727</time></trkpt><trkpt lat="55.9130083" lon="49.1633067"><time>2023-06-03T10:02:49.747</time></trkpt><trkpt lat="55.9130517" lon="49.1632200"><time>2023-06-03T10:02:52.753</time></trkpt><trkpt lat="55.9130867" lon="49.1631567"><time>2023-06-03T10:02:54.753</time></trkpt><trkpt lat="55.9130983" lon="49.1632417"><time>2023-06-03T10:02:58.733</time></trkpt><trkpt lat="55.9130750" lon="49.1633650"><time>2023-06-03T10:03:00.750</time></trkpt><trkpt lat="55.9130550" lon="49.1634367"><time>2023-06-03T10:03:01.750</time></trkpt><trkpt lat="55.9130317" lon="49.1635100"><time>2023-06-03T10:03:02.753</time></trkpt><trkpt lat="55.9130083" lon="49.1635867"><time>2023-06-03T10:03:03.747</time></trkpt><trkpt lat="55.9129850" lon="49.1636667"><time>2023-06-03T10:03:04.747</time></trkpt><trkpt lat="55.9129567" lon="49.1637450"><time>2023-06-03T10:03:05.747</time></trkpt><trkpt lat="55.9129250" lon="49.1638167"><time>2023-06-03T10:03:06.753</time></trkpt><trkpt lat="55.9128883" lon="49.1638883"><time>2023-06-03T10:03:07.727</time></trkpt><trkpt lat="55.9128500" lon="49.1639633"><time>2023-06-03T10:03:08.733</time></trkpt><trkpt lat="55.9128067" lon="49.1640383"><time>2023-06-03T10:03:09.737</time></trkpt><trkpt lat="55.9127617" lon="49.1641067"><time>2023-06-03T10:03:10.747</time></trkpt><trkpt lat="55.9127167" lon="49.1641717"><time>2023-06-03T10:03:11.740</time></trkpt><trkpt lat="55.9126767" lon="49.1642433"><time>2023-06-03T10:03:12.757</time></trkpt><trkpt lat="55.9126333" lon="49.1643167"><time>2023-06-03T10:03:13.747</time></trkpt><trkpt lat="55.9125933" lon="49.1643933"><time>2023-06-03T10:03:14.757</time></trkpt><trkpt lat="55.9125567" lon="49.1644800"><time>2023-06-03T10:03:15.753</time></trkpt><trkpt lat="55.9125350" lon="49.1645750"><time>2023-06-03T10:03:16.750</time></trkpt><trkpt lat="55.9125300" lon="49.1646733"><time>2023-06-03T10:03:17.743</time></trkpt><trkpt lat="55.9125433" lon="49.1647833"><time>2023-06-03T10:03:18.740</time></trkpt><trkpt lat="55.9125733" lon="49.1648883"><time>2023-06-03T10:03:19.740</time></trkpt><trkpt lat="55.9126183" lon="49.1649800"><time>2023-06-03T10:03:20.740</time></trkpt><trkpt lat="55.9126617" lon="49.1650617"><time>2023-06-03T10:03:21.727</time></trkpt><trkpt lat="55.9127067" lon="49.1651383"><time>2023-06-03T10:03:22.743</time></trkpt><trkpt lat="55.9127483" lon="49.1652100"><time>2023-06-03T10:03:23.760</time></trkpt><trkpt lat="55.9127867" lon="49.1652733"><time>2023-06-03T10:03:24.750</time></trkpt><trkpt lat="55.9128217" lon="49.1653317"><time>2023-06-03T10:03:25.750</time></trkpt><trkpt lat="55.9128567" lon="49.1653900"><time>2023-06-03T10:03:26.753</time></trkpt><trkpt lat="55.9128867" lon="49.1654500"><time>2023-06-03T10:03:27.747</time></trkpt><trkpt lat="55.9129450" lon="49.1655517"><time>2023-06-03T10:03:29.750</time></trkpt><trkpt lat="55.9130000" lon="49.1656717"><time>2023-06-03T10:03:31.757</time></trkpt><trkpt lat="55.9130267" lon="49.1657433"><time>2023-06-03T10:03:32.747</time></trkpt><trkpt lat="55.9130567" lon="49.1658100"><time>2023-06-03T10:03:33.743</time></trkpt><trkpt lat="55.9130867" lon="49.1658733"><time>2023-06-03T10:03:34.743</time></trkpt><trkpt lat="55.9131167" lon="49.1659383"><time>2023-06-03T10:03:35.740</time></trkpt><trkpt lat="55.9131467" lon="49.1660017"><time>2023-06-03T10:03:36.737</time></trkpt><trkpt lat="55.9131783" lon="49.1660650"><time>2023-06-03T10:03:37.740</time></trkpt><trkpt lat="55.9132133" lon="49.1661250"><time>2023-06-03T10:03:38.737</time></trkpt><trkpt lat="55.9132433" lon="49.1661850"><time>2023-06-03T10:03:39.747</time></trkpt><trkpt lat="55.9133083" lon="49.1662883"><time>2023-06-03T10:03:41.740</time></trkpt><trkpt lat="55.9133783" lon="49.1663850"><time>2023-06-03T10:03:43.740</time></trkpt><trkpt lat="55.9134433" lon="49.1664850"><time>2023-06-03T10:03:45.743</time></trkpt><trkpt lat="55.9135133" lon="49.1665650"><time>2023-06-03T10:03:47.737</time></trkpt><trkpt lat="55.9135867" lon="49.1666450"><time>2023-06-03T10:03:49.753</time></trkpt><trkpt lat="55.9136500" lon="49.1667600"><time>2023-06-03T10:03:51.747</time></trkpt><trkpt lat="55.9137100" lon="49.1668550"><time>2023-06-03T10:03:53.740</time></trkpt><trkpt lat="55.9137800" lon="49.1669450"><time>2023-06-03T10:03:55.747</time></trkpt><trkpt lat="55.9138217" lon="49.1669900"><time>2023-06-03T10:03:56.747</time></trkpt><trkpt lat="55.9138900" lon="49.1670717"><time>2023-06-03T10:03:58.747</time></trkpt><trkpt lat="55.9139717" lon="49.1671200"><time>2023-06-03T10:04:00.747</time></trkpt><trkpt lat="55.9140467" lon="49.1671767"><time>2023-06-03T10:04:02.747</time></trkpt><trkpt lat="55.9141183" lon="49.1672500"><time>2023-06-03T10:04:04.737</time></trkpt><trkpt lat="55.9141717" lon="49.1673433"><time>2023-06-03T10:04:06.747</time></trkpt><trkpt lat="55.9142217" lon="49.1674217"><time>2023-06-03T10:04:08.737</time></trkpt><trkpt lat="55.9142467" lon="49.1675700"><time>2023-06-03T10:04:10.737</time></trkpt><trkpt lat="55.9142533" lon="49.1676550"><time>2023-06-03T10:04:11.740</time></trkpt><trkpt lat="55.9142633" lon="49.1677583"><time>2023-06-03T10:04:12.743</time></trkpt><trkpt lat="55.9142817" lon="49.1678500"><time>2023-06-03T10:04:13.743</time></trkpt><trkpt lat="55.9143083" lon="49.1679167"><time>2023-06-03T10:04:14.737</time></trkpt><trkpt lat="55.9143383" lon="49.1679850"><time>2023-06-03T10:04:15.740</time></trkpt><trkpt lat="55.9143833" lon="49.1680467"><time>2023-06-03T10:04:16.743</time></trkpt><trkpt lat="55.9144267" lon="49.1680967"><time>2023-06-03T10:04:17.747</time></trkpt><trkpt lat="55.9144717" lon="49.1681483"><time>2023-06-03T10:04:18.743</time></trkpt><trkpt lat="55.9145117" lon="49.1681950"><time>2023-06-03T10:04:19.743</time></trkpt><trkpt lat="55.9145533" lon="49.1682450"><time>2023-06-03T10:04:20.743</time></trkpt><trkpt lat="55.9145833" lon="49.1683050"><time>2023-06-03T10:04:21.723</time></trkpt><trkpt lat="55.9146050" lon="49.1683867"><time>2023-06-03T10:04:22.723</time></trkpt><trkpt lat="55.9146250" lon="49.1684733"><time>2023-06-03T10:04:23.740</time></trkpt><trkpt lat="55.9146350" lon="49.1685717"><time>2023-06-03T10:04:24.743</time></trkpt><trkpt lat="55.9146433" lon="49.1686783"><time>2023-06-03T10:04:25.737</time></trkpt><trkpt lat="55.9146517" lon="49.1687900"><time>2023-06-03T10:04:26.753</time></trkpt><trkpt lat="55.9146650" lon="49.1688883"><time>2023-06-03T10:04:27.747</time></trkpt><trkpt lat="55.9146733" lon="49.1689900"><time>2023-06-03T10:04:28.743</time></trkpt><trkpt lat="55.9146717" lon="49.1690883"><time>2023-06-03T10:04:29.740</time></trkpt><trkpt lat="55.9146750" lon="49.1691750"><time>2023-06-03T10:04:30.743</time></trkpt><trkpt lat="55.9146800" lon="49.1692667"><time>2023-06-03T10:04:31.723</time></trkpt><trkpt lat="55.9146783" lon="49.1693517"><time>2023-06-03T10:04:32.723</time></trkpt><trkpt lat="55.9146750" lon="49.1695100"><time>2023-06-03T10:04:34.737</time></trkpt><trkpt lat="55.9146700" lon="49.1696050"><time>2023-06-03T10:04:35.747</time></trkpt><trkpt lat="55.9146750" lon="49.1696967"><time>2023-06-03T10:04:36.740</time></trkpt><trkpt lat="55.9146850" lon="49.1697867"><time>2023-06-03T10:04:37.737</time></trkpt><trkpt lat="55.9146950" lon="49.1698700"><time>2023-06-03T10:04:38.747</time></trkpt><trkpt lat="55.9146983" lon="49.1699517"><time>2023-06-03T10:04:39.747</time></trkpt><trkpt lat="55.9147083" lon="49.1700367"><time>2023-06-03T10:04:40.737</time></trkpt><trkpt lat="55.9147167" lon="49.1701233"><time>2023-06-03T10:04:41.737</time></trkpt><trkpt lat="55.9147367" lon="49.1701983"><time>2023-06-03T10:04:42.737</time></trkpt><trkpt lat="55.9147667" lon="49.1702667"><time>2023-06-03T10:04:43.747</time></trkpt><trkpt lat="55.9147950" lon="49.1703400"><time>2023-06-03T10:04:44.747</time></trkpt><trkpt lat="55.9148217" lon="49.1704100"><time>2023-06-03T10:04:45.743</time></trkpt><trkpt lat="55.9148483" lon="49.1704850"><time>2023-06-03T10:04:46.757</time></trkpt><trkpt lat="55.9148767" lon="49.1705550"><time>2023-06-03T10:04:47.743</time></trkpt><trkpt lat="55.9149083" lon="49.1706150"><time>2023-06-03T10:04:48.733</time></trkpt><trkpt lat="55.9149667" lon="49.1707350"><time>2023-06-03T10:04:50.743</time></trkpt><trkpt lat="55.9149983" lon="49.1707983"><time>2023-06-03T10:04:51.740</time></trkpt><trkpt lat="55.9150600" lon="49.1709233"><time>2023-06-03T10:04:53.743</time></trkpt><trkpt lat="55.9150900" lon="49.1710000"><time>2023-06-03T10:04:54.740</time></trkpt><trkpt lat="55.9151533" lon="49.1711233"><time>2023-06-03T10:04:56.733</time></trkpt><trkpt lat="55.9151883" lon="49.1711767"><time>2023-06-03T10:04:57.743</time></trkpt><trkpt lat="55.9152267" lon="49.1712367"><time>2023-06-03T10:04:58.753</time></trkpt><trkpt lat="55.9152700" lon="49.1712833"><time>2023-06-03T10:04:59.740</time></trkpt><trkpt lat="55.9153383" lon="49.1713850"><time>2023-06-03T10:05:01.740</time></trkpt><trkpt lat="55.9153733" lon="49.1714483"><time>2023-06-03T10:05:02.747</time></trkpt><trkpt lat="55.9154417" lon="49.1715617"><time>2023-06-03T10:05:04.743</time></trkpt><trkpt lat="55.9155017" lon="49.1716583"><time>2023-06-03T10:05:06.747</time></trkpt><trkpt lat="55.9155500" lon="49.1717650"><time>2023-06-03T10:05:08.743</time></trkpt><trkpt lat="55.9155933" lon="49.1718700"><time>2023-06-03T10:05:10.743</time></trkpt><trkpt lat="55.9156467" lon="49.1719800"><time>2023-06-03T10:05:12.743</time></trkpt><trkpt lat="55.9157067" lon="49.1720800"><time>2023-06-03T10:05:14.747</time></trkpt><trkpt lat="55.9157700" lon="49.1721950"><time>2023-06-03T10:05:16.743</time></trkpt><trkpt lat="55.9157967" lon="49.1722600"><time>2023-06-03T10:05:17.740</time></trkpt><trkpt lat="55.9158567" lon="49.1723667"><time>2023-06-03T10:05:19.740</time></trkpt><trkpt lat="55.9159000" lon="49.1724117"><time>2023-06-03T10:05:20.740</time></trkpt><trkpt lat="55.9159333" lon="49.1724667"><time>2023-06-03T10:05:21.750</time></trkpt><trkpt lat="55.9159650" lon="49.1725400"><time>2023-06-03T10:05:22.743</time></trkpt><trkpt lat="55.9159917" lon="49.1726217"><time>2023-06-03T10:05:23.743</time></trkpt><trkpt lat="55.9160217" lon="49.1727050"><time>2023-06-03T10:05:24.740</time></trkpt><trkpt lat="55.9160550" lon="49.1727767"><time>2023-06-03T10:05:25.743</time></trkpt><trkpt lat="55.9160850" lon="49.1728517"><time>2023-06-03T10:05:26.723</time></trkpt><trkpt lat="55.9161083" lon="49.1729333"><time>2023-06-03T10:05:27.723</time></trkpt><trkpt lat="55.9161300" lon="49.1730150"><time>2023-06-03T10:05:28.733</time></trkpt><trkpt lat="55.9161517" lon="49.1730950"><time>2023-06-03T10:05:29.737</time></trkpt><trkpt lat="55.9161750" lon="49.1731650"><time>2023-06-03T10:05:30.743</time></trkpt><trkpt lat="55.9162300" lon="49.1732600"><time>2023-06-03T10:05:32.727</time></trkpt><trkpt lat="55.9162750" lon="49.1733300"><time>2023-06-03T10:05:34.727</time></trkpt><trkpt lat="55.9163217" lon="49.1733867"><time>2023-06-03T10:05:36.727</time></trkpt><trkpt lat="55.9163733" lon="49.1734083"><time>2023-06-03T10:05:38.750</time></trkpt><trkpt lat="55.9164183" lon="49.1734783"><time>2023-06-03T10:05:41.737</time></trkpt></trkseg></trk></gpx>